<?xml version="1.0" encoding="UTF-8" standalone="no" ?>
<gpx xmlns="http://www.topografix.com/GPX/1/1" xmlns:xsi="http://www.w3.org/2001/XMLSchema-instance" xsi:schemaLocation="http://www.topografix.com/GPX/1/1 http://www.topografix.com/GPX/1/1/gpx.xsd" version="1.1" creator="VisuGPX - https://www.visugpx.com">
  <metadata>
    <name>Thurins - Yzeron - Rontalon</name>
    <desc><![CDATA[Un grand classique avec ses montées casse-pattes et ses descentes filantes et parfois piègeuses...]]></desc>
  </metadata>
  <trk>
    <name><![CDATA[TracÃ© actuel: 05 MAI 2012 08:02]]></name>
    <trkseg>
      <trkpt lat="45.67862" lon="4.64919">
        <ele>330</ele>
        <time>2012-05-05T06:02:15Z</time>
      </trkpt>
      <trkpt lat="45.67863" lon="4.64921">
        <ele>330</ele>
        <time>2012-05-05T06:02:24Z</time>
      </trkpt>
      <trkpt lat="45.67867" lon="4.64934">
        <ele>330</ele>
        <time>2012-05-05T06:02:30Z</time>
      </trkpt>
      <trkpt lat="45.6787" lon="4.64962">
        <ele>330</ele>
        <time>2012-05-05T06:02:38Z</time>
      </trkpt>
      <trkpt lat="45.67878" lon="4.64979">
        <ele>330</ele>
        <time>2012-05-05T06:02:44Z</time>
      </trkpt>
      <trkpt lat="45.67892" lon="4.64985">
        <ele>330</ele>
        <time>2012-05-05T06:02:51Z</time>
      </trkpt>
      <trkpt lat="45.679" lon="4.6498">
        <ele>330</ele>
        <time>2012-05-05T06:02:56Z</time>
      </trkpt>
      <trkpt lat="45.67913" lon="4.64994">
        <ele>329</ele>
        <time>2012-05-05T06:03:02Z</time>
      </trkpt>
      <trkpt lat="45.67932" lon="4.65028">
        <ele>329</ele>
        <time>2012-05-05T06:03:11Z</time>
      </trkpt>
      <trkpt lat="45.67945" lon="4.65055">
        <ele>330</ele>
        <time>2012-05-05T06:03:18Z</time>
      </trkpt>
      <trkpt lat="45.67963" lon="4.6509">
        <ele>330</ele>
        <time>2012-05-05T06:03:26Z</time>
      </trkpt>
      <trkpt lat="45.67976" lon="4.65123">
        <ele>329</ele>
        <time>2012-05-05T06:03:33Z</time>
      </trkpt>
      <trkpt lat="45.67975" lon="4.6514">
        <ele>329</ele>
        <time>2012-05-05T06:03:36Z</time>
      </trkpt>
      <trkpt lat="45.67974" lon="4.65146">
        <ele>329</ele>
        <time>2012-05-05T06:03:37Z</time>
      </trkpt>
      <trkpt lat="45.67964" lon="4.65191">
        <ele>330</ele>
        <time>2012-05-05T06:03:45Z</time>
      </trkpt>
      <trkpt lat="45.67957" lon="4.6522">
        <ele>330</ele>
        <time>2012-05-05T06:03:50Z</time>
      </trkpt>
      <trkpt lat="45.67956" lon="4.65226">
        <ele>331</ele>
        <time>2012-05-05T06:03:51Z</time>
      </trkpt>
      <trkpt lat="45.6795" lon="4.65306">
        <ele>330</ele>
        <time>2012-05-05T06:04:04Z</time>
      </trkpt>
      <trkpt lat="45.67949" lon="4.65344">
        <ele>330</ele>
        <time>2012-05-05T06:04:10Z</time>
      </trkpt>
      <trkpt lat="45.67949" lon="4.65382">
        <ele>330</ele>
        <time>2012-05-05T06:04:16Z</time>
      </trkpt>
      <trkpt lat="45.67949" lon="4.65388">
        <ele>330</ele>
        <time>2012-05-05T06:04:17Z</time>
      </trkpt>
      <trkpt lat="45.67951" lon="4.6545">
        <ele>328</ele>
        <time>2012-05-05T06:04:27Z</time>
      </trkpt>
      <trkpt lat="45.67952" lon="4.65474">
        <ele>328</ele>
        <time>2012-05-05T06:04:31Z</time>
      </trkpt>
      <trkpt lat="45.67951" lon="4.65486">
        <ele>328</ele>
        <time>2012-05-05T06:04:33Z</time>
      </trkpt>
      <trkpt lat="45.67951" lon="4.65492">
        <ele>327</ele>
        <time>2012-05-05T06:04:34Z</time>
      </trkpt>
      <trkpt lat="45.67946" lon="4.65545">
        <ele>327</ele>
        <time>2012-05-05T06:04:43Z</time>
      </trkpt>
      <trkpt lat="45.67936" lon="4.65601">
        <ele>326</ele>
        <time>2012-05-05T06:04:52Z</time>
      </trkpt>
      <trkpt lat="45.6792" lon="4.65659">
        <ele>325</ele>
        <time>2012-05-05T06:05:01Z</time>
      </trkpt>
      <trkpt lat="45.67907" lon="4.65708">
        <ele>323</ele>
        <time>2012-05-05T06:05:08Z</time>
      </trkpt>
      <trkpt lat="45.67906" lon="4.65715">
        <ele>324</ele>
        <time>2012-05-05T06:05:09Z</time>
      </trkpt>
      <trkpt lat="45.67905" lon="4.65724">
        <ele>323</ele>
        <time>2012-05-05T06:05:10Z</time>
      </trkpt>
      <trkpt lat="45.67907" lon="4.65785">
        <ele>322</ele>
        <time>2012-05-05T06:05:17Z</time>
      </trkpt>
      <trkpt lat="45.67912" lon="4.65827">
        <ele>321</ele>
        <time>2012-05-05T06:05:22Z</time>
      </trkpt>
      <trkpt lat="45.67912" lon="4.65834">
        <ele>321</ele>
        <time>2012-05-05T06:05:23Z</time>
      </trkpt>
      <trkpt lat="45.67912" lon="4.65841">
        <ele>321</ele>
        <time>2012-05-05T06:05:24Z</time>
      </trkpt>
      <trkpt lat="45.67913" lon="4.65846">
        <ele>321</ele>
        <time>2012-05-05T06:05:25Z</time>
      </trkpt>
      <trkpt lat="45.67913" lon="4.6585">
        <ele>321</ele>
        <time>2012-05-05T06:05:26Z</time>
      </trkpt>
      <trkpt lat="45.67913" lon="4.65853">
        <ele>321</ele>
        <time>2012-05-05T06:05:27Z</time>
      </trkpt>
      <trkpt lat="45.67918" lon="4.65868">
        <ele>321</ele>
        <time>2012-05-05T06:05:32Z</time>
      </trkpt>
      <trkpt lat="45.67921" lon="4.6587">
        <ele>321</ele>
        <time>2012-05-05T06:05:33Z</time>
      </trkpt>
      <trkpt lat="45.67923" lon="4.6587">
        <ele>321</ele>
        <time>2012-05-05T06:05:34Z</time>
      </trkpt>
      <trkpt lat="45.67926" lon="4.65869">
        <ele>321</ele>
        <time>2012-05-05T06:05:35Z</time>
      </trkpt>
      <trkpt lat="45.6793" lon="4.65868">
        <ele>321</ele>
        <time>2012-05-05T06:05:36Z</time>
      </trkpt>
      <trkpt lat="45.67933" lon="4.65865">
        <ele>321</ele>
        <time>2012-05-05T06:05:37Z</time>
      </trkpt>
      <trkpt lat="45.67937" lon="4.65862">
        <ele>321</ele>
        <time>2012-05-05T06:05:38Z</time>
      </trkpt>
      <trkpt lat="45.6794" lon="4.65863">
        <ele>320</ele>
        <time>2012-05-05T06:05:39Z</time>
      </trkpt>
      <trkpt lat="45.67943" lon="4.65866">
        <ele>320</ele>
        <time>2012-05-05T06:05:40Z</time>
      </trkpt>
      <trkpt lat="45.67943" lon="4.65869">
        <ele>320</ele>
        <time>2012-05-05T06:05:41Z</time>
      </trkpt>
      <trkpt lat="45.67943" lon="4.65872">
        <ele>321</ele>
        <time>2012-05-05T06:05:43Z</time>
      </trkpt>
      <trkpt lat="45.67943" lon="4.65873">
        <ele>321</ele>
        <time>2012-05-05T06:05:44Z</time>
      </trkpt>
      <trkpt lat="45.67944" lon="4.65893">
        <ele>324</ele>
        <time>2012-05-05T06:05:53Z</time>
      </trkpt>
      <trkpt lat="45.67945" lon="4.65908">
        <ele>325</ele>
        <time>2012-05-05T06:06:00Z</time>
      </trkpt>
      <trkpt lat="45.67944" lon="4.65911">
        <ele>325</ele>
        <time>2012-05-05T06:06:01Z</time>
      </trkpt>
      <trkpt lat="45.67938" lon="4.65935">
        <ele>326</ele>
        <time>2012-05-05T06:06:10Z</time>
      </trkpt>
      <trkpt lat="45.67938" lon="4.65939">
        <ele>326</ele>
        <time>2012-05-05T06:06:11Z</time>
      </trkpt>
      <trkpt lat="45.6794" lon="4.65944">
        <ele>326</ele>
        <time>2012-05-05T06:06:12Z</time>
      </trkpt>
      <trkpt lat="45.67942" lon="4.65946">
        <ele>325</ele>
        <time>2012-05-05T06:06:13Z</time>
      </trkpt>
      <trkpt lat="45.67949" lon="4.65953">
        <ele>326</ele>
        <time>2012-05-05T06:06:18Z</time>
      </trkpt>
      <trkpt lat="45.6795" lon="4.65955">
        <ele>326</ele>
        <time>2012-05-05T06:06:19Z</time>
      </trkpt>
      <trkpt lat="45.6795" lon="4.65957">
        <ele>326</ele>
        <time>2012-05-05T06:06:20Z</time>
      </trkpt>
      <trkpt lat="45.67951" lon="4.65959">
        <ele>326</ele>
        <time>2012-05-05T06:06:21Z</time>
      </trkpt>
      <trkpt lat="45.67951" lon="4.65961">
        <ele>327</ele>
        <time>2012-05-05T06:06:22Z</time>
      </trkpt>
      <trkpt lat="45.67952" lon="4.65963">
        <ele>327</ele>
        <time>2012-05-05T06:06:23Z</time>
      </trkpt>
      <trkpt lat="45.67954" lon="4.65975">
        <ele>328</ele>
        <time>2012-05-05T06:06:28Z</time>
      </trkpt>
      <trkpt lat="45.67958" lon="4.6598">
        <ele>330</ele>
        <time>2012-05-05T06:06:32Z</time>
      </trkpt>
      <trkpt lat="45.67968" lon="4.65975">
        <ele>332</ele>
        <time>2012-05-05T06:06:39Z</time>
      </trkpt>
      <trkpt lat="45.67979" lon="4.65965">
        <ele>334</ele>
        <time>2012-05-05T06:06:48Z</time>
      </trkpt>
      <trkpt lat="45.6799" lon="4.65954">
        <ele>335</ele>
        <time>2012-05-05T06:06:57Z</time>
      </trkpt>
      <trkpt lat="45.68003" lon="4.65951">
        <ele>338</ele>
        <time>2012-05-05T06:07:06Z</time>
      </trkpt>
      <trkpt lat="45.68009" lon="4.65957">
        <ele>339</ele>
        <time>2012-05-05T06:07:13Z</time>
      </trkpt>
      <trkpt lat="45.68017" lon="4.65973">
        <ele>341</ele>
        <time>2012-05-05T06:07:24Z</time>
      </trkpt>
      <trkpt lat="45.68025" lon="4.6599">
        <ele>344</ele>
        <time>2012-05-05T06:07:35Z</time>
      </trkpt>
      <trkpt lat="45.68027" lon="4.65992">
        <ele>344</ele>
        <time>2012-05-05T06:07:37Z</time>
      </trkpt>
      <trkpt lat="45.68028" lon="4.65993">
        <ele>344</ele>
        <time>2012-05-05T06:07:38Z</time>
      </trkpt>
      <trkpt lat="45.68029" lon="4.65994">
        <ele>344</ele>
        <time>2012-05-05T06:07:39Z</time>
      </trkpt>
      <trkpt lat="45.6803" lon="4.65996">
        <ele>344</ele>
        <time>2012-05-05T06:07:40Z</time>
      </trkpt>
      <trkpt lat="45.68031" lon="4.65998">
        <ele>345</ele>
        <time>2012-05-05T06:07:41Z</time>
      </trkpt>
      <trkpt lat="45.68032" lon="4.65999">
        <ele>345</ele>
        <time>2012-05-05T06:07:42Z</time>
      </trkpt>
      <trkpt lat="45.68034" lon="4.66">
        <ele>345</ele>
        <time>2012-05-05T06:07:43Z</time>
      </trkpt>
      <trkpt lat="45.68045" lon="4.66013">
        <ele>346</ele>
        <time>2012-05-05T06:07:52Z</time>
      </trkpt>
      <trkpt lat="45.68058" lon="4.66027">
        <ele>347</ele>
        <time>2012-05-05T06:08:02Z</time>
      </trkpt>
      <trkpt lat="45.68069" lon="4.66039">
        <ele>348</ele>
        <time>2012-05-05T06:08:10Z</time>
      </trkpt>
      <trkpt lat="45.6808" lon="4.66046">
        <ele>349</ele>
        <time>2012-05-05T06:08:17Z</time>
      </trkpt>
      <trkpt lat="45.68095" lon="4.6606">
        <ele>351</ele>
        <time>2012-05-05T06:08:27Z</time>
      </trkpt>
      <trkpt lat="45.6811" lon="4.66072">
        <ele>351</ele>
        <time>2012-05-05T06:08:37Z</time>
      </trkpt>
      <trkpt lat="45.68122" lon="4.66079">
        <ele>352</ele>
        <time>2012-05-05T06:08:44Z</time>
      </trkpt>
      <trkpt lat="45.68133" lon="4.6609">
        <ele>354</ele>
        <time>2012-05-05T06:08:52Z</time>
      </trkpt>
      <trkpt lat="45.68148" lon="4.66102">
        <ele>356</ele>
        <time>2012-05-05T06:09:03Z</time>
      </trkpt>
      <trkpt lat="45.68159" lon="4.66109">
        <ele>357</ele>
        <time>2012-05-05T06:09:11Z</time>
      </trkpt>
      <trkpt lat="45.68172" lon="4.66119">
        <ele>359</ele>
        <time>2012-05-05T06:09:20Z</time>
      </trkpt>
      <trkpt lat="45.68182" lon="4.6613">
        <ele>360</ele>
        <time>2012-05-05T06:09:28Z</time>
      </trkpt>
      <trkpt lat="45.68196" lon="4.66148">
        <ele>361</ele>
        <time>2012-05-05T06:09:39Z</time>
      </trkpt>
      <trkpt lat="45.6821" lon="4.66162">
        <ele>362</ele>
        <time>2012-05-05T06:09:48Z</time>
      </trkpt>
      <trkpt lat="45.68222" lon="4.66172">
        <ele>363</ele>
        <time>2012-05-05T06:09:55Z</time>
      </trkpt>
      <trkpt lat="45.68227" lon="4.66177">
        <ele>363</ele>
        <time>2012-05-05T06:09:58Z</time>
      </trkpt>
      <trkpt lat="45.68229" lon="4.66179">
        <ele>363</ele>
        <time>2012-05-05T06:09:59Z</time>
      </trkpt>
      <trkpt lat="45.6823" lon="4.66181">
        <ele>363</ele>
        <time>2012-05-05T06:10:00Z</time>
      </trkpt>
      <trkpt lat="45.68232" lon="4.66183">
        <ele>363</ele>
        <time>2012-05-05T06:10:01Z</time>
      </trkpt>
      <trkpt lat="45.68234" lon="4.66184">
        <ele>364</ele>
        <time>2012-05-05T06:10:02Z</time>
      </trkpt>
      <trkpt lat="45.68235" lon="4.66186">
        <ele>364</ele>
        <time>2012-05-05T06:10:03Z</time>
      </trkpt>
      <trkpt lat="45.68237" lon="4.66188">
        <ele>364</ele>
        <time>2012-05-05T06:10:04Z</time>
      </trkpt>
      <trkpt lat="45.6824" lon="4.66189">
        <ele>364</ele>
        <time>2012-05-05T06:10:10Z</time>
      </trkpt>
      <trkpt lat="45.6824" lon="4.66189">
        <ele>364</ele>
        <time>2012-05-05T06:10:20Z</time>
      </trkpt>
      <trkpt lat="45.68239" lon="4.6619">
        <ele>364</ele>
        <time>2012-05-05T06:10:27Z</time>
      </trkpt>
      <trkpt lat="45.68239" lon="4.66189">
        <ele>364</ele>
        <time>2012-05-05T06:10:46Z</time>
      </trkpt>
      <trkpt lat="45.68238" lon="4.66189">
        <ele>363</ele>
        <time>2012-05-05T06:10:58Z</time>
      </trkpt>
      <trkpt lat="45.68238" lon="4.6619">
        <ele>363</ele>
        <time>2012-05-05T06:11:16Z</time>
      </trkpt>
      <trkpt lat="45.68238" lon="4.66189">
        <ele>364</ele>
        <time>2012-05-05T06:11:33Z</time>
      </trkpt>
      <trkpt lat="45.68238" lon="4.66189">
        <ele>363</ele>
        <time>2012-05-05T06:11:47Z</time>
      </trkpt>
      <trkpt lat="45.68238" lon="4.6619">
        <ele>364</ele>
        <time>2012-05-05T06:12:01Z</time>
      </trkpt>
      <trkpt lat="45.68239" lon="4.6619">
        <ele>364</ele>
        <time>2012-05-05T06:12:22Z</time>
      </trkpt>
      <trkpt lat="45.6824" lon="4.66189">
        <ele>364</ele>
        <time>2012-05-05T06:12:41Z</time>
      </trkpt>
      <trkpt lat="45.6824" lon="4.66189">
        <ele>363</ele>
        <time>2012-05-05T06:12:58Z</time>
      </trkpt>
      <trkpt lat="45.6824" lon="4.6619">
        <ele>363</ele>
        <time>2012-05-05T06:13:11Z</time>
      </trkpt>
      <trkpt lat="45.6824" lon="4.6619">
        <ele>364</ele>
        <time>2012-05-05T06:13:20Z</time>
      </trkpt>
      <trkpt lat="45.68239" lon="4.6619">
        <ele>364</ele>
        <time>2012-05-05T06:13:36Z</time>
      </trkpt>
      <trkpt lat="45.6824" lon="4.6619">
        <ele>364</ele>
        <time>2012-05-05T06:13:57Z</time>
      </trkpt>
      <trkpt lat="45.6824" lon="4.6619">
        <ele>364</ele>
        <time>2012-05-05T06:14:15Z</time>
      </trkpt>
      <trkpt lat="45.68244" lon="4.66194">
        <ele>363</ele>
        <time>2012-05-05T06:14:27Z</time>
      </trkpt>
      <trkpt lat="45.68261" lon="4.66209">
        <ele>363</ele>
        <time>2012-05-05T06:14:34Z</time>
      </trkpt>
      <trkpt lat="45.68284" lon="4.66226">
        <ele>362</ele>
        <time>2012-05-05T06:14:42Z</time>
      </trkpt>
      <trkpt lat="45.68315" lon="4.66241">
        <ele>362</ele>
        <time>2012-05-05T06:14:51Z</time>
      </trkpt>
      <trkpt lat="45.68319" lon="4.66243">
        <ele>362</ele>
        <time>2012-05-05T06:14:52Z</time>
      </trkpt>
      <trkpt lat="45.68323" lon="4.66244">
        <ele>362</ele>
        <time>2012-05-05T06:14:53Z</time>
      </trkpt>
      <trkpt lat="45.68346" lon="4.66253">
        <ele>362</ele>
        <time>2012-05-05T06:14:59Z</time>
      </trkpt>
      <trkpt lat="45.68378" lon="4.66265">
        <ele>362</ele>
        <time>2012-05-05T06:15:08Z</time>
      </trkpt>
      <trkpt lat="45.68407" lon="4.6628">
        <ele>362</ele>
        <time>2012-05-05T06:15:16Z</time>
      </trkpt>
      <trkpt lat="45.68444" lon="4.66298">
        <ele>361</ele>
        <time>2012-05-05T06:15:26Z</time>
      </trkpt>
      <trkpt lat="45.68467" lon="4.66315">
        <ele>360</ele>
        <time>2012-05-05T06:15:33Z</time>
      </trkpt>
      <trkpt lat="45.68475" lon="4.6632">
        <ele>360</ele>
        <time>2012-05-05T06:15:35Z</time>
      </trkpt>
      <trkpt lat="45.68479" lon="4.66323">
        <ele>360</ele>
        <time>2012-05-05T06:15:36Z</time>
      </trkpt>
      <trkpt lat="45.68488" lon="4.66327">
        <ele>360</ele>
        <time>2012-05-05T06:15:38Z</time>
      </trkpt>
      <trkpt lat="45.68524" lon="4.66346">
        <ele>359</ele>
        <time>2012-05-05T06:15:46Z</time>
      </trkpt>
      <trkpt lat="45.68528" lon="4.66349">
        <ele>358</ele>
        <time>2012-05-05T06:15:47Z</time>
      </trkpt>
      <trkpt lat="45.68533" lon="4.66352">
        <ele>358</ele>
        <time>2012-05-05T06:15:48Z</time>
      </trkpt>
      <trkpt lat="45.68537" lon="4.66354">
        <ele>358</ele>
        <time>2012-05-05T06:15:49Z</time>
      </trkpt>
      <trkpt lat="45.68541" lon="4.66356">
        <ele>358</ele>
        <time>2012-05-05T06:15:50Z</time>
      </trkpt>
      <trkpt lat="45.68574" lon="4.6637">
        <ele>357</ele>
        <time>2012-05-05T06:15:57Z</time>
      </trkpt>
      <trkpt lat="45.68579" lon="4.66372">
        <ele>357</ele>
        <time>2012-05-05T06:15:58Z</time>
      </trkpt>
      <trkpt lat="45.68588" lon="4.66377">
        <ele>357</ele>
        <time>2012-05-05T06:16:00Z</time>
      </trkpt>
      <trkpt lat="45.68593" lon="4.66378">
        <ele>356</ele>
        <time>2012-05-05T06:16:01Z</time>
      </trkpt>
      <trkpt lat="45.68597" lon="4.6638">
        <ele>356</ele>
        <time>2012-05-05T06:16:02Z</time>
      </trkpt>
      <trkpt lat="45.68607" lon="4.66384">
        <ele>356</ele>
        <time>2012-05-05T06:16:04Z</time>
      </trkpt>
      <trkpt lat="45.68646" lon="4.66409">
        <ele>355</ele>
        <time>2012-05-05T06:16:13Z</time>
      </trkpt>
      <trkpt lat="45.6865" lon="4.66412">
        <ele>355</ele>
        <time>2012-05-05T06:16:14Z</time>
      </trkpt>
      <trkpt lat="45.68687" lon="4.6643">
        <ele>355</ele>
        <time>2012-05-05T06:16:22Z</time>
      </trkpt>
      <trkpt lat="45.68722" lon="4.66441">
        <ele>353</ele>
        <time>2012-05-05T06:16:30Z</time>
      </trkpt>
      <trkpt lat="45.68732" lon="4.66444">
        <ele>353</ele>
        <time>2012-05-05T06:16:32Z</time>
      </trkpt>
      <trkpt lat="45.68736" lon="4.66447">
        <ele>353</ele>
        <time>2012-05-05T06:16:33Z</time>
      </trkpt>
      <trkpt lat="45.6874" lon="4.66451">
        <ele>353</ele>
        <time>2012-05-05T06:16:34Z</time>
      </trkpt>
      <trkpt lat="45.68744" lon="4.66455">
        <ele>353</ele>
        <time>2012-05-05T06:16:35Z</time>
      </trkpt>
      <trkpt lat="45.68747" lon="4.6646">
        <ele>353</ele>
        <time>2012-05-05T06:16:36Z</time>
      </trkpt>
      <trkpt lat="45.6875" lon="4.66465">
        <ele>353</ele>
        <time>2012-05-05T06:16:37Z</time>
      </trkpt>
      <trkpt lat="45.68757" lon="4.66474">
        <ele>353</ele>
        <time>2012-05-05T06:16:39Z</time>
      </trkpt>
      <trkpt lat="45.68784" lon="4.66496">
        <ele>356</ele>
        <time>2012-05-05T06:16:47Z</time>
      </trkpt>
      <trkpt lat="45.68806" lon="4.66516">
        <ele>357</ele>
        <time>2012-05-05T06:16:55Z</time>
      </trkpt>
      <trkpt lat="45.68827" lon="4.66537">
        <ele>358</ele>
        <time>2012-05-05T06:17:03Z</time>
      </trkpt>
      <trkpt lat="45.68851" lon="4.66562">
        <ele>359</ele>
        <time>2012-05-05T06:17:12Z</time>
      </trkpt>
      <trkpt lat="45.68868" lon="4.66582">
        <ele>361</ele>
        <time>2012-05-05T06:17:19Z</time>
      </trkpt>
      <trkpt lat="45.6889" lon="4.66603">
        <ele>362</ele>
        <time>2012-05-05T06:17:27Z</time>
      </trkpt>
      <trkpt lat="45.68919" lon="4.66621">
        <ele>364</ele>
        <time>2012-05-05T06:17:37Z</time>
      </trkpt>
      <trkpt lat="45.68946" lon="4.66631">
        <ele>364</ele>
        <time>2012-05-05T06:17:46Z</time>
      </trkpt>
      <trkpt lat="45.68962" lon="4.66638">
        <ele>364</ele>
        <time>2012-05-05T06:17:52Z</time>
      </trkpt>
      <trkpt lat="45.68963" lon="4.66637">
        <ele>365</ele>
        <time>2012-05-05T06:17:53Z</time>
      </trkpt>
      <trkpt lat="45.68965" lon="4.66635">
        <ele>365</ele>
        <time>2012-05-05T06:17:54Z</time>
      </trkpt>
      <trkpt lat="45.68975" lon="4.66606">
        <ele>366</ele>
        <time>2012-05-05T06:18:01Z</time>
      </trkpt>
      <trkpt lat="45.68989" lon="4.66574">
        <ele>367</ele>
        <time>2012-05-05T06:18:09Z</time>
      </trkpt>
      <trkpt lat="45.69002" lon="4.66552">
        <ele>368</ele>
        <time>2012-05-05T06:18:16Z</time>
      </trkpt>
      <trkpt lat="45.69015" lon="4.66528">
        <ele>369</ele>
        <time>2012-05-05T06:18:24Z</time>
      </trkpt>
      <trkpt lat="45.69029" lon="4.66501">
        <ele>371</ele>
        <time>2012-05-05T06:18:33Z</time>
      </trkpt>
      <trkpt lat="45.69038" lon="4.66472">
        <ele>372</ele>
        <time>2012-05-05T06:18:41Z</time>
      </trkpt>
      <trkpt lat="45.69052" lon="4.66435">
        <ele>374</ele>
        <time>2012-05-05T06:18:52Z</time>
      </trkpt>
      <trkpt lat="45.69067" lon="4.66399">
        <ele>375</ele>
        <time>2012-05-05T06:19:03Z</time>
      </trkpt>
      <trkpt lat="45.69081" lon="4.66366">
        <ele>376</ele>
        <time>2012-05-05T06:19:13Z</time>
      </trkpt>
      <trkpt lat="45.69096" lon="4.66334">
        <ele>378</ele>
        <time>2012-05-05T06:19:23Z</time>
      </trkpt>
      <trkpt lat="45.69111" lon="4.66307">
        <ele>380</ele>
        <time>2012-05-05T06:19:33Z</time>
      </trkpt>
      <trkpt lat="45.69126" lon="4.66279">
        <ele>382</ele>
        <time>2012-05-05T06:19:43Z</time>
      </trkpt>
      <trkpt lat="45.69137" lon="4.66261">
        <ele>383</ele>
        <time>2012-05-05T06:19:51Z</time>
      </trkpt>
      <trkpt lat="45.69147" lon="4.66246">
        <ele>385</ele>
        <time>2012-05-05T06:20:00Z</time>
      </trkpt>
      <trkpt lat="45.69159" lon="4.66227">
        <ele>388</ele>
        <time>2012-05-05T06:20:10Z</time>
      </trkpt>
      <trkpt lat="45.69171" lon="4.6621">
        <ele>390</ele>
        <time>2012-05-05T06:20:19Z</time>
      </trkpt>
      <trkpt lat="45.69181" lon="4.66198">
        <ele>391</ele>
        <time>2012-05-05T06:20:26Z</time>
      </trkpt>
      <trkpt lat="45.69192" lon="4.66182">
        <ele>394</ele>
        <time>2012-05-05T06:20:35Z</time>
      </trkpt>
      <trkpt lat="45.69203" lon="4.66167">
        <ele>395</ele>
        <time>2012-05-05T06:20:43Z</time>
      </trkpt>
      <trkpt lat="45.69216" lon="4.66148">
        <ele>397</ele>
        <time>2012-05-05T06:20:53Z</time>
      </trkpt>
      <trkpt lat="45.69228" lon="4.66127">
        <ele>398</ele>
        <time>2012-05-05T06:21:03Z</time>
      </trkpt>
      <trkpt lat="45.69235" lon="4.6611">
        <ele>400</ele>
        <time>2012-05-05T06:21:11Z</time>
      </trkpt>
      <trkpt lat="45.69245" lon="4.66083">
        <ele>401</ele>
        <time>2012-05-05T06:21:22Z</time>
      </trkpt>
      <trkpt lat="45.69254" lon="4.66063">
        <ele>403</ele>
        <time>2012-05-05T06:21:31Z</time>
      </trkpt>
      <trkpt lat="45.69264" lon="4.66038">
        <ele>406</ele>
        <time>2012-05-05T06:21:41Z</time>
      </trkpt>
      <trkpt lat="45.69274" lon="4.66012">
        <ele>407</ele>
        <time>2012-05-05T06:21:51Z</time>
      </trkpt>
      <trkpt lat="45.69283" lon="4.65988">
        <ele>408</ele>
        <time>2012-05-05T06:22:00Z</time>
      </trkpt>
      <trkpt lat="45.69296" lon="4.65952">
        <ele>411</ele>
        <time>2012-05-05T06:22:13Z</time>
      </trkpt>
      <trkpt lat="45.69307" lon="4.65924">
        <ele>413</ele>
        <time>2012-05-05T06:22:23Z</time>
      </trkpt>
      <trkpt lat="45.69319" lon="4.65896">
        <ele>413</ele>
        <time>2012-05-05T06:22:33Z</time>
      </trkpt>
      <trkpt lat="45.6933" lon="4.6587">
        <ele>416</ele>
        <time>2012-05-05T06:22:43Z</time>
      </trkpt>
      <trkpt lat="45.69343" lon="4.65839">
        <ele>418</ele>
        <time>2012-05-05T06:22:55Z</time>
      </trkpt>
      <trkpt lat="45.69355" lon="4.65812">
        <ele>419</ele>
        <time>2012-05-05T06:23:05Z</time>
      </trkpt>
      <trkpt lat="45.69364" lon="4.65795">
        <ele>421</ele>
        <time>2012-05-05T06:23:12Z</time>
      </trkpt>
      <trkpt lat="45.69374" lon="4.65772">
        <ele>423</ele>
        <time>2012-05-05T06:23:21Z</time>
      </trkpt>
      <trkpt lat="45.69382" lon="4.65747">
        <ele>426</ele>
        <time>2012-05-05T06:23:31Z</time>
      </trkpt>
      <trkpt lat="45.69389" lon="4.65724">
        <ele>427</ele>
        <time>2012-05-05T06:23:40Z</time>
      </trkpt>
      <trkpt lat="45.69399" lon="4.65701">
        <ele>429</ele>
        <time>2012-05-05T06:23:50Z</time>
      </trkpt>
      <trkpt lat="45.69407" lon="4.65683">
        <ele>432</ele>
        <time>2012-05-05T06:23:58Z</time>
      </trkpt>
      <trkpt lat="45.6941" lon="4.65679">
        <ele>432</ele>
        <time>2012-05-05T06:24:00Z</time>
      </trkpt>
      <trkpt lat="45.69412" lon="4.65678">
        <ele>432</ele>
        <time>2012-05-05T06:24:01Z</time>
      </trkpt>
      <trkpt lat="45.69414" lon="4.65678">
        <ele>433</ele>
        <time>2012-05-05T06:24:02Z</time>
      </trkpt>
      <trkpt lat="45.69416" lon="4.65679">
        <ele>433</ele>
        <time>2012-05-05T06:24:03Z</time>
      </trkpt>
      <trkpt lat="45.69418" lon="4.6568">
        <ele>433</ele>
        <time>2012-05-05T06:24:04Z</time>
      </trkpt>
      <trkpt lat="45.69421" lon="4.65682">
        <ele>432</ele>
        <time>2012-05-05T06:24:05Z</time>
      </trkpt>
      <trkpt lat="45.69442" lon="4.65703">
        <ele>432</ele>
        <time>2012-05-05T06:24:12Z</time>
      </trkpt>
      <trkpt lat="45.69467" lon="4.65729">
        <ele>430</ele>
        <time>2012-05-05T06:24:19Z</time>
      </trkpt>
      <trkpt lat="45.69496" lon="4.65758">
        <ele>429</ele>
        <time>2012-05-05T06:24:25Z</time>
      </trkpt>
      <trkpt lat="45.69526" lon="4.65784">
        <ele>426</ele>
        <time>2012-05-05T06:24:30Z</time>
      </trkpt>
      <trkpt lat="45.69533" lon="4.65792">
        <ele>426</ele>
        <time>2012-05-05T06:24:31Z</time>
      </trkpt>
      <trkpt lat="45.69539" lon="4.65801">
        <ele>425</ele>
        <time>2012-05-05T06:24:32Z</time>
      </trkpt>
      <trkpt lat="45.69544" lon="4.65811">
        <ele>423</ele>
        <time>2012-05-05T06:24:33Z</time>
      </trkpt>
      <trkpt lat="45.69548" lon="4.65821">
        <ele>423</ele>
        <time>2012-05-05T06:24:34Z</time>
      </trkpt>
      <trkpt lat="45.69571" lon="4.65869">
        <ele>424</ele>
        <time>2012-05-05T06:24:40Z</time>
      </trkpt>
      <trkpt lat="45.69583" lon="4.65892">
        <ele>426</ele>
        <time>2012-05-05T06:24:45Z</time>
      </trkpt>
      <trkpt lat="45.69604" lon="4.65931">
        <ele>426</ele>
        <time>2012-05-05T06:24:54Z</time>
      </trkpt>
      <trkpt lat="45.69625" lon="4.65963">
        <ele>426</ele>
        <time>2012-05-05T06:25:02Z</time>
      </trkpt>
      <trkpt lat="45.69648" lon="4.65986">
        <ele>423</ele>
        <time>2012-05-05T06:25:07Z</time>
      </trkpt>
      <trkpt lat="45.69687" lon="4.66023">
        <ele>420</ele>
        <time>2012-05-05T06:25:13Z</time>
      </trkpt>
      <trkpt lat="45.69722" lon="4.66059">
        <ele>417</ele>
        <time>2012-05-05T06:25:18Z</time>
      </trkpt>
      <trkpt lat="45.69737" lon="4.66074">
        <ele>416</ele>
        <time>2012-05-05T06:25:20Z</time>
      </trkpt>
      <trkpt lat="45.69782" lon="4.6612">
        <ele>413</ele>
        <time>2012-05-05T06:25:26Z</time>
      </trkpt>
      <trkpt lat="45.69795" lon="4.66137">
        <ele>412</ele>
        <time>2012-05-05T06:25:28Z</time>
      </trkpt>
      <trkpt lat="45.69826" lon="4.66185">
        <ele>411</ele>
        <time>2012-05-05T06:25:34Z</time>
      </trkpt>
      <trkpt lat="45.69843" lon="4.66211">
        <ele>411</ele>
        <time>2012-05-05T06:25:39Z</time>
      </trkpt>
      <trkpt lat="45.69846" lon="4.66211">
        <ele>410</ele>
        <time>2012-05-05T06:25:40Z</time>
      </trkpt>
      <trkpt lat="45.69849" lon="4.66208">
        <ele>410</ele>
        <time>2012-05-05T06:25:41Z</time>
      </trkpt>
      <trkpt lat="45.6985" lon="4.66204">
        <ele>411</ele>
        <time>2012-05-05T06:25:42Z</time>
      </trkpt>
      <trkpt lat="45.6985" lon="4.662">
        <ele>411</ele>
        <time>2012-05-05T06:25:43Z</time>
      </trkpt>
      <trkpt lat="45.6985" lon="4.66172">
        <ele>413</ele>
        <time>2012-05-05T06:25:51Z</time>
      </trkpt>
      <trkpt lat="45.69851" lon="4.66143">
        <ele>415</ele>
        <time>2012-05-05T06:26:00Z</time>
      </trkpt>
      <trkpt lat="45.69852" lon="4.66119">
        <ele>416</ele>
        <time>2012-05-05T06:26:07Z</time>
      </trkpt>
      <trkpt lat="45.69858" lon="4.66082">
        <ele>418</ele>
        <time>2012-05-05T06:26:18Z</time>
      </trkpt>
      <trkpt lat="45.69864" lon="4.66056">
        <ele>420</ele>
        <time>2012-05-05T06:26:26Z</time>
      </trkpt>
      <trkpt lat="45.69869" lon="4.66027">
        <ele>422</ele>
        <time>2012-05-05T06:26:35Z</time>
      </trkpt>
      <trkpt lat="45.69871" lon="4.66009">
        <ele>424</ele>
        <time>2012-05-05T06:26:41Z</time>
      </trkpt>
      <trkpt lat="45.69873" lon="4.65983">
        <ele>425</ele>
        <time>2012-05-05T06:26:51Z</time>
      </trkpt>
      <trkpt lat="45.69875" lon="4.65961">
        <ele>426</ele>
        <time>2012-05-05T06:26:59Z</time>
      </trkpt>
      <trkpt lat="45.69877" lon="4.65945">
        <ele>427</ele>
        <time>2012-05-05T06:27:05Z</time>
      </trkpt>
      <trkpt lat="45.69879" lon="4.6592">
        <ele>428</ele>
        <time>2012-05-05T06:27:13Z</time>
      </trkpt>
      <trkpt lat="45.69883" lon="4.65894">
        <ele>429</ele>
        <time>2012-05-05T06:27:22Z</time>
      </trkpt>
      <trkpt lat="45.69885" lon="4.65866">
        <ele>431</ele>
        <time>2012-05-05T06:27:31Z</time>
      </trkpt>
      <trkpt lat="45.69887" lon="4.65846">
        <ele>432</ele>
        <time>2012-05-05T06:27:38Z</time>
      </trkpt>
      <trkpt lat="45.69888" lon="4.65822">
        <ele>433</ele>
        <time>2012-05-05T06:27:47Z</time>
      </trkpt>
      <trkpt lat="45.69886" lon="4.65802">
        <ele>434</ele>
        <time>2012-05-05T06:27:55Z</time>
      </trkpt>
      <trkpt lat="45.69884" lon="4.65782">
        <ele>436</ele>
        <time>2012-05-05T06:28:04Z</time>
      </trkpt>
      <trkpt lat="45.69884" lon="4.65766">
        <ele>437</ele>
        <time>2012-05-05T06:28:11Z</time>
      </trkpt>
      <trkpt lat="45.69885" lon="4.65746">
        <ele>438</ele>
        <time>2012-05-05T06:28:20Z</time>
      </trkpt>
      <trkpt lat="45.69886" lon="4.6573">
        <ele>439</ele>
        <time>2012-05-05T06:28:27Z</time>
      </trkpt>
      <trkpt lat="45.69886" lon="4.65726">
        <ele>439</ele>
        <time>2012-05-05T06:28:29Z</time>
      </trkpt>
      <trkpt lat="45.69886" lon="4.65724">
        <ele>440</ele>
        <time>2012-05-05T06:28:30Z</time>
      </trkpt>
      <trkpt lat="45.69886" lon="4.65721">
        <ele>440</ele>
        <time>2012-05-05T06:28:31Z</time>
      </trkpt>
      <trkpt lat="45.69886" lon="4.65719">
        <ele>440</ele>
        <time>2012-05-05T06:28:32Z</time>
      </trkpt>
      <trkpt lat="45.69886" lon="4.65717">
        <ele>441</ele>
        <time>2012-05-05T06:28:33Z</time>
      </trkpt>
      <trkpt lat="45.69886" lon="4.65715">
        <ele>441</ele>
        <time>2012-05-05T06:28:34Z</time>
      </trkpt>
      <trkpt lat="45.69886" lon="4.65713">
        <ele>441</ele>
        <time>2012-05-05T06:28:35Z</time>
      </trkpt>
      <trkpt lat="45.69888" lon="4.65693">
        <ele>443</ele>
        <time>2012-05-05T06:28:44Z</time>
      </trkpt>
      <trkpt lat="45.69888" lon="4.6569">
        <ele>443</ele>
        <time>2012-05-05T06:28:45Z</time>
      </trkpt>
      <trkpt lat="45.69888" lon="4.65688">
        <ele>443</ele>
        <time>2012-05-05T06:28:46Z</time>
      </trkpt>
      <trkpt lat="45.69888" lon="4.65686">
        <ele>444</ele>
        <time>2012-05-05T06:28:47Z</time>
      </trkpt>
      <trkpt lat="45.69888" lon="4.65684">
        <ele>443</ele>
        <time>2012-05-05T06:28:48Z</time>
      </trkpt>
      <trkpt lat="45.69887" lon="4.65681">
        <ele>444</ele>
        <time>2012-05-05T06:28:49Z</time>
      </trkpt>
      <trkpt lat="45.69887" lon="4.65679">
        <ele>444</ele>
        <time>2012-05-05T06:28:50Z</time>
      </trkpt>
      <trkpt lat="45.69886" lon="4.65677">
        <ele>444</ele>
        <time>2012-05-05T06:28:51Z</time>
      </trkpt>
      <trkpt lat="45.69885" lon="4.65675">
        <ele>444</ele>
        <time>2012-05-05T06:28:52Z</time>
      </trkpt>
      <trkpt lat="45.69884" lon="4.65674">
        <ele>445</ele>
        <time>2012-05-05T06:28:53Z</time>
      </trkpt>
      <trkpt lat="45.69882" lon="4.65673">
        <ele>445</ele>
        <time>2012-05-05T06:28:54Z</time>
      </trkpt>
      <trkpt lat="45.69881" lon="4.65673">
        <ele>445</ele>
        <time>2012-05-05T06:28:55Z</time>
      </trkpt>
      <trkpt lat="45.69868" lon="4.65673">
        <ele>446</ele>
        <time>2012-05-05T06:29:03Z</time>
      </trkpt>
      <trkpt lat="45.69854" lon="4.65673">
        <ele>447</ele>
        <time>2012-05-05T06:29:12Z</time>
      </trkpt>
      <trkpt lat="45.69842" lon="4.65664">
        <ele>449</ele>
        <time>2012-05-05T06:29:20Z</time>
      </trkpt>
      <trkpt lat="45.69839" lon="4.65659">
        <ele>449</ele>
        <time>2012-05-05T06:29:23Z</time>
      </trkpt>
      <trkpt lat="45.69838" lon="4.65658">
        <ele>449</ele>
        <time>2012-05-05T06:29:24Z</time>
      </trkpt>
      <trkpt lat="45.69837" lon="4.65657">
        <ele>450</ele>
        <time>2012-05-05T06:29:25Z</time>
      </trkpt>
      <trkpt lat="45.69835" lon="4.65656">
        <ele>450</ele>
        <time>2012-05-05T06:29:26Z</time>
      </trkpt>
      <trkpt lat="45.69834" lon="4.65655">
        <ele>450</ele>
        <time>2012-05-05T06:29:27Z</time>
      </trkpt>
      <trkpt lat="45.69832" lon="4.65654">
        <ele>450</ele>
        <time>2012-05-05T06:29:28Z</time>
      </trkpt>
      <trkpt lat="45.69831" lon="4.65653">
        <ele>450</ele>
        <time>2012-05-05T06:29:29Z</time>
      </trkpt>
      <trkpt lat="45.69817" lon="4.65641">
        <ele>452</ele>
        <time>2012-05-05T06:29:40Z</time>
      </trkpt>
      <trkpt lat="45.69816" lon="4.6564">
        <ele>453</ele>
        <time>2012-05-05T06:29:41Z</time>
      </trkpt>
      <trkpt lat="45.69815" lon="4.65638">
        <ele>453</ele>
        <time>2012-05-05T06:29:42Z</time>
      </trkpt>
      <trkpt lat="45.69808" lon="4.65621">
        <ele>455</ele>
        <time>2012-05-05T06:29:52Z</time>
      </trkpt>
      <trkpt lat="45.69808" lon="4.65617">
        <ele>455</ele>
        <time>2012-05-05T06:29:54Z</time>
      </trkpt>
      <trkpt lat="45.69809" lon="4.65604">
        <ele>457</ele>
        <time>2012-05-05T06:30:01Z</time>
      </trkpt>
      <trkpt lat="45.69808" lon="4.65589">
        <ele>459</ele>
        <time>2012-05-05T06:30:09Z</time>
      </trkpt>
      <trkpt lat="45.69804" lon="4.65572">
        <ele>461</ele>
        <time>2012-05-05T06:30:18Z</time>
      </trkpt>
      <trkpt lat="45.69803" lon="4.65571">
        <ele>461</ele>
        <time>2012-05-05T06:30:19Z</time>
      </trkpt>
      <trkpt lat="45.69802" lon="4.65569">
        <ele>462</ele>
        <time>2012-05-05T06:30:20Z</time>
      </trkpt>
      <trkpt lat="45.69799" lon="4.65553">
        <ele>463</ele>
        <time>2012-05-05T06:30:29Z</time>
      </trkpt>
      <trkpt lat="45.69795" lon="4.65534">
        <ele>465</ele>
        <time>2012-05-05T06:30:39Z</time>
      </trkpt>
      <trkpt lat="45.69791" lon="4.65517">
        <ele>466</ele>
        <time>2012-05-05T06:30:48Z</time>
      </trkpt>
      <trkpt lat="45.69789" lon="4.6551">
        <ele>467</ele>
        <time>2012-05-05T06:30:52Z</time>
      </trkpt>
      <trkpt lat="45.69789" lon="4.65508">
        <ele>468</ele>
        <time>2012-05-05T06:30:53Z</time>
      </trkpt>
      <trkpt lat="45.69788" lon="4.65506">
        <ele>467</ele>
        <time>2012-05-05T06:30:54Z</time>
      </trkpt>
      <trkpt lat="45.69787" lon="4.65505">
        <ele>468</ele>
        <time>2012-05-05T06:30:55Z</time>
      </trkpt>
      <trkpt lat="45.69786" lon="4.65503">
        <ele>468</ele>
        <time>2012-05-05T06:30:56Z</time>
      </trkpt>
      <trkpt lat="45.69779" lon="4.65486">
        <ele>470</ele>
        <time>2012-05-05T06:31:06Z</time>
      </trkpt>
      <trkpt lat="45.69774" lon="4.65471">
        <ele>472</ele>
        <time>2012-05-05T06:31:15Z</time>
      </trkpt>
      <trkpt lat="45.6977" lon="4.65462">
        <ele>474</ele>
        <time>2012-05-05T06:31:20Z</time>
      </trkpt>
      <trkpt lat="45.69767" lon="4.65448">
        <ele>475</ele>
        <time>2012-05-05T06:31:28Z</time>
      </trkpt>
      <trkpt lat="45.69763" lon="4.65436">
        <ele>477</ele>
        <time>2012-05-05T06:31:35Z</time>
      </trkpt>
      <trkpt lat="45.69761" lon="4.65423">
        <ele>479</ele>
        <time>2012-05-05T06:31:42Z</time>
      </trkpt>
      <trkpt lat="45.6976" lon="4.65422">
        <ele>479</ele>
        <time>2012-05-05T06:31:43Z</time>
      </trkpt>
      <trkpt lat="45.6976" lon="4.6542">
        <ele>480</ele>
        <time>2012-05-05T06:31:44Z</time>
      </trkpt>
      <trkpt lat="45.69759" lon="4.65415">
        <ele>481</ele>
        <time>2012-05-05T06:31:47Z</time>
      </trkpt>
      <trkpt lat="45.69759" lon="4.65413">
        <ele>481</ele>
        <time>2012-05-05T06:31:48Z</time>
      </trkpt>
      <trkpt lat="45.69759" lon="4.65412">
        <ele>481</ele>
        <time>2012-05-05T06:31:49Z</time>
      </trkpt>
      <trkpt lat="45.69757" lon="4.65391">
        <ele>484</ele>
        <time>2012-05-05T06:32:00Z</time>
      </trkpt>
      <trkpt lat="45.69755" lon="4.65373">
        <ele>486</ele>
        <time>2012-05-05T06:32:10Z</time>
      </trkpt>
      <trkpt lat="45.69751" lon="4.65357">
        <ele>488</ele>
        <time>2012-05-05T06:32:19Z</time>
      </trkpt>
      <trkpt lat="45.69752" lon="4.65343">
        <ele>489</ele>
        <time>2012-05-05T06:32:28Z</time>
      </trkpt>
      <trkpt lat="45.69755" lon="4.65331">
        <ele>491</ele>
        <time>2012-05-05T06:32:35Z</time>
      </trkpt>
      <trkpt lat="45.69755" lon="4.6532">
        <ele>493</ele>
        <time>2012-05-05T06:32:41Z</time>
      </trkpt>
      <trkpt lat="45.69752" lon="4.65315">
        <ele>494</ele>
        <time>2012-05-05T06:32:45Z</time>
      </trkpt>
      <trkpt lat="45.69749" lon="4.65311">
        <ele>495</ele>
        <time>2012-05-05T06:32:49Z</time>
      </trkpt>
      <trkpt lat="45.69744" lon="4.65305">
        <ele>496</ele>
        <time>2012-05-05T06:32:55Z</time>
      </trkpt>
      <trkpt lat="45.69737" lon="4.65298">
        <ele>497</ele>
        <time>2012-05-05T06:33:01Z</time>
      </trkpt>
      <trkpt lat="45.69736" lon="4.65294">
        <ele>497</ele>
        <time>2012-05-05T06:33:06Z</time>
      </trkpt>
      <trkpt lat="45.69733" lon="4.65287">
        <ele>499</ele>
        <time>2012-05-05T06:33:12Z</time>
      </trkpt>
      <trkpt lat="45.6973" lon="4.65279">
        <ele>500</ele>
        <time>2012-05-05T06:33:20Z</time>
      </trkpt>
      <trkpt lat="45.69729" lon="4.65272">
        <ele>501</ele>
        <time>2012-05-05T06:33:29Z</time>
      </trkpt>
      <trkpt lat="45.69728" lon="4.65271">
        <ele>502</ele>
        <time>2012-05-05T06:33:36Z</time>
      </trkpt>
      <trkpt lat="45.69728" lon="4.65269">
        <ele>501</ele>
        <time>2012-05-05T06:33:56Z</time>
      </trkpt>
      <trkpt lat="45.69728" lon="4.65269">
        <ele>502</ele>
        <time>2012-05-05T06:34:12Z</time>
      </trkpt>
      <trkpt lat="45.69728" lon="4.65266">
        <ele>502</ele>
        <time>2012-05-05T06:34:23Z</time>
      </trkpt>
      <trkpt lat="45.69722" lon="4.65255">
        <ele>503</ele>
        <time>2012-05-05T06:34:30Z</time>
      </trkpt>
      <trkpt lat="45.69715" lon="4.65245">
        <ele>504</ele>
        <time>2012-05-05T06:34:37Z</time>
      </trkpt>
      <trkpt lat="45.69708" lon="4.65233">
        <ele>506</ele>
        <time>2012-05-05T06:34:44Z</time>
      </trkpt>
      <trkpt lat="45.69707" lon="4.6523">
        <ele>506</ele>
        <time>2012-05-05T06:34:46Z</time>
      </trkpt>
      <trkpt lat="45.69708" lon="4.65228">
        <ele>506</ele>
        <time>2012-05-05T06:34:47Z</time>
      </trkpt>
      <trkpt lat="45.69713" lon="4.65216">
        <ele>508</ele>
        <time>2012-05-05T06:34:54Z</time>
      </trkpt>
      <trkpt lat="45.69714" lon="4.65211">
        <ele>509</ele>
        <time>2012-05-05T06:34:58Z</time>
      </trkpt>
      <trkpt lat="45.69713" lon="4.65209">
        <ele>509</ele>
        <time>2012-05-05T06:34:59Z</time>
      </trkpt>
      <trkpt lat="45.69713" lon="4.65208">
        <ele>509</ele>
        <time>2012-05-05T06:35:00Z</time>
      </trkpt>
      <trkpt lat="45.69715" lon="4.65202">
        <ele>510</ele>
        <time>2012-05-05T06:35:06Z</time>
      </trkpt>
      <trkpt lat="45.69716" lon="4.65201">
        <ele>510</ele>
        <time>2012-05-05T06:35:07Z</time>
      </trkpt>
      <trkpt lat="45.69717" lon="4.65194">
        <ele>511</ele>
        <time>2012-05-05T06:35:11Z</time>
      </trkpt>
      <trkpt lat="45.69717" lon="4.65191">
        <ele>511</ele>
        <time>2012-05-05T06:35:13Z</time>
      </trkpt>
      <trkpt lat="45.69718" lon="4.65188">
        <ele>511</ele>
        <time>2012-05-05T06:35:14Z</time>
      </trkpt>
      <trkpt lat="45.69718" lon="4.65186">
        <ele>511</ele>
        <time>2012-05-05T06:35:15Z</time>
      </trkpt>
      <trkpt lat="45.69721" lon="4.65175">
        <ele>513</ele>
        <time>2012-05-05T06:35:21Z</time>
      </trkpt>
      <trkpt lat="45.69725" lon="4.65163">
        <ele>513</ele>
        <time>2012-05-05T06:35:28Z</time>
      </trkpt>
      <trkpt lat="45.6973" lon="4.65151">
        <ele>515</ele>
        <time>2012-05-05T06:35:34Z</time>
      </trkpt>
      <trkpt lat="45.69736" lon="4.65139">
        <ele>515</ele>
        <time>2012-05-05T06:35:40Z</time>
      </trkpt>
      <trkpt lat="45.69738" lon="4.65135">
        <ele>516</ele>
        <time>2012-05-05T06:35:42Z</time>
      </trkpt>
      <trkpt lat="45.69739" lon="4.65132">
        <ele>516</ele>
        <time>2012-05-05T06:35:43Z</time>
      </trkpt>
      <trkpt lat="45.6974" lon="4.6513">
        <ele>516</ele>
        <time>2012-05-05T06:35:44Z</time>
      </trkpt>
      <trkpt lat="45.69742" lon="4.65124">
        <ele>516</ele>
        <time>2012-05-05T06:35:48Z</time>
      </trkpt>
      <trkpt lat="45.69743" lon="4.65122">
        <ele>517</ele>
        <time>2012-05-05T06:35:49Z</time>
      </trkpt>
      <trkpt lat="45.69744" lon="4.6512">
        <ele>516</ele>
        <time>2012-05-05T06:35:50Z</time>
      </trkpt>
      <trkpt lat="45.69745" lon="4.65118">
        <ele>517</ele>
        <time>2012-05-05T06:35:51Z</time>
      </trkpt>
      <trkpt lat="45.69747" lon="4.65116">
        <ele>517</ele>
        <time>2012-05-05T06:35:52Z</time>
      </trkpt>
      <trkpt lat="45.69748" lon="4.65115">
        <ele>517</ele>
        <time>2012-05-05T06:35:53Z</time>
      </trkpt>
      <trkpt lat="45.69749" lon="4.65113">
        <ele>517</ele>
        <time>2012-05-05T06:35:54Z</time>
      </trkpt>
      <trkpt lat="45.69751" lon="4.65106">
        <ele>517</ele>
        <time>2012-05-05T06:35:57Z</time>
      </trkpt>
      <trkpt lat="45.69752" lon="4.65104">
        <ele>518</ele>
        <time>2012-05-05T06:35:58Z</time>
      </trkpt>
      <trkpt lat="45.69752" lon="4.65102">
        <ele>518</ele>
        <time>2012-05-05T06:35:59Z</time>
      </trkpt>
      <trkpt lat="45.69752" lon="4.651">
        <ele>518</ele>
        <time>2012-05-05T06:36:00Z</time>
      </trkpt>
      <trkpt lat="45.69752" lon="4.65099">
        <ele>518</ele>
        <time>2012-05-05T06:36:01Z</time>
      </trkpt>
      <trkpt lat="45.69751" lon="4.65094">
        <ele>518</ele>
        <time>2012-05-05T06:36:04Z</time>
      </trkpt>
      <trkpt lat="45.69753" lon="4.65089">
        <ele>519</ele>
        <time>2012-05-05T06:36:06Z</time>
      </trkpt>
      <trkpt lat="45.69756" lon="4.65076">
        <ele>519</ele>
        <time>2012-05-05T06:36:13Z</time>
      </trkpt>
      <trkpt lat="45.69756" lon="4.65075">
        <ele>519</ele>
        <time>2012-05-05T06:36:24Z</time>
      </trkpt>
      <trkpt lat="45.69756" lon="4.65075">
        <ele>519</ele>
        <time>2012-05-05T06:36:46Z</time>
      </trkpt>
      <trkpt lat="45.69757" lon="4.65075">
        <ele>519</ele>
        <time>2012-05-05T06:37:04Z</time>
      </trkpt>
      <trkpt lat="45.69758" lon="4.65074">
        <ele>520</ele>
        <time>2012-05-05T06:37:24Z</time>
      </trkpt>
      <trkpt lat="45.69758" lon="4.65073">
        <ele>519</ele>
        <time>2012-05-05T06:37:44Z</time>
      </trkpt>
      <trkpt lat="45.69759" lon="4.65074">
        <ele>519</ele>
        <time>2012-05-05T06:38:03Z</time>
      </trkpt>
      <trkpt lat="45.69759" lon="4.65076">
        <ele>519</ele>
        <time>2012-05-05T06:38:22Z</time>
      </trkpt>
      <trkpt lat="45.69759" lon="4.65076">
        <ele>519</ele>
        <time>2012-05-05T06:38:43Z</time>
      </trkpt>
      <trkpt lat="45.6976" lon="4.65074">
        <ele>519</ele>
        <time>2012-05-05T06:38:59Z</time>
      </trkpt>
      <trkpt lat="45.6976" lon="4.65073">
        <ele>519</ele>
        <time>2012-05-05T06:39:06Z</time>
      </trkpt>
      <trkpt lat="45.69761" lon="4.65072">
        <ele>520</ele>
        <time>2012-05-05T06:39:07Z</time>
      </trkpt>
      <trkpt lat="45.69762" lon="4.65071">
        <ele>520</ele>
        <time>2012-05-05T06:39:08Z</time>
      </trkpt>
      <trkpt lat="45.69763" lon="4.65069">
        <ele>520</ele>
        <time>2012-05-05T06:39:09Z</time>
      </trkpt>
      <trkpt lat="45.69764" lon="4.65067">
        <ele>520</ele>
        <time>2012-05-05T06:39:10Z</time>
      </trkpt>
      <trkpt lat="45.69765" lon="4.65065">
        <ele>520</ele>
        <time>2012-05-05T06:39:11Z</time>
      </trkpt>
      <trkpt lat="45.69766" lon="4.65064">
        <ele>520</ele>
        <time>2012-05-05T06:39:12Z</time>
      </trkpt>
      <trkpt lat="45.69767" lon="4.65062">
        <ele>520</ele>
        <time>2012-05-05T06:39:13Z</time>
      </trkpt>
      <trkpt lat="45.69767" lon="4.65061">
        <ele>521</ele>
        <time>2012-05-05T06:39:14Z</time>
      </trkpt>
      <trkpt lat="45.69772" lon="4.65049">
        <ele>522</ele>
        <time>2012-05-05T06:39:20Z</time>
      </trkpt>
      <trkpt lat="45.69776" lon="4.65044">
        <ele>521</ele>
        <time>2012-05-05T06:39:23Z</time>
      </trkpt>
      <trkpt lat="45.69777" lon="4.65042">
        <ele>522</ele>
        <time>2012-05-05T06:39:24Z</time>
      </trkpt>
      <trkpt lat="45.69782" lon="4.65037">
        <ele>522</ele>
        <time>2012-05-05T06:39:27Z</time>
      </trkpt>
      <trkpt lat="45.69784" lon="4.65036">
        <ele>522</ele>
        <time>2012-05-05T06:39:28Z</time>
      </trkpt>
      <trkpt lat="45.69785" lon="4.65035">
        <ele>522</ele>
        <time>2012-05-05T06:39:29Z</time>
      </trkpt>
      <trkpt lat="45.69785" lon="4.65032">
        <ele>522</ele>
        <time>2012-05-05T06:39:30Z</time>
      </trkpt>
      <trkpt lat="45.69786" lon="4.65031">
        <ele>522</ele>
        <time>2012-05-05T06:39:31Z</time>
      </trkpt>
      <trkpt lat="45.69787" lon="4.65029">
        <ele>523</ele>
        <time>2012-05-05T06:39:32Z</time>
      </trkpt>
      <trkpt lat="45.69789" lon="4.65027">
        <ele>523</ele>
        <time>2012-05-05T06:39:33Z</time>
      </trkpt>
      <trkpt lat="45.69799" lon="4.65015">
        <ele>524</ele>
        <time>2012-05-05T06:39:40Z</time>
      </trkpt>
      <trkpt lat="45.69803" lon="4.65007">
        <ele>524</ele>
        <time>2012-05-05T06:39:44Z</time>
      </trkpt>
      <trkpt lat="45.69804" lon="4.65006">
        <ele>525</ele>
        <time>2012-05-05T06:39:45Z</time>
      </trkpt>
      <trkpt lat="45.69805" lon="4.65004">
        <ele>525</ele>
        <time>2012-05-05T06:39:46Z</time>
      </trkpt>
      <trkpt lat="45.69806" lon="4.65003">
        <ele>525</ele>
        <time>2012-05-05T06:39:47Z</time>
      </trkpt>
      <trkpt lat="45.69808" lon="4.65001">
        <ele>525</ele>
        <time>2012-05-05T06:39:48Z</time>
      </trkpt>
      <trkpt lat="45.69809" lon="4.64999">
        <ele>525</ele>
        <time>2012-05-05T06:39:49Z</time>
      </trkpt>
      <trkpt lat="45.6981" lon="4.64997">
        <ele>525</ele>
        <time>2012-05-05T06:39:50Z</time>
      </trkpt>
      <trkpt lat="45.69811" lon="4.64996">
        <ele>526</ele>
        <time>2012-05-05T06:39:51Z</time>
      </trkpt>
      <trkpt lat="45.69812" lon="4.64994">
        <ele>525</ele>
        <time>2012-05-05T06:39:52Z</time>
      </trkpt>
      <trkpt lat="45.69821" lon="4.64987">
        <ele>527</ele>
        <time>2012-05-05T06:39:58Z</time>
      </trkpt>
      <trkpt lat="45.69829" lon="4.64981">
        <ele>528</ele>
        <time>2012-05-05T06:40:04Z</time>
      </trkpt>
      <trkpt lat="45.69833" lon="4.64978">
        <ele>528</ele>
        <time>2012-05-05T06:40:08Z</time>
      </trkpt>
      <trkpt lat="45.6984" lon="4.64971">
        <ele>530</ele>
        <time>2012-05-05T06:40:15Z</time>
      </trkpt>
      <trkpt lat="45.69843" lon="4.64967">
        <ele>531</ele>
        <time>2012-05-05T06:40:18Z</time>
      </trkpt>
      <trkpt lat="45.69846" lon="4.64961">
        <ele>532</ele>
        <time>2012-05-05T06:40:23Z</time>
      </trkpt>
      <trkpt lat="45.69852" lon="4.64958">
        <ele>532</ele>
        <time>2012-05-05T06:40:28Z</time>
      </trkpt>
      <trkpt lat="45.6986" lon="4.64954">
        <ele>534</ele>
        <time>2012-05-05T06:40:35Z</time>
      </trkpt>
      <trkpt lat="45.69862" lon="4.64954">
        <ele>534</ele>
        <time>2012-05-05T06:40:36Z</time>
      </trkpt>
      <trkpt lat="45.69863" lon="4.64953">
        <ele>534</ele>
        <time>2012-05-05T06:40:37Z</time>
      </trkpt>
      <trkpt lat="45.69867" lon="4.64948">
        <ele>535</ele>
        <time>2012-05-05T06:40:41Z</time>
      </trkpt>
      <trkpt lat="45.69871" lon="4.64943">
        <ele>535</ele>
        <time>2012-05-05T06:40:45Z</time>
      </trkpt>
      <trkpt lat="45.69872" lon="4.64942">
        <ele>536</ele>
        <time>2012-05-05T06:40:46Z</time>
      </trkpt>
      <trkpt lat="45.69878" lon="4.64944">
        <ele>538</ele>
        <time>2012-05-05T06:40:51Z</time>
      </trkpt>
      <trkpt lat="45.6988" lon="4.64945">
        <ele>538</ele>
        <time>2012-05-05T06:40:52Z</time>
      </trkpt>
      <trkpt lat="45.69888" lon="4.64949">
        <ele>540</ele>
        <time>2012-05-05T06:40:58Z</time>
      </trkpt>
      <trkpt lat="45.69892" lon="4.64952">
        <ele>541</ele>
        <time>2012-05-05T06:41:04Z</time>
      </trkpt>
      <trkpt lat="45.69899" lon="4.64952">
        <ele>542</ele>
        <time>2012-05-05T06:41:10Z</time>
      </trkpt>
      <trkpt lat="45.69906" lon="4.64951">
        <ele>543</ele>
        <time>2012-05-05T06:41:16Z</time>
      </trkpt>
      <trkpt lat="45.69909" lon="4.64948">
        <ele>543</ele>
        <time>2012-05-05T06:41:19Z</time>
      </trkpt>
      <trkpt lat="45.69915" lon="4.64944">
        <ele>545</ele>
        <time>2012-05-05T06:41:26Z</time>
      </trkpt>
      <trkpt lat="45.69921" lon="4.64942">
        <ele>545</ele>
        <time>2012-05-05T06:41:32Z</time>
      </trkpt>
      <trkpt lat="45.69925" lon="4.64942">
        <ele>546</ele>
        <time>2012-05-05T06:41:35Z</time>
      </trkpt>
      <trkpt lat="45.69929" lon="4.64942">
        <ele>547</ele>
        <time>2012-05-05T06:41:39Z</time>
      </trkpt>
      <trkpt lat="45.69935" lon="4.64943">
        <ele>547</ele>
        <time>2012-05-05T06:41:44Z</time>
      </trkpt>
      <trkpt lat="45.69937" lon="4.64943">
        <ele>547</ele>
        <time>2012-05-05T06:41:45Z</time>
      </trkpt>
      <trkpt lat="45.69941" lon="4.64936">
        <ele>548</ele>
        <time>2012-05-05T06:41:52Z</time>
      </trkpt>
      <trkpt lat="45.69944" lon="4.64926">
        <ele>549</ele>
        <time>2012-05-05T06:42:00Z</time>
      </trkpt>
      <trkpt lat="45.69945" lon="4.64924">
        <ele>549</ele>
        <time>2012-05-05T06:42:01Z</time>
      </trkpt>
      <trkpt lat="45.69948" lon="4.64918">
        <ele>550</ele>
        <time>2012-05-05T06:42:07Z</time>
      </trkpt>
      <trkpt lat="45.69956" lon="4.64912">
        <ele>550</ele>
        <time>2012-05-05T06:42:13Z</time>
      </trkpt>
      <trkpt lat="45.6996" lon="4.64912">
        <ele>550</ele>
        <time>2012-05-05T06:42:16Z</time>
      </trkpt>
      <trkpt lat="45.69961" lon="4.64911">
        <ele>550</ele>
        <time>2012-05-05T06:42:17Z</time>
      </trkpt>
      <trkpt lat="45.69962" lon="4.6491">
        <ele>550</ele>
        <time>2012-05-05T06:42:18Z</time>
      </trkpt>
      <trkpt lat="45.69968" lon="4.64903">
        <ele>551</ele>
        <time>2012-05-05T06:42:25Z</time>
      </trkpt>
      <trkpt lat="45.69973" lon="4.64893">
        <ele>552</ele>
        <time>2012-05-05T06:42:31Z</time>
      </trkpt>
      <trkpt lat="45.69973" lon="4.64892">
        <ele>552</ele>
        <time>2012-05-05T06:42:35Z</time>
      </trkpt>
      <trkpt lat="45.69977" lon="4.64888">
        <ele>553</ele>
        <time>2012-05-05T06:42:38Z</time>
      </trkpt>
      <trkpt lat="45.69983" lon="4.64881">
        <ele>554</ele>
        <time>2012-05-05T06:42:43Z</time>
      </trkpt>
      <trkpt lat="45.69985" lon="4.64879">
        <ele>555</ele>
        <time>2012-05-05T06:42:46Z</time>
      </trkpt>
      <trkpt lat="45.69989" lon="4.64876">
        <ele>556</ele>
        <time>2012-05-05T06:42:51Z</time>
      </trkpt>
      <trkpt lat="45.69991" lon="4.64874">
        <ele>556</ele>
        <time>2012-05-05T06:42:52Z</time>
      </trkpt>
      <trkpt lat="45.69992" lon="4.64873">
        <ele>557</ele>
        <time>2012-05-05T06:42:53Z</time>
      </trkpt>
      <trkpt lat="45.69995" lon="4.64871">
        <ele>557</ele>
        <time>2012-05-05T06:42:55Z</time>
      </trkpt>
      <trkpt lat="45.70001" lon="4.64863">
        <ele>558</ele>
        <time>2012-05-05T06:43:01Z</time>
      </trkpt>
      <trkpt lat="45.70006" lon="4.64853">
        <ele>559</ele>
        <time>2012-05-05T06:43:07Z</time>
      </trkpt>
      <trkpt lat="45.70011" lon="4.64846">
        <ele>560</ele>
        <time>2012-05-05T06:43:14Z</time>
      </trkpt>
      <trkpt lat="45.70016" lon="4.64839">
        <ele>560</ele>
        <time>2012-05-05T06:43:21Z</time>
      </trkpt>
      <trkpt lat="45.70017" lon="4.64837">
        <ele>561</ele>
        <time>2012-05-05T06:43:22Z</time>
      </trkpt>
      <trkpt lat="45.70021" lon="4.64832">
        <ele>561</ele>
        <time>2012-05-05T06:43:25Z</time>
      </trkpt>
      <trkpt lat="45.70024" lon="4.64827">
        <ele>562</ele>
        <time>2012-05-05T06:43:31Z</time>
      </trkpt>
      <trkpt lat="45.70031" lon="4.6482">
        <ele>564</ele>
        <time>2012-05-05T06:43:38Z</time>
      </trkpt>
      <trkpt lat="45.70032" lon="4.64818">
        <ele>564</ele>
        <time>2012-05-05T06:43:39Z</time>
      </trkpt>
      <trkpt lat="45.7004" lon="4.64808">
        <ele>566</ele>
        <time>2012-05-05T06:43:46Z</time>
      </trkpt>
      <trkpt lat="45.70048" lon="4.64799">
        <ele>567</ele>
        <time>2012-05-05T06:43:52Z</time>
      </trkpt>
      <trkpt lat="45.70058" lon="4.64789">
        <ele>570</ele>
        <time>2012-05-05T06:43:59Z</time>
      </trkpt>
      <trkpt lat="45.70064" lon="4.64786">
        <ele>570</ele>
        <time>2012-05-05T06:44:04Z</time>
      </trkpt>
      <trkpt lat="45.70071" lon="4.64785">
        <ele>571</ele>
        <time>2012-05-05T06:44:09Z</time>
      </trkpt>
      <trkpt lat="45.70076" lon="4.64782">
        <ele>572</ele>
        <time>2012-05-05T06:44:16Z</time>
      </trkpt>
      <trkpt lat="45.70081" lon="4.64778">
        <ele>572</ele>
        <time>2012-05-05T06:44:24Z</time>
      </trkpt>
      <trkpt lat="45.70086" lon="4.64772">
        <ele>573</ele>
        <time>2012-05-05T06:44:32Z</time>
      </trkpt>
      <trkpt lat="45.70096" lon="4.64764">
        <ele>574</ele>
        <time>2012-05-05T06:44:40Z</time>
      </trkpt>
      <trkpt lat="45.70105" lon="4.64756">
        <ele>575</ele>
        <time>2012-05-05T06:44:47Z</time>
      </trkpt>
      <trkpt lat="45.70112" lon="4.64749">
        <ele>575</ele>
        <time>2012-05-05T06:44:52Z</time>
      </trkpt>
      <trkpt lat="45.7012" lon="4.64743">
        <ele>575</ele>
        <time>2012-05-05T06:44:58Z</time>
      </trkpt>
      <trkpt lat="45.70129" lon="4.64735">
        <ele>575</ele>
        <time>2012-05-05T06:45:06Z</time>
      </trkpt>
      <trkpt lat="45.70133" lon="4.64731">
        <ele>576</ele>
        <time>2012-05-05T06:45:09Z</time>
      </trkpt>
      <trkpt lat="45.70135" lon="4.64729">
        <ele>576</ele>
        <time>2012-05-05T06:45:10Z</time>
      </trkpt>
      <trkpt lat="45.7014" lon="4.64722">
        <ele>576</ele>
        <time>2012-05-05T06:45:14Z</time>
      </trkpt>
      <trkpt lat="45.70154" lon="4.64703">
        <ele>576</ele>
        <time>2012-05-05T06:45:20Z</time>
      </trkpt>
      <trkpt lat="45.70155" lon="4.64701">
        <ele>576</ele>
        <time>2012-05-05T06:45:21Z</time>
      </trkpt>
      <trkpt lat="45.70157" lon="4.64698">
        <ele>576</ele>
        <time>2012-05-05T06:45:22Z</time>
      </trkpt>
      <trkpt lat="45.70158" lon="4.64697">
        <ele>577</ele>
        <time>2012-05-05T06:45:23Z</time>
      </trkpt>
      <trkpt lat="45.7016" lon="4.64695">
        <ele>576</ele>
        <time>2012-05-05T06:45:24Z</time>
      </trkpt>
      <trkpt lat="45.70161" lon="4.64693">
        <ele>576</ele>
        <time>2012-05-05T06:45:25Z</time>
      </trkpt>
      <trkpt lat="45.70162" lon="4.64691">
        <ele>576</ele>
        <time>2012-05-05T06:45:26Z</time>
      </trkpt>
      <trkpt lat="45.70163" lon="4.64689">
        <ele>576</ele>
        <time>2012-05-05T06:45:27Z</time>
      </trkpt>
      <trkpt lat="45.70165" lon="4.64687">
        <ele>577</ele>
        <time>2012-05-05T06:45:28Z</time>
      </trkpt>
      <trkpt lat="45.70166" lon="4.64684">
        <ele>577</ele>
        <time>2012-05-05T06:45:29Z</time>
      </trkpt>
      <trkpt lat="45.70167" lon="4.64682">
        <ele>577</ele>
        <time>2012-05-05T06:45:30Z</time>
      </trkpt>
      <trkpt lat="45.70168" lon="4.6468">
        <ele>576</ele>
        <time>2012-05-05T06:45:31Z</time>
      </trkpt>
      <trkpt lat="45.70169" lon="4.64679">
        <ele>577</ele>
        <time>2012-05-05T06:45:32Z</time>
      </trkpt>
      <trkpt lat="45.70176" lon="4.64671">
        <ele>577</ele>
        <time>2012-05-05T06:45:39Z</time>
      </trkpt>
      <trkpt lat="45.70179" lon="4.64666">
        <ele>577</ele>
        <time>2012-05-05T06:45:43Z</time>
      </trkpt>
      <trkpt lat="45.7018" lon="4.64664">
        <ele>577</ele>
        <time>2012-05-05T06:45:44Z</time>
      </trkpt>
      <trkpt lat="45.70184" lon="4.64656">
        <ele>578</ele>
        <time>2012-05-05T06:45:50Z</time>
      </trkpt>
      <trkpt lat="45.70186" lon="4.64655">
        <ele>578</ele>
        <time>2012-05-05T06:45:51Z</time>
      </trkpt>
      <trkpt lat="45.70187" lon="4.64654">
        <ele>578</ele>
        <time>2012-05-05T06:45:52Z</time>
      </trkpt>
      <trkpt lat="45.70188" lon="4.64652">
        <ele>578</ele>
        <time>2012-05-05T06:45:53Z</time>
      </trkpt>
      <trkpt lat="45.70189" lon="4.64651">
        <ele>579</ele>
        <time>2012-05-05T06:45:54Z</time>
      </trkpt>
      <trkpt lat="45.70198" lon="4.64643">
        <ele>579</ele>
        <time>2012-05-05T06:46:00Z</time>
      </trkpt>
      <trkpt lat="45.702" lon="4.64642">
        <ele>579</ele>
        <time>2012-05-05T06:46:01Z</time>
      </trkpt>
      <trkpt lat="45.70201" lon="4.64641">
        <ele>579</ele>
        <time>2012-05-05T06:46:02Z</time>
      </trkpt>
      <trkpt lat="45.70202" lon="4.64639">
        <ele>579</ele>
        <time>2012-05-05T06:46:03Z</time>
      </trkpt>
      <trkpt lat="45.70203" lon="4.64638">
        <ele>579</ele>
        <time>2012-05-05T06:46:04Z</time>
      </trkpt>
      <trkpt lat="45.70204" lon="4.64637">
        <ele>579</ele>
        <time>2012-05-05T06:46:05Z</time>
      </trkpt>
      <trkpt lat="45.70205" lon="4.64635">
        <ele>580</ele>
        <time>2012-05-05T06:46:06Z</time>
      </trkpt>
      <trkpt lat="45.70206" lon="4.64633">
        <ele>580</ele>
        <time>2012-05-05T06:46:07Z</time>
      </trkpt>
      <trkpt lat="45.70207" lon="4.64631">
        <ele>581</ele>
        <time>2012-05-05T06:46:08Z</time>
      </trkpt>
      <trkpt lat="45.70208" lon="4.64629">
        <ele>581</ele>
        <time>2012-05-05T06:46:09Z</time>
      </trkpt>
      <trkpt lat="45.70212" lon="4.64627">
        <ele>581</ele>
        <time>2012-05-05T06:46:12Z</time>
      </trkpt>
      <trkpt lat="45.70213" lon="4.64625">
        <ele>581</ele>
        <time>2012-05-05T06:46:13Z</time>
      </trkpt>
      <trkpt lat="45.70215" lon="4.64624">
        <ele>582</ele>
        <time>2012-05-05T06:46:14Z</time>
      </trkpt>
      <trkpt lat="45.70216" lon="4.64622">
        <ele>582</ele>
        <time>2012-05-05T06:46:15Z</time>
      </trkpt>
      <trkpt lat="45.70217" lon="4.6462">
        <ele>582</ele>
        <time>2012-05-05T06:46:16Z</time>
      </trkpt>
      <trkpt lat="45.70219" lon="4.64615">
        <ele>582</ele>
        <time>2012-05-05T06:46:19Z</time>
      </trkpt>
      <trkpt lat="45.70221" lon="4.64613">
        <ele>582</ele>
        <time>2012-05-05T06:46:20Z</time>
      </trkpt>
      <trkpt lat="45.70232" lon="4.64603">
        <ele>583</ele>
        <time>2012-05-05T06:46:28Z</time>
      </trkpt>
      <trkpt lat="45.70245" lon="4.64591">
        <ele>583</ele>
        <time>2012-05-05T06:46:36Z</time>
      </trkpt>
      <trkpt lat="45.70252" lon="4.64581">
        <ele>584</ele>
        <time>2012-05-05T06:46:42Z</time>
      </trkpt>
      <trkpt lat="45.70252" lon="4.64579">
        <ele>585</ele>
        <time>2012-05-05T06:46:43Z</time>
      </trkpt>
      <trkpt lat="45.70252" lon="4.64577">
        <ele>585</ele>
        <time>2012-05-05T06:46:44Z</time>
      </trkpt>
      <trkpt lat="45.70252" lon="4.64575">
        <ele>585</ele>
        <time>2012-05-05T06:46:45Z</time>
      </trkpt>
      <trkpt lat="45.70253" lon="4.64573">
        <ele>585</ele>
        <time>2012-05-05T06:46:46Z</time>
      </trkpt>
      <trkpt lat="45.70253" lon="4.64571">
        <ele>586</ele>
        <time>2012-05-05T06:46:47Z</time>
      </trkpt>
      <trkpt lat="45.70255" lon="4.64568">
        <ele>586</ele>
        <time>2012-05-05T06:46:48Z</time>
      </trkpt>
      <trkpt lat="45.70258" lon="4.64559">
        <ele>587</ele>
        <time>2012-05-05T06:46:53Z</time>
      </trkpt>
      <trkpt lat="45.70259" lon="4.6455">
        <ele>587</ele>
        <time>2012-05-05T06:46:57Z</time>
      </trkpt>
      <trkpt lat="45.7026" lon="4.64548">
        <ele>587</ele>
        <time>2012-05-05T06:46:58Z</time>
      </trkpt>
      <trkpt lat="45.70264" lon="4.64542">
        <ele>588</ele>
        <time>2012-05-05T06:47:01Z</time>
      </trkpt>
      <trkpt lat="45.70264" lon="4.64541">
        <ele>588</ele>
        <time>2012-05-05T06:47:02Z</time>
      </trkpt>
      <trkpt lat="45.70265" lon="4.64539">
        <ele>589</ele>
        <time>2012-05-05T06:47:03Z</time>
      </trkpt>
      <trkpt lat="45.70268" lon="4.64535">
        <ele>589</ele>
        <time>2012-05-05T06:47:07Z</time>
      </trkpt>
      <trkpt lat="45.70269" lon="4.64534">
        <ele>589</ele>
        <time>2012-05-05T06:47:08Z</time>
      </trkpt>
      <trkpt lat="45.70276" lon="4.64528">
        <ele>591</ele>
        <time>2012-05-05T06:47:12Z</time>
      </trkpt>
      <trkpt lat="45.70278" lon="4.64525">
        <ele>591</ele>
        <time>2012-05-05T06:47:13Z</time>
      </trkpt>
      <trkpt lat="45.70279" lon="4.64523">
        <ele>591</ele>
        <time>2012-05-05T06:47:14Z</time>
      </trkpt>
      <trkpt lat="45.7028" lon="4.64521">
        <ele>591</ele>
        <time>2012-05-05T06:47:15Z</time>
      </trkpt>
      <trkpt lat="45.70281" lon="4.64518">
        <ele>592</ele>
        <time>2012-05-05T06:47:16Z</time>
      </trkpt>
      <trkpt lat="45.70283" lon="4.64516">
        <ele>592</ele>
        <time>2012-05-05T06:47:17Z</time>
      </trkpt>
      <trkpt lat="45.70284" lon="4.64515">
        <ele>592</ele>
        <time>2012-05-05T06:47:18Z</time>
      </trkpt>
      <trkpt lat="45.70285" lon="4.64515">
        <ele>593</ele>
        <time>2012-05-05T06:47:19Z</time>
      </trkpt>
      <trkpt lat="45.70286" lon="4.64514">
        <ele>593</ele>
        <time>2012-05-05T06:47:20Z</time>
      </trkpt>
      <trkpt lat="45.70288" lon="4.64513">
        <ele>593</ele>
        <time>2012-05-05T06:47:21Z</time>
      </trkpt>
      <trkpt lat="45.70289" lon="4.64511">
        <ele>594</ele>
        <time>2012-05-05T06:47:22Z</time>
      </trkpt>
      <trkpt lat="45.7029" lon="4.6451">
        <ele>594</ele>
        <time>2012-05-05T06:47:23Z</time>
      </trkpt>
      <trkpt lat="45.70291" lon="4.64509">
        <ele>594</ele>
        <time>2012-05-05T06:47:24Z</time>
      </trkpt>
      <trkpt lat="45.70302" lon="4.64498">
        <ele>595</ele>
        <time>2012-05-05T06:47:34Z</time>
      </trkpt>
      <trkpt lat="45.70316" lon="4.64484">
        <ele>598</ele>
        <time>2012-05-05T06:47:47Z</time>
      </trkpt>
      <trkpt lat="45.70324" lon="4.64473">
        <ele>600</ele>
        <time>2012-05-05T06:47:56Z</time>
      </trkpt>
      <trkpt lat="45.70334" lon="4.64461">
        <ele>600</ele>
        <time>2012-05-05T06:48:04Z</time>
      </trkpt>
      <trkpt lat="45.70336" lon="4.64455">
        <ele>600</ele>
        <time>2012-05-05T06:48:07Z</time>
      </trkpt>
      <trkpt lat="45.70338" lon="4.64454">
        <ele>600</ele>
        <time>2012-05-05T06:48:08Z</time>
      </trkpt>
      <trkpt lat="45.70338" lon="4.64452">
        <ele>601</ele>
        <time>2012-05-05T06:48:09Z</time>
      </trkpt>
      <trkpt lat="45.70339" lon="4.6445">
        <ele>601</ele>
        <time>2012-05-05T06:48:10Z</time>
      </trkpt>
      <trkpt lat="45.70341" lon="4.64448">
        <ele>600</ele>
        <time>2012-05-05T06:48:11Z</time>
      </trkpt>
      <trkpt lat="45.70342" lon="4.64446">
        <ele>601</ele>
        <time>2012-05-05T06:48:12Z</time>
      </trkpt>
      <trkpt lat="45.70343" lon="4.64445">
        <ele>601</ele>
        <time>2012-05-05T06:48:13Z</time>
      </trkpt>
      <trkpt lat="45.70345" lon="4.64444">
        <ele>601</ele>
        <time>2012-05-05T06:48:14Z</time>
      </trkpt>
      <trkpt lat="45.70346" lon="4.64442">
        <ele>601</ele>
        <time>2012-05-05T06:48:15Z</time>
      </trkpt>
      <trkpt lat="45.70347" lon="4.64441">
        <ele>601</ele>
        <time>2012-05-05T06:48:16Z</time>
      </trkpt>
      <trkpt lat="45.70348" lon="4.64439">
        <ele>602</ele>
        <time>2012-05-05T06:48:17Z</time>
      </trkpt>
      <trkpt lat="45.70349" lon="4.64437">
        <ele>602</ele>
        <time>2012-05-05T06:48:18Z</time>
      </trkpt>
      <trkpt lat="45.7035" lon="4.64435">
        <ele>602</ele>
        <time>2012-05-05T06:48:19Z</time>
      </trkpt>
      <trkpt lat="45.70362" lon="4.64416">
        <ele>603</ele>
        <time>2012-05-05T06:48:29Z</time>
      </trkpt>
      <trkpt lat="45.70373" lon="4.64399">
        <ele>604</ele>
        <time>2012-05-05T06:48:37Z</time>
      </trkpt>
      <trkpt lat="45.70385" lon="4.64379">
        <ele>605</ele>
        <time>2012-05-05T06:48:45Z</time>
      </trkpt>
      <trkpt lat="45.70397" lon="4.64352">
        <ele>606</ele>
        <time>2012-05-05T06:48:54Z</time>
      </trkpt>
      <trkpt lat="45.7041" lon="4.64317">
        <ele>607</ele>
        <time>2012-05-05T06:49:04Z</time>
      </trkpt>
      <trkpt lat="45.7042" lon="4.64279">
        <ele>607</ele>
        <time>2012-05-05T06:49:14Z</time>
      </trkpt>
      <trkpt lat="45.70427" lon="4.64254">
        <ele>607</ele>
        <time>2012-05-05T06:49:20Z</time>
      </trkpt>
      <trkpt lat="45.70429" lon="4.64217">
        <ele>605</ele>
        <time>2012-05-05T06:49:27Z</time>
      </trkpt>
      <trkpt lat="45.70426" lon="4.64166">
        <ele>603</ele>
        <time>2012-05-05T06:49:33Z</time>
      </trkpt>
      <trkpt lat="45.70423" lon="4.64147">
        <ele>602</ele>
        <time>2012-05-05T06:49:35Z</time>
      </trkpt>
      <trkpt lat="45.70404" lon="4.64062">
        <ele>599</ele>
        <time>2012-05-05T06:49:43Z</time>
      </trkpt>
      <trkpt lat="45.70396" lon="4.63992">
        <ele>596</ele>
        <time>2012-05-05T06:49:49Z</time>
      </trkpt>
      <trkpt lat="45.70394" lon="4.63957">
        <ele>596</ele>
        <time>2012-05-05T06:49:52Z</time>
      </trkpt>
      <trkpt lat="45.70393" lon="4.63921">
        <ele>596</ele>
        <time>2012-05-05T06:49:57Z</time>
      </trkpt>
      <trkpt lat="45.70392" lon="4.63909">
        <ele>595</ele>
        <time>2012-05-05T06:50:00Z</time>
      </trkpt>
      <trkpt lat="45.70389" lon="4.63909">
        <ele>595</ele>
        <time>2012-05-05T06:50:02Z</time>
      </trkpt>
      <trkpt lat="45.70388" lon="4.63909">
        <ele>596</ele>
        <time>2012-05-05T06:50:03Z</time>
      </trkpt>
      <trkpt lat="45.70387" lon="4.63911">
        <ele>596</ele>
        <time>2012-05-05T06:50:04Z</time>
      </trkpt>
      <trkpt lat="45.70386" lon="4.63912">
        <ele>596</ele>
        <time>2012-05-05T06:50:05Z</time>
      </trkpt>
      <trkpt lat="45.70385" lon="4.63914">
        <ele>597</ele>
        <time>2012-05-05T06:50:06Z</time>
      </trkpt>
      <trkpt lat="45.70385" lon="4.63915">
        <ele>597</ele>
        <time>2012-05-05T06:50:07Z</time>
      </trkpt>
      <trkpt lat="45.70385" lon="4.63918">
        <ele>597</ele>
        <time>2012-05-05T06:50:08Z</time>
      </trkpt>
      <trkpt lat="45.70384" lon="4.6392">
        <ele>598</ele>
        <time>2012-05-05T06:50:09Z</time>
      </trkpt>
      <trkpt lat="45.70383" lon="4.63922">
        <ele>598</ele>
        <time>2012-05-05T06:50:11Z</time>
      </trkpt>
      <trkpt lat="45.70383" lon="4.63935">
        <ele>599</ele>
        <time>2012-05-05T06:50:17Z</time>
      </trkpt>
      <trkpt lat="45.70378" lon="4.63952">
        <ele>601</ele>
        <time>2012-05-05T06:50:26Z</time>
      </trkpt>
      <trkpt lat="45.70375" lon="4.63957">
        <ele>601</ele>
        <time>2012-05-05T06:50:29Z</time>
      </trkpt>
      <trkpt lat="45.70375" lon="4.63959">
        <ele>601</ele>
        <time>2012-05-05T06:50:30Z</time>
      </trkpt>
      <trkpt lat="45.70374" lon="4.63962">
        <ele>602</ele>
        <time>2012-05-05T06:50:31Z</time>
      </trkpt>
      <trkpt lat="45.70373" lon="4.63968">
        <ele>602</ele>
        <time>2012-05-05T06:50:34Z</time>
      </trkpt>
      <trkpt lat="45.70372" lon="4.63972">
        <ele>603</ele>
        <time>2012-05-05T06:50:36Z</time>
      </trkpt>
      <trkpt lat="45.70371" lon="4.63977">
        <ele>604</ele>
        <time>2012-05-05T06:50:39Z</time>
      </trkpt>
      <trkpt lat="45.70371" lon="4.6398">
        <ele>604</ele>
        <time>2012-05-05T06:50:40Z</time>
      </trkpt>
      <trkpt lat="45.70371" lon="4.63982">
        <ele>604</ele>
        <time>2012-05-05T06:50:41Z</time>
      </trkpt>
      <trkpt lat="45.7037" lon="4.63984">
        <ele>604</ele>
        <time>2012-05-05T06:50:42Z</time>
      </trkpt>
      <trkpt lat="45.7037" lon="4.63987">
        <ele>604</ele>
        <time>2012-05-05T06:50:43Z</time>
      </trkpt>
      <trkpt lat="45.70366" lon="4.64004">
        <ele>606</ele>
        <time>2012-05-05T06:50:51Z</time>
      </trkpt>
      <trkpt lat="45.70365" lon="4.64006">
        <ele>606</ele>
        <time>2012-05-05T06:50:52Z</time>
      </trkpt>
      <trkpt lat="45.70365" lon="4.64009">
        <ele>607</ele>
        <time>2012-05-05T06:50:53Z</time>
      </trkpt>
      <trkpt lat="45.70365" lon="4.64011">
        <ele>606</ele>
        <time>2012-05-05T06:50:54Z</time>
      </trkpt>
      <trkpt lat="45.70364" lon="4.64013">
        <ele>607</ele>
        <time>2012-05-05T06:50:55Z</time>
      </trkpt>
      <trkpt lat="45.70364" lon="4.64016">
        <ele>607</ele>
        <time>2012-05-05T06:50:56Z</time>
      </trkpt>
      <trkpt lat="45.70364" lon="4.64018">
        <ele>607</ele>
        <time>2012-05-05T06:50:57Z</time>
      </trkpt>
      <trkpt lat="45.70364" lon="4.6402">
        <ele>608</ele>
        <time>2012-05-05T06:50:58Z</time>
      </trkpt>
      <trkpt lat="45.70364" lon="4.64022">
        <ele>608</ele>
        <time>2012-05-05T06:50:59Z</time>
      </trkpt>
      <trkpt lat="45.70364" lon="4.64025">
        <ele>608</ele>
        <time>2012-05-05T06:51:00Z</time>
      </trkpt>
      <trkpt lat="45.70362" lon="4.64041">
        <ele>609</ele>
        <time>2012-05-05T06:51:08Z</time>
      </trkpt>
      <trkpt lat="45.70359" lon="4.64064">
        <ele>610</ele>
        <time>2012-05-05T06:51:18Z</time>
      </trkpt>
      <trkpt lat="45.70356" lon="4.64081">
        <ele>612</ele>
        <time>2012-05-05T06:51:26Z</time>
      </trkpt>
      <trkpt lat="45.70349" lon="4.64097">
        <ele>613</ele>
        <time>2012-05-05T06:51:34Z</time>
      </trkpt>
      <trkpt lat="45.70335" lon="4.64111">
        <ele>614</ele>
        <time>2012-05-05T06:51:43Z</time>
      </trkpt>
      <trkpt lat="45.7032" lon="4.6412">
        <ele>616</ele>
        <time>2012-05-05T06:51:52Z</time>
      </trkpt>
      <trkpt lat="45.70308" lon="4.64122">
        <ele>617</ele>
        <time>2012-05-05T06:52:00Z</time>
      </trkpt>
      <trkpt lat="45.70307" lon="4.64122">
        <ele>616</ele>
        <time>2012-05-05T06:52:01Z</time>
      </trkpt>
      <trkpt lat="45.70306" lon="4.64121">
        <ele>618</ele>
        <time>2012-05-05T06:52:02Z</time>
      </trkpt>
      <trkpt lat="45.70305" lon="4.64119">
        <ele>617</ele>
        <time>2012-05-05T06:52:03Z</time>
      </trkpt>
      <trkpt lat="45.70303" lon="4.64114">
        <ele>618</ele>
        <time>2012-05-05T06:52:06Z</time>
      </trkpt>
      <trkpt lat="45.70302" lon="4.64113">
        <ele>618</ele>
        <time>2012-05-05T06:52:07Z</time>
      </trkpt>
      <trkpt lat="45.70301" lon="4.64111">
        <ele>618</ele>
        <time>2012-05-05T06:52:08Z</time>
      </trkpt>
      <trkpt lat="45.70299" lon="4.64095">
        <ele>620</ele>
        <time>2012-05-05T06:52:16Z</time>
      </trkpt>
      <trkpt lat="45.70301" lon="4.64089">
        <ele>620</ele>
        <time>2012-05-05T06:52:19Z</time>
      </trkpt>
      <trkpt lat="45.70304" lon="4.64082">
        <ele>621</ele>
        <time>2012-05-05T06:52:23Z</time>
      </trkpt>
      <trkpt lat="45.70305" lon="4.64081">
        <ele>622</ele>
        <time>2012-05-05T06:52:24Z</time>
      </trkpt>
      <trkpt lat="45.70307" lon="4.64081">
        <ele>622</ele>
        <time>2012-05-05T06:52:25Z</time>
      </trkpt>
      <trkpt lat="45.70308" lon="4.6408">
        <ele>622</ele>
        <time>2012-05-05T06:52:26Z</time>
      </trkpt>
      <trkpt lat="45.70309" lon="4.64078">
        <ele>622</ele>
        <time>2012-05-05T06:52:27Z</time>
      </trkpt>
      <trkpt lat="45.70309" lon="4.64076">
        <ele>622</ele>
        <time>2012-05-05T06:52:28Z</time>
      </trkpt>
      <trkpt lat="45.7031" lon="4.64074">
        <ele>623</ele>
        <time>2012-05-05T06:52:29Z</time>
      </trkpt>
      <trkpt lat="45.7031" lon="4.64072">
        <ele>623</ele>
        <time>2012-05-05T06:52:30Z</time>
      </trkpt>
      <trkpt lat="45.70312" lon="4.64064">
        <ele>623</ele>
        <time>2012-05-05T06:52:33Z</time>
      </trkpt>
      <trkpt lat="45.70313" lon="4.64062">
        <ele>623</ele>
        <time>2012-05-05T06:52:34Z</time>
      </trkpt>
      <trkpt lat="45.70313" lon="4.64059">
        <ele>623</ele>
        <time>2012-05-05T06:52:35Z</time>
      </trkpt>
      <trkpt lat="45.70314" lon="4.64036">
        <ele>623</ele>
        <time>2012-05-05T06:52:43Z</time>
      </trkpt>
      <trkpt lat="45.70315" lon="4.64009">
        <ele>624</ele>
        <time>2012-05-05T06:52:50Z</time>
      </trkpt>
      <trkpt lat="45.70314" lon="4.6398">
        <ele>625</ele>
        <time>2012-05-05T06:52:58Z</time>
      </trkpt>
      <trkpt lat="45.70309" lon="4.6396">
        <ele>625</ele>
        <time>2012-05-05T06:53:04Z</time>
      </trkpt>
      <trkpt lat="45.703" lon="4.63944">
        <ele>626</ele>
        <time>2012-05-05T06:53:11Z</time>
      </trkpt>
      <trkpt lat="45.70291" lon="4.63931">
        <ele>628</ele>
        <time>2012-05-05T06:53:17Z</time>
      </trkpt>
      <trkpt lat="45.70291" lon="4.63929">
        <ele>628</ele>
        <time>2012-05-05T06:53:18Z</time>
      </trkpt>
      <trkpt lat="45.7029" lon="4.63926">
        <ele>628</ele>
        <time>2012-05-05T06:53:19Z</time>
      </trkpt>
      <trkpt lat="45.7029" lon="4.63923">
        <ele>628</ele>
        <time>2012-05-05T06:53:20Z</time>
      </trkpt>
      <trkpt lat="45.70289" lon="4.6392">
        <ele>628</ele>
        <time>2012-05-05T06:53:21Z</time>
      </trkpt>
      <trkpt lat="45.70288" lon="4.63917">
        <ele>629</ele>
        <time>2012-05-05T06:53:22Z</time>
      </trkpt>
      <trkpt lat="45.70288" lon="4.63913">
        <ele>628</ele>
        <time>2012-05-05T06:53:23Z</time>
      </trkpt>
      <trkpt lat="45.70283" lon="4.63882">
        <ele>629</ele>
        <time>2012-05-05T06:53:32Z</time>
      </trkpt>
      <trkpt lat="45.70273" lon="4.63856">
        <ele>630</ele>
        <time>2012-05-05T06:53:40Z</time>
      </trkpt>
      <trkpt lat="45.70259" lon="4.63826">
        <ele>632</ele>
        <time>2012-05-05T06:53:50Z</time>
      </trkpt>
      <trkpt lat="45.70246" lon="4.63802">
        <ele>633</ele>
        <time>2012-05-05T06:53:59Z</time>
      </trkpt>
      <trkpt lat="45.70237" lon="4.63786">
        <ele>635</ele>
        <time>2012-05-05T06:54:06Z</time>
      </trkpt>
      <trkpt lat="45.70229" lon="4.63775">
        <ele>636</ele>
        <time>2012-05-05T06:54:13Z</time>
      </trkpt>
      <trkpt lat="45.70221" lon="4.63759">
        <ele>637</ele>
        <time>2012-05-05T06:54:21Z</time>
      </trkpt>
      <trkpt lat="45.70216" lon="4.63747">
        <ele>638</ele>
        <time>2012-05-05T06:54:28Z</time>
      </trkpt>
      <trkpt lat="45.70212" lon="4.63738">
        <ele>640</ele>
        <time>2012-05-05T06:54:34Z</time>
      </trkpt>
      <trkpt lat="45.70211" lon="4.63736">
        <ele>640</ele>
        <time>2012-05-05T06:54:35Z</time>
      </trkpt>
      <trkpt lat="45.7021" lon="4.63735">
        <ele>640</ele>
        <time>2012-05-05T06:54:36Z</time>
      </trkpt>
      <trkpt lat="45.70209" lon="4.63733">
        <ele>640</ele>
        <time>2012-05-05T06:54:37Z</time>
      </trkpt>
      <trkpt lat="45.70208" lon="4.63731">
        <ele>640</ele>
        <time>2012-05-05T06:54:38Z</time>
      </trkpt>
      <trkpt lat="45.70205" lon="4.63726">
        <ele>641</ele>
        <time>2012-05-05T06:54:42Z</time>
      </trkpt>
      <trkpt lat="45.70204" lon="4.63725">
        <ele>642</ele>
        <time>2012-05-05T06:54:43Z</time>
      </trkpt>
      <trkpt lat="45.70203" lon="4.63723">
        <ele>642</ele>
        <time>2012-05-05T06:54:44Z</time>
      </trkpt>
      <trkpt lat="45.70202" lon="4.63721">
        <ele>643</ele>
        <time>2012-05-05T06:54:45Z</time>
      </trkpt>
      <trkpt lat="45.70201" lon="4.63719">
        <ele>643</ele>
        <time>2012-05-05T06:54:46Z</time>
      </trkpt>
      <trkpt lat="45.702" lon="4.63717">
        <ele>643</ele>
        <time>2012-05-05T06:54:47Z</time>
      </trkpt>
      <trkpt lat="45.70198" lon="4.63713">
        <ele>644</ele>
        <time>2012-05-05T06:54:50Z</time>
      </trkpt>
      <trkpt lat="45.70196" lon="4.63712">
        <ele>644</ele>
        <time>2012-05-05T06:54:51Z</time>
      </trkpt>
      <trkpt lat="45.70195" lon="4.63711">
        <ele>644</ele>
        <time>2012-05-05T06:54:52Z</time>
      </trkpt>
      <trkpt lat="45.70194" lon="4.63709">
        <ele>645</ele>
        <time>2012-05-05T06:54:53Z</time>
      </trkpt>
      <trkpt lat="45.70193" lon="4.63708">
        <ele>645</ele>
        <time>2012-05-05T06:54:54Z</time>
      </trkpt>
      <trkpt lat="45.70184" lon="4.63696">
        <ele>647</ele>
        <time>2012-05-05T06:55:02Z</time>
      </trkpt>
      <trkpt lat="45.70178" lon="4.63685">
        <ele>648</ele>
        <time>2012-05-05T06:55:10Z</time>
      </trkpt>
      <trkpt lat="45.70176" lon="4.63681">
        <ele>648</ele>
        <time>2012-05-05T06:55:13Z</time>
      </trkpt>
      <trkpt lat="45.70175" lon="4.6368">
        <ele>649</ele>
        <time>2012-05-05T06:55:14Z</time>
      </trkpt>
      <trkpt lat="45.70174" lon="4.63677">
        <ele>649</ele>
        <time>2012-05-05T06:55:16Z</time>
      </trkpt>
      <trkpt lat="45.70172" lon="4.63673">
        <ele>649</ele>
        <time>2012-05-05T06:55:18Z</time>
      </trkpt>
      <trkpt lat="45.70166" lon="4.63655">
        <ele>650</ele>
        <time>2012-05-05T06:55:28Z</time>
      </trkpt>
      <trkpt lat="45.70164" lon="4.63651">
        <ele>651</ele>
        <time>2012-05-05T06:55:32Z</time>
      </trkpt>
      <trkpt lat="45.70164" lon="4.63646">
        <ele>652</ele>
        <time>2012-05-05T06:55:38Z</time>
      </trkpt>
      <trkpt lat="45.70163" lon="4.63644">
        <ele>652</ele>
        <time>2012-05-05T06:55:40Z</time>
      </trkpt>
      <trkpt lat="45.70162" lon="4.63643">
        <ele>652</ele>
        <time>2012-05-05T06:55:41Z</time>
      </trkpt>
      <trkpt lat="45.70161" lon="4.6364">
        <ele>652</ele>
        <time>2012-05-05T06:55:42Z</time>
      </trkpt>
      <trkpt lat="45.70159" lon="4.6363">
        <ele>653</ele>
        <time>2012-05-05T06:55:48Z</time>
      </trkpt>
      <trkpt lat="45.70159" lon="4.63628">
        <ele>653</ele>
        <time>2012-05-05T06:55:49Z</time>
      </trkpt>
      <trkpt lat="45.70158" lon="4.63626">
        <ele>653</ele>
        <time>2012-05-05T06:55:50Z</time>
      </trkpt>
      <trkpt lat="45.70158" lon="4.6362">
        <ele>654</ele>
        <time>2012-05-05T06:55:55Z</time>
      </trkpt>
      <trkpt lat="45.70155" lon="4.63612">
        <ele>655</ele>
        <time>2012-05-05T06:56:01Z</time>
      </trkpt>
      <trkpt lat="45.70153" lon="4.63598">
        <ele>656</ele>
        <time>2012-05-05T06:56:09Z</time>
      </trkpt>
      <trkpt lat="45.7015" lon="4.63587">
        <ele>656</ele>
        <time>2012-05-05T06:56:14Z</time>
      </trkpt>
      <trkpt lat="45.7015" lon="4.63584">
        <ele>657</ele>
        <time>2012-05-05T06:56:15Z</time>
      </trkpt>
      <trkpt lat="45.70149" lon="4.63582">
        <ele>657</ele>
        <time>2012-05-05T06:56:16Z</time>
      </trkpt>
      <trkpt lat="45.70149" lon="4.63575">
        <ele>659</ele>
        <time>2012-05-05T06:56:21Z</time>
      </trkpt>
      <trkpt lat="45.70148" lon="4.63566">
        <ele>660</ele>
        <time>2012-05-05T06:56:25Z</time>
      </trkpt>
      <trkpt lat="45.70149" lon="4.6355">
        <ele>661</ele>
        <time>2012-05-05T06:56:33Z</time>
      </trkpt>
      <trkpt lat="45.70148" lon="4.63548">
        <ele>661</ele>
        <time>2012-05-05T06:56:34Z</time>
      </trkpt>
      <trkpt lat="45.70148" lon="4.63545">
        <ele>662</ele>
        <time>2012-05-05T06:56:35Z</time>
      </trkpt>
      <trkpt lat="45.70148" lon="4.63544">
        <ele>662</ele>
        <time>2012-05-05T06:56:36Z</time>
      </trkpt>
      <trkpt lat="45.70148" lon="4.63541">
        <ele>662</ele>
        <time>2012-05-05T06:56:37Z</time>
      </trkpt>
      <trkpt lat="45.70148" lon="4.63539">
        <ele>662</ele>
        <time>2012-05-05T06:56:38Z</time>
      </trkpt>
      <trkpt lat="45.70146" lon="4.63527">
        <ele>663</ele>
        <time>2012-05-05T06:56:44Z</time>
      </trkpt>
      <trkpt lat="45.70147" lon="4.63524">
        <ele>663</ele>
        <time>2012-05-05T06:56:45Z</time>
      </trkpt>
      <trkpt lat="45.70147" lon="4.63522">
        <ele>664</ele>
        <time>2012-05-05T06:56:46Z</time>
      </trkpt>
      <trkpt lat="45.70147" lon="4.63519">
        <ele>664</ele>
        <time>2012-05-05T06:56:47Z</time>
      </trkpt>
      <trkpt lat="45.70148" lon="4.63506">
        <ele>665</ele>
        <time>2012-05-05T06:56:54Z</time>
      </trkpt>
      <trkpt lat="45.70148" lon="4.63498">
        <ele>666</ele>
        <time>2012-05-05T06:56:59Z</time>
      </trkpt>
      <trkpt lat="45.70154" lon="4.63483">
        <ele>668</ele>
        <time>2012-05-05T06:57:07Z</time>
      </trkpt>
      <trkpt lat="45.70155" lon="4.6348">
        <ele>668</ele>
        <time>2012-05-05T06:57:09Z</time>
      </trkpt>
      <trkpt lat="45.70155" lon="4.63476">
        <ele>669</ele>
        <time>2012-05-05T06:57:12Z</time>
      </trkpt>
      <trkpt lat="45.70155" lon="4.63474">
        <ele>669</ele>
        <time>2012-05-05T06:57:13Z</time>
      </trkpt>
      <trkpt lat="45.70156" lon="4.63458">
        <ele>670</ele>
        <time>2012-05-05T06:57:21Z</time>
      </trkpt>
      <trkpt lat="45.70157" lon="4.63456">
        <ele>670</ele>
        <time>2012-05-05T06:57:22Z</time>
      </trkpt>
      <trkpt lat="45.70157" lon="4.63454">
        <ele>670</ele>
        <time>2012-05-05T06:57:23Z</time>
      </trkpt>
      <trkpt lat="45.70159" lon="4.63445">
        <ele>671</ele>
        <time>2012-05-05T06:57:30Z</time>
      </trkpt>
      <trkpt lat="45.70158" lon="4.63441">
        <ele>672</ele>
        <time>2012-05-05T06:57:33Z</time>
      </trkpt>
      <trkpt lat="45.70158" lon="4.63427">
        <ele>674</ele>
        <time>2012-05-05T06:57:40Z</time>
      </trkpt>
      <trkpt lat="45.70158" lon="4.63419">
        <ele>675</ele>
        <time>2012-05-05T06:57:47Z</time>
      </trkpt>
      <trkpt lat="45.70157" lon="4.63415">
        <ele>675</ele>
        <time>2012-05-05T06:57:49Z</time>
      </trkpt>
      <trkpt lat="45.70157" lon="4.63408">
        <ele>676</ele>
        <time>2012-05-05T06:57:52Z</time>
      </trkpt>
      <trkpt lat="45.70157" lon="4.634">
        <ele>677</ele>
        <time>2012-05-05T06:57:57Z</time>
      </trkpt>
      <trkpt lat="45.70155" lon="4.63392">
        <ele>678</ele>
        <time>2012-05-05T06:58:01Z</time>
      </trkpt>
      <trkpt lat="45.70156" lon="4.63383">
        <ele>679</ele>
        <time>2012-05-05T06:58:05Z</time>
      </trkpt>
      <trkpt lat="45.70155" lon="4.63364">
        <ele>680</ele>
        <time>2012-05-05T06:58:14Z</time>
      </trkpt>
      <trkpt lat="45.70154" lon="4.6335">
        <ele>681</ele>
        <time>2012-05-05T06:58:21Z</time>
      </trkpt>
      <trkpt lat="45.70154" lon="4.63348">
        <ele>681</ele>
        <time>2012-05-05T06:58:22Z</time>
      </trkpt>
      <trkpt lat="45.70153" lon="4.63345">
        <ele>681</ele>
        <time>2012-05-05T06:58:23Z</time>
      </trkpt>
      <trkpt lat="45.70153" lon="4.63343">
        <ele>681</ele>
        <time>2012-05-05T06:58:24Z</time>
      </trkpt>
      <trkpt lat="45.70153" lon="4.63341">
        <ele>681</ele>
        <time>2012-05-05T06:58:25Z</time>
      </trkpt>
      <trkpt lat="45.70154" lon="4.63339">
        <ele>682</ele>
        <time>2012-05-05T06:58:26Z</time>
      </trkpt>
      <trkpt lat="45.70156" lon="4.63327">
        <ele>683</ele>
        <time>2012-05-05T06:58:33Z</time>
      </trkpt>
      <trkpt lat="45.70159" lon="4.63315">
        <ele>685</ele>
        <time>2012-05-05T06:58:40Z</time>
      </trkpt>
      <trkpt lat="45.70158" lon="4.63312">
        <ele>685</ele>
        <time>2012-05-05T06:58:42Z</time>
      </trkpt>
      <trkpt lat="45.70157" lon="4.63309">
        <ele>685</ele>
        <time>2012-05-05T06:58:43Z</time>
      </trkpt>
      <trkpt lat="45.70157" lon="4.63306">
        <ele>685</ele>
        <time>2012-05-05T06:58:44Z</time>
      </trkpt>
      <trkpt lat="45.70157" lon="4.63304">
        <ele>685</ele>
        <time>2012-05-05T06:58:45Z</time>
      </trkpt>
      <trkpt lat="45.70156" lon="4.63301">
        <ele>684</ele>
        <time>2012-05-05T06:58:46Z</time>
      </trkpt>
      <trkpt lat="45.70156" lon="4.63298">
        <ele>685</ele>
        <time>2012-05-05T06:58:47Z</time>
      </trkpt>
      <trkpt lat="45.70156" lon="4.63295">
        <ele>685</ele>
        <time>2012-05-05T06:58:48Z</time>
      </trkpt>
      <trkpt lat="45.70156" lon="4.63277">
        <ele>687</ele>
        <time>2012-05-05T06:58:55Z</time>
      </trkpt>
      <trkpt lat="45.70154" lon="4.6326">
        <ele>687</ele>
        <time>2012-05-05T06:59:02Z</time>
      </trkpt>
      <trkpt lat="45.70154" lon="4.63252">
        <ele>687</ele>
        <time>2012-05-05T06:59:05Z</time>
      </trkpt>
      <trkpt lat="45.70157" lon="4.63233">
        <ele>687</ele>
        <time>2012-05-05T06:59:13Z</time>
      </trkpt>
      <trkpt lat="45.70158" lon="4.63232">
        <ele>687</ele>
        <time>2012-05-05T06:59:14Z</time>
      </trkpt>
      <trkpt lat="45.70158" lon="4.63228">
        <ele>687</ele>
        <time>2012-05-05T06:59:16Z</time>
      </trkpt>
      <trkpt lat="45.70159" lon="4.63227">
        <ele>686</ele>
        <time>2012-05-05T06:59:17Z</time>
      </trkpt>
      <trkpt lat="45.7016" lon="4.63221">
        <ele>687</ele>
        <time>2012-05-05T06:59:21Z</time>
      </trkpt>
      <trkpt lat="45.70162" lon="4.63216">
        <ele>686</ele>
        <time>2012-05-05T06:59:27Z</time>
      </trkpt>
      <trkpt lat="45.70162" lon="4.63213">
        <ele>687</ele>
        <time>2012-05-05T06:59:44Z</time>
      </trkpt>
      <trkpt lat="45.70162" lon="4.63213">
        <ele>686</ele>
        <time>2012-05-05T07:00:03Z</time>
      </trkpt>
      <trkpt lat="45.70162" lon="4.63213">
        <ele>687</ele>
        <time>2012-05-05T07:00:17Z</time>
      </trkpt>
      <trkpt lat="45.70163" lon="4.63213">
        <ele>686</ele>
        <time>2012-05-05T07:00:34Z</time>
      </trkpt>
      <trkpt lat="45.70163" lon="4.63211">
        <ele>687</ele>
        <time>2012-05-05T07:00:38Z</time>
      </trkpt>
      <trkpt lat="45.70164" lon="4.6321">
        <ele>687</ele>
        <time>2012-05-05T07:00:39Z</time>
      </trkpt>
      <trkpt lat="45.70172" lon="4.63196">
        <ele>686</ele>
        <time>2012-05-05T07:00:45Z</time>
      </trkpt>
      <trkpt lat="45.70177" lon="4.63185">
        <ele>685</ele>
        <time>2012-05-05T07:00:47Z</time>
      </trkpt>
      <trkpt lat="45.70179" lon="4.63179">
        <ele>685</ele>
        <time>2012-05-05T07:00:48Z</time>
      </trkpt>
      <trkpt lat="45.70182" lon="4.63172">
        <ele>684</ele>
        <time>2012-05-05T07:00:49Z</time>
      </trkpt>
      <trkpt lat="45.70186" lon="4.63167">
        <ele>684</ele>
        <time>2012-05-05T07:00:50Z</time>
      </trkpt>
      <trkpt lat="45.70191" lon="4.63162">
        <ele>683</ele>
        <time>2012-05-05T07:00:51Z</time>
      </trkpt>
      <trkpt lat="45.70195" lon="4.63156">
        <ele>682</ele>
        <time>2012-05-05T07:00:52Z</time>
      </trkpt>
      <trkpt lat="45.702" lon="4.63152">
        <ele>681</ele>
        <time>2012-05-05T07:00:53Z</time>
      </trkpt>
      <trkpt lat="45.70205" lon="4.63147">
        <ele>681</ele>
        <time>2012-05-05T07:00:54Z</time>
      </trkpt>
      <trkpt lat="45.70209" lon="4.63142">
        <ele>680</ele>
        <time>2012-05-05T07:00:55Z</time>
      </trkpt>
      <trkpt lat="45.70214" lon="4.63136">
        <ele>679</ele>
        <time>2012-05-05T07:00:56Z</time>
      </trkpt>
      <trkpt lat="45.70218" lon="4.63131">
        <ele>679</ele>
        <time>2012-05-05T07:00:57Z</time>
      </trkpt>
      <trkpt lat="45.70222" lon="4.63125">
        <ele>678</ele>
        <time>2012-05-05T07:00:58Z</time>
      </trkpt>
      <trkpt lat="45.70226" lon="4.63118">
        <ele>678</ele>
        <time>2012-05-05T07:00:59Z</time>
      </trkpt>
      <trkpt lat="45.7023" lon="4.63111">
        <ele>678</ele>
        <time>2012-05-05T07:01:00Z</time>
      </trkpt>
      <trkpt lat="45.70246" lon="4.63085">
        <ele>676</ele>
        <time>2012-05-05T07:01:04Z</time>
      </trkpt>
      <trkpt lat="45.7025" lon="4.63079">
        <ele>676</ele>
        <time>2012-05-05T07:01:05Z</time>
      </trkpt>
      <trkpt lat="45.70257" lon="4.63064">
        <ele>675</ele>
        <time>2012-05-05T07:01:07Z</time>
      </trkpt>
      <trkpt lat="45.70259" lon="4.63057">
        <ele>675</ele>
        <time>2012-05-05T07:01:08Z</time>
      </trkpt>
      <trkpt lat="45.7026" lon="4.63049">
        <ele>675</ele>
        <time>2012-05-05T07:01:09Z</time>
      </trkpt>
      <trkpt lat="45.7026" lon="4.63041">
        <ele>675</ele>
        <time>2012-05-05T07:01:10Z</time>
      </trkpt>
      <trkpt lat="45.70261" lon="4.63034">
        <ele>674</ele>
        <time>2012-05-05T07:01:11Z</time>
      </trkpt>
      <trkpt lat="45.70263" lon="4.63021">
        <ele>675</ele>
        <time>2012-05-05T07:01:13Z</time>
      </trkpt>
      <trkpt lat="45.70265" lon="4.63015">
        <ele>675</ele>
        <time>2012-05-05T07:01:14Z</time>
      </trkpt>
      <trkpt lat="45.70266" lon="4.63009">
        <ele>674</ele>
        <time>2012-05-05T07:01:15Z</time>
      </trkpt>
      <trkpt lat="45.70276" lon="4.62977">
        <ele>673</ele>
        <time>2012-05-05T07:01:21Z</time>
      </trkpt>
      <trkpt lat="45.70279" lon="4.62971">
        <ele>673</ele>
        <time>2012-05-05T07:01:22Z</time>
      </trkpt>
      <trkpt lat="45.70286" lon="4.62952">
        <ele>673</ele>
        <time>2012-05-05T07:01:25Z</time>
      </trkpt>
      <trkpt lat="45.70289" lon="4.62946">
        <ele>673</ele>
        <time>2012-05-05T07:01:26Z</time>
      </trkpt>
      <trkpt lat="45.70294" lon="4.62933">
        <ele>672</ele>
        <time>2012-05-05T07:01:28Z</time>
      </trkpt>
      <trkpt lat="45.70297" lon="4.62925">
        <ele>672</ele>
        <time>2012-05-05T07:01:29Z</time>
      </trkpt>
      <trkpt lat="45.70303" lon="4.62911">
        <ele>671</ele>
        <time>2012-05-05T07:01:31Z</time>
      </trkpt>
      <trkpt lat="45.70312" lon="4.62891">
        <ele>671</ele>
        <time>2012-05-05T07:01:34Z</time>
      </trkpt>
      <trkpt lat="45.70313" lon="4.62882">
        <ele>670</ele>
        <time>2012-05-05T07:01:35Z</time>
      </trkpt>
      <trkpt lat="45.70313" lon="4.62874">
        <ele>670</ele>
        <time>2012-05-05T07:01:36Z</time>
      </trkpt>
      <trkpt lat="45.70313" lon="4.62865">
        <ele>670</ele>
        <time>2012-05-05T07:01:37Z</time>
      </trkpt>
      <trkpt lat="45.70312" lon="4.62857">
        <ele>670</ele>
        <time>2012-05-05T07:01:38Z</time>
      </trkpt>
      <trkpt lat="45.70312" lon="4.62848">
        <ele>669</ele>
        <time>2012-05-05T07:01:39Z</time>
      </trkpt>
      <trkpt lat="45.70312" lon="4.6284">
        <ele>669</ele>
        <time>2012-05-05T07:01:40Z</time>
      </trkpt>
      <trkpt lat="45.7031" lon="4.62832">
        <ele>669</ele>
        <time>2012-05-05T07:01:41Z</time>
      </trkpt>
      <trkpt lat="45.70309" lon="4.62827">
        <ele>669</ele>
        <time>2012-05-05T07:01:42Z</time>
      </trkpt>
      <trkpt lat="45.70307" lon="4.62822">
        <ele>667</ele>
        <time>2012-05-05T07:01:43Z</time>
      </trkpt>
      <trkpt lat="45.70305" lon="4.62816">
        <ele>667</ele>
        <time>2012-05-05T07:01:44Z</time>
      </trkpt>
      <trkpt lat="45.70305" lon="4.62809">
        <ele>666</ele>
        <time>2012-05-05T07:01:45Z</time>
      </trkpt>
      <trkpt lat="45.70304" lon="4.628">
        <ele>665</ele>
        <time>2012-05-05T07:01:46Z</time>
      </trkpt>
      <trkpt lat="45.70305" lon="4.6279">
        <ele>664</ele>
        <time>2012-05-05T07:01:47Z</time>
      </trkpt>
      <trkpt lat="45.70307" lon="4.62779">
        <ele>663</ele>
        <time>2012-05-05T07:01:48Z</time>
      </trkpt>
      <trkpt lat="45.70309" lon="4.62768">
        <ele>663</ele>
        <time>2012-05-05T07:01:49Z</time>
      </trkpt>
      <trkpt lat="45.70313" lon="4.62759">
        <ele>663</ele>
        <time>2012-05-05T07:01:50Z</time>
      </trkpt>
      <trkpt lat="45.70316" lon="4.6275">
        <ele>662</ele>
        <time>2012-05-05T07:01:51Z</time>
      </trkpt>
      <trkpt lat="45.70319" lon="4.6274">
        <ele>662</ele>
        <time>2012-05-05T07:01:52Z</time>
      </trkpt>
      <trkpt lat="45.70322" lon="4.6273">
        <ele>662</ele>
        <time>2012-05-05T07:01:53Z</time>
      </trkpt>
      <trkpt lat="45.70328" lon="4.62709">
        <ele>661</ele>
        <time>2012-05-05T07:01:55Z</time>
      </trkpt>
      <trkpt lat="45.7033" lon="4.62699">
        <ele>660</ele>
        <time>2012-05-05T07:01:56Z</time>
      </trkpt>
      <trkpt lat="45.70333" lon="4.62672">
        <ele>659</ele>
        <time>2012-05-05T07:01:59Z</time>
      </trkpt>
      <trkpt lat="45.70334" lon="4.62666">
        <ele>659</ele>
        <time>2012-05-05T07:02:00Z</time>
      </trkpt>
      <trkpt lat="45.70335" lon="4.6266">
        <ele>659</ele>
        <time>2012-05-05T07:02:01Z</time>
      </trkpt>
      <trkpt lat="45.70337" lon="4.62655">
        <ele>659</ele>
        <time>2012-05-05T07:02:02Z</time>
      </trkpt>
      <trkpt lat="45.70338" lon="4.62649">
        <ele>658</ele>
        <time>2012-05-05T07:02:03Z</time>
      </trkpt>
      <trkpt lat="45.70339" lon="4.62643">
        <ele>658</ele>
        <time>2012-05-05T07:02:04Z</time>
      </trkpt>
      <trkpt lat="45.70341" lon="4.62637">
        <ele>659</ele>
        <time>2012-05-05T07:02:05Z</time>
      </trkpt>
      <trkpt lat="45.70345" lon="4.6261">
        <ele>658</ele>
        <time>2012-05-05T07:02:10Z</time>
      </trkpt>
      <trkpt lat="45.70345" lon="4.626">
        <ele>659</ele>
        <time>2012-05-05T07:02:14Z</time>
      </trkpt>
      <trkpt lat="45.70343" lon="4.62598">
        <ele>659</ele>
        <time>2012-05-05T07:02:15Z</time>
      </trkpt>
      <trkpt lat="45.70339" lon="4.62589">
        <ele>659</ele>
        <time>2012-05-05T07:02:19Z</time>
      </trkpt>
      <trkpt lat="45.70335" lon="4.62581">
        <ele>660</ele>
        <time>2012-05-05T07:02:22Z</time>
      </trkpt>
      <trkpt lat="45.70329" lon="4.62565">
        <ele>662</ele>
        <time>2012-05-05T07:02:28Z</time>
      </trkpt>
      <trkpt lat="45.70326" lon="4.6255">
        <ele>664</ele>
        <time>2012-05-05T07:02:35Z</time>
      </trkpt>
      <trkpt lat="45.70324" lon="4.62536">
        <ele>665</ele>
        <time>2012-05-05T07:02:42Z</time>
      </trkpt>
      <trkpt lat="45.70322" lon="4.62517">
        <ele>668</ele>
        <time>2012-05-05T07:02:51Z</time>
      </trkpt>
      <trkpt lat="45.70322" lon="4.62516">
        <ele>667</ele>
        <time>2012-05-05T07:02:52Z</time>
      </trkpt>
      <trkpt lat="45.70322" lon="4.62513">
        <ele>668</ele>
        <time>2012-05-05T07:02:53Z</time>
      </trkpt>
      <trkpt lat="45.70323" lon="4.62511">
        <ele>668</ele>
        <time>2012-05-05T07:02:54Z</time>
      </trkpt>
      <trkpt lat="45.70323" lon="4.62509">
        <ele>668</ele>
        <time>2012-05-05T07:02:55Z</time>
      </trkpt>
      <trkpt lat="45.70324" lon="4.62508">
        <ele>669</ele>
        <time>2012-05-05T07:02:56Z</time>
      </trkpt>
      <trkpt lat="45.70324" lon="4.62506">
        <ele>669</ele>
        <time>2012-05-05T07:02:57Z</time>
      </trkpt>
      <trkpt lat="45.70324" lon="4.62504">
        <ele>669</ele>
        <time>2012-05-05T07:02:58Z</time>
      </trkpt>
      <trkpt lat="45.70325" lon="4.62502">
        <ele>669</ele>
        <time>2012-05-05T07:02:59Z</time>
      </trkpt>
      <trkpt lat="45.70324" lon="4.625">
        <ele>669</ele>
        <time>2012-05-05T07:03:00Z</time>
      </trkpt>
      <trkpt lat="45.70324" lon="4.62498">
        <ele>669</ele>
        <time>2012-05-05T07:03:01Z</time>
      </trkpt>
      <trkpt lat="45.70324" lon="4.62496">
        <ele>669</ele>
        <time>2012-05-05T07:03:02Z</time>
      </trkpt>
      <trkpt lat="45.70324" lon="4.62494">
        <ele>670</ele>
        <time>2012-05-05T07:03:03Z</time>
      </trkpt>
      <trkpt lat="45.70323" lon="4.62491">
        <ele>670</ele>
        <time>2012-05-05T07:03:04Z</time>
      </trkpt>
      <trkpt lat="45.70323" lon="4.62489">
        <ele>670</ele>
        <time>2012-05-05T07:03:05Z</time>
      </trkpt>
      <trkpt lat="45.70322" lon="4.62488">
        <ele>670</ele>
        <time>2012-05-05T07:03:06Z</time>
      </trkpt>
      <trkpt lat="45.70321" lon="4.62486">
        <ele>670</ele>
        <time>2012-05-05T07:03:07Z</time>
      </trkpt>
      <trkpt lat="45.7032" lon="4.62484">
        <ele>670</ele>
        <time>2012-05-05T07:03:08Z</time>
      </trkpt>
      <trkpt lat="45.70319" lon="4.62483">
        <ele>671</ele>
        <time>2012-05-05T07:03:09Z</time>
      </trkpt>
      <trkpt lat="45.70319" lon="4.62481">
        <ele>671</ele>
        <time>2012-05-05T07:03:10Z</time>
      </trkpt>
      <trkpt lat="45.70312" lon="4.62466">
        <ele>672</ele>
        <time>2012-05-05T07:03:17Z</time>
      </trkpt>
      <trkpt lat="45.70305" lon="4.62454">
        <ele>673</ele>
        <time>2012-05-05T07:03:23Z</time>
      </trkpt>
      <trkpt lat="45.70295" lon="4.62433">
        <ele>673</ele>
        <time>2012-05-05T07:03:31Z</time>
      </trkpt>
      <trkpt lat="45.70283" lon="4.62406">
        <ele>673</ele>
        <time>2012-05-05T07:03:39Z</time>
      </trkpt>
      <trkpt lat="45.70271" lon="4.62379">
        <ele>673</ele>
        <time>2012-05-05T07:03:46Z</time>
      </trkpt>
      <trkpt lat="45.70257" lon="4.62353">
        <ele>674</ele>
        <time>2012-05-05T07:03:54Z</time>
      </trkpt>
      <trkpt lat="45.70253" lon="4.62345">
        <ele>674</ele>
        <time>2012-05-05T07:03:57Z</time>
      </trkpt>
      <trkpt lat="45.70239" lon="4.62326">
        <ele>676</ele>
        <time>2012-05-05T07:04:06Z</time>
      </trkpt>
      <trkpt lat="45.70233" lon="4.62315">
        <ele>677</ele>
        <time>2012-05-05T07:04:12Z</time>
      </trkpt>
      <trkpt lat="45.70224" lon="4.62301">
        <ele>678</ele>
        <time>2012-05-05T07:04:20Z</time>
      </trkpt>
      <trkpt lat="45.7022" lon="4.62292">
        <ele>679</ele>
        <time>2012-05-05T07:04:25Z</time>
      </trkpt>
      <trkpt lat="45.70218" lon="4.62288">
        <ele>679</ele>
        <time>2012-05-05T07:04:27Z</time>
      </trkpt>
      <trkpt lat="45.70217" lon="4.62286">
        <ele>679</ele>
        <time>2012-05-05T07:04:28Z</time>
      </trkpt>
      <trkpt lat="45.70216" lon="4.62285">
        <ele>680</ele>
        <time>2012-05-05T07:04:29Z</time>
      </trkpt>
      <trkpt lat="45.70214" lon="4.62283">
        <ele>680</ele>
        <time>2012-05-05T07:04:30Z</time>
      </trkpt>
      <trkpt lat="45.70213" lon="4.62282">
        <ele>680</ele>
        <time>2012-05-05T07:04:31Z</time>
      </trkpt>
      <trkpt lat="45.70211" lon="4.6228">
        <ele>680</ele>
        <time>2012-05-05T07:04:32Z</time>
      </trkpt>
      <trkpt lat="45.7021" lon="4.62278">
        <ele>680</ele>
        <time>2012-05-05T07:04:33Z</time>
      </trkpt>
      <trkpt lat="45.70208" lon="4.62276">
        <ele>680</ele>
        <time>2012-05-05T07:04:34Z</time>
      </trkpt>
      <trkpt lat="45.70204" lon="4.62269">
        <ele>681</ele>
        <time>2012-05-05T07:04:38Z</time>
      </trkpt>
      <trkpt lat="45.70203" lon="4.62268">
        <ele>681</ele>
        <time>2012-05-05T07:04:39Z</time>
      </trkpt>
      <trkpt lat="45.70202" lon="4.62266">
        <ele>681</ele>
        <time>2012-05-05T07:04:40Z</time>
      </trkpt>
      <trkpt lat="45.70201" lon="4.62264">
        <ele>682</ele>
        <time>2012-05-05T07:04:41Z</time>
      </trkpt>
      <trkpt lat="45.70199" lon="4.62262">
        <ele>682</ele>
        <time>2012-05-05T07:04:42Z</time>
      </trkpt>
      <trkpt lat="45.70198" lon="4.62261">
        <ele>682</ele>
        <time>2012-05-05T07:04:43Z</time>
      </trkpt>
      <trkpt lat="45.70196" lon="4.62257">
        <ele>682</ele>
        <time>2012-05-05T07:04:45Z</time>
      </trkpt>
      <trkpt lat="45.70195" lon="4.62256">
        <ele>683</ele>
        <time>2012-05-05T07:04:46Z</time>
      </trkpt>
      <trkpt lat="45.70187" lon="4.62245">
        <ele>683</ele>
        <time>2012-05-05T07:04:53Z</time>
      </trkpt>
      <trkpt lat="45.7018" lon="4.62235">
        <ele>685</ele>
        <time>2012-05-05T07:05:00Z</time>
      </trkpt>
      <trkpt lat="45.70176" lon="4.62231">
        <ele>686</ele>
        <time>2012-05-05T07:05:03Z</time>
      </trkpt>
      <trkpt lat="45.70175" lon="4.62229">
        <ele>686</ele>
        <time>2012-05-05T07:05:04Z</time>
      </trkpt>
      <trkpt lat="45.70173" lon="4.62228">
        <ele>686</ele>
        <time>2012-05-05T07:05:05Z</time>
      </trkpt>
      <trkpt lat="45.70172" lon="4.62226">
        <ele>686</ele>
        <time>2012-05-05T07:05:06Z</time>
      </trkpt>
      <trkpt lat="45.70169" lon="4.62218">
        <ele>686</ele>
        <time>2012-05-05T07:05:11Z</time>
      </trkpt>
      <trkpt lat="45.70165" lon="4.62214">
        <ele>687</ele>
        <time>2012-05-05T07:05:15Z</time>
      </trkpt>
      <trkpt lat="45.70158" lon="4.62207">
        <ele>688</ele>
        <time>2012-05-05T07:05:20Z</time>
      </trkpt>
      <trkpt lat="45.70148" lon="4.62193">
        <ele>689</ele>
        <time>2012-05-05T07:05:29Z</time>
      </trkpt>
      <trkpt lat="45.70141" lon="4.62185">
        <ele>690</ele>
        <time>2012-05-05T07:05:35Z</time>
      </trkpt>
      <trkpt lat="45.70132" lon="4.6218">
        <ele>691</ele>
        <time>2012-05-05T07:05:40Z</time>
      </trkpt>
      <trkpt lat="45.70126" lon="4.62174">
        <ele>692</ele>
        <time>2012-05-05T07:05:45Z</time>
      </trkpt>
      <trkpt lat="45.70125" lon="4.62172">
        <ele>693</ele>
        <time>2012-05-05T07:05:46Z</time>
      </trkpt>
      <trkpt lat="45.70123" lon="4.62171">
        <ele>693</ele>
        <time>2012-05-05T07:05:47Z</time>
      </trkpt>
      <trkpt lat="45.70122" lon="4.62169">
        <ele>693</ele>
        <time>2012-05-05T07:05:48Z</time>
      </trkpt>
      <trkpt lat="45.70121" lon="4.62167">
        <ele>693</ele>
        <time>2012-05-05T07:05:49Z</time>
      </trkpt>
      <trkpt lat="45.70119" lon="4.62166">
        <ele>694</ele>
        <time>2012-05-05T07:05:50Z</time>
      </trkpt>
      <trkpt lat="45.70118" lon="4.62165">
        <ele>694</ele>
        <time>2012-05-05T07:05:51Z</time>
      </trkpt>
      <trkpt lat="45.70116" lon="4.62163">
        <ele>694</ele>
        <time>2012-05-05T07:05:52Z</time>
      </trkpt>
      <trkpt lat="45.70115" lon="4.62162">
        <ele>694</ele>
        <time>2012-05-05T07:05:53Z</time>
      </trkpt>
      <trkpt lat="45.70113" lon="4.62161">
        <ele>695</ele>
        <time>2012-05-05T07:05:54Z</time>
      </trkpt>
      <trkpt lat="45.70112" lon="4.6216">
        <ele>695</ele>
        <time>2012-05-05T07:05:55Z</time>
      </trkpt>
      <trkpt lat="45.7011" lon="4.62159">
        <ele>695</ele>
        <time>2012-05-05T07:05:56Z</time>
      </trkpt>
      <trkpt lat="45.70108" lon="4.62159">
        <ele>695</ele>
        <time>2012-05-05T07:05:57Z</time>
      </trkpt>
      <trkpt lat="45.70107" lon="4.62157">
        <ele>696</ele>
        <time>2012-05-05T07:05:58Z</time>
      </trkpt>
      <trkpt lat="45.70105" lon="4.62156">
        <ele>696</ele>
        <time>2012-05-05T07:05:59Z</time>
      </trkpt>
      <trkpt lat="45.70104" lon="4.62155">
        <ele>697</ele>
        <time>2012-05-05T07:06:00Z</time>
      </trkpt>
      <trkpt lat="45.70102" lon="4.62153">
        <ele>697</ele>
        <time>2012-05-05T07:06:01Z</time>
      </trkpt>
      <trkpt lat="45.70095" lon="4.62141">
        <ele>699</ele>
        <time>2012-05-05T07:06:08Z</time>
      </trkpt>
      <trkpt lat="45.70086" lon="4.62129">
        <ele>702</ele>
        <time>2012-05-05T07:06:16Z</time>
      </trkpt>
      <trkpt lat="45.70085" lon="4.62128">
        <ele>703</ele>
        <time>2012-05-05T07:06:17Z</time>
      </trkpt>
      <trkpt lat="45.70078" lon="4.62118">
        <ele>704</ele>
        <time>2012-05-05T07:06:24Z</time>
      </trkpt>
      <trkpt lat="45.70072" lon="4.62111">
        <ele>706</ele>
        <time>2012-05-05T07:06:30Z</time>
      </trkpt>
      <trkpt lat="45.70067" lon="4.62097">
        <ele>708</ele>
        <time>2012-05-05T07:06:38Z</time>
      </trkpt>
      <trkpt lat="45.70063" lon="4.62084">
        <ele>710</ele>
        <time>2012-05-05T07:06:45Z</time>
      </trkpt>
      <trkpt lat="45.70065" lon="4.62081">
        <ele>711</ele>
        <time>2012-05-05T07:06:49Z</time>
      </trkpt>
      <trkpt lat="45.7007" lon="4.62073">
        <ele>712</ele>
        <time>2012-05-05T07:06:56Z</time>
      </trkpt>
      <trkpt lat="45.70074" lon="4.62069">
        <ele>713</ele>
        <time>2012-05-05T07:07:02Z</time>
      </trkpt>
      <trkpt lat="45.70072" lon="4.62065">
        <ele>713</ele>
        <time>2012-05-05T07:07:06Z</time>
      </trkpt>
      <trkpt lat="45.70069" lon="4.62063">
        <ele>714</ele>
        <time>2012-05-05T07:07:09Z</time>
      </trkpt>
      <trkpt lat="45.70068" lon="4.62062">
        <ele>714</ele>
        <time>2012-05-05T07:07:10Z</time>
      </trkpt>
      <trkpt lat="45.70068" lon="4.62061">
        <ele>714</ele>
        <time>2012-05-05T07:07:11Z</time>
      </trkpt>
      <trkpt lat="45.70062" lon="4.62047">
        <ele>717</ele>
        <time>2012-05-05T07:07:21Z</time>
      </trkpt>
      <trkpt lat="45.70062" lon="4.62046">
        <ele>717</ele>
        <time>2012-05-05T07:07:22Z</time>
      </trkpt>
      <trkpt lat="45.70061" lon="4.62045">
        <ele>717</ele>
        <time>2012-05-05T07:07:23Z</time>
      </trkpt>
      <trkpt lat="45.70061" lon="4.62043">
        <ele>717</ele>
        <time>2012-05-05T07:07:24Z</time>
      </trkpt>
      <trkpt lat="45.70061" lon="4.62041">
        <ele>717</ele>
        <time>2012-05-05T07:07:25Z</time>
      </trkpt>
      <trkpt lat="45.70061" lon="4.6204">
        <ele>718</ele>
        <time>2012-05-05T07:07:26Z</time>
      </trkpt>
      <trkpt lat="45.70061" lon="4.62038">
        <ele>718</ele>
        <time>2012-05-05T07:07:27Z</time>
      </trkpt>
      <trkpt lat="45.70062" lon="4.62036">
        <ele>719</ele>
        <time>2012-05-05T07:07:29Z</time>
      </trkpt>
      <trkpt lat="45.70063" lon="4.62034">
        <ele>719</ele>
        <time>2012-05-05T07:07:30Z</time>
      </trkpt>
      <trkpt lat="45.70069" lon="4.6202">
        <ele>721</ele>
        <time>2012-05-05T07:07:40Z</time>
      </trkpt>
      <trkpt lat="45.70073" lon="4.6201">
        <ele>723</ele>
        <time>2012-05-05T07:07:47Z</time>
      </trkpt>
      <trkpt lat="45.70073" lon="4.62008">
        <ele>723</ele>
        <time>2012-05-05T07:07:48Z</time>
      </trkpt>
      <trkpt lat="45.70072" lon="4.62007">
        <ele>723</ele>
        <time>2012-05-05T07:07:49Z</time>
      </trkpt>
      <trkpt lat="45.70066" lon="4.61996">
        <ele>723</ele>
        <time>2012-05-05T07:07:57Z</time>
      </trkpt>
      <trkpt lat="45.70058" lon="4.61985">
        <ele>724</ele>
        <time>2012-05-05T07:08:06Z</time>
      </trkpt>
      <trkpt lat="45.70057" lon="4.61983">
        <ele>723</ele>
        <time>2012-05-05T07:08:07Z</time>
      </trkpt>
      <trkpt lat="45.70056" lon="4.61981">
        <ele>724</ele>
        <time>2012-05-05T07:08:09Z</time>
      </trkpt>
      <trkpt lat="45.70055" lon="4.6198">
        <ele>723</ele>
        <time>2012-05-05T07:08:10Z</time>
      </trkpt>
      <trkpt lat="45.70054" lon="4.61978">
        <ele>724</ele>
        <time>2012-05-05T07:08:11Z</time>
      </trkpt>
      <trkpt lat="45.70052" lon="4.61974">
        <ele>724</ele>
        <time>2012-05-05T07:08:14Z</time>
      </trkpt>
      <trkpt lat="45.70051" lon="4.61973">
        <ele>724</ele>
        <time>2012-05-05T07:08:15Z</time>
      </trkpt>
      <trkpt lat="45.70051" lon="4.61972">
        <ele>724</ele>
        <time>2012-05-05T07:08:16Z</time>
      </trkpt>
      <trkpt lat="45.7005" lon="4.61971">
        <ele>724</ele>
        <time>2012-05-05T07:08:17Z</time>
      </trkpt>
      <trkpt lat="45.70049" lon="4.61969">
        <ele>723</ele>
        <time>2012-05-05T07:08:18Z</time>
      </trkpt>
      <trkpt lat="45.70047" lon="4.61965">
        <ele>724</ele>
        <time>2012-05-05T07:08:21Z</time>
      </trkpt>
      <trkpt lat="45.70046" lon="4.61963">
        <ele>724</ele>
        <time>2012-05-05T07:08:22Z</time>
      </trkpt>
      <trkpt lat="45.70046" lon="4.61962">
        <ele>724</ele>
        <time>2012-05-05T07:08:23Z</time>
      </trkpt>
      <trkpt lat="45.70045" lon="4.61962">
        <ele>724</ele>
        <time>2012-05-05T07:08:24Z</time>
      </trkpt>
      <trkpt lat="45.70044" lon="4.61961">
        <ele>724</ele>
        <time>2012-05-05T07:08:25Z</time>
      </trkpt>
      <trkpt lat="45.70043" lon="4.61959">
        <ele>724</ele>
        <time>2012-05-05T07:08:26Z</time>
      </trkpt>
      <trkpt lat="45.70043" lon="4.61957">
        <ele>724</ele>
        <time>2012-05-05T07:08:27Z</time>
      </trkpt>
      <trkpt lat="45.70042" lon="4.61956">
        <ele>724</ele>
        <time>2012-05-05T07:08:28Z</time>
      </trkpt>
      <trkpt lat="45.70041" lon="4.61955">
        <ele>724</ele>
        <time>2012-05-05T07:08:29Z</time>
      </trkpt>
      <trkpt lat="45.70041" lon="4.61953">
        <ele>724</ele>
        <time>2012-05-05T07:08:30Z</time>
      </trkpt>
      <trkpt lat="45.7004" lon="4.61952">
        <ele>724</ele>
        <time>2012-05-05T07:08:31Z</time>
      </trkpt>
      <trkpt lat="45.70039" lon="4.61951">
        <ele>724</ele>
        <time>2012-05-05T07:08:32Z</time>
      </trkpt>
      <trkpt lat="45.70038" lon="4.6195">
        <ele>725</ele>
        <time>2012-05-05T07:08:33Z</time>
      </trkpt>
      <trkpt lat="45.70037" lon="4.61948">
        <ele>725</ele>
        <time>2012-05-05T07:08:34Z</time>
      </trkpt>
      <trkpt lat="45.70036" lon="4.61947">
        <ele>724</ele>
        <time>2012-05-05T07:08:35Z</time>
      </trkpt>
      <trkpt lat="45.70035" lon="4.61944">
        <ele>725</ele>
        <time>2012-05-05T07:08:37Z</time>
      </trkpt>
      <trkpt lat="45.70034" lon="4.61943">
        <ele>725</ele>
        <time>2012-05-05T07:08:38Z</time>
      </trkpt>
      <trkpt lat="45.70026" lon="4.6193">
        <ele>726</ele>
        <time>2012-05-05T07:08:47Z</time>
      </trkpt>
      <trkpt lat="45.70019" lon="4.61922">
        <ele>726</ele>
        <time>2012-05-05T07:08:53Z</time>
      </trkpt>
      <trkpt lat="45.70018" lon="4.61921">
        <ele>726</ele>
        <time>2012-05-05T07:08:54Z</time>
      </trkpt>
      <trkpt lat="45.70017" lon="4.6192">
        <ele>726</ele>
        <time>2012-05-05T07:08:55Z</time>
      </trkpt>
      <trkpt lat="45.70015" lon="4.61918">
        <ele>726</ele>
        <time>2012-05-05T07:08:56Z</time>
      </trkpt>
      <trkpt lat="45.70014" lon="4.61917">
        <ele>726</ele>
        <time>2012-05-05T07:08:57Z</time>
      </trkpt>
      <trkpt lat="45.70013" lon="4.61917">
        <ele>726</ele>
        <time>2012-05-05T07:08:58Z</time>
      </trkpt>
      <trkpt lat="45.69999" lon="4.6192">
        <ele>725</ele>
        <time>2012-05-05T07:09:04Z</time>
      </trkpt>
      <trkpt lat="45.69992" lon="4.61922">
        <ele>724</ele>
        <time>2012-05-05T07:09:06Z</time>
      </trkpt>
      <trkpt lat="45.69987" lon="4.6192">
        <ele>724</ele>
        <time>2012-05-05T07:09:07Z</time>
      </trkpt>
      <trkpt lat="45.69984" lon="4.61916">
        <ele>724</ele>
        <time>2012-05-05T07:09:08Z</time>
      </trkpt>
      <trkpt lat="45.69973" lon="4.61896">
        <ele>724</ele>
        <time>2012-05-05T07:09:14Z</time>
      </trkpt>
      <trkpt lat="45.6996" lon="4.61873">
        <ele>725</ele>
        <time>2012-05-05T07:09:23Z</time>
      </trkpt>
      <trkpt lat="45.69943" lon="4.6184">
        <ele>724</ele>
        <time>2012-05-05T07:09:35Z</time>
      </trkpt>
      <trkpt lat="45.69936" lon="4.61816">
        <ele>725</ele>
        <time>2012-05-05T07:09:43Z</time>
      </trkpt>
      <trkpt lat="45.69929" lon="4.61791">
        <ele>727</ele>
        <time>2012-05-05T07:09:52Z</time>
      </trkpt>
      <trkpt lat="45.69926" lon="4.61785">
        <ele>727</ele>
        <time>2012-05-05T07:09:55Z</time>
      </trkpt>
      <trkpt lat="45.69924" lon="4.61784">
        <ele>727</ele>
        <time>2012-05-05T07:09:56Z</time>
      </trkpt>
      <trkpt lat="45.69909" lon="4.61766">
        <ele>727</ele>
        <time>2012-05-05T07:10:05Z</time>
      </trkpt>
      <trkpt lat="45.69887" lon="4.61748">
        <ele>726</ele>
        <time>2012-05-05T07:10:13Z</time>
      </trkpt>
      <trkpt lat="45.69868" lon="4.61734">
        <ele>725</ele>
        <time>2012-05-05T07:10:20Z</time>
      </trkpt>
      <trkpt lat="45.69852" lon="4.6172">
        <ele>724</ele>
        <time>2012-05-05T07:10:28Z</time>
      </trkpt>
      <trkpt lat="45.69843" lon="4.61712">
        <ele>723</ele>
        <time>2012-05-05T07:10:35Z</time>
      </trkpt>
      <trkpt lat="45.69833" lon="4.61699">
        <ele>722</ele>
        <time>2012-05-05T07:10:40Z</time>
      </trkpt>
      <trkpt lat="45.69829" lon="4.61695">
        <ele>722</ele>
        <time>2012-05-05T07:10:41Z</time>
      </trkpt>
      <trkpt lat="45.69825" lon="4.61691">
        <ele>721</ele>
        <time>2012-05-05T07:10:42Z</time>
      </trkpt>
      <trkpt lat="45.69822" lon="4.61685">
        <ele>721</ele>
        <time>2012-05-05T07:10:43Z</time>
      </trkpt>
      <trkpt lat="45.69818" lon="4.61678">
        <ele>720</ele>
        <time>2012-05-05T07:10:44Z</time>
      </trkpt>
      <trkpt lat="45.69814" lon="4.6167">
        <ele>719</ele>
        <time>2012-05-05T07:10:45Z</time>
      </trkpt>
      <trkpt lat="45.69812" lon="4.61661">
        <ele>719</ele>
        <time>2012-05-05T07:10:46Z</time>
      </trkpt>
      <trkpt lat="45.69808" lon="4.61643">
        <ele>717</ele>
        <time>2012-05-05T07:10:48Z</time>
      </trkpt>
      <trkpt lat="45.69804" lon="4.61625">
        <ele>716</ele>
        <time>2012-05-05T07:10:50Z</time>
      </trkpt>
      <trkpt lat="45.69802" lon="4.61616">
        <ele>716</ele>
        <time>2012-05-05T07:10:51Z</time>
      </trkpt>
      <trkpt lat="45.69801" lon="4.61607">
        <ele>715</ele>
        <time>2012-05-05T07:10:52Z</time>
      </trkpt>
      <trkpt lat="45.698" lon="4.61599">
        <ele>715</ele>
        <time>2012-05-05T07:10:53Z</time>
      </trkpt>
      <trkpt lat="45.69801" lon="4.61544">
        <ele>715</ele>
        <time>2012-05-05T07:11:00Z</time>
      </trkpt>
      <trkpt lat="45.69805" lon="4.61512">
        <ele>716</ele>
        <time>2012-05-05T07:11:06Z</time>
      </trkpt>
      <trkpt lat="45.69805" lon="4.61508">
        <ele>716</ele>
        <time>2012-05-05T07:11:07Z</time>
      </trkpt>
      <trkpt lat="45.69805" lon="4.61503">
        <ele>716</ele>
        <time>2012-05-05T07:11:08Z</time>
      </trkpt>
      <trkpt lat="45.69804" lon="4.61498">
        <ele>717</ele>
        <time>2012-05-05T07:11:09Z</time>
      </trkpt>
      <trkpt lat="45.69804" lon="4.61492">
        <ele>716</ele>
        <time>2012-05-05T07:11:10Z</time>
      </trkpt>
      <trkpt lat="45.69803" lon="4.61487">
        <ele>717</ele>
        <time>2012-05-05T07:11:11Z</time>
      </trkpt>
      <trkpt lat="45.69802" lon="4.61481">
        <ele>717</ele>
        <time>2012-05-05T07:11:12Z</time>
      </trkpt>
      <trkpt lat="45.69802" lon="4.61476">
        <ele>717</ele>
        <time>2012-05-05T07:11:13Z</time>
      </trkpt>
      <trkpt lat="45.69801" lon="4.61437">
        <ele>718</ele>
        <time>2012-05-05T07:11:21Z</time>
      </trkpt>
      <trkpt lat="45.69802" lon="4.6143">
        <ele>718</ele>
        <time>2012-05-05T07:11:23Z</time>
      </trkpt>
      <trkpt lat="45.69802" lon="4.61428">
        <ele>718</ele>
        <time>2012-05-05T07:11:24Z</time>
      </trkpt>
      <trkpt lat="45.69802" lon="4.61425">
        <ele>718</ele>
        <time>2012-05-05T07:11:25Z</time>
      </trkpt>
      <trkpt lat="45.69801" lon="4.6142">
        <ele>717</ele>
        <time>2012-05-05T07:11:30Z</time>
      </trkpt>
      <trkpt lat="45.69802" lon="4.61415">
        <ele>717</ele>
        <time>2012-05-05T07:11:47Z</time>
      </trkpt>
      <trkpt lat="45.69801" lon="4.61416">
        <ele>717</ele>
        <time>2012-05-05T07:12:08Z</time>
      </trkpt>
      <trkpt lat="45.698" lon="4.61417">
        <ele>717</ele>
        <time>2012-05-05T07:12:33Z</time>
      </trkpt>
      <trkpt lat="45.698" lon="4.61417">
        <ele>717</ele>
        <time>2012-05-05T07:13:02Z</time>
      </trkpt>
      <trkpt lat="45.698" lon="4.61415">
        <ele>717</ele>
        <time>2012-05-05T07:13:25Z</time>
      </trkpt>
      <trkpt lat="45.698" lon="4.61415">
        <ele>717</ele>
        <time>2012-05-05T07:13:42Z</time>
      </trkpt>
      <trkpt lat="45.698" lon="4.61416">
        <ele>718</ele>
        <time>2012-05-05T07:14:00Z</time>
      </trkpt>
      <trkpt lat="45.698" lon="4.61417">
        <ele>718</ele>
        <time>2012-05-05T07:14:20Z</time>
      </trkpt>
      <trkpt lat="45.698" lon="4.61417">
        <ele>718</ele>
        <time>2012-05-05T07:14:40Z</time>
      </trkpt>
      <trkpt lat="45.698" lon="4.61417">
        <ele>718</ele>
        <time>2012-05-05T07:14:56Z</time>
      </trkpt>
      <trkpt lat="45.69799" lon="4.61415">
        <ele>719</ele>
        <time>2012-05-05T07:15:04Z</time>
      </trkpt>
      <trkpt lat="45.69798" lon="4.61413">
        <ele>718</ele>
        <time>2012-05-05T07:15:05Z</time>
      </trkpt>
      <trkpt lat="45.69797" lon="4.61411">
        <ele>718</ele>
        <time>2012-05-05T07:15:06Z</time>
      </trkpt>
      <trkpt lat="45.69796" lon="4.61409">
        <ele>718</ele>
        <time>2012-05-05T07:15:07Z</time>
      </trkpt>
      <trkpt lat="45.69796" lon="4.61406">
        <ele>718</ele>
        <time>2012-05-05T07:15:08Z</time>
      </trkpt>
      <trkpt lat="45.69795" lon="4.61403">
        <ele>717</ele>
        <time>2012-05-05T07:15:09Z</time>
      </trkpt>
      <trkpt lat="45.69795" lon="4.61399">
        <ele>718</ele>
        <time>2012-05-05T07:15:10Z</time>
      </trkpt>
      <trkpt lat="45.69791" lon="4.61372">
        <ele>717</ele>
        <time>2012-05-05T07:15:15Z</time>
      </trkpt>
      <trkpt lat="45.6979" lon="4.61365">
        <ele>716</ele>
        <time>2012-05-05T07:15:16Z</time>
      </trkpt>
      <trkpt lat="45.69791" lon="4.61358">
        <ele>716</ele>
        <time>2012-05-05T07:15:17Z</time>
      </trkpt>
      <trkpt lat="45.69795" lon="4.61335">
        <ele>715</ele>
        <time>2012-05-05T07:15:20Z</time>
      </trkpt>
      <trkpt lat="45.69796" lon="4.61326">
        <ele>715</ele>
        <time>2012-05-05T07:15:21Z</time>
      </trkpt>
      <trkpt lat="45.69798" lon="4.61318">
        <ele>714</ele>
        <time>2012-05-05T07:15:22Z</time>
      </trkpt>
      <trkpt lat="45.698" lon="4.6131">
        <ele>714</ele>
        <time>2012-05-05T07:15:23Z</time>
      </trkpt>
      <trkpt lat="45.69803" lon="4.61303">
        <ele>714</ele>
        <time>2012-05-05T07:15:24Z</time>
      </trkpt>
      <trkpt lat="45.69812" lon="4.61283">
        <ele>713</ele>
        <time>2012-05-05T07:15:27Z</time>
      </trkpt>
      <trkpt lat="45.69816" lon="4.61277">
        <ele>712</ele>
        <time>2012-05-05T07:15:28Z</time>
      </trkpt>
      <trkpt lat="45.69828" lon="4.61263">
        <ele>711</ele>
        <time>2012-05-05T07:15:31Z</time>
      </trkpt>
      <trkpt lat="45.69832" lon="4.6126">
        <ele>711</ele>
        <time>2012-05-05T07:15:32Z</time>
      </trkpt>
      <trkpt lat="45.69836" lon="4.61258">
        <ele>711</ele>
        <time>2012-05-05T07:15:33Z</time>
      </trkpt>
      <trkpt lat="45.6984" lon="4.61255">
        <ele>711</ele>
        <time>2012-05-05T07:15:34Z</time>
      </trkpt>
      <trkpt lat="45.69843" lon="4.61253">
        <ele>711</ele>
        <time>2012-05-05T07:15:35Z</time>
      </trkpt>
      <trkpt lat="45.69847" lon="4.61251">
        <ele>712</ele>
        <time>2012-05-05T07:15:36Z</time>
      </trkpt>
      <trkpt lat="45.6985" lon="4.61248">
        <ele>712</ele>
        <time>2012-05-05T07:15:37Z</time>
      </trkpt>
      <trkpt lat="45.69867" lon="4.61231">
        <ele>714</ele>
        <time>2012-05-05T07:15:42Z</time>
      </trkpt>
      <trkpt lat="45.69876" lon="4.6122">
        <ele>714</ele>
        <time>2012-05-05T07:15:45Z</time>
      </trkpt>
      <trkpt lat="45.69879" lon="4.61215">
        <ele>713</ele>
        <time>2012-05-05T07:15:46Z</time>
      </trkpt>
      <trkpt lat="45.69891" lon="4.61195">
        <ele>714</ele>
        <time>2012-05-05T07:15:51Z</time>
      </trkpt>
      <trkpt lat="45.69903" lon="4.61177">
        <ele>714</ele>
        <time>2012-05-05T07:15:56Z</time>
      </trkpt>
      <trkpt lat="45.69906" lon="4.61174">
        <ele>715</ele>
        <time>2012-05-05T07:15:57Z</time>
      </trkpt>
      <trkpt lat="45.69908" lon="4.6117">
        <ele>716</ele>
        <time>2012-05-05T07:15:58Z</time>
      </trkpt>
      <trkpt lat="45.69909" lon="4.61166">
        <ele>715</ele>
        <time>2012-05-05T07:15:59Z</time>
      </trkpt>
      <trkpt lat="45.6991" lon="4.6116">
        <ele>716</ele>
        <time>2012-05-05T07:16:00Z</time>
      </trkpt>
      <trkpt lat="45.6991" lon="4.61154">
        <ele>715</ele>
        <time>2012-05-05T07:16:01Z</time>
      </trkpt>
      <trkpt lat="45.69906" lon="4.61124">
        <ele>716</ele>
        <time>2012-05-05T07:16:06Z</time>
      </trkpt>
      <trkpt lat="45.69897" lon="4.61093">
        <ele>715</ele>
        <time>2012-05-05T07:16:11Z</time>
      </trkpt>
      <trkpt lat="45.69895" lon="4.61087">
        <ele>715</ele>
        <time>2012-05-05T07:16:12Z</time>
      </trkpt>
      <trkpt lat="45.69888" lon="4.61067">
        <ele>714</ele>
        <time>2012-05-05T07:16:15Z</time>
      </trkpt>
      <trkpt lat="45.69884" lon="4.61053">
        <ele>713</ele>
        <time>2012-05-05T07:16:17Z</time>
      </trkpt>
      <trkpt lat="45.69879" lon="4.61023">
        <ele>713</ele>
        <time>2012-05-05T07:16:21Z</time>
      </trkpt>
      <trkpt lat="45.69876" lon="4.60993">
        <ele>711</ele>
        <time>2012-05-05T07:16:25Z</time>
      </trkpt>
      <trkpt lat="45.69877" lon="4.60982">
        <ele>711</ele>
        <time>2012-05-05T07:16:27Z</time>
      </trkpt>
      <trkpt lat="45.69878" lon="4.60974">
        <ele>710</ele>
        <time>2012-05-05T07:16:28Z</time>
      </trkpt>
      <trkpt lat="45.69879" lon="4.60965">
        <ele>710</ele>
        <time>2012-05-05T07:16:29Z</time>
      </trkpt>
      <trkpt lat="45.6988" lon="4.60957">
        <ele>708</ele>
        <time>2012-05-05T07:16:30Z</time>
      </trkpt>
      <trkpt lat="45.69882" lon="4.60946">
        <ele>708</ele>
        <time>2012-05-05T07:16:31Z</time>
      </trkpt>
      <trkpt lat="45.69885" lon="4.60936">
        <ele>706</ele>
        <time>2012-05-05T07:16:32Z</time>
      </trkpt>
      <trkpt lat="45.69902" lon="4.60878">
        <ele>703</ele>
        <time>2012-05-05T07:16:37Z</time>
      </trkpt>
      <trkpt lat="45.69915" lon="4.60825">
        <ele>700</ele>
        <time>2012-05-05T07:16:42Z</time>
      </trkpt>
      <trkpt lat="45.6992" lon="4.60804">
        <ele>699</ele>
        <time>2012-05-05T07:16:44Z</time>
      </trkpt>
      <trkpt lat="45.69925" lon="4.60772">
        <ele>699</ele>
        <time>2012-05-05T07:16:47Z</time>
      </trkpt>
      <trkpt lat="45.69925" lon="4.60761">
        <ele>698</ele>
        <time>2012-05-05T07:16:48Z</time>
      </trkpt>
      <trkpt lat="45.69924" lon="4.60751">
        <ele>698</ele>
        <time>2012-05-05T07:16:49Z</time>
      </trkpt>
      <trkpt lat="45.69923" lon="4.60744">
        <ele>697</ele>
        <time>2012-05-05T07:16:50Z</time>
      </trkpt>
      <trkpt lat="45.69922" lon="4.60738">
        <ele>697</ele>
        <time>2012-05-05T07:16:51Z</time>
      </trkpt>
      <trkpt lat="45.6992" lon="4.60732">
        <ele>696</ele>
        <time>2012-05-05T07:16:52Z</time>
      </trkpt>
      <trkpt lat="45.69919" lon="4.60729">
        <ele>697</ele>
        <time>2012-05-05T07:16:53Z</time>
      </trkpt>
      <trkpt lat="45.69916" lon="4.60722">
        <ele>696</ele>
        <time>2012-05-05T07:16:55Z</time>
      </trkpt>
      <trkpt lat="45.69916" lon="4.60718">
        <ele>696</ele>
        <time>2012-05-05T07:16:56Z</time>
      </trkpt>
      <trkpt lat="45.69915" lon="4.60715">
        <ele>697</ele>
        <time>2012-05-05T07:16:57Z</time>
      </trkpt>
      <trkpt lat="45.69914" lon="4.60712">
        <ele>696</ele>
        <time>2012-05-05T07:16:58Z</time>
      </trkpt>
      <trkpt lat="45.69914" lon="4.60709">
        <ele>696</ele>
        <time>2012-05-05T07:16:59Z</time>
      </trkpt>
      <trkpt lat="45.69913" lon="4.60707">
        <ele>696</ele>
        <time>2012-05-05T07:17:00Z</time>
      </trkpt>
      <trkpt lat="45.69913" lon="4.60704">
        <ele>696</ele>
        <time>2012-05-05T07:17:01Z</time>
      </trkpt>
      <trkpt lat="45.69912" lon="4.60702">
        <ele>696</ele>
        <time>2012-05-05T07:17:02Z</time>
      </trkpt>
      <trkpt lat="45.69911" lon="4.60699">
        <ele>696</ele>
        <time>2012-05-05T07:17:03Z</time>
      </trkpt>
      <trkpt lat="45.69911" lon="4.60697">
        <ele>696</ele>
        <time>2012-05-05T07:17:04Z</time>
      </trkpt>
      <trkpt lat="45.6991" lon="4.60695">
        <ele>696</ele>
        <time>2012-05-05T07:17:05Z</time>
      </trkpt>
      <trkpt lat="45.6991" lon="4.60692">
        <ele>696</ele>
        <time>2012-05-05T07:17:06Z</time>
      </trkpt>
      <trkpt lat="45.69905" lon="4.60665">
        <ele>696</ele>
        <time>2012-05-05T07:17:13Z</time>
      </trkpt>
      <trkpt lat="45.69893" lon="4.60641">
        <ele>696</ele>
        <time>2012-05-05T07:17:19Z</time>
      </trkpt>
      <trkpt lat="45.69877" lon="4.60621">
        <ele>697</ele>
        <time>2012-05-05T07:17:25Z</time>
      </trkpt>
      <trkpt lat="45.69871" lon="4.60615">
        <ele>698</ele>
        <time>2012-05-05T07:17:27Z</time>
      </trkpt>
      <trkpt lat="45.69858" lon="4.60593">
        <ele>698</ele>
        <time>2012-05-05T07:17:33Z</time>
      </trkpt>
      <trkpt lat="45.6985" lon="4.60561">
        <ele>699</ele>
        <time>2012-05-05T07:17:40Z</time>
      </trkpt>
      <trkpt lat="45.69849" lon="4.60538">
        <ele>700</ele>
        <time>2012-05-05T07:17:46Z</time>
      </trkpt>
      <trkpt lat="45.69849" lon="4.60501">
        <ele>703</ele>
        <time>2012-05-05T07:17:55Z</time>
      </trkpt>
      <trkpt lat="45.6985" lon="4.60476">
        <ele>703</ele>
        <time>2012-05-05T07:18:02Z</time>
      </trkpt>
      <trkpt lat="45.6985" lon="4.60441">
        <ele>703</ele>
        <time>2012-05-05T07:18:10Z</time>
      </trkpt>
      <trkpt lat="45.6985" lon="4.60425">
        <ele>704</ele>
        <time>2012-05-05T07:18:15Z</time>
      </trkpt>
      <trkpt lat="45.6985" lon="4.60423">
        <ele>704</ele>
        <time>2012-05-05T07:18:16Z</time>
      </trkpt>
      <trkpt lat="45.69851" lon="4.60421">
        <ele>704</ele>
        <time>2012-05-05T07:18:17Z</time>
      </trkpt>
      <trkpt lat="45.69853" lon="4.60419">
        <ele>704</ele>
        <time>2012-05-05T07:18:18Z</time>
      </trkpt>
      <trkpt lat="45.69853" lon="4.60416">
        <ele>705</ele>
        <time>2012-05-05T07:18:19Z</time>
      </trkpt>
      <trkpt lat="45.69854" lon="4.60412">
        <ele>705</ele>
        <time>2012-05-05T07:18:20Z</time>
      </trkpt>
      <trkpt lat="45.69853" lon="4.60408">
        <ele>706</ele>
        <time>2012-05-05T07:18:21Z</time>
      </trkpt>
      <trkpt lat="45.69853" lon="4.60404">
        <ele>706</ele>
        <time>2012-05-05T07:18:22Z</time>
      </trkpt>
      <trkpt lat="45.69852" lon="4.604">
        <ele>706</ele>
        <time>2012-05-05T07:18:23Z</time>
      </trkpt>
      <trkpt lat="45.69851" lon="4.60396">
        <ele>706</ele>
        <time>2012-05-05T07:18:24Z</time>
      </trkpt>
      <trkpt lat="45.6985" lon="4.60391">
        <ele>706</ele>
        <time>2012-05-05T07:18:25Z</time>
      </trkpt>
      <trkpt lat="45.69851" lon="4.60363">
        <ele>708</ele>
        <time>2012-05-05T07:18:32Z</time>
      </trkpt>
      <trkpt lat="45.69852" lon="4.60342">
        <ele>710</ele>
        <time>2012-05-05T07:18:38Z</time>
      </trkpt>
      <trkpt lat="45.69855" lon="4.60318">
        <ele>711</ele>
        <time>2012-05-05T07:18:45Z</time>
      </trkpt>
      <trkpt lat="45.69855" lon="4.60302">
        <ele>710</ele>
        <time>2012-05-05T07:18:51Z</time>
      </trkpt>
      <trkpt lat="45.69856" lon="4.6028">
        <ele>710</ele>
        <time>2012-05-05T07:18:59Z</time>
      </trkpt>
      <trkpt lat="45.69855" lon="4.60258">
        <ele>708</ele>
        <time>2012-05-05T07:19:03Z</time>
      </trkpt>
      <trkpt lat="45.69857" lon="4.60251">
        <ele>707</ele>
        <time>2012-05-05T07:19:04Z</time>
      </trkpt>
      <trkpt lat="45.69859" lon="4.60243">
        <ele>707</ele>
        <time>2012-05-05T07:19:05Z</time>
      </trkpt>
      <trkpt lat="45.69862" lon="4.60236">
        <ele>707</ele>
        <time>2012-05-05T07:19:06Z</time>
      </trkpt>
      <trkpt lat="45.69866" lon="4.6023">
        <ele>706</ele>
        <time>2012-05-05T07:19:07Z</time>
      </trkpt>
      <trkpt lat="45.69887" lon="4.60197">
        <ele>705</ele>
        <time>2012-05-05T07:19:12Z</time>
      </trkpt>
      <trkpt lat="45.69892" lon="4.60191">
        <ele>705</ele>
        <time>2012-05-05T07:19:13Z</time>
      </trkpt>
      <trkpt lat="45.69908" lon="4.60171">
        <ele>703</ele>
        <time>2012-05-05T07:19:16Z</time>
      </trkpt>
      <trkpt lat="45.69928" lon="4.60148">
        <ele>702</ele>
        <time>2012-05-05T07:19:20Z</time>
      </trkpt>
      <trkpt lat="45.69954" lon="4.60115">
        <ele>701</ele>
        <time>2012-05-05T07:19:27Z</time>
      </trkpt>
      <trkpt lat="45.69968" lon="4.60093">
        <ele>702</ele>
        <time>2012-05-05T07:19:33Z</time>
      </trkpt>
      <trkpt lat="45.69987" lon="4.6006">
        <ele>702</ele>
        <time>2012-05-05T07:19:41Z</time>
      </trkpt>
      <trkpt lat="45.70001" lon="4.60035">
        <ele>701</ele>
        <time>2012-05-05T07:19:47Z</time>
      </trkpt>
      <trkpt lat="45.70021" lon="4.60011">
        <ele>702</ele>
        <time>2012-05-05T07:19:54Z</time>
      </trkpt>
      <trkpt lat="45.70025" lon="4.60004">
        <ele>702</ele>
        <time>2012-05-05T07:19:57Z</time>
      </trkpt>
      <trkpt lat="45.70027" lon="4.60002">
        <ele>703</ele>
        <time>2012-05-05T07:19:58Z</time>
      </trkpt>
      <trkpt lat="45.70045" lon="4.59972">
        <ele>704</ele>
        <time>2012-05-05T07:20:07Z</time>
      </trkpt>
      <trkpt lat="45.70056" lon="4.59947">
        <ele>704</ele>
        <time>2012-05-05T07:20:14Z</time>
      </trkpt>
      <trkpt lat="45.70065" lon="4.59923">
        <ele>705</ele>
        <time>2012-05-05T07:20:20Z</time>
      </trkpt>
      <trkpt lat="45.70078" lon="4.59891">
        <ele>704</ele>
        <time>2012-05-05T07:20:27Z</time>
      </trkpt>
      <trkpt lat="45.7009" lon="4.59867">
        <ele>704</ele>
        <time>2012-05-05T07:20:33Z</time>
      </trkpt>
      <trkpt lat="45.70103" lon="4.59843">
        <ele>704</ele>
        <time>2012-05-05T07:20:39Z</time>
      </trkpt>
      <trkpt lat="45.70105" lon="4.59838">
        <ele>703</ele>
        <time>2012-05-05T07:20:40Z</time>
      </trkpt>
      <trkpt lat="45.70121" lon="4.59798">
        <ele>703</ele>
        <time>2012-05-05T07:20:47Z</time>
      </trkpt>
      <trkpt lat="45.70143" lon="4.59758">
        <ele>705</ele>
        <time>2012-05-05T07:20:57Z</time>
      </trkpt>
      <trkpt lat="45.70157" lon="4.59732">
        <ele>707</ele>
        <time>2012-05-05T07:21:04Z</time>
      </trkpt>
      <trkpt lat="45.7017" lon="4.59712">
        <ele>707</ele>
        <time>2012-05-05T07:21:10Z</time>
      </trkpt>
      <trkpt lat="45.70187" lon="4.59685">
        <ele>709</ele>
        <time>2012-05-05T07:21:18Z</time>
      </trkpt>
      <trkpt lat="45.702" lon="4.59662">
        <ele>710</ele>
        <time>2012-05-05T07:21:25Z</time>
      </trkpt>
      <trkpt lat="45.70216" lon="4.59631">
        <ele>712</ele>
        <time>2012-05-05T07:21:34Z</time>
      </trkpt>
      <trkpt lat="45.70237" lon="4.59598">
        <ele>714</ele>
        <time>2012-05-05T07:21:44Z</time>
      </trkpt>
      <trkpt lat="45.70252" lon="4.59577">
        <ele>715</ele>
        <time>2012-05-05T07:21:51Z</time>
      </trkpt>
      <trkpt lat="45.7027" lon="4.59549">
        <ele>716</ele>
        <time>2012-05-05T07:22:00Z</time>
      </trkpt>
      <trkpt lat="45.70285" lon="4.59523">
        <ele>718</ele>
        <time>2012-05-05T07:22:08Z</time>
      </trkpt>
      <trkpt lat="45.70301" lon="4.59497">
        <ele>720</ele>
        <time>2012-05-05T07:22:16Z</time>
      </trkpt>
      <trkpt lat="45.70317" lon="4.59471">
        <ele>721</ele>
        <time>2012-05-05T07:22:24Z</time>
      </trkpt>
      <trkpt lat="45.70336" lon="4.5944">
        <ele>723</ele>
        <time>2012-05-05T07:22:34Z</time>
      </trkpt>
      <trkpt lat="45.70347" lon="4.59422">
        <ele>724</ele>
        <time>2012-05-05T07:22:40Z</time>
      </trkpt>
      <trkpt lat="45.70361" lon="4.59404">
        <ele>725</ele>
        <time>2012-05-05T07:22:47Z</time>
      </trkpt>
      <trkpt lat="45.70375" lon="4.59381">
        <ele>726</ele>
        <time>2012-05-05T07:22:55Z</time>
      </trkpt>
      <trkpt lat="45.70393" lon="4.59355">
        <ele>728</ele>
        <time>2012-05-05T07:23:05Z</time>
      </trkpt>
      <trkpt lat="45.70407" lon="4.59338">
        <ele>729</ele>
        <time>2012-05-05T07:23:12Z</time>
      </trkpt>
      <trkpt lat="45.70423" lon="4.5933">
        <ele>730</ele>
        <time>2012-05-05T07:23:19Z</time>
      </trkpt>
      <trkpt lat="45.70444" lon="4.59324">
        <ele>731</ele>
        <time>2012-05-05T07:23:27Z</time>
      </trkpt>
      <trkpt lat="45.70456" lon="4.59325">
        <ele>732</ele>
        <time>2012-05-05T07:23:33Z</time>
      </trkpt>
      <trkpt lat="45.70456" lon="4.59327">
        <ele>732</ele>
        <time>2012-05-05T07:23:34Z</time>
      </trkpt>
      <trkpt lat="45.70455" lon="4.59328">
        <ele>732</ele>
        <time>2012-05-05T07:23:35Z</time>
      </trkpt>
      <trkpt lat="45.70449" lon="4.59342">
        <ele>733</ele>
        <time>2012-05-05T07:23:42Z</time>
      </trkpt>
      <trkpt lat="45.70439" lon="4.59375">
        <ele>734</ele>
        <time>2012-05-05T07:23:53Z</time>
      </trkpt>
      <trkpt lat="45.70431" lon="4.59402">
        <ele>735</ele>
        <time>2012-05-05T07:24:02Z</time>
      </trkpt>
      <trkpt lat="45.70425" lon="4.59421">
        <ele>736</ele>
        <time>2012-05-05T07:24:10Z</time>
      </trkpt>
      <trkpt lat="45.70418" lon="4.59437">
        <ele>738</ele>
        <time>2012-05-05T07:24:17Z</time>
      </trkpt>
      <trkpt lat="45.70412" lon="4.59452">
        <ele>741</ele>
        <time>2012-05-05T07:24:24Z</time>
      </trkpt>
      <trkpt lat="45.70405" lon="4.59474">
        <ele>743</ele>
        <time>2012-05-05T07:24:34Z</time>
      </trkpt>
      <trkpt lat="45.70401" lon="4.59493">
        <ele>745</ele>
        <time>2012-05-05T07:24:42Z</time>
      </trkpt>
      <trkpt lat="45.70399" lon="4.59519">
        <ele>746</ele>
        <time>2012-05-05T07:24:52Z</time>
      </trkpt>
      <trkpt lat="45.70395" lon="4.59541">
        <ele>747</ele>
        <time>2012-05-05T07:25:00Z</time>
      </trkpt>
      <trkpt lat="45.70391" lon="4.59556">
        <ele>748</ele>
        <time>2012-05-05T07:25:07Z</time>
      </trkpt>
      <trkpt lat="45.70387" lon="4.59575">
        <ele>750</ele>
        <time>2012-05-05T07:25:16Z</time>
      </trkpt>
      <trkpt lat="45.70387" lon="4.59579">
        <ele>751</ele>
        <time>2012-05-05T07:25:18Z</time>
      </trkpt>
      <trkpt lat="45.70388" lon="4.59581">
        <ele>751</ele>
        <time>2012-05-05T07:25:19Z</time>
      </trkpt>
      <trkpt lat="45.70389" lon="4.59582">
        <ele>751</ele>
        <time>2012-05-05T07:25:20Z</time>
      </trkpt>
      <trkpt lat="45.7039" lon="4.59583">
        <ele>751</ele>
        <time>2012-05-05T07:25:21Z</time>
      </trkpt>
      <trkpt lat="45.70391" lon="4.59584">
        <ele>751</ele>
        <time>2012-05-05T07:25:22Z</time>
      </trkpt>
      <trkpt lat="45.70393" lon="4.59585">
        <ele>752</ele>
        <time>2012-05-05T07:25:23Z</time>
      </trkpt>
      <trkpt lat="45.70394" lon="4.59586">
        <ele>752</ele>
        <time>2012-05-05T07:25:24Z</time>
      </trkpt>
      <trkpt lat="45.70396" lon="4.59586">
        <ele>752</ele>
        <time>2012-05-05T07:25:25Z</time>
      </trkpt>
      <trkpt lat="45.70396" lon="4.59587">
        <ele>752</ele>
        <time>2012-05-05T07:25:26Z</time>
      </trkpt>
      <trkpt lat="45.70405" lon="4.59592">
        <ele>753</ele>
        <time>2012-05-05T07:25:33Z</time>
      </trkpt>
      <trkpt lat="45.70414" lon="4.59598">
        <ele>755</ele>
        <time>2012-05-05T07:25:40Z</time>
      </trkpt>
      <trkpt lat="45.70418" lon="4.59601">
        <ele>755</ele>
        <time>2012-05-05T07:25:42Z</time>
      </trkpt>
      <trkpt lat="45.7042" lon="4.59601">
        <ele>755</ele>
        <time>2012-05-05T07:25:43Z</time>
      </trkpt>
      <trkpt lat="45.70422" lon="4.59603">
        <ele>755</ele>
        <time>2012-05-05T07:25:44Z</time>
      </trkpt>
      <trkpt lat="45.70424" lon="4.59604">
        <ele>755</ele>
        <time>2012-05-05T07:25:45Z</time>
      </trkpt>
      <trkpt lat="45.70425" lon="4.59606">
        <ele>755</ele>
        <time>2012-05-05T07:25:46Z</time>
      </trkpt>
      <trkpt lat="45.70427" lon="4.59607">
        <ele>755</ele>
        <time>2012-05-05T07:25:47Z</time>
      </trkpt>
      <trkpt lat="45.70429" lon="4.59609">
        <ele>755</ele>
        <time>2012-05-05T07:25:48Z</time>
      </trkpt>
      <trkpt lat="45.7043" lon="4.59611">
        <ele>755</ele>
        <time>2012-05-05T07:25:49Z</time>
      </trkpt>
      <trkpt lat="45.7044" lon="4.59629">
        <ele>754</ele>
        <time>2012-05-05T07:25:54Z</time>
      </trkpt>
      <trkpt lat="45.70443" lon="4.59635">
        <ele>753</ele>
        <time>2012-05-05T07:25:55Z</time>
      </trkpt>
      <trkpt lat="45.70446" lon="4.59642">
        <ele>753</ele>
        <time>2012-05-05T07:25:56Z</time>
      </trkpt>
      <trkpt lat="45.70448" lon="4.59649">
        <ele>753</ele>
        <time>2012-05-05T07:25:57Z</time>
      </trkpt>
      <trkpt lat="45.70461" lon="4.59685">
        <ele>751</ele>
        <time>2012-05-05T07:26:02Z</time>
      </trkpt>
      <trkpt lat="45.70472" lon="4.59726">
        <ele>751</ele>
        <time>2012-05-05T07:26:09Z</time>
      </trkpt>
      <trkpt lat="45.70481" lon="4.59753">
        <ele>752</ele>
        <time>2012-05-05T07:26:15Z</time>
      </trkpt>
      <trkpt lat="45.70482" lon="4.59757">
        <ele>752</ele>
        <time>2012-05-05T07:26:16Z</time>
      </trkpt>
      <trkpt lat="45.70482" lon="4.5976">
        <ele>752</ele>
        <time>2012-05-05T07:26:17Z</time>
      </trkpt>
      <trkpt lat="45.70482" lon="4.59763">
        <ele>752</ele>
        <time>2012-05-05T07:26:18Z</time>
      </trkpt>
      <trkpt lat="45.70483" lon="4.59767">
        <ele>752</ele>
        <time>2012-05-05T07:26:19Z</time>
      </trkpt>
      <trkpt lat="45.70484" lon="4.59771">
        <ele>752</ele>
        <time>2012-05-05T07:26:20Z</time>
      </trkpt>
      <trkpt lat="45.70485" lon="4.59774">
        <ele>752</ele>
        <time>2012-05-05T07:26:21Z</time>
      </trkpt>
      <trkpt lat="45.70485" lon="4.59778">
        <ele>752</ele>
        <time>2012-05-05T07:26:22Z</time>
      </trkpt>
      <trkpt lat="45.70485" lon="4.59783">
        <ele>752</ele>
        <time>2012-05-05T07:26:26Z</time>
      </trkpt>
      <trkpt lat="45.70483" lon="4.59786">
        <ele>752</ele>
        <time>2012-05-05T07:26:39Z</time>
      </trkpt>
      <trkpt lat="45.70481" lon="4.59789">
        <ele>752</ele>
        <time>2012-05-05T07:26:41Z</time>
      </trkpt>
      <trkpt lat="45.7048" lon="4.59792">
        <ele>752</ele>
        <time>2012-05-05T07:26:42Z</time>
      </trkpt>
      <trkpt lat="45.7048" lon="4.59794">
        <ele>753</ele>
        <time>2012-05-05T07:26:43Z</time>
      </trkpt>
      <trkpt lat="45.70481" lon="4.59797">
        <ele>753</ele>
        <time>2012-05-05T07:26:44Z</time>
      </trkpt>
      <trkpt lat="45.70482" lon="4.59799">
        <ele>753</ele>
        <time>2012-05-05T07:26:45Z</time>
      </trkpt>
      <trkpt lat="45.70482" lon="4.59803">
        <ele>754</ele>
        <time>2012-05-05T07:26:46Z</time>
      </trkpt>
      <trkpt lat="45.70485" lon="4.59826">
        <ele>755</ele>
        <time>2012-05-05T07:26:53Z</time>
      </trkpt>
      <trkpt lat="45.70483" lon="4.59841">
        <ele>755</ele>
        <time>2012-05-05T07:26:57Z</time>
      </trkpt>
      <trkpt lat="45.70481" lon="4.59844">
        <ele>755</ele>
        <time>2012-05-05T07:26:58Z</time>
      </trkpt>
      <trkpt lat="45.7048" lon="4.59848">
        <ele>755</ele>
        <time>2012-05-05T07:26:59Z</time>
      </trkpt>
      <trkpt lat="45.7048" lon="4.59851">
        <ele>755</ele>
        <time>2012-05-05T07:27:00Z</time>
      </trkpt>
      <trkpt lat="45.7048" lon="4.59855">
        <ele>755</ele>
        <time>2012-05-05T07:27:01Z</time>
      </trkpt>
      <trkpt lat="45.70485" lon="4.59879">
        <ele>755</ele>
        <time>2012-05-05T07:27:06Z</time>
      </trkpt>
      <trkpt lat="45.70484" lon="4.59884">
        <ele>755</ele>
        <time>2012-05-05T07:27:07Z</time>
      </trkpt>
      <trkpt lat="45.70483" lon="4.59909">
        <ele>754</ele>
        <time>2012-05-05T07:27:12Z</time>
      </trkpt>
      <trkpt lat="45.70484" lon="4.59913">
        <ele>755</ele>
        <time>2012-05-05T07:27:13Z</time>
      </trkpt>
      <trkpt lat="45.70484" lon="4.59917">
        <ele>755</ele>
        <time>2012-05-05T07:27:14Z</time>
      </trkpt>
      <trkpt lat="45.70484" lon="4.59921">
        <ele>754</ele>
        <time>2012-05-05T07:27:15Z</time>
      </trkpt>
      <trkpt lat="45.70484" lon="4.59924">
        <ele>755</ele>
        <time>2012-05-05T07:27:16Z</time>
      </trkpt>
      <trkpt lat="45.70484" lon="4.59927">
        <ele>755</ele>
        <time>2012-05-05T07:27:17Z</time>
      </trkpt>
      <trkpt lat="45.70481" lon="4.59949">
        <ele>755</ele>
        <time>2012-05-05T07:27:23Z</time>
      </trkpt>
      <trkpt lat="45.70481" lon="4.59954">
        <ele>755</ele>
        <time>2012-05-05T07:27:25Z</time>
      </trkpt>
      <trkpt lat="45.7048" lon="4.59957">
        <ele>755</ele>
        <time>2012-05-05T07:27:26Z</time>
      </trkpt>
      <trkpt lat="45.70478" lon="4.59961">
        <ele>755</ele>
        <time>2012-05-05T07:27:27Z</time>
      </trkpt>
      <trkpt lat="45.7047" lon="4.5999">
        <ele>756</ele>
        <time>2012-05-05T07:27:34Z</time>
      </trkpt>
      <trkpt lat="45.70469" lon="4.59995">
        <ele>756</ele>
        <time>2012-05-05T07:27:35Z</time>
      </trkpt>
      <trkpt lat="45.70467" lon="4.60017">
        <ele>756</ele>
        <time>2012-05-05T07:27:40Z</time>
      </trkpt>
      <trkpt lat="45.70465" lon="4.6003">
        <ele>756</ele>
        <time>2012-05-05T07:27:43Z</time>
      </trkpt>
      <trkpt lat="45.70466" lon="4.60033">
        <ele>757</ele>
        <time>2012-05-05T07:27:44Z</time>
      </trkpt>
      <trkpt lat="45.70468" lon="4.60037">
        <ele>757</ele>
        <time>2012-05-05T07:27:45Z</time>
      </trkpt>
      <trkpt lat="45.70471" lon="4.6006">
        <ele>756</ele>
        <time>2012-05-05T07:27:50Z</time>
      </trkpt>
      <trkpt lat="45.70471" lon="4.60067">
        <ele>756</ele>
        <time>2012-05-05T07:27:52Z</time>
      </trkpt>
      <trkpt lat="45.70468" lon="4.60077">
        <ele>756</ele>
        <time>2012-05-05T07:27:55Z</time>
      </trkpt>
      <trkpt lat="45.70469" lon="4.6008">
        <ele>756</ele>
        <time>2012-05-05T07:27:56Z</time>
      </trkpt>
      <trkpt lat="45.70469" lon="4.60085">
        <ele>756</ele>
        <time>2012-05-05T07:27:57Z</time>
      </trkpt>
      <trkpt lat="45.7047" lon="4.60091">
        <ele>756</ele>
        <time>2012-05-05T07:27:58Z</time>
      </trkpt>
      <trkpt lat="45.7047" lon="4.60096">
        <ele>756</ele>
        <time>2012-05-05T07:27:59Z</time>
      </trkpt>
      <trkpt lat="45.70471" lon="4.60099">
        <ele>757</ele>
        <time>2012-05-05T07:28:00Z</time>
      </trkpt>
      <trkpt lat="45.70472" lon="4.601">
        <ele>757</ele>
        <time>2012-05-05T07:28:01Z</time>
      </trkpt>
      <trkpt lat="45.70475" lon="4.60125">
        <ele>757</ele>
        <time>2012-05-05T07:28:05Z</time>
      </trkpt>
      <trkpt lat="45.70476" lon="4.60129">
        <ele>757</ele>
        <time>2012-05-05T07:28:06Z</time>
      </trkpt>
      <trkpt lat="45.70475" lon="4.60163">
        <ele>756</ele>
        <time>2012-05-05T07:28:12Z</time>
      </trkpt>
      <trkpt lat="45.70473" lon="4.6019">
        <ele>757</ele>
        <time>2012-05-05T07:28:18Z</time>
      </trkpt>
      <trkpt lat="45.70472" lon="4.60215">
        <ele>757</ele>
        <time>2012-05-05T07:28:23Z</time>
      </trkpt>
      <trkpt lat="45.70471" lon="4.6022">
        <ele>758</ele>
        <time>2012-05-05T07:28:24Z</time>
      </trkpt>
      <trkpt lat="45.7047" lon="4.60225">
        <ele>758</ele>
        <time>2012-05-05T07:28:25Z</time>
      </trkpt>
      <trkpt lat="45.70471" lon="4.6023">
        <ele>758</ele>
        <time>2012-05-05T07:28:26Z</time>
      </trkpt>
      <trkpt lat="45.70471" lon="4.60235">
        <ele>759</ele>
        <time>2012-05-05T07:28:27Z</time>
      </trkpt>
      <trkpt lat="45.70473" lon="4.60239">
        <ele>759</ele>
        <time>2012-05-05T07:28:28Z</time>
      </trkpt>
      <trkpt lat="45.70475" lon="4.60264">
        <ele>760</ele>
        <time>2012-05-05T07:28:34Z</time>
      </trkpt>
      <trkpt lat="45.70474" lon="4.60297">
        <ele>761</ele>
        <time>2012-05-05T07:28:41Z</time>
      </trkpt>
      <trkpt lat="45.70473" lon="4.60318">
        <ele>762</ele>
        <time>2012-05-05T07:28:47Z</time>
      </trkpt>
      <trkpt lat="45.70473" lon="4.60339">
        <ele>763</ele>
        <time>2012-05-05T07:28:53Z</time>
      </trkpt>
      <trkpt lat="45.70474" lon="4.60364">
        <ele>765</ele>
        <time>2012-05-05T07:29:00Z</time>
      </trkpt>
      <trkpt lat="45.70476" lon="4.60369">
        <ele>765</ele>
        <time>2012-05-05T07:29:02Z</time>
      </trkpt>
      <trkpt lat="45.70478" lon="4.60372">
        <ele>765</ele>
        <time>2012-05-05T07:29:03Z</time>
      </trkpt>
      <trkpt lat="45.70489" lon="4.60398">
        <ele>766</ele>
        <time>2012-05-05T07:29:10Z</time>
      </trkpt>
      <trkpt lat="45.70491" lon="4.60413">
        <ele>765</ele>
        <time>2012-05-05T07:29:13Z</time>
      </trkpt>
      <trkpt lat="45.70494" lon="4.60433">
        <ele>765</ele>
        <time>2012-05-05T07:29:16Z</time>
      </trkpt>
      <trkpt lat="45.70498" lon="4.6045">
        <ele>765</ele>
        <time>2012-05-05T07:29:19Z</time>
      </trkpt>
      <trkpt lat="45.70497" lon="4.60455">
        <ele>765</ele>
        <time>2012-05-05T07:29:20Z</time>
      </trkpt>
      <trkpt lat="45.70498" lon="4.60461">
        <ele>765</ele>
        <time>2012-05-05T07:29:21Z</time>
      </trkpt>
      <trkpt lat="45.70499" lon="4.60488">
        <ele>766</ele>
        <time>2012-05-05T07:29:26Z</time>
      </trkpt>
      <trkpt lat="45.70497" lon="4.60503">
        <ele>766</ele>
        <time>2012-05-05T07:29:30Z</time>
      </trkpt>
      <trkpt lat="45.70498" lon="4.60506">
        <ele>766</ele>
        <time>2012-05-05T07:29:31Z</time>
      </trkpt>
      <trkpt lat="45.70498" lon="4.60509">
        <ele>767</ele>
        <time>2012-05-05T07:29:32Z</time>
      </trkpt>
      <trkpt lat="45.70498" lon="4.60512">
        <ele>767</ele>
        <time>2012-05-05T07:29:33Z</time>
      </trkpt>
      <trkpt lat="45.70499" lon="4.60516">
        <ele>767</ele>
        <time>2012-05-05T07:29:34Z</time>
      </trkpt>
      <trkpt lat="45.70497" lon="4.6053">
        <ele>767</ele>
        <time>2012-05-05T07:29:38Z</time>
      </trkpt>
      <trkpt lat="45.70497" lon="4.60534">
        <ele>767</ele>
        <time>2012-05-05T07:29:39Z</time>
      </trkpt>
      <trkpt lat="45.70496" lon="4.60539">
        <ele>767</ele>
        <time>2012-05-05T07:29:40Z</time>
      </trkpt>
      <trkpt lat="45.70495" lon="4.60543">
        <ele>767</ele>
        <time>2012-05-05T07:29:41Z</time>
      </trkpt>
      <trkpt lat="45.70495" lon="4.60546">
        <ele>767</ele>
        <time>2012-05-05T07:29:42Z</time>
      </trkpt>
      <trkpt lat="45.70494" lon="4.6055">
        <ele>767</ele>
        <time>2012-05-05T07:29:43Z</time>
      </trkpt>
      <trkpt lat="45.70493" lon="4.60555">
        <ele>766</ele>
        <time>2012-05-05T07:29:44Z</time>
      </trkpt>
      <trkpt lat="45.70492" lon="4.60559">
        <ele>767</ele>
        <time>2012-05-05T07:29:45Z</time>
      </trkpt>
      <trkpt lat="45.7049" lon="4.60563">
        <ele>766</ele>
        <time>2012-05-05T07:29:46Z</time>
      </trkpt>
      <trkpt lat="45.70489" lon="4.60569">
        <ele>766</ele>
        <time>2012-05-05T07:29:47Z</time>
      </trkpt>
      <trkpt lat="45.70487" lon="4.60574">
        <ele>767</ele>
        <time>2012-05-05T07:29:48Z</time>
      </trkpt>
      <trkpt lat="45.70486" lon="4.60579">
        <ele>767</ele>
        <time>2012-05-05T07:29:49Z</time>
      </trkpt>
      <trkpt lat="45.70484" lon="4.60583">
        <ele>766</ele>
        <time>2012-05-05T07:29:50Z</time>
      </trkpt>
      <trkpt lat="45.70482" lon="4.60586">
        <ele>767</ele>
        <time>2012-05-05T07:29:51Z</time>
      </trkpt>
      <trkpt lat="45.70481" lon="4.60589">
        <ele>766</ele>
        <time>2012-05-05T07:29:52Z</time>
      </trkpt>
      <trkpt lat="45.70473" lon="4.60601">
        <ele>765</ele>
        <time>2012-05-05T07:29:58Z</time>
      </trkpt>
      <trkpt lat="45.70472" lon="4.60603">
        <ele>765</ele>
        <time>2012-05-05T07:29:59Z</time>
      </trkpt>
      <trkpt lat="45.70472" lon="4.60606">
        <ele>765</ele>
        <time>2012-05-05T07:30:00Z</time>
      </trkpt>
      <trkpt lat="45.70472" lon="4.60609">
        <ele>765</ele>
        <time>2012-05-05T07:30:01Z</time>
      </trkpt>
      <trkpt lat="45.70471" lon="4.60613">
        <ele>764</ele>
        <time>2012-05-05T07:30:02Z</time>
      </trkpt>
      <trkpt lat="45.70469" lon="4.60617">
        <ele>763</ele>
        <time>2012-05-05T07:30:03Z</time>
      </trkpt>
      <trkpt lat="45.70467" lon="4.60621">
        <ele>763</ele>
        <time>2012-05-05T07:30:04Z</time>
      </trkpt>
      <trkpt lat="45.70465" lon="4.60625">
        <ele>763</ele>
        <time>2012-05-05T07:30:05Z</time>
      </trkpt>
      <trkpt lat="45.70455" lon="4.60642">
        <ele>763</ele>
        <time>2012-05-05T07:30:10Z</time>
      </trkpt>
      <trkpt lat="45.70442" lon="4.60663">
        <ele>763</ele>
        <time>2012-05-05T07:30:16Z</time>
      </trkpt>
      <trkpt lat="45.70432" lon="4.6068">
        <ele>762</ele>
        <time>2012-05-05T07:30:21Z</time>
      </trkpt>
      <trkpt lat="45.70413" lon="4.60696">
        <ele>761</ele>
        <time>2012-05-05T07:30:26Z</time>
      </trkpt>
      <trkpt lat="45.70396" lon="4.60705">
        <ele>762</ele>
        <time>2012-05-05T07:30:31Z</time>
      </trkpt>
      <trkpt lat="45.70375" lon="4.60711">
        <ele>764</ele>
        <time>2012-05-05T07:30:37Z</time>
      </trkpt>
      <trkpt lat="45.7036" lon="4.60718">
        <ele>764</ele>
        <time>2012-05-05T07:30:42Z</time>
      </trkpt>
      <trkpt lat="45.70348" lon="4.60722">
        <ele>764</ele>
        <time>2012-05-05T07:30:47Z</time>
      </trkpt>
      <trkpt lat="45.70345" lon="4.60721">
        <ele>765</ele>
        <time>2012-05-05T07:30:48Z</time>
      </trkpt>
      <trkpt lat="45.70342" lon="4.60721">
        <ele>765</ele>
        <time>2012-05-05T07:30:49Z</time>
      </trkpt>
      <trkpt lat="45.70316" lon="4.60725">
        <ele>766</ele>
        <time>2012-05-05T07:30:56Z</time>
      </trkpt>
      <trkpt lat="45.70301" lon="4.60729">
        <ele>766</ele>
        <time>2012-05-05T07:31:00Z</time>
      </trkpt>
      <trkpt lat="45.70298" lon="4.60731">
        <ele>766</ele>
        <time>2012-05-05T07:31:01Z</time>
      </trkpt>
      <trkpt lat="45.70297" lon="4.60731">
        <ele>766</ele>
        <time>2012-05-05T07:31:02Z</time>
      </trkpt>
      <trkpt lat="45.70294" lon="4.60733">
        <ele>767</ele>
        <time>2012-05-05T07:31:03Z</time>
      </trkpt>
      <trkpt lat="45.70289" lon="4.60734">
        <ele>767</ele>
        <time>2012-05-05T07:31:04Z</time>
      </trkpt>
      <trkpt lat="45.70285" lon="4.60735">
        <ele>766</ele>
        <time>2012-05-05T07:31:05Z</time>
      </trkpt>
      <trkpt lat="45.70282" lon="4.60736">
        <ele>767</ele>
        <time>2012-05-05T07:31:06Z</time>
      </trkpt>
      <trkpt lat="45.70278" lon="4.60737">
        <ele>767</ele>
        <time>2012-05-05T07:31:07Z</time>
      </trkpt>
      <trkpt lat="45.70274" lon="4.60737">
        <ele>767</ele>
        <time>2012-05-05T07:31:08Z</time>
      </trkpt>
      <trkpt lat="45.70257" lon="4.6074">
        <ele>768</ele>
        <time>2012-05-05T07:31:13Z</time>
      </trkpt>
      <trkpt lat="45.70238" lon="4.60741">
        <ele>770</ele>
        <time>2012-05-05T07:31:19Z</time>
      </trkpt>
      <trkpt lat="45.70222" lon="4.60743">
        <ele>771</ele>
        <time>2012-05-05T07:31:25Z</time>
      </trkpt>
      <trkpt lat="45.70204" lon="4.60743">
        <ele>773</ele>
        <time>2012-05-05T07:31:32Z</time>
      </trkpt>
      <trkpt lat="45.70196" lon="4.60743">
        <ele>773</ele>
        <time>2012-05-05T07:31:35Z</time>
      </trkpt>
      <trkpt lat="45.70193" lon="4.60743">
        <ele>774</ele>
        <time>2012-05-05T07:31:36Z</time>
      </trkpt>
      <trkpt lat="45.7018" lon="4.60745">
        <ele>774</ele>
        <time>2012-05-05T07:31:41Z</time>
      </trkpt>
      <trkpt lat="45.70178" lon="4.60746">
        <ele>774</ele>
        <time>2012-05-05T07:31:42Z</time>
      </trkpt>
      <trkpt lat="45.70176" lon="4.60749">
        <ele>774</ele>
        <time>2012-05-05T07:31:48Z</time>
      </trkpt>
      <trkpt lat="45.70174" lon="4.60749">
        <ele>774</ele>
        <time>2012-05-05T07:32:01Z</time>
      </trkpt>
      <trkpt lat="45.70172" lon="4.6075">
        <ele>774</ele>
        <time>2012-05-05T07:32:02Z</time>
      </trkpt>
      <trkpt lat="45.7017" lon="4.60748">
        <ele>774</ele>
        <time>2012-05-05T07:32:04Z</time>
      </trkpt>
      <trkpt lat="45.7017" lon="4.60745">
        <ele>774</ele>
        <time>2012-05-05T07:32:05Z</time>
      </trkpt>
      <trkpt lat="45.7017" lon="4.60743">
        <ele>774</ele>
        <time>2012-05-05T07:32:06Z</time>
      </trkpt>
      <trkpt lat="45.70167" lon="4.60725">
        <ele>774</ele>
        <time>2012-05-05T07:32:13Z</time>
      </trkpt>
      <trkpt lat="45.7016" lon="4.60704">
        <ele>774</ele>
        <time>2012-05-05T07:32:18Z</time>
      </trkpt>
      <trkpt lat="45.70156" lon="4.60676">
        <ele>773</ele>
        <time>2012-05-05T07:32:24Z</time>
      </trkpt>
      <trkpt lat="45.70151" lon="4.60652">
        <ele>773</ele>
        <time>2012-05-05T07:32:31Z</time>
      </trkpt>
      <trkpt lat="45.70147" lon="4.60629">
        <ele>774</ele>
        <time>2012-05-05T07:32:38Z</time>
      </trkpt>
      <trkpt lat="45.70145" lon="4.60608">
        <ele>774</ele>
        <time>2012-05-05T07:32:44Z</time>
      </trkpt>
      <trkpt lat="45.70144" lon="4.60605">
        <ele>774</ele>
        <time>2012-05-05T07:32:45Z</time>
      </trkpt>
      <trkpt lat="45.70139" lon="4.60589">
        <ele>774</ele>
        <time>2012-05-05T07:32:50Z</time>
      </trkpt>
      <trkpt lat="45.7013" lon="4.60576">
        <ele>774</ele>
        <time>2012-05-05T07:32:54Z</time>
      </trkpt>
      <trkpt lat="45.70113" lon="4.60557">
        <ele>776</ele>
        <time>2012-05-05T07:33:02Z</time>
      </trkpt>
      <trkpt lat="45.70106" lon="4.60548">
        <ele>777</ele>
        <time>2012-05-05T07:33:07Z</time>
      </trkpt>
      <trkpt lat="45.70106" lon="4.60546">
        <ele>778</ele>
        <time>2012-05-05T07:33:08Z</time>
      </trkpt>
      <trkpt lat="45.70105" lon="4.60544">
        <ele>778</ele>
        <time>2012-05-05T07:33:09Z</time>
      </trkpt>
      <trkpt lat="45.70104" lon="4.60543">
        <ele>778</ele>
        <time>2012-05-05T07:33:10Z</time>
      </trkpt>
      <trkpt lat="45.70103" lon="4.60541">
        <ele>778</ele>
        <time>2012-05-05T07:33:11Z</time>
      </trkpt>
      <trkpt lat="45.70099" lon="4.60535">
        <ele>780</ele>
        <time>2012-05-05T07:33:15Z</time>
      </trkpt>
      <trkpt lat="45.70096" lon="4.60531">
        <ele>780</ele>
        <time>2012-05-05T07:33:18Z</time>
      </trkpt>
      <trkpt lat="45.70094" lon="4.60529">
        <ele>780</ele>
        <time>2012-05-05T07:33:19Z</time>
      </trkpt>
      <trkpt lat="45.70094" lon="4.60527">
        <ele>781</ele>
        <time>2012-05-05T07:33:20Z</time>
      </trkpt>
      <trkpt lat="45.70091" lon="4.60523">
        <ele>782</ele>
        <time>2012-05-05T07:33:23Z</time>
      </trkpt>
      <trkpt lat="45.70088" lon="4.60522">
        <ele>781</ele>
        <time>2012-05-05T07:33:24Z</time>
      </trkpt>
      <trkpt lat="45.70085" lon="4.6052">
        <ele>781</ele>
        <time>2012-05-05T07:33:25Z</time>
      </trkpt>
      <trkpt lat="45.70082" lon="4.60516">
        <ele>780</ele>
        <time>2012-05-05T07:33:26Z</time>
      </trkpt>
      <trkpt lat="45.7008" lon="4.60512">
        <ele>780</ele>
        <time>2012-05-05T07:33:27Z</time>
      </trkpt>
      <trkpt lat="45.70079" lon="4.60508">
        <ele>779</ele>
        <time>2012-05-05T07:33:28Z</time>
      </trkpt>
      <trkpt lat="45.70074" lon="4.60498">
        <ele>780</ele>
        <time>2012-05-05T07:33:33Z</time>
      </trkpt>
      <trkpt lat="45.7006" lon="4.6048">
        <ele>780</ele>
        <time>2012-05-05T07:33:38Z</time>
      </trkpt>
      <trkpt lat="45.70048" lon="4.60456">
        <ele>780</ele>
        <time>2012-05-05T07:33:44Z</time>
      </trkpt>
      <trkpt lat="45.70048" lon="4.60453">
        <ele>780</ele>
        <time>2012-05-05T07:33:45Z</time>
      </trkpt>
      <trkpt lat="45.70047" lon="4.60451">
        <ele>780</ele>
        <time>2012-05-05T07:33:46Z</time>
      </trkpt>
      <trkpt lat="45.70045" lon="4.60448">
        <ele>780</ele>
        <time>2012-05-05T07:33:47Z</time>
      </trkpt>
      <trkpt lat="45.70044" lon="4.60446">
        <ele>780</ele>
        <time>2012-05-05T07:33:48Z</time>
      </trkpt>
      <trkpt lat="45.70043" lon="4.60442">
        <ele>779</ele>
        <time>2012-05-05T07:33:49Z</time>
      </trkpt>
      <trkpt lat="45.70042" lon="4.60438">
        <ele>779</ele>
        <time>2012-05-05T07:33:50Z</time>
      </trkpt>
      <trkpt lat="45.70041" lon="4.60433">
        <ele>780</ele>
        <time>2012-05-05T07:33:51Z</time>
      </trkpt>
      <trkpt lat="45.70037" lon="4.60401">
        <ele>781</ele>
        <time>2012-05-05T07:33:58Z</time>
      </trkpt>
      <trkpt lat="45.7004" lon="4.60375">
        <ele>781</ele>
        <time>2012-05-05T07:34:03Z</time>
      </trkpt>
      <trkpt lat="45.70042" lon="4.60372">
        <ele>781</ele>
        <time>2012-05-05T07:34:04Z</time>
      </trkpt>
      <trkpt lat="45.70043" lon="4.60368">
        <ele>781</ele>
        <time>2012-05-05T07:34:05Z</time>
      </trkpt>
      <trkpt lat="45.70043" lon="4.60364">
        <ele>781</ele>
        <time>2012-05-05T07:34:06Z</time>
      </trkpt>
      <trkpt lat="45.70043" lon="4.60361">
        <ele>781</ele>
        <time>2012-05-05T07:34:07Z</time>
      </trkpt>
      <trkpt lat="45.70044" lon="4.60351">
        <ele>781</ele>
        <time>2012-05-05T07:34:10Z</time>
      </trkpt>
      <trkpt lat="45.70045" lon="4.60347">
        <ele>781</ele>
        <time>2012-05-05T07:34:11Z</time>
      </trkpt>
      <trkpt lat="45.70046" lon="4.60344">
        <ele>781</ele>
        <time>2012-05-05T07:34:12Z</time>
      </trkpt>
      <trkpt lat="45.70048" lon="4.6034">
        <ele>781</ele>
        <time>2012-05-05T07:34:13Z</time>
      </trkpt>
      <trkpt lat="45.7005" lon="4.60337">
        <ele>781</ele>
        <time>2012-05-05T07:34:14Z</time>
      </trkpt>
      <trkpt lat="45.70051" lon="4.60332">
        <ele>781</ele>
        <time>2012-05-05T07:34:15Z</time>
      </trkpt>
      <trkpt lat="45.70053" lon="4.60328">
        <ele>781</ele>
        <time>2012-05-05T07:34:16Z</time>
      </trkpt>
      <trkpt lat="45.70054" lon="4.60325">
        <ele>781</ele>
        <time>2012-05-05T07:34:17Z</time>
      </trkpt>
      <trkpt lat="45.70055" lon="4.60321">
        <ele>781</ele>
        <time>2012-05-05T07:34:18Z</time>
      </trkpt>
      <trkpt lat="45.70056" lon="4.60318">
        <ele>781</ele>
        <time>2012-05-05T07:34:19Z</time>
      </trkpt>
      <trkpt lat="45.70058" lon="4.60314">
        <ele>781</ele>
        <time>2012-05-05T07:34:20Z</time>
      </trkpt>
      <trkpt lat="45.7006" lon="4.60312">
        <ele>781</ele>
        <time>2012-05-05T07:34:21Z</time>
      </trkpt>
      <trkpt lat="45.70063" lon="4.60309">
        <ele>782</ele>
        <time>2012-05-05T07:34:22Z</time>
      </trkpt>
      <trkpt lat="45.70065" lon="4.60308">
        <ele>782</ele>
        <time>2012-05-05T07:34:23Z</time>
      </trkpt>
      <trkpt lat="45.70074" lon="4.60295">
        <ele>783</ele>
        <time>2012-05-05T07:34:29Z</time>
      </trkpt>
      <trkpt lat="45.70079" lon="4.60287">
        <ele>783</ele>
        <time>2012-05-05T07:34:33Z</time>
      </trkpt>
      <trkpt lat="45.70085" lon="4.60279">
        <ele>783</ele>
        <time>2012-05-05T07:34:38Z</time>
      </trkpt>
      <trkpt lat="45.70096" lon="4.60264">
        <ele>783</ele>
        <time>2012-05-05T07:34:44Z</time>
      </trkpt>
      <trkpt lat="45.70096" lon="4.60261">
        <ele>784</ele>
        <time>2012-05-05T07:34:45Z</time>
      </trkpt>
      <trkpt lat="45.70098" lon="4.60259">
        <ele>784</ele>
        <time>2012-05-05T07:34:46Z</time>
      </trkpt>
      <trkpt lat="45.701" lon="4.60257">
        <ele>784</ele>
        <time>2012-05-05T07:34:47Z</time>
      </trkpt>
      <trkpt lat="45.70104" lon="4.60253">
        <ele>784</ele>
        <time>2012-05-05T07:34:48Z</time>
      </trkpt>
      <trkpt lat="45.70119" lon="4.60234">
        <ele>786</ele>
        <time>2012-05-05T07:34:54Z</time>
      </trkpt>
      <trkpt lat="45.70131" lon="4.60215">
        <ele>786</ele>
        <time>2012-05-05T07:34:59Z</time>
      </trkpt>
      <trkpt lat="45.70142" lon="4.60194">
        <ele>786</ele>
        <time>2012-05-05T07:35:03Z</time>
      </trkpt>
      <trkpt lat="45.70156" lon="4.60181">
        <ele>786</ele>
        <time>2012-05-05T07:35:08Z</time>
      </trkpt>
      <trkpt lat="45.7016" lon="4.60177">
        <ele>786</ele>
        <time>2012-05-05T07:35:10Z</time>
      </trkpt>
      <trkpt lat="45.70161" lon="4.60174">
        <ele>787</ele>
        <time>2012-05-05T07:35:11Z</time>
      </trkpt>
      <trkpt lat="45.70162" lon="4.60171">
        <ele>787</ele>
        <time>2012-05-05T07:35:12Z</time>
      </trkpt>
      <trkpt lat="45.70164" lon="4.60169">
        <ele>787</ele>
        <time>2012-05-05T07:35:13Z</time>
      </trkpt>
      <trkpt lat="45.70165" lon="4.60167">
        <ele>787</ele>
        <time>2012-05-05T07:35:14Z</time>
      </trkpt>
      <trkpt lat="45.70167" lon="4.60165">
        <ele>787</ele>
        <time>2012-05-05T07:35:15Z</time>
      </trkpt>
      <trkpt lat="45.70173" lon="4.60154">
        <ele>788</ele>
        <time>2012-05-05T07:35:20Z</time>
      </trkpt>
      <trkpt lat="45.70185" lon="4.60141">
        <ele>790</ele>
        <time>2012-05-05T07:35:26Z</time>
      </trkpt>
      <trkpt lat="45.70197" lon="4.60127">
        <ele>792</ele>
        <time>2012-05-05T07:35:32Z</time>
      </trkpt>
      <trkpt lat="45.70205" lon="4.60119">
        <ele>792</ele>
        <time>2012-05-05T07:35:36Z</time>
      </trkpt>
      <trkpt lat="45.70213" lon="4.60103">
        <ele>792</ele>
        <time>2012-05-05T07:35:42Z</time>
      </trkpt>
      <trkpt lat="45.70215" lon="4.60094">
        <ele>792</ele>
        <time>2012-05-05T07:35:45Z</time>
      </trkpt>
      <trkpt lat="45.70217" lon="4.60091">
        <ele>792</ele>
        <time>2012-05-05T07:35:46Z</time>
      </trkpt>
      <trkpt lat="45.70218" lon="4.60088">
        <ele>792</ele>
        <time>2012-05-05T07:35:47Z</time>
      </trkpt>
      <trkpt lat="45.7022" lon="4.60085">
        <ele>792</ele>
        <time>2012-05-05T07:35:48Z</time>
      </trkpt>
      <trkpt lat="45.70222" lon="4.60082">
        <ele>793</ele>
        <time>2012-05-05T07:35:49Z</time>
      </trkpt>
      <trkpt lat="45.70223" lon="4.60079">
        <ele>793</ele>
        <time>2012-05-05T07:35:50Z</time>
      </trkpt>
      <trkpt lat="45.70225" lon="4.60076">
        <ele>793</ele>
        <time>2012-05-05T07:35:51Z</time>
      </trkpt>
      <trkpt lat="45.70227" lon="4.60073">
        <ele>793</ele>
        <time>2012-05-05T07:35:52Z</time>
      </trkpt>
      <trkpt lat="45.70228" lon="4.6007">
        <ele>793</ele>
        <time>2012-05-05T07:35:53Z</time>
      </trkpt>
      <trkpt lat="45.70239" lon="4.60052">
        <ele>795</ele>
        <time>2012-05-05T07:35:59Z</time>
      </trkpt>
      <trkpt lat="45.70249" lon="4.60034">
        <ele>796</ele>
        <time>2012-05-05T07:36:06Z</time>
      </trkpt>
      <trkpt lat="45.70255" lon="4.60024">
        <ele>798</ele>
        <time>2012-05-05T07:36:10Z</time>
      </trkpt>
      <trkpt lat="45.70256" lon="4.60022">
        <ele>797</ele>
        <time>2012-05-05T07:36:11Z</time>
      </trkpt>
      <trkpt lat="45.70258" lon="4.6002">
        <ele>798</ele>
        <time>2012-05-05T07:36:12Z</time>
      </trkpt>
      <trkpt lat="45.70266" lon="4.59997">
        <ele>798</ele>
        <time>2012-05-05T07:36:18Z</time>
      </trkpt>
      <trkpt lat="45.7027" lon="4.59972">
        <ele>796</ele>
        <time>2012-05-05T07:36:23Z</time>
      </trkpt>
      <trkpt lat="45.7027" lon="4.59964">
        <ele>795</ele>
        <time>2012-05-05T07:36:24Z</time>
      </trkpt>
      <trkpt lat="45.70272" lon="4.59956">
        <ele>795</ele>
        <time>2012-05-05T07:36:25Z</time>
      </trkpt>
      <trkpt lat="45.70273" lon="4.59948">
        <ele>795</ele>
        <time>2012-05-05T07:36:26Z</time>
      </trkpt>
      <trkpt lat="45.70275" lon="4.59939">
        <ele>794</ele>
        <time>2012-05-05T07:36:27Z</time>
      </trkpt>
      <trkpt lat="45.70276" lon="4.5993">
        <ele>793</ele>
        <time>2012-05-05T07:36:28Z</time>
      </trkpt>
      <trkpt lat="45.70278" lon="4.59922">
        <ele>793</ele>
        <time>2012-05-05T07:36:29Z</time>
      </trkpt>
      <trkpt lat="45.7028" lon="4.59903">
        <ele>792</ele>
        <time>2012-05-05T07:36:31Z</time>
      </trkpt>
      <trkpt lat="45.70281" lon="4.59875">
        <ele>788</ele>
        <time>2012-05-05T07:36:34Z</time>
      </trkpt>
      <trkpt lat="45.70282" lon="4.59865">
        <ele>787</ele>
        <time>2012-05-05T07:36:35Z</time>
      </trkpt>
      <trkpt lat="45.70285" lon="4.59838">
        <ele>785</ele>
        <time>2012-05-05T07:36:38Z</time>
      </trkpt>
      <trkpt lat="45.70291" lon="4.59814">
        <ele>783</ele>
        <time>2012-05-05T07:36:41Z</time>
      </trkpt>
      <trkpt lat="45.70292" lon="4.59807">
        <ele>782</ele>
        <time>2012-05-05T07:36:42Z</time>
      </trkpt>
      <trkpt lat="45.70294" lon="4.598">
        <ele>781</ele>
        <time>2012-05-05T07:36:43Z</time>
      </trkpt>
      <trkpt lat="45.70298" lon="4.59777">
        <ele>778</ele>
        <time>2012-05-05T07:36:46Z</time>
      </trkpt>
      <trkpt lat="45.703" lon="4.5977">
        <ele>776</ele>
        <time>2012-05-05T07:36:47Z</time>
      </trkpt>
      <trkpt lat="45.70305" lon="4.59746">
        <ele>773</ele>
        <time>2012-05-05T07:36:50Z</time>
      </trkpt>
      <trkpt lat="45.70307" lon="4.59736">
        <ele>771</ele>
        <time>2012-05-05T07:36:51Z</time>
      </trkpt>
      <trkpt lat="45.70316" lon="4.59707">
        <ele>767</ele>
        <time>2012-05-05T07:36:54Z</time>
      </trkpt>
      <trkpt lat="45.7032" lon="4.59697">
        <ele>766</ele>
        <time>2012-05-05T07:36:55Z</time>
      </trkpt>
      <trkpt lat="45.70337" lon="4.59668">
        <ele>763</ele>
        <time>2012-05-05T07:36:58Z</time>
      </trkpt>
      <trkpt lat="45.70348" lon="4.59649">
        <ele>762</ele>
        <time>2012-05-05T07:37:00Z</time>
      </trkpt>
      <trkpt lat="45.70354" lon="4.59641">
        <ele>760</ele>
        <time>2012-05-05T07:37:02Z</time>
      </trkpt>
      <trkpt lat="45.70357" lon="4.59637">
        <ele>760</ele>
        <time>2012-05-05T07:37:07Z</time>
      </trkpt>
      <trkpt lat="45.70357" lon="4.59636">
        <ele>760</ele>
        <time>2012-05-05T07:37:15Z</time>
      </trkpt>
      <trkpt lat="45.70357" lon="4.59634">
        <ele>760</ele>
        <time>2012-05-05T07:37:22Z</time>
      </trkpt>
      <trkpt lat="45.70356" lon="4.59634">
        <ele>761</ele>
        <time>2012-05-05T07:37:29Z</time>
      </trkpt>
      <trkpt lat="45.70354" lon="4.59635">
        <ele>760</ele>
        <time>2012-05-05T07:37:36Z</time>
      </trkpt>
      <trkpt lat="45.70355" lon="4.59633">
        <ele>761</ele>
        <time>2012-05-05T07:37:42Z</time>
      </trkpt>
      <trkpt lat="45.70356" lon="4.59631">
        <ele>761</ele>
        <time>2012-05-05T07:37:43Z</time>
      </trkpt>
      <trkpt lat="45.70358" lon="4.59628">
        <ele>760</ele>
        <time>2012-05-05T07:37:44Z</time>
      </trkpt>
      <trkpt lat="45.7036" lon="4.59625">
        <ele>760</ele>
        <time>2012-05-05T07:37:45Z</time>
      </trkpt>
      <trkpt lat="45.70363" lon="4.5962">
        <ele>759</ele>
        <time>2012-05-05T07:37:46Z</time>
      </trkpt>
      <trkpt lat="45.70366" lon="4.59615">
        <ele>759</ele>
        <time>2012-05-05T07:37:47Z</time>
      </trkpt>
      <trkpt lat="45.70375" lon="4.59597">
        <ele>755</ele>
        <time>2012-05-05T07:37:50Z</time>
      </trkpt>
      <trkpt lat="45.70382" lon="4.59584">
        <ele>752</ele>
        <time>2012-05-05T07:37:52Z</time>
      </trkpt>
      <trkpt lat="45.70386" lon="4.59579">
        <ele>752</ele>
        <time>2012-05-05T07:37:53Z</time>
      </trkpt>
      <trkpt lat="45.70388" lon="4.59573">
        <ele>752</ele>
        <time>2012-05-05T07:37:54Z</time>
      </trkpt>
      <trkpt lat="45.70395" lon="4.59543">
        <ele>749</ele>
        <time>2012-05-05T07:37:57Z</time>
      </trkpt>
      <trkpt lat="45.70397" lon="4.59531">
        <ele>748</ele>
        <time>2012-05-05T07:37:58Z</time>
      </trkpt>
      <trkpt lat="45.70402" lon="4.59495">
        <ele>746</ele>
        <time>2012-05-05T07:38:01Z</time>
      </trkpt>
      <trkpt lat="45.70404" lon="4.59484">
        <ele>745</ele>
        <time>2012-05-05T07:38:02Z</time>
      </trkpt>
      <trkpt lat="45.70408" lon="4.59472">
        <ele>745</ele>
        <time>2012-05-05T07:38:03Z</time>
      </trkpt>
      <trkpt lat="45.7042" lon="4.59436">
        <ele>741</ele>
        <time>2012-05-05T07:38:06Z</time>
      </trkpt>
      <trkpt lat="45.70429" lon="4.59412">
        <ele>738</ele>
        <time>2012-05-05T07:38:08Z</time>
      </trkpt>
      <trkpt lat="45.70445" lon="4.59365">
        <ele>734</ele>
        <time>2012-05-05T07:38:12Z</time>
      </trkpt>
      <trkpt lat="45.70448" lon="4.59354">
        <ele>734</ele>
        <time>2012-05-05T07:38:13Z</time>
      </trkpt>
      <trkpt lat="45.70456" lon="4.5933">
        <ele>733</ele>
        <time>2012-05-05T07:38:16Z</time>
      </trkpt>
      <trkpt lat="45.70459" lon="4.59325">
        <ele>732</ele>
        <time>2012-05-05T07:38:17Z</time>
      </trkpt>
      <trkpt lat="45.70463" lon="4.59322">
        <ele>732</ele>
        <time>2012-05-05T07:38:18Z</time>
      </trkpt>
      <trkpt lat="45.70467" lon="4.59321">
        <ele>732</ele>
        <time>2012-05-05T07:38:19Z</time>
      </trkpt>
      <trkpt lat="45.70471" lon="4.59318">
        <ele>732</ele>
        <time>2012-05-05T07:38:20Z</time>
      </trkpt>
      <trkpt lat="45.70474" lon="4.59314">
        <ele>731</ele>
        <time>2012-05-05T07:38:21Z</time>
      </trkpt>
      <trkpt lat="45.70478" lon="4.5931">
        <ele>731</ele>
        <time>2012-05-05T07:38:22Z</time>
      </trkpt>
      <trkpt lat="45.70491" lon="4.59301">
        <ele>732</ele>
        <time>2012-05-05T07:38:27Z</time>
      </trkpt>
      <trkpt lat="45.70508" lon="4.59288">
        <ele>733</ele>
        <time>2012-05-05T07:38:32Z</time>
      </trkpt>
      <trkpt lat="45.70517" lon="4.59282">
        <ele>733</ele>
        <time>2012-05-05T07:38:34Z</time>
      </trkpt>
      <trkpt lat="45.70521" lon="4.59279">
        <ele>732</ele>
        <time>2012-05-05T07:38:35Z</time>
      </trkpt>
      <trkpt lat="45.70525" lon="4.59277">
        <ele>732</ele>
        <time>2012-05-05T07:38:36Z</time>
      </trkpt>
      <trkpt lat="45.70529" lon="4.59274">
        <ele>732</ele>
        <time>2012-05-05T07:38:37Z</time>
      </trkpt>
      <trkpt lat="45.70533" lon="4.5927">
        <ele>732</ele>
        <time>2012-05-05T07:38:38Z</time>
      </trkpt>
      <trkpt lat="45.70537" lon="4.59267">
        <ele>732</ele>
        <time>2012-05-05T07:38:39Z</time>
      </trkpt>
      <trkpt lat="45.70544" lon="4.59259">
        <ele>731</ele>
        <time>2012-05-05T07:38:41Z</time>
      </trkpt>
      <trkpt lat="45.70558" lon="4.59241">
        <ele>732</ele>
        <time>2012-05-05T07:38:45Z</time>
      </trkpt>
      <trkpt lat="45.70583" lon="4.59201">
        <ele>732</ele>
        <time>2012-05-05T07:38:53Z</time>
      </trkpt>
      <trkpt lat="45.70603" lon="4.59169">
        <ele>732</ele>
        <time>2012-05-05T07:39:00Z</time>
      </trkpt>
      <trkpt lat="45.70619" lon="4.59139">
        <ele>731</ele>
        <time>2012-05-05T07:39:07Z</time>
      </trkpt>
      <trkpt lat="45.70628" lon="4.59114">
        <ele>731</ele>
        <time>2012-05-05T07:39:12Z</time>
      </trkpt>
      <trkpt lat="45.70635" lon="4.59088">
        <ele>730</ele>
        <time>2012-05-05T07:39:16Z</time>
      </trkpt>
      <trkpt lat="45.70639" lon="4.59083">
        <ele>730</ele>
        <time>2012-05-05T07:39:17Z</time>
      </trkpt>
      <trkpt lat="45.70641" lon="4.59078">
        <ele>730</ele>
        <time>2012-05-05T07:39:18Z</time>
      </trkpt>
      <trkpt lat="45.70643" lon="4.59072">
        <ele>730</ele>
        <time>2012-05-05T07:39:19Z</time>
      </trkpt>
      <trkpt lat="45.70645" lon="4.59067">
        <ele>730</ele>
        <time>2012-05-05T07:39:20Z</time>
      </trkpt>
      <trkpt lat="45.70647" lon="4.59062">
        <ele>730</ele>
        <time>2012-05-05T07:39:21Z</time>
      </trkpt>
      <trkpt lat="45.70649" lon="4.59056">
        <ele>730</ele>
        <time>2012-05-05T07:39:22Z</time>
      </trkpt>
      <trkpt lat="45.70649" lon="4.5905">
        <ele>730</ele>
        <time>2012-05-05T07:39:23Z</time>
      </trkpt>
      <trkpt lat="45.7065" lon="4.59045">
        <ele>729</ele>
        <time>2012-05-05T07:39:24Z</time>
      </trkpt>
      <trkpt lat="45.70652" lon="4.59017">
        <ele>729</ele>
        <time>2012-05-05T07:39:30Z</time>
      </trkpt>
      <trkpt lat="45.7065" lon="4.59008">
        <ele>730</ele>
        <time>2012-05-05T07:39:35Z</time>
      </trkpt>
      <trkpt lat="45.70649" lon="4.59006">
        <ele>730</ele>
        <time>2012-05-05T07:39:42Z</time>
      </trkpt>
      <trkpt lat="45.70649" lon="4.59006">
        <ele>730</ele>
        <time>2012-05-05T07:39:49Z</time>
      </trkpt>
      <trkpt lat="45.7065" lon="4.59007">
        <ele>729</ele>
        <time>2012-05-05T07:40:00Z</time>
      </trkpt>
      <trkpt lat="45.70651" lon="4.59006">
        <ele>730</ele>
        <time>2012-05-05T07:40:21Z</time>
      </trkpt>
      <trkpt lat="45.7065" lon="4.59006">
        <ele>729</ele>
        <time>2012-05-05T07:40:46Z</time>
      </trkpt>
      <trkpt lat="45.70651" lon="4.59007">
        <ele>730</ele>
        <time>2012-05-05T07:41:09Z</time>
      </trkpt>
      <trkpt lat="45.7065" lon="4.59006">
        <ele>730</ele>
        <time>2012-05-05T07:41:32Z</time>
      </trkpt>
      <trkpt lat="45.7065" lon="4.59007">
        <ele>730</ele>
        <time>2012-05-05T07:41:54Z</time>
      </trkpt>
      <trkpt lat="45.70649" lon="4.59007">
        <ele>730</ele>
        <time>2012-05-05T07:42:17Z</time>
      </trkpt>
      <trkpt lat="45.70648" lon="4.59008">
        <ele>730</ele>
        <time>2012-05-05T07:42:43Z</time>
      </trkpt>
      <trkpt lat="45.70648" lon="4.59008">
        <ele>730</ele>
        <time>2012-05-05T07:43:04Z</time>
      </trkpt>
      <trkpt lat="45.70647" lon="4.59007">
        <ele>730</ele>
        <time>2012-05-05T07:43:23Z</time>
      </trkpt>
      <trkpt lat="45.70647" lon="4.59007">
        <ele>729</ele>
        <time>2012-05-05T07:43:45Z</time>
      </trkpt>
      <trkpt lat="45.70649" lon="4.59009">
        <ele>730</ele>
        <time>2012-05-05T07:44:11Z</time>
      </trkpt>
      <trkpt lat="45.7065" lon="4.5901">
        <ele>730</ele>
        <time>2012-05-05T07:44:35Z</time>
      </trkpt>
      <trkpt lat="45.70649" lon="4.5901">
        <ele>730</ele>
        <time>2012-05-05T07:45:02Z</time>
      </trkpt>
      <trkpt lat="45.70648" lon="4.5901">
        <ele>730</ele>
        <time>2012-05-05T07:45:26Z</time>
      </trkpt>
      <trkpt lat="45.70648" lon="4.5901">
        <ele>730</ele>
        <time>2012-05-05T07:45:51Z</time>
      </trkpt>
      <trkpt lat="45.70648" lon="4.5901">
        <ele>730</ele>
        <time>2012-05-05T07:46:16Z</time>
      </trkpt>
      <trkpt lat="45.70648" lon="4.59009">
        <ele>730</ele>
        <time>2012-05-05T07:46:42Z</time>
      </trkpt>
      <trkpt lat="45.70647" lon="4.5901">
        <ele>730</ele>
        <time>2012-05-05T07:47:09Z</time>
      </trkpt>
      <trkpt lat="45.70647" lon="4.59011">
        <ele>730</ele>
        <time>2012-05-05T07:47:33Z</time>
      </trkpt>
      <trkpt lat="45.70647" lon="4.5901">
        <ele>730</ele>
        <time>2012-05-05T07:47:51Z</time>
      </trkpt>
      <trkpt lat="45.70647" lon="4.5901">
        <ele>731</ele>
        <time>2012-05-05T07:47:59Z</time>
      </trkpt>
      <trkpt lat="45.70647" lon="4.59011">
        <ele>730</ele>
        <time>2012-05-05T07:48:01Z</time>
      </trkpt>
      <trkpt lat="45.70646" lon="4.59012">
        <ele>730</ele>
        <time>2012-05-05T07:48:02Z</time>
      </trkpt>
      <trkpt lat="45.70644" lon="4.59012">
        <ele>729</ele>
        <time>2012-05-05T07:48:03Z</time>
      </trkpt>
      <trkpt lat="45.70643" lon="4.59011">
        <ele>729</ele>
        <time>2012-05-05T07:48:04Z</time>
      </trkpt>
      <trkpt lat="45.70642" lon="4.5901">
        <ele>729</ele>
        <time>2012-05-05T07:48:05Z</time>
      </trkpt>
      <trkpt lat="45.70641" lon="4.59008">
        <ele>729</ele>
        <time>2012-05-05T07:48:06Z</time>
      </trkpt>
      <trkpt lat="45.7064" lon="4.59006">
        <ele>729</ele>
        <time>2012-05-05T07:48:07Z</time>
      </trkpt>
      <trkpt lat="45.70639" lon="4.59003">
        <ele>729</ele>
        <time>2012-05-05T07:48:08Z</time>
      </trkpt>
      <trkpt lat="45.70638" lon="4.58998">
        <ele>729</ele>
        <time>2012-05-05T07:48:09Z</time>
      </trkpt>
      <trkpt lat="45.70638" lon="4.58993">
        <ele>729</ele>
        <time>2012-05-05T07:48:10Z</time>
      </trkpt>
      <trkpt lat="45.70635" lon="4.58958">
        <ele>728</ele>
        <time>2012-05-05T07:48:16Z</time>
      </trkpt>
      <trkpt lat="45.70633" lon="4.58947">
        <ele>729</ele>
        <time>2012-05-05T07:48:18Z</time>
      </trkpt>
      <trkpt lat="45.70625" lon="4.58912">
        <ele>729</ele>
        <time>2012-05-05T07:48:24Z</time>
      </trkpt>
      <trkpt lat="45.70624" lon="4.58906">
        <ele>729</ele>
        <time>2012-05-05T07:48:25Z</time>
      </trkpt>
      <trkpt lat="45.70624" lon="4.589">
        <ele>729</ele>
        <time>2012-05-05T07:48:26Z</time>
      </trkpt>
      <trkpt lat="45.70625" lon="4.58894">
        <ele>729</ele>
        <time>2012-05-05T07:48:27Z</time>
      </trkpt>
      <trkpt lat="45.70625" lon="4.58888">
        <ele>729</ele>
        <time>2012-05-05T07:48:28Z</time>
      </trkpt>
      <trkpt lat="45.70626" lon="4.58882">
        <ele>729</ele>
        <time>2012-05-05T07:48:29Z</time>
      </trkpt>
      <trkpt lat="45.70632" lon="4.58846">
        <ele>731</ele>
        <time>2012-05-05T07:48:37Z</time>
      </trkpt>
      <trkpt lat="45.70639" lon="4.5883">
        <ele>732</ele>
        <time>2012-05-05T07:48:42Z</time>
      </trkpt>
      <trkpt lat="45.70653" lon="4.58809">
        <ele>733</ele>
        <time>2012-05-05T07:48:49Z</time>
      </trkpt>
      <trkpt lat="45.70664" lon="4.58778">
        <ele>732</ele>
        <time>2012-05-05T07:48:55Z</time>
      </trkpt>
      <trkpt lat="45.70668" lon="4.58764">
        <ele>732</ele>
        <time>2012-05-05T07:48:57Z</time>
      </trkpt>
      <trkpt lat="45.70668" lon="4.58756">
        <ele>732</ele>
        <time>2012-05-05T07:48:58Z</time>
      </trkpt>
      <trkpt lat="45.70668" lon="4.58748">
        <ele>731</ele>
        <time>2012-05-05T07:48:59Z</time>
      </trkpt>
      <trkpt lat="45.70668" lon="4.5874">
        <ele>731</ele>
        <time>2012-05-05T07:49:00Z</time>
      </trkpt>
      <trkpt lat="45.70668" lon="4.58731">
        <ele>731</ele>
        <time>2012-05-05T07:49:01Z</time>
      </trkpt>
      <trkpt lat="45.70668" lon="4.58723">
        <ele>730</ele>
        <time>2012-05-05T07:49:02Z</time>
      </trkpt>
      <trkpt lat="45.70667" lon="4.58714">
        <ele>730</ele>
        <time>2012-05-05T07:49:03Z</time>
      </trkpt>
      <trkpt lat="45.70667" lon="4.58706">
        <ele>730</ele>
        <time>2012-05-05T07:49:04Z</time>
      </trkpt>
      <trkpt lat="45.70666" lon="4.58697">
        <ele>729</ele>
        <time>2012-05-05T07:49:05Z</time>
      </trkpt>
      <trkpt lat="45.70666" lon="4.58689">
        <ele>729</ele>
        <time>2012-05-05T07:49:06Z</time>
      </trkpt>
      <trkpt lat="45.70665" lon="4.58682">
        <ele>729</ele>
        <time>2012-05-05T07:49:07Z</time>
      </trkpt>
      <trkpt lat="45.70664" lon="4.58675">
        <ele>728</ele>
        <time>2012-05-05T07:49:08Z</time>
      </trkpt>
      <trkpt lat="45.70663" lon="4.58668">
        <ele>728</ele>
        <time>2012-05-05T07:49:09Z</time>
      </trkpt>
      <trkpt lat="45.70664" lon="4.58662">
        <ele>727</ele>
        <time>2012-05-05T07:49:10Z</time>
      </trkpt>
      <trkpt lat="45.70667" lon="4.58658">
        <ele>726</ele>
        <time>2012-05-05T07:49:11Z</time>
      </trkpt>
      <trkpt lat="45.70671" lon="4.58655">
        <ele>725</ele>
        <time>2012-05-05T07:49:12Z</time>
      </trkpt>
      <trkpt lat="45.70675" lon="4.58654">
        <ele>724</ele>
        <time>2012-05-05T07:49:13Z</time>
      </trkpt>
      <trkpt lat="45.70679" lon="4.58654">
        <ele>724</ele>
        <time>2012-05-05T07:49:14Z</time>
      </trkpt>
      <trkpt lat="45.70683" lon="4.58655">
        <ele>724</ele>
        <time>2012-05-05T07:49:15Z</time>
      </trkpt>
      <trkpt lat="45.7069" lon="4.58654">
        <ele>723</ele>
        <time>2012-05-05T07:49:17Z</time>
      </trkpt>
      <trkpt lat="45.70691" lon="4.5865">
        <ele>722</ele>
        <time>2012-05-05T07:49:18Z</time>
      </trkpt>
      <trkpt lat="45.70688" lon="4.58619">
        <ele>723</ele>
        <time>2012-05-05T07:49:24Z</time>
      </trkpt>
      <trkpt lat="45.70687" lon="4.58591">
        <ele>724</ele>
        <time>2012-05-05T07:49:29Z</time>
      </trkpt>
      <trkpt lat="45.70685" lon="4.58551">
        <ele>724</ele>
        <time>2012-05-05T07:49:37Z</time>
      </trkpt>
      <trkpt lat="45.70679" lon="4.58507">
        <ele>725</ele>
        <time>2012-05-05T07:49:46Z</time>
      </trkpt>
      <trkpt lat="45.70675" lon="4.58484">
        <ele>726</ele>
        <time>2012-05-05T07:49:52Z</time>
      </trkpt>
      <trkpt lat="45.70671" lon="4.58468">
        <ele>726</ele>
        <time>2012-05-05T07:49:56Z</time>
      </trkpt>
      <trkpt lat="45.70677" lon="4.58423">
        <ele>726</ele>
        <time>2012-05-05T07:50:05Z</time>
      </trkpt>
      <trkpt lat="45.70681" lon="4.58392">
        <ele>726</ele>
        <time>2012-05-05T07:50:11Z</time>
      </trkpt>
      <trkpt lat="45.70686" lon="4.58352">
        <ele>727</ele>
        <time>2012-05-05T07:50:19Z</time>
      </trkpt>
      <trkpt lat="45.70692" lon="4.58316">
        <ele>729</ele>
        <time>2012-05-05T07:50:27Z</time>
      </trkpt>
      <trkpt lat="45.70695" lon="4.58277">
        <ele>730</ele>
        <time>2012-05-05T07:50:36Z</time>
      </trkpt>
      <trkpt lat="45.70694" lon="4.58244">
        <ele>732</ele>
        <time>2012-05-05T07:50:44Z</time>
      </trkpt>
      <trkpt lat="45.7069" lon="4.58215">
        <ele>734</ele>
        <time>2012-05-05T07:50:52Z</time>
      </trkpt>
      <trkpt lat="45.70685" lon="4.58187">
        <ele>736</ele>
        <time>2012-05-05T07:51:01Z</time>
      </trkpt>
      <trkpt lat="45.7068" lon="4.58166">
        <ele>737</ele>
        <time>2012-05-05T07:51:08Z</time>
      </trkpt>
      <trkpt lat="45.70673" lon="4.58137">
        <ele>739</ele>
        <time>2012-05-05T07:51:17Z</time>
      </trkpt>
      <trkpt lat="45.70666" lon="4.58109">
        <ele>741</ele>
        <time>2012-05-05T07:51:26Z</time>
      </trkpt>
      <trkpt lat="45.70658" lon="4.58084">
        <ele>743</ele>
        <time>2012-05-05T07:51:34Z</time>
      </trkpt>
      <trkpt lat="45.70651" lon="4.5806">
        <ele>745</ele>
        <time>2012-05-05T07:51:42Z</time>
      </trkpt>
      <trkpt lat="45.70642" lon="4.58035">
        <ele>747</ele>
        <time>2012-05-05T07:51:51Z</time>
      </trkpt>
      <trkpt lat="45.70634" lon="4.58015">
        <ele>748</ele>
        <time>2012-05-05T07:52:00Z</time>
      </trkpt>
      <trkpt lat="45.70624" lon="4.57992">
        <ele>751</ele>
        <time>2012-05-05T07:52:10Z</time>
      </trkpt>
      <trkpt lat="45.70616" lon="4.57975">
        <ele>752</ele>
        <time>2012-05-05T07:52:18Z</time>
      </trkpt>
      <trkpt lat="45.70607" lon="4.57957">
        <ele>754</ele>
        <time>2012-05-05T07:52:27Z</time>
      </trkpt>
      <trkpt lat="45.70597" lon="4.57937">
        <ele>756</ele>
        <time>2012-05-05T07:52:36Z</time>
      </trkpt>
      <trkpt lat="45.70585" lon="4.57917">
        <ele>757</ele>
        <time>2012-05-05T07:52:46Z</time>
      </trkpt>
      <trkpt lat="45.70574" lon="4.57899">
        <ele>759</ele>
        <time>2012-05-05T07:52:55Z</time>
      </trkpt>
      <trkpt lat="45.70565" lon="4.5788">
        <ele>761</ele>
        <time>2012-05-05T07:53:04Z</time>
      </trkpt>
      <trkpt lat="45.70554" lon="4.57862">
        <ele>763</ele>
        <time>2012-05-05T07:53:13Z</time>
      </trkpt>
      <trkpt lat="45.70544" lon="4.57843">
        <ele>766</ele>
        <time>2012-05-05T07:53:22Z</time>
      </trkpt>
      <trkpt lat="45.70531" lon="4.57824">
        <ele>767</ele>
        <time>2012-05-05T07:53:32Z</time>
      </trkpt>
      <trkpt lat="45.70521" lon="4.57805">
        <ele>768</ele>
        <time>2012-05-05T07:53:41Z</time>
      </trkpt>
      <trkpt lat="45.7051" lon="4.57783">
        <ele>769</ele>
        <time>2012-05-05T07:53:51Z</time>
      </trkpt>
      <trkpt lat="45.705" lon="4.57763">
        <ele>771</ele>
        <time>2012-05-05T07:54:00Z</time>
      </trkpt>
      <trkpt lat="45.70491" lon="4.5774">
        <ele>773</ele>
        <time>2012-05-05T07:54:10Z</time>
      </trkpt>
      <trkpt lat="45.7048" lon="4.57719">
        <ele>775</ele>
        <time>2012-05-05T07:54:20Z</time>
      </trkpt>
      <trkpt lat="45.70475" lon="4.57713">
        <ele>775</ele>
        <time>2012-05-05T07:54:24Z</time>
      </trkpt>
      <trkpt lat="45.70473" lon="4.57711">
        <ele>775</ele>
        <time>2012-05-05T07:54:25Z</time>
      </trkpt>
      <trkpt lat="45.70472" lon="4.5771">
        <ele>775</ele>
        <time>2012-05-05T07:54:26Z</time>
      </trkpt>
      <trkpt lat="45.70463" lon="4.57706">
        <ele>777</ele>
        <time>2012-05-05T07:54:32Z</time>
      </trkpt>
      <trkpt lat="45.70453" lon="4.57704">
        <ele>779</ele>
        <time>2012-05-05T07:54:38Z</time>
      </trkpt>
      <trkpt lat="45.70451" lon="4.57704">
        <ele>779</ele>
        <time>2012-05-05T07:54:39Z</time>
      </trkpt>
      <trkpt lat="45.70449" lon="4.57704">
        <ele>779</ele>
        <time>2012-05-05T07:54:40Z</time>
      </trkpt>
      <trkpt lat="45.70447" lon="4.57704">
        <ele>779</ele>
        <time>2012-05-05T07:54:41Z</time>
      </trkpt>
      <trkpt lat="45.70445" lon="4.57703">
        <ele>780</ele>
        <time>2012-05-05T07:54:42Z</time>
      </trkpt>
      <trkpt lat="45.70443" lon="4.57702">
        <ele>780</ele>
        <time>2012-05-05T07:54:43Z</time>
      </trkpt>
      <trkpt lat="45.70441" lon="4.57702">
        <ele>781</ele>
        <time>2012-05-05T07:54:44Z</time>
      </trkpt>
      <trkpt lat="45.70439" lon="4.57702">
        <ele>781</ele>
        <time>2012-05-05T07:54:45Z</time>
      </trkpt>
      <trkpt lat="45.70437" lon="4.57702">
        <ele>781</ele>
        <time>2012-05-05T07:54:46Z</time>
      </trkpt>
      <trkpt lat="45.70435" lon="4.57701">
        <ele>781</ele>
        <time>2012-05-05T07:54:47Z</time>
      </trkpt>
      <trkpt lat="45.70433" lon="4.57701">
        <ele>782</ele>
        <time>2012-05-05T07:54:48Z</time>
      </trkpt>
      <trkpt lat="45.70431" lon="4.57701">
        <ele>782</ele>
        <time>2012-05-05T07:54:49Z</time>
      </trkpt>
      <trkpt lat="45.70429" lon="4.57702">
        <ele>782</ele>
        <time>2012-05-05T07:54:50Z</time>
      </trkpt>
      <trkpt lat="45.70428" lon="4.57702">
        <ele>782</ele>
        <time>2012-05-05T07:54:51Z</time>
      </trkpt>
      <trkpt lat="45.70425" lon="4.57702">
        <ele>782</ele>
        <time>2012-05-05T07:54:52Z</time>
      </trkpt>
      <trkpt lat="45.70405" lon="4.57699">
        <ele>782</ele>
        <time>2012-05-05T07:55:02Z</time>
      </trkpt>
      <trkpt lat="45.70384" lon="4.57691">
        <ele>781</ele>
        <time>2012-05-05T07:55:09Z</time>
      </trkpt>
      <trkpt lat="45.70381" lon="4.57688">
        <ele>781</ele>
        <time>2012-05-05T07:55:10Z</time>
      </trkpt>
      <trkpt lat="45.70378" lon="4.57684">
        <ele>780</ele>
        <time>2012-05-05T07:55:11Z</time>
      </trkpt>
      <trkpt lat="45.70374" lon="4.5768">
        <ele>779</ele>
        <time>2012-05-05T07:55:12Z</time>
      </trkpt>
      <trkpt lat="45.7037" lon="4.57675">
        <ele>779</ele>
        <time>2012-05-05T07:55:13Z</time>
      </trkpt>
      <trkpt lat="45.70366" lon="4.57669">
        <ele>779</ele>
        <time>2012-05-05T07:55:14Z</time>
      </trkpt>
      <trkpt lat="45.70341" lon="4.57633">
        <ele>777</ele>
        <time>2012-05-05T07:55:20Z</time>
      </trkpt>
      <trkpt lat="45.70337" lon="4.57627">
        <ele>776</ele>
        <time>2012-05-05T07:55:21Z</time>
      </trkpt>
      <trkpt lat="45.703" lon="4.57576">
        <ele>774</ele>
        <time>2012-05-05T07:55:29Z</time>
      </trkpt>
      <trkpt lat="45.70295" lon="4.57569">
        <ele>773</ele>
        <time>2012-05-05T07:55:30Z</time>
      </trkpt>
      <trkpt lat="45.70288" lon="4.57557">
        <ele>773</ele>
        <time>2012-05-05T07:55:32Z</time>
      </trkpt>
      <trkpt lat="45.70285" lon="4.57551">
        <ele>772</ele>
        <time>2012-05-05T07:55:33Z</time>
      </trkpt>
      <trkpt lat="45.70282" lon="4.57545">
        <ele>773</ele>
        <time>2012-05-05T07:55:34Z</time>
      </trkpt>
      <trkpt lat="45.70276" lon="4.57525">
        <ele>772</ele>
        <time>2012-05-05T07:55:37Z</time>
      </trkpt>
      <trkpt lat="45.70266" lon="4.57478">
        <ele>769</ele>
        <time>2012-05-05T07:55:43Z</time>
      </trkpt>
      <trkpt lat="45.70263" lon="4.57451">
        <ele>767</ele>
        <time>2012-05-05T07:55:46Z</time>
      </trkpt>
      <trkpt lat="45.70261" lon="4.57434">
        <ele>766</ele>
        <time>2012-05-05T07:55:48Z</time>
      </trkpt>
      <trkpt lat="45.70258" lon="4.57414">
        <ele>764</ele>
        <time>2012-05-05T07:55:50Z</time>
      </trkpt>
      <trkpt lat="45.70254" lon="4.57353">
        <ele>763</ele>
        <time>2012-05-05T07:55:56Z</time>
      </trkpt>
      <trkpt lat="45.7025" lon="4.5732">
        <ele>761</ele>
        <time>2012-05-05T07:56:00Z</time>
      </trkpt>
      <trkpt lat="45.70245" lon="4.57288">
        <ele>760</ele>
        <time>2012-05-05T07:56:03Z</time>
      </trkpt>
      <trkpt lat="45.70243" lon="4.57278">
        <ele>760</ele>
        <time>2012-05-05T07:56:04Z</time>
      </trkpt>
      <trkpt lat="45.70242" lon="4.57268">
        <ele>760</ele>
        <time>2012-05-05T07:56:05Z</time>
      </trkpt>
      <trkpt lat="45.70242" lon="4.5726">
        <ele>760</ele>
        <time>2012-05-05T07:56:06Z</time>
      </trkpt>
      <trkpt lat="45.70241" lon="4.57254">
        <ele>761</ele>
        <time>2012-05-05T07:56:07Z</time>
      </trkpt>
      <trkpt lat="45.70241" lon="4.5725">
        <ele>761</ele>
        <time>2012-05-05T07:56:08Z</time>
      </trkpt>
      <trkpt lat="45.70241" lon="4.57248">
        <ele>761</ele>
        <time>2012-05-05T07:56:09Z</time>
      </trkpt>
      <trkpt lat="45.70242" lon="4.57245">
        <ele>762</ele>
        <time>2012-05-05T07:56:10Z</time>
      </trkpt>
      <trkpt lat="45.70243" lon="4.57241">
        <ele>762</ele>
        <time>2012-05-05T07:56:11Z</time>
      </trkpt>
      <trkpt lat="45.70243" lon="4.57233">
        <ele>762</ele>
        <time>2012-05-05T07:56:14Z</time>
      </trkpt>
      <trkpt lat="45.70243" lon="4.5723">
        <ele>762</ele>
        <time>2012-05-05T07:56:15Z</time>
      </trkpt>
      <trkpt lat="45.70245" lon="4.57212">
        <ele>763</ele>
        <time>2012-05-05T07:56:22Z</time>
      </trkpt>
      <trkpt lat="45.70246" lon="4.5721">
        <ele>764</ele>
        <time>2012-05-05T07:56:23Z</time>
      </trkpt>
      <trkpt lat="45.70247" lon="4.57208">
        <ele>764</ele>
        <time>2012-05-05T07:56:24Z</time>
      </trkpt>
      <trkpt lat="45.70247" lon="4.57205">
        <ele>764</ele>
        <time>2012-05-05T07:56:25Z</time>
      </trkpt>
      <trkpt lat="45.70247" lon="4.57203">
        <ele>764</ele>
        <time>2012-05-05T07:56:26Z</time>
      </trkpt>
      <trkpt lat="45.70249" lon="4.57187">
        <ele>765</ele>
        <time>2012-05-05T07:56:33Z</time>
      </trkpt>
      <trkpt lat="45.7025" lon="4.57177">
        <ele>766</ele>
        <time>2012-05-05T07:56:36Z</time>
      </trkpt>
      <trkpt lat="45.70252" lon="4.57171">
        <ele>766</ele>
        <time>2012-05-05T07:56:39Z</time>
      </trkpt>
      <trkpt lat="45.70253" lon="4.57168">
        <ele>767</ele>
        <time>2012-05-05T07:56:40Z</time>
      </trkpt>
      <trkpt lat="45.70252" lon="4.57165">
        <ele>767</ele>
        <time>2012-05-05T07:56:41Z</time>
      </trkpt>
      <trkpt lat="45.70253" lon="4.57149">
        <ele>768</ele>
        <time>2012-05-05T07:56:48Z</time>
      </trkpt>
      <trkpt lat="45.70253" lon="4.57146">
        <ele>768</ele>
        <time>2012-05-05T07:56:49Z</time>
      </trkpt>
      <trkpt lat="45.70253" lon="4.57143">
        <ele>768</ele>
        <time>2012-05-05T07:56:50Z</time>
      </trkpt>
      <trkpt lat="45.70252" lon="4.57126">
        <ele>769</ele>
        <time>2012-05-05T07:56:57Z</time>
      </trkpt>
      <trkpt lat="45.70252" lon="4.57124">
        <ele>770</ele>
        <time>2012-05-05T07:56:58Z</time>
      </trkpt>
      <trkpt lat="45.70252" lon="4.57117">
        <ele>770</ele>
        <time>2012-05-05T07:57:00Z</time>
      </trkpt>
      <trkpt lat="45.7025" lon="4.57095">
        <ele>771</ele>
        <time>2012-05-05T07:57:07Z</time>
      </trkpt>
      <trkpt lat="45.70247" lon="4.57072">
        <ele>772</ele>
        <time>2012-05-05T07:57:14Z</time>
      </trkpt>
      <trkpt lat="45.70244" lon="4.57062">
        <ele>773</ele>
        <time>2012-05-05T07:57:18Z</time>
      </trkpt>
      <trkpt lat="45.70242" lon="4.57047">
        <ele>774</ele>
        <time>2012-05-05T07:57:25Z</time>
      </trkpt>
      <trkpt lat="45.7024" lon="4.57039">
        <ele>774</ele>
        <time>2012-05-05T07:57:28Z</time>
      </trkpt>
      <trkpt lat="45.70237" lon="4.57024">
        <ele>776</ele>
        <time>2012-05-05T07:57:34Z</time>
      </trkpt>
      <trkpt lat="45.70234" lon="4.57011">
        <ele>776</ele>
        <time>2012-05-05T07:57:41Z</time>
      </trkpt>
      <trkpt lat="45.70231" lon="4.56995">
        <ele>777</ele>
        <time>2012-05-05T07:57:48Z</time>
      </trkpt>
      <trkpt lat="45.70226" lon="4.56978">
        <ele>778</ele>
        <time>2012-05-05T07:57:54Z</time>
      </trkpt>
      <trkpt lat="45.70225" lon="4.56975">
        <ele>778</ele>
        <time>2012-05-05T07:57:55Z</time>
      </trkpt>
      <trkpt lat="45.70224" lon="4.56972">
        <ele>778</ele>
        <time>2012-05-05T07:57:56Z</time>
      </trkpt>
      <trkpt lat="45.70224" lon="4.56969">
        <ele>778</ele>
        <time>2012-05-05T07:57:57Z</time>
      </trkpt>
      <trkpt lat="45.70223" lon="4.56966">
        <ele>778</ele>
        <time>2012-05-05T07:57:58Z</time>
      </trkpt>
      <trkpt lat="45.70222" lon="4.56962">
        <ele>778</ele>
        <time>2012-05-05T07:57:59Z</time>
      </trkpt>
      <trkpt lat="45.70221" lon="4.56958">
        <ele>778</ele>
        <time>2012-05-05T07:58:00Z</time>
      </trkpt>
      <trkpt lat="45.70221" lon="4.56954">
        <ele>778</ele>
        <time>2012-05-05T07:58:01Z</time>
      </trkpt>
      <trkpt lat="45.70216" lon="4.56934">
        <ele>778</ele>
        <time>2012-05-05T07:58:08Z</time>
      </trkpt>
      <trkpt lat="45.70213" lon="4.56924">
        <ele>779</ele>
        <time>2012-05-05T07:58:11Z</time>
      </trkpt>
      <trkpt lat="45.70211" lon="4.56916">
        <ele>779</ele>
        <time>2012-05-05T07:58:14Z</time>
      </trkpt>
      <trkpt lat="45.70211" lon="4.56913">
        <ele>779</ele>
        <time>2012-05-05T07:58:15Z</time>
      </trkpt>
      <trkpt lat="45.70211" lon="4.5691">
        <ele>779</ele>
        <time>2012-05-05T07:58:16Z</time>
      </trkpt>
      <trkpt lat="45.70209" lon="4.569">
        <ele>780</ele>
        <time>2012-05-05T07:58:22Z</time>
      </trkpt>
      <trkpt lat="45.70204" lon="4.56887">
        <ele>780</ele>
        <time>2012-05-05T07:58:28Z</time>
      </trkpt>
      <trkpt lat="45.70195" lon="4.56867">
        <ele>781</ele>
        <time>2012-05-05T07:58:34Z</time>
      </trkpt>
      <trkpt lat="45.70184" lon="4.56845">
        <ele>781</ele>
        <time>2012-05-05T07:58:39Z</time>
      </trkpt>
      <trkpt lat="45.7017" lon="4.56823">
        <ele>780</ele>
        <time>2012-05-05T07:58:44Z</time>
      </trkpt>
      <trkpt lat="45.70161" lon="4.56814">
        <ele>781</ele>
        <time>2012-05-05T07:58:48Z</time>
      </trkpt>
      <trkpt lat="45.70146" lon="4.56798">
        <ele>782</ele>
        <time>2012-05-05T07:58:54Z</time>
      </trkpt>
      <trkpt lat="45.70136" lon="4.56794">
        <ele>783</ele>
        <time>2012-05-05T07:59:00Z</time>
      </trkpt>
      <trkpt lat="45.70128" lon="4.56802">
        <ele>783</ele>
        <time>2012-05-05T07:59:05Z</time>
      </trkpt>
      <trkpt lat="45.70123" lon="4.56813">
        <ele>783</ele>
        <time>2012-05-05T07:59:10Z</time>
      </trkpt>
      <trkpt lat="45.70116" lon="4.56834">
        <ele>781</ele>
        <time>2012-05-05T07:59:15Z</time>
      </trkpt>
      <trkpt lat="45.70112" lon="4.56852">
        <ele>780</ele>
        <time>2012-05-05T07:59:19Z</time>
      </trkpt>
      <trkpt lat="45.70093" lon="4.56886">
        <ele>779</ele>
        <time>2012-05-05T07:59:26Z</time>
      </trkpt>
      <trkpt lat="45.70083" lon="4.56904">
        <ele>779</ele>
        <time>2012-05-05T07:59:30Z</time>
      </trkpt>
      <trkpt lat="45.70074" lon="4.56917">
        <ele>779</ele>
        <time>2012-05-05T07:59:34Z</time>
      </trkpt>
      <trkpt lat="45.7006" lon="4.56937">
        <ele>781</ele>
        <time>2012-05-05T07:59:40Z</time>
      </trkpt>
      <trkpt lat="45.70042" lon="4.56957">
        <ele>781</ele>
        <time>2012-05-05T07:59:47Z</time>
      </trkpt>
      <trkpt lat="45.70031" lon="4.56967">
        <ele>783</ele>
        <time>2012-05-05T07:59:53Z</time>
      </trkpt>
      <trkpt lat="45.70031" lon="4.56967">
        <ele>783</ele>
        <time>2012-05-05T07:59:54Z</time>
      </trkpt>
      <trkpt lat="45.70023" lon="4.5697">
        <ele>784</ele>
        <time>2012-05-05T07:59:57Z</time>
      </trkpt>
      <trkpt lat="45.70007" lon="4.56978">
        <ele>785</ele>
        <time>2012-05-05T08:00:04Z</time>
      </trkpt>
      <trkpt lat="45.69996" lon="4.56982">
        <ele>786</ele>
        <time>2012-05-05T08:00:10Z</time>
      </trkpt>
      <trkpt lat="45.6999" lon="4.56985">
        <ele>787</ele>
        <time>2012-05-05T08:00:17Z</time>
      </trkpt>
      <trkpt lat="45.69988" lon="4.56988">
        <ele>787</ele>
        <time>2012-05-05T08:00:24Z</time>
      </trkpt>
      <trkpt lat="45.69986" lon="4.56987">
        <ele>787</ele>
        <time>2012-05-05T08:00:44Z</time>
      </trkpt>
      <trkpt lat="45.69987" lon="4.56987">
        <ele>787</ele>
        <time>2012-05-05T08:01:01Z</time>
      </trkpt>
      <trkpt lat="45.69987" lon="4.56986">
        <ele>787</ele>
        <time>2012-05-05T08:01:19Z</time>
      </trkpt>
      <trkpt lat="45.69988" lon="4.56987">
        <ele>786</ele>
        <time>2012-05-05T08:01:40Z</time>
      </trkpt>
      <trkpt lat="45.69986" lon="4.56985">
        <ele>787</ele>
        <time>2012-05-05T08:01:58Z</time>
      </trkpt>
      <trkpt lat="45.69985" lon="4.56984">
        <ele>787</ele>
        <time>2012-05-05T08:02:17Z</time>
      </trkpt>
      <trkpt lat="45.69984" lon="4.56985">
        <ele>787</ele>
        <time>2012-05-05T08:02:24Z</time>
      </trkpt>
      <trkpt lat="45.69973" lon="4.56986">
        <ele>787</ele>
        <time>2012-05-05T08:02:31Z</time>
      </trkpt>
      <trkpt lat="45.69952" lon="4.56988">
        <ele>787</ele>
        <time>2012-05-05T08:02:38Z</time>
      </trkpt>
      <trkpt lat="45.6995" lon="4.56989">
        <ele>787</ele>
        <time>2012-05-05T08:02:39Z</time>
      </trkpt>
      <trkpt lat="45.69945" lon="4.56994">
        <ele>788</ele>
        <time>2012-05-05T08:02:42Z</time>
      </trkpt>
      <trkpt lat="45.69937" lon="4.57015">
        <ele>788</ele>
        <time>2012-05-05T08:02:47Z</time>
      </trkpt>
      <trkpt lat="45.69935" lon="4.5702">
        <ele>787</ele>
        <time>2012-05-05T08:02:48Z</time>
      </trkpt>
      <trkpt lat="45.69926" lon="4.57044">
        <ele>787</ele>
        <time>2012-05-05T08:02:53Z</time>
      </trkpt>
      <trkpt lat="45.69925" lon="4.57049">
        <ele>786</ele>
        <time>2012-05-05T08:02:54Z</time>
      </trkpt>
      <trkpt lat="45.69914" lon="4.57086">
        <ele>784</ele>
        <time>2012-05-05T08:03:00Z</time>
      </trkpt>
      <trkpt lat="45.6991" lon="4.57096">
        <ele>784</ele>
        <time>2012-05-05T08:03:01Z</time>
      </trkpt>
      <trkpt lat="45.69905" lon="4.57106">
        <ele>784</ele>
        <time>2012-05-05T08:03:02Z</time>
      </trkpt>
      <trkpt lat="45.69902" lon="4.57115">
        <ele>783</ele>
        <time>2012-05-05T08:03:03Z</time>
      </trkpt>
      <trkpt lat="45.69895" lon="4.57129">
        <ele>783</ele>
        <time>2012-05-05T08:03:04Z</time>
      </trkpt>
      <trkpt lat="45.69881" lon="4.57164">
        <ele>780</ele>
        <time>2012-05-05T08:03:07Z</time>
      </trkpt>
      <trkpt lat="45.69878" lon="4.57175">
        <ele>779</ele>
        <time>2012-05-05T08:03:08Z</time>
      </trkpt>
      <trkpt lat="45.69874" lon="4.57187">
        <ele>778</ele>
        <time>2012-05-05T08:03:09Z</time>
      </trkpt>
      <trkpt lat="45.69866" lon="4.57215">
        <ele>775</ele>
        <time>2012-05-05T08:03:12Z</time>
      </trkpt>
      <trkpt lat="45.6986" lon="4.57239">
        <ele>772</ele>
        <time>2012-05-05T08:03:15Z</time>
      </trkpt>
      <trkpt lat="45.69854" lon="4.57252">
        <ele>772</ele>
        <time>2012-05-05T08:03:17Z</time>
      </trkpt>
      <trkpt lat="45.69854" lon="4.57257">
        <ele>771</ele>
        <time>2012-05-05T08:03:18Z</time>
      </trkpt>
      <trkpt lat="45.69853" lon="4.57261">
        <ele>770</ele>
        <time>2012-05-05T08:03:19Z</time>
      </trkpt>
      <trkpt lat="45.69852" lon="4.57266">
        <ele>769</ele>
        <time>2012-05-05T08:03:20Z</time>
      </trkpt>
      <trkpt lat="45.69849" lon="4.57273">
        <ele>767</ele>
        <time>2012-05-05T08:03:21Z</time>
      </trkpt>
      <trkpt lat="45.69846" lon="4.57281">
        <ele>766</ele>
        <time>2012-05-05T08:03:22Z</time>
      </trkpt>
      <trkpt lat="45.69842" lon="4.57287">
        <ele>765</ele>
        <time>2012-05-05T08:03:23Z</time>
      </trkpt>
      <trkpt lat="45.69837" lon="4.57291">
        <ele>764</ele>
        <time>2012-05-05T08:03:24Z</time>
      </trkpt>
      <trkpt lat="45.69832" lon="4.57295">
        <ele>763</ele>
        <time>2012-05-05T08:03:25Z</time>
      </trkpt>
      <trkpt lat="45.69827" lon="4.57299">
        <ele>763</ele>
        <time>2012-05-05T08:03:26Z</time>
      </trkpt>
      <trkpt lat="45.6982" lon="4.57301">
        <ele>763</ele>
        <time>2012-05-05T08:03:27Z</time>
      </trkpt>
      <trkpt lat="45.69813" lon="4.57304">
        <ele>762</ele>
        <time>2012-05-05T08:03:28Z</time>
      </trkpt>
      <trkpt lat="45.69807" lon="4.57306">
        <ele>762</ele>
        <time>2012-05-05T08:03:29Z</time>
      </trkpt>
      <trkpt lat="45.69801" lon="4.57307">
        <ele>762</ele>
        <time>2012-05-05T08:03:30Z</time>
      </trkpt>
      <trkpt lat="45.69791" lon="4.5731">
        <ele>761</ele>
        <time>2012-05-05T08:03:32Z</time>
      </trkpt>
      <trkpt lat="45.69786" lon="4.57312">
        <ele>761</ele>
        <time>2012-05-05T08:03:33Z</time>
      </trkpt>
      <trkpt lat="45.69774" lon="4.57324">
        <ele>761</ele>
        <time>2012-05-05T08:03:37Z</time>
      </trkpt>
      <trkpt lat="45.69759" lon="4.57344">
        <ele>762</ele>
        <time>2012-05-05T08:03:43Z</time>
      </trkpt>
      <trkpt lat="45.69747" lon="4.57356">
        <ele>765</ele>
        <time>2012-05-05T08:03:49Z</time>
      </trkpt>
      <trkpt lat="45.69745" lon="4.57358">
        <ele>765</ele>
        <time>2012-05-05T08:03:50Z</time>
      </trkpt>
      <trkpt lat="45.69743" lon="4.5736">
        <ele>765</ele>
        <time>2012-05-05T08:03:51Z</time>
      </trkpt>
      <trkpt lat="45.6974" lon="4.57364">
        <ele>766</ele>
        <time>2012-05-05T08:03:53Z</time>
      </trkpt>
      <trkpt lat="45.69737" lon="4.57368">
        <ele>767</ele>
        <time>2012-05-05T08:03:55Z</time>
      </trkpt>
      <trkpt lat="45.69736" lon="4.57372">
        <ele>767</ele>
        <time>2012-05-05T08:03:56Z</time>
      </trkpt>
      <trkpt lat="45.69722" lon="4.57397">
        <ele>769</ele>
        <time>2012-05-05T08:04:02Z</time>
      </trkpt>
      <trkpt lat="45.69709" lon="4.57414">
        <ele>768</ele>
        <time>2012-05-05T08:04:09Z</time>
      </trkpt>
      <trkpt lat="45.69707" lon="4.57416">
        <ele>768</ele>
        <time>2012-05-05T08:04:10Z</time>
      </trkpt>
      <trkpt lat="45.69706" lon="4.57418">
        <ele>768</ele>
        <time>2012-05-05T08:04:11Z</time>
      </trkpt>
      <trkpt lat="45.69706" lon="4.5742">
        <ele>768</ele>
        <time>2012-05-05T08:04:12Z</time>
      </trkpt>
      <trkpt lat="45.69705" lon="4.57423">
        <ele>768</ele>
        <time>2012-05-05T08:04:13Z</time>
      </trkpt>
      <trkpt lat="45.69705" lon="4.57426">
        <ele>768</ele>
        <time>2012-05-05T08:04:14Z</time>
      </trkpt>
      <trkpt lat="45.69704" lon="4.57429">
        <ele>768</ele>
        <time>2012-05-05T08:04:15Z</time>
      </trkpt>
      <trkpt lat="45.69702" lon="4.57432">
        <ele>768</ele>
        <time>2012-05-05T08:04:16Z</time>
      </trkpt>
      <trkpt lat="45.697" lon="4.57435">
        <ele>769</ele>
        <time>2012-05-05T08:04:17Z</time>
      </trkpt>
      <trkpt lat="45.69698" lon="4.57438">
        <ele>768</ele>
        <time>2012-05-05T08:04:18Z</time>
      </trkpt>
      <trkpt lat="45.69696" lon="4.57441">
        <ele>768</ele>
        <time>2012-05-05T08:04:19Z</time>
      </trkpt>
      <trkpt lat="45.69694" lon="4.57444">
        <ele>768</ele>
        <time>2012-05-05T08:04:20Z</time>
      </trkpt>
      <trkpt lat="45.69683" lon="4.57453">
        <ele>769</ele>
        <time>2012-05-05T08:04:24Z</time>
      </trkpt>
      <trkpt lat="45.69679" lon="4.57456">
        <ele>769</ele>
        <time>2012-05-05T08:04:25Z</time>
      </trkpt>
      <trkpt lat="45.69675" lon="4.57459">
        <ele>769</ele>
        <time>2012-05-05T08:04:26Z</time>
      </trkpt>
      <trkpt lat="45.69672" lon="4.5746">
        <ele>768</ele>
        <time>2012-05-05T08:04:27Z</time>
      </trkpt>
      <trkpt lat="45.6967" lon="4.57462">
        <ele>769</ele>
        <time>2012-05-05T08:04:28Z</time>
      </trkpt>
      <trkpt lat="45.69667" lon="4.57464">
        <ele>769</ele>
        <time>2012-05-05T08:04:29Z</time>
      </trkpt>
      <trkpt lat="45.69666" lon="4.57467">
        <ele>769</ele>
        <time>2012-05-05T08:04:30Z</time>
      </trkpt>
      <trkpt lat="45.69664" lon="4.57471">
        <ele>769</ele>
        <time>2012-05-05T08:04:31Z</time>
      </trkpt>
      <trkpt lat="45.69663" lon="4.57474">
        <ele>770</ele>
        <time>2012-05-05T08:04:32Z</time>
      </trkpt>
      <trkpt lat="45.69661" lon="4.57477">
        <ele>769</ele>
        <time>2012-05-05T08:04:33Z</time>
      </trkpt>
      <trkpt lat="45.69659" lon="4.5748">
        <ele>770</ele>
        <time>2012-05-05T08:04:34Z</time>
      </trkpt>
      <trkpt lat="45.69657" lon="4.57482">
        <ele>769</ele>
        <time>2012-05-05T08:04:35Z</time>
      </trkpt>
      <trkpt lat="45.69654" lon="4.57486">
        <ele>769</ele>
        <time>2012-05-05T08:04:36Z</time>
      </trkpt>
      <trkpt lat="45.69651" lon="4.57488">
        <ele>770</ele>
        <time>2012-05-05T08:04:37Z</time>
      </trkpt>
      <trkpt lat="45.69649" lon="4.5749">
        <ele>770</ele>
        <time>2012-05-05T08:04:38Z</time>
      </trkpt>
      <trkpt lat="45.69647" lon="4.57492">
        <ele>769</ele>
        <time>2012-05-05T08:04:39Z</time>
      </trkpt>
      <trkpt lat="45.69645" lon="4.57493">
        <ele>770</ele>
        <time>2012-05-05T08:04:40Z</time>
      </trkpt>
      <trkpt lat="45.69643" lon="4.57495">
        <ele>770</ele>
        <time>2012-05-05T08:04:41Z</time>
      </trkpt>
      <trkpt lat="45.6964" lon="4.575">
        <ele>770</ele>
        <time>2012-05-05T08:04:42Z</time>
      </trkpt>
      <trkpt lat="45.69639" lon="4.57504">
        <ele>770</ele>
        <time>2012-05-05T08:04:43Z</time>
      </trkpt>
      <trkpt lat="45.69636" lon="4.57508">
        <ele>770</ele>
        <time>2012-05-05T08:04:44Z</time>
      </trkpt>
      <trkpt lat="45.69635" lon="4.57509">
        <ele>771</ele>
        <time>2012-05-05T08:04:45Z</time>
      </trkpt>
      <trkpt lat="45.69633" lon="4.57511">
        <ele>771</ele>
        <time>2012-05-05T08:04:46Z</time>
      </trkpt>
      <trkpt lat="45.69616" lon="4.57528">
        <ele>772</ele>
        <time>2012-05-05T08:04:53Z</time>
      </trkpt>
      <trkpt lat="45.69614" lon="4.57529">
        <ele>772</ele>
        <time>2012-05-05T08:04:54Z</time>
      </trkpt>
      <trkpt lat="45.69612" lon="4.57531">
        <ele>772</ele>
        <time>2012-05-05T08:04:55Z</time>
      </trkpt>
      <trkpt lat="45.696" lon="4.57541">
        <ele>774</ele>
        <time>2012-05-05T08:05:02Z</time>
      </trkpt>
      <trkpt lat="45.69588" lon="4.57551">
        <ele>774</ele>
        <time>2012-05-05T08:05:08Z</time>
      </trkpt>
      <trkpt lat="45.69573" lon="4.57558">
        <ele>776</ele>
        <time>2012-05-05T08:05:16Z</time>
      </trkpt>
      <trkpt lat="45.69562" lon="4.57561">
        <ele>777</ele>
        <time>2012-05-05T08:05:24Z</time>
      </trkpt>
      <trkpt lat="45.69549" lon="4.57563">
        <ele>779</ele>
        <time>2012-05-05T08:05:33Z</time>
      </trkpt>
      <trkpt lat="45.69538" lon="4.57562">
        <ele>781</ele>
        <time>2012-05-05T08:05:40Z</time>
      </trkpt>
      <trkpt lat="45.69536" lon="4.57562">
        <ele>781</ele>
        <time>2012-05-05T08:05:41Z</time>
      </trkpt>
      <trkpt lat="45.69535" lon="4.57562">
        <ele>781</ele>
        <time>2012-05-05T08:05:42Z</time>
      </trkpt>
      <trkpt lat="45.69534" lon="4.57561">
        <ele>781</ele>
        <time>2012-05-05T08:05:43Z</time>
      </trkpt>
      <trkpt lat="45.69532" lon="4.57561">
        <ele>782</ele>
        <time>2012-05-05T08:05:44Z</time>
      </trkpt>
      <trkpt lat="45.69531" lon="4.57561">
        <ele>782</ele>
        <time>2012-05-05T08:05:45Z</time>
      </trkpt>
      <trkpt lat="45.69529" lon="4.57561">
        <ele>782</ele>
        <time>2012-05-05T08:05:46Z</time>
      </trkpt>
      <trkpt lat="45.69515" lon="4.57559">
        <ele>784</ele>
        <time>2012-05-05T08:05:56Z</time>
      </trkpt>
      <trkpt lat="45.69504" lon="4.57558">
        <ele>786</ele>
        <time>2012-05-05T08:06:04Z</time>
      </trkpt>
      <trkpt lat="45.69501" lon="4.57558">
        <ele>786</ele>
        <time>2012-05-05T08:06:06Z</time>
      </trkpt>
      <trkpt lat="45.695" lon="4.57558">
        <ele>786</ele>
        <time>2012-05-05T08:06:07Z</time>
      </trkpt>
      <trkpt lat="45.69498" lon="4.57558">
        <ele>786</ele>
        <time>2012-05-05T08:06:08Z</time>
      </trkpt>
      <trkpt lat="45.69497" lon="4.57558">
        <ele>787</ele>
        <time>2012-05-05T08:06:09Z</time>
      </trkpt>
      <trkpt lat="45.69496" lon="4.5756">
        <ele>787</ele>
        <time>2012-05-05T08:06:10Z</time>
      </trkpt>
      <trkpt lat="45.69495" lon="4.57562">
        <ele>787</ele>
        <time>2012-05-05T08:06:11Z</time>
      </trkpt>
      <trkpt lat="45.69495" lon="4.57564">
        <ele>787</ele>
        <time>2012-05-05T08:06:12Z</time>
      </trkpt>
      <trkpt lat="45.69494" lon="4.57565">
        <ele>787</ele>
        <time>2012-05-05T08:06:13Z</time>
      </trkpt>
      <trkpt lat="45.69485" lon="4.57577">
        <ele>787</ele>
        <time>2012-05-05T08:06:20Z</time>
      </trkpt>
      <trkpt lat="45.69463" lon="4.57592">
        <ele>789</ele>
        <time>2012-05-05T08:06:31Z</time>
      </trkpt>
      <trkpt lat="45.69442" lon="4.57599">
        <ele>790</ele>
        <time>2012-05-05T08:06:41Z</time>
      </trkpt>
      <trkpt lat="45.69425" lon="4.57613">
        <ele>791</ele>
        <time>2012-05-05T08:06:50Z</time>
      </trkpt>
      <trkpt lat="45.6941" lon="4.57635">
        <ele>791</ele>
        <time>2012-05-05T08:06:58Z</time>
      </trkpt>
      <trkpt lat="45.69389" lon="4.57671">
        <ele>790</ele>
        <time>2012-05-05T08:07:09Z</time>
      </trkpt>
      <trkpt lat="45.69367" lon="4.57698">
        <ele>790</ele>
        <time>2012-05-05T08:07:18Z</time>
      </trkpt>
      <trkpt lat="45.69351" lon="4.57713">
        <ele>789</ele>
        <time>2012-05-05T08:07:23Z</time>
      </trkpt>
      <trkpt lat="45.69347" lon="4.57715">
        <ele>789</ele>
        <time>2012-05-05T08:07:24Z</time>
      </trkpt>
      <trkpt lat="45.69343" lon="4.57719">
        <ele>790</ele>
        <time>2012-05-05T08:07:25Z</time>
      </trkpt>
      <trkpt lat="45.69311" lon="4.57756">
        <ele>786</ele>
        <time>2012-05-05T08:07:32Z</time>
      </trkpt>
      <trkpt lat="45.69261" lon="4.57816">
        <ele>784</ele>
        <time>2012-05-05T08:07:41Z</time>
      </trkpt>
      <trkpt lat="45.69249" lon="4.57828">
        <ele>783</ele>
        <time>2012-05-05T08:07:43Z</time>
      </trkpt>
      <trkpt lat="45.69224" lon="4.57847">
        <ele>782</ele>
        <time>2012-05-05T08:07:47Z</time>
      </trkpt>
      <trkpt lat="45.69217" lon="4.57849">
        <ele>783</ele>
        <time>2012-05-05T08:07:48Z</time>
      </trkpt>
      <trkpt lat="45.69212" lon="4.57851">
        <ele>783</ele>
        <time>2012-05-05T08:07:49Z</time>
      </trkpt>
      <trkpt lat="45.69207" lon="4.57852">
        <ele>783</ele>
        <time>2012-05-05T08:07:50Z</time>
      </trkpt>
      <trkpt lat="45.69202" lon="4.57853">
        <ele>783</ele>
        <time>2012-05-05T08:07:51Z</time>
      </trkpt>
      <trkpt lat="45.69168" lon="4.57856">
        <ele>782</ele>
        <time>2012-05-05T08:07:58Z</time>
      </trkpt>
      <trkpt lat="45.69149" lon="4.57856">
        <ele>781</ele>
        <time>2012-05-05T08:08:03Z</time>
      </trkpt>
      <trkpt lat="45.69144" lon="4.57858">
        <ele>780</ele>
        <time>2012-05-05T08:08:04Z</time>
      </trkpt>
      <trkpt lat="45.69133" lon="4.57864">
        <ele>779</ele>
        <time>2012-05-05T08:08:06Z</time>
      </trkpt>
      <trkpt lat="45.69128" lon="4.57869">
        <ele>779</ele>
        <time>2012-05-05T08:08:07Z</time>
      </trkpt>
      <trkpt lat="45.69122" lon="4.57874">
        <ele>777</ele>
        <time>2012-05-05T08:08:08Z</time>
      </trkpt>
      <trkpt lat="45.69118" lon="4.57882">
        <ele>777</ele>
        <time>2012-05-05T08:08:09Z</time>
      </trkpt>
      <trkpt lat="45.69114" lon="4.57891">
        <ele>776</ele>
        <time>2012-05-05T08:08:10Z</time>
      </trkpt>
      <trkpt lat="45.69112" lon="4.57901">
        <ele>775</ele>
        <time>2012-05-05T08:08:11Z</time>
      </trkpt>
      <trkpt lat="45.6911" lon="4.57913">
        <ele>774</ele>
        <time>2012-05-05T08:08:12Z</time>
      </trkpt>
      <trkpt lat="45.69108" lon="4.57938">
        <ele>772</ele>
        <time>2012-05-05T08:08:14Z</time>
      </trkpt>
      <trkpt lat="45.69107" lon="4.57949">
        <ele>771</ele>
        <time>2012-05-05T08:08:15Z</time>
      </trkpt>
      <trkpt lat="45.69104" lon="4.57959">
        <ele>770</ele>
        <time>2012-05-05T08:08:16Z</time>
      </trkpt>
      <trkpt lat="45.69099" lon="4.57968">
        <ele>770</ele>
        <time>2012-05-05T08:08:17Z</time>
      </trkpt>
      <trkpt lat="45.69094" lon="4.57976">
        <ele>769</ele>
        <time>2012-05-05T08:08:18Z</time>
      </trkpt>
      <trkpt lat="45.69087" lon="4.57981">
        <ele>769</ele>
        <time>2012-05-05T08:08:19Z</time>
      </trkpt>
      <trkpt lat="45.6908" lon="4.57984">
        <ele>768</ele>
        <time>2012-05-05T08:08:20Z</time>
      </trkpt>
      <trkpt lat="45.69072" lon="4.57986">
        <ele>768</ele>
        <time>2012-05-05T08:08:21Z</time>
      </trkpt>
      <trkpt lat="45.69064" lon="4.57987">
        <ele>767</ele>
        <time>2012-05-05T08:08:22Z</time>
      </trkpt>
      <trkpt lat="45.69039" lon="4.57991">
        <ele>765</ele>
        <time>2012-05-05T08:08:25Z</time>
      </trkpt>
      <trkpt lat="45.69011" lon="4.57997">
        <ele>761</ele>
        <time>2012-05-05T08:08:28Z</time>
      </trkpt>
      <trkpt lat="45.69" lon="4.57999">
        <ele>759</ele>
        <time>2012-05-05T08:08:29Z</time>
      </trkpt>
      <trkpt lat="45.6899" lon="4.58005">
        <ele>756</ele>
        <time>2012-05-05T08:08:30Z</time>
      </trkpt>
      <trkpt lat="45.68981" lon="4.58016">
        <ele>754</ele>
        <time>2012-05-05T08:08:31Z</time>
      </trkpt>
      <trkpt lat="45.68972" lon="4.58029">
        <ele>752</ele>
        <time>2012-05-05T08:08:32Z</time>
      </trkpt>
      <trkpt lat="45.68965" lon="4.58045">
        <ele>749</ele>
        <time>2012-05-05T08:08:33Z</time>
      </trkpt>
      <trkpt lat="45.68958" lon="4.58062">
        <ele>747</ele>
        <time>2012-05-05T08:08:34Z</time>
      </trkpt>
      <trkpt lat="45.68951" lon="4.5808">
        <ele>745</ele>
        <time>2012-05-05T08:08:35Z</time>
      </trkpt>
      <trkpt lat="45.68942" lon="4.58095">
        <ele>743</ele>
        <time>2012-05-05T08:08:36Z</time>
      </trkpt>
      <trkpt lat="45.68935" lon="4.58107">
        <ele>741</ele>
        <time>2012-05-05T08:08:37Z</time>
      </trkpt>
      <trkpt lat="45.68928" lon="4.58115">
        <ele>739</ele>
        <time>2012-05-05T08:08:38Z</time>
      </trkpt>
      <trkpt lat="45.68923" lon="4.5812">
        <ele>737</ele>
        <time>2012-05-05T08:08:39Z</time>
      </trkpt>
      <trkpt lat="45.68919" lon="4.58123">
        <ele>736</ele>
        <time>2012-05-05T08:08:40Z</time>
      </trkpt>
      <trkpt lat="45.68916" lon="4.58125">
        <ele>736</ele>
        <time>2012-05-05T08:08:41Z</time>
      </trkpt>
      <trkpt lat="45.68912" lon="4.58124">
        <ele>736</ele>
        <time>2012-05-05T08:08:42Z</time>
      </trkpt>
      <trkpt lat="45.68908" lon="4.58122">
        <ele>735</ele>
        <time>2012-05-05T08:08:43Z</time>
      </trkpt>
      <trkpt lat="45.68905" lon="4.58118">
        <ele>735</ele>
        <time>2012-05-05T08:08:44Z</time>
      </trkpt>
      <trkpt lat="45.68902" lon="4.58114">
        <ele>734</ele>
        <time>2012-05-05T08:08:45Z</time>
      </trkpt>
      <trkpt lat="45.68899" lon="4.58109">
        <ele>734</ele>
        <time>2012-05-05T08:08:46Z</time>
      </trkpt>
      <trkpt lat="45.68897" lon="4.58105">
        <ele>734</ele>
        <time>2012-05-05T08:08:47Z</time>
      </trkpt>
      <trkpt lat="45.68894" lon="4.581">
        <ele>734</ele>
        <time>2012-05-05T08:08:48Z</time>
      </trkpt>
      <trkpt lat="45.68892" lon="4.58094">
        <ele>733</ele>
        <time>2012-05-05T08:08:49Z</time>
      </trkpt>
      <trkpt lat="45.6889" lon="4.58089">
        <ele>733</ele>
        <time>2012-05-05T08:08:50Z</time>
      </trkpt>
      <trkpt lat="45.68888" lon="4.58084">
        <ele>732</ele>
        <time>2012-05-05T08:08:51Z</time>
      </trkpt>
      <trkpt lat="45.68886" lon="4.58077">
        <ele>731</ele>
        <time>2012-05-05T08:08:52Z</time>
      </trkpt>
      <trkpt lat="45.68885" lon="4.5807">
        <ele>731</ele>
        <time>2012-05-05T08:08:53Z</time>
      </trkpt>
      <trkpt lat="45.68884" lon="4.58062">
        <ele>730</ele>
        <time>2012-05-05T08:08:54Z</time>
      </trkpt>
      <trkpt lat="45.68882" lon="4.58055">
        <ele>729</ele>
        <time>2012-05-05T08:08:55Z</time>
      </trkpt>
      <trkpt lat="45.68879" lon="4.5803">
        <ele>727</ele>
        <time>2012-05-05T08:08:59Z</time>
      </trkpt>
      <trkpt lat="45.68877" lon="4.58022">
        <ele>725</ele>
        <time>2012-05-05T08:09:00Z</time>
      </trkpt>
      <trkpt lat="45.68875" lon="4.58014">
        <ele>725</ele>
        <time>2012-05-05T08:09:01Z</time>
      </trkpt>
      <trkpt lat="45.68873" lon="4.58005">
        <ele>724</ele>
        <time>2012-05-05T08:09:02Z</time>
      </trkpt>
      <trkpt lat="45.68872" lon="4.57989">
        <ele>722</ele>
        <time>2012-05-05T08:09:04Z</time>
      </trkpt>
      <trkpt lat="45.68872" lon="4.57982">
        <ele>722</ele>
        <time>2012-05-05T08:09:05Z</time>
      </trkpt>
      <trkpt lat="45.68872" lon="4.57976">
        <ele>721</ele>
        <time>2012-05-05T08:09:06Z</time>
      </trkpt>
      <trkpt lat="45.68871" lon="4.5797">
        <ele>720</ele>
        <time>2012-05-05T08:09:07Z</time>
      </trkpt>
      <trkpt lat="45.68871" lon="4.57963">
        <ele>719</ele>
        <time>2012-05-05T08:09:08Z</time>
      </trkpt>
      <trkpt lat="45.6887" lon="4.57956">
        <ele>718</ele>
        <time>2012-05-05T08:09:09Z</time>
      </trkpt>
      <trkpt lat="45.68868" lon="4.57945">
        <ele>717</ele>
        <time>2012-05-05T08:09:11Z</time>
      </trkpt>
      <trkpt lat="45.68868" lon="4.57942">
        <ele>717</ele>
        <time>2012-05-05T08:09:12Z</time>
      </trkpt>
      <trkpt lat="45.68869" lon="4.5794">
        <ele>717</ele>
        <time>2012-05-05T08:09:17Z</time>
      </trkpt>
      <trkpt lat="45.68869" lon="4.57939">
        <ele>717</ele>
        <time>2012-05-05T08:09:24Z</time>
      </trkpt>
      <trkpt lat="45.68869" lon="4.57938">
        <ele>717</ele>
        <time>2012-05-05T08:09:33Z</time>
      </trkpt>
      <trkpt lat="45.68868" lon="4.57937">
        <ele>718</ele>
        <time>2012-05-05T08:09:37Z</time>
      </trkpt>
      <trkpt lat="45.68864" lon="4.5793">
        <ele>717</ele>
        <time>2012-05-05T08:09:41Z</time>
      </trkpt>
      <trkpt lat="45.68859" lon="4.57922">
        <ele>717</ele>
        <time>2012-05-05T08:09:46Z</time>
      </trkpt>
      <trkpt lat="45.68853" lon="4.5792">
        <ele>718</ele>
        <time>2012-05-05T08:09:51Z</time>
      </trkpt>
      <trkpt lat="45.68845" lon="4.57915">
        <ele>719</ele>
        <time>2012-05-05T08:09:58Z</time>
      </trkpt>
      <trkpt lat="45.68837" lon="4.57916">
        <ele>720</ele>
        <time>2012-05-05T08:10:03Z</time>
      </trkpt>
      <trkpt lat="45.68835" lon="4.57917">
        <ele>721</ele>
        <time>2012-05-05T08:10:05Z</time>
      </trkpt>
      <trkpt lat="45.68833" lon="4.57918">
        <ele>722</ele>
        <time>2012-05-05T08:10:07Z</time>
      </trkpt>
      <trkpt lat="45.6883" lon="4.57923">
        <ele>722</ele>
        <time>2012-05-05T08:10:11Z</time>
      </trkpt>
      <trkpt lat="45.68828" lon="4.57925">
        <ele>722</ele>
        <time>2012-05-05T08:10:12Z</time>
      </trkpt>
      <trkpt lat="45.68821" lon="4.57934">
        <ele>723</ele>
        <time>2012-05-05T08:10:17Z</time>
      </trkpt>
      <trkpt lat="45.68815" lon="4.57946">
        <ele>723</ele>
        <time>2012-05-05T08:10:22Z</time>
      </trkpt>
      <trkpt lat="45.68813" lon="4.57948">
        <ele>722</ele>
        <time>2012-05-05T08:10:23Z</time>
      </trkpt>
      <trkpt lat="45.6881" lon="4.57953">
        <ele>723</ele>
        <time>2012-05-05T08:10:26Z</time>
      </trkpt>
      <trkpt lat="45.68809" lon="4.57955">
        <ele>723</ele>
        <time>2012-05-05T08:10:27Z</time>
      </trkpt>
      <trkpt lat="45.68808" lon="4.57957">
        <ele>723</ele>
        <time>2012-05-05T08:10:28Z</time>
      </trkpt>
      <trkpt lat="45.68806" lon="4.57958">
        <ele>723</ele>
        <time>2012-05-05T08:10:29Z</time>
      </trkpt>
      <trkpt lat="45.68805" lon="4.5796">
        <ele>723</ele>
        <time>2012-05-05T08:10:30Z</time>
      </trkpt>
      <trkpt lat="45.68804" lon="4.57962">
        <ele>723</ele>
        <time>2012-05-05T08:10:31Z</time>
      </trkpt>
      <trkpt lat="45.68803" lon="4.57963">
        <ele>723</ele>
        <time>2012-05-05T08:10:32Z</time>
      </trkpt>
      <trkpt lat="45.68801" lon="4.57965">
        <ele>723</ele>
        <time>2012-05-05T08:10:33Z</time>
      </trkpt>
      <trkpt lat="45.688" lon="4.57967">
        <ele>723</ele>
        <time>2012-05-05T08:10:34Z</time>
      </trkpt>
      <trkpt lat="45.68798" lon="4.57969">
        <ele>724</ele>
        <time>2012-05-05T08:10:35Z</time>
      </trkpt>
      <trkpt lat="45.68796" lon="4.5797">
        <ele>724</ele>
        <time>2012-05-05T08:10:36Z</time>
      </trkpt>
      <trkpt lat="45.68794" lon="4.57971">
        <ele>724</ele>
        <time>2012-05-05T08:10:37Z</time>
      </trkpt>
      <trkpt lat="45.68792" lon="4.57973">
        <ele>724</ele>
        <time>2012-05-05T08:10:38Z</time>
      </trkpt>
      <trkpt lat="45.68784" lon="4.57981">
        <ele>724</ele>
        <time>2012-05-05T08:10:43Z</time>
      </trkpt>
      <trkpt lat="45.68778" lon="4.57986">
        <ele>724</ele>
        <time>2012-05-05T08:10:49Z</time>
      </trkpt>
      <trkpt lat="45.68772" lon="4.57998">
        <ele>724</ele>
        <time>2012-05-05T08:10:54Z</time>
      </trkpt>
      <trkpt lat="45.68771" lon="4.58002">
        <ele>725</ele>
        <time>2012-05-05T08:10:55Z</time>
      </trkpt>
      <trkpt lat="45.6877" lon="4.58005">
        <ele>725</ele>
        <time>2012-05-05T08:10:56Z</time>
      </trkpt>
      <trkpt lat="45.6877" lon="4.58009">
        <ele>724</ele>
        <time>2012-05-05T08:10:57Z</time>
      </trkpt>
      <trkpt lat="45.68769" lon="4.58012">
        <ele>725</ele>
        <time>2012-05-05T08:10:58Z</time>
      </trkpt>
      <trkpt lat="45.68768" lon="4.58015">
        <ele>724</ele>
        <time>2012-05-05T08:10:59Z</time>
      </trkpt>
      <trkpt lat="45.68761" lon="4.5804">
        <ele>724</ele>
        <time>2012-05-05T08:11:05Z</time>
      </trkpt>
      <trkpt lat="45.68759" lon="4.58043">
        <ele>724</ele>
        <time>2012-05-05T08:11:06Z</time>
      </trkpt>
      <trkpt lat="45.68758" lon="4.58047">
        <ele>724</ele>
        <time>2012-05-05T08:11:07Z</time>
      </trkpt>
      <trkpt lat="45.68753" lon="4.58056">
        <ele>724</ele>
        <time>2012-05-05T08:11:09Z</time>
      </trkpt>
      <trkpt lat="45.6875" lon="4.58062">
        <ele>723</ele>
        <time>2012-05-05T08:11:10Z</time>
      </trkpt>
      <trkpt lat="45.68738" lon="4.58088">
        <ele>723</ele>
        <time>2012-05-05T08:11:16Z</time>
      </trkpt>
      <trkpt lat="45.68741" lon="4.58111">
        <ele>724</ele>
        <time>2012-05-05T08:11:22Z</time>
      </trkpt>
      <trkpt lat="45.68745" lon="4.58132">
        <ele>725</ele>
        <time>2012-05-05T08:11:28Z</time>
      </trkpt>
      <trkpt lat="45.68745" lon="4.58156">
        <ele>726</ele>
        <time>2012-05-05T08:11:35Z</time>
      </trkpt>
      <trkpt lat="45.68743" lon="4.58169">
        <ele>726</ele>
        <time>2012-05-05T08:11:39Z</time>
      </trkpt>
      <trkpt lat="45.68742" lon="4.58171">
        <ele>727</ele>
        <time>2012-05-05T08:11:40Z</time>
      </trkpt>
      <trkpt lat="45.68741" lon="4.58173">
        <ele>727</ele>
        <time>2012-05-05T08:11:41Z</time>
      </trkpt>
      <trkpt lat="45.68738" lon="4.58185">
        <ele>727</ele>
        <time>2012-05-05T08:11:46Z</time>
      </trkpt>
      <trkpt lat="45.68733" lon="4.58199">
        <ele>728</ele>
        <time>2012-05-05T08:11:51Z</time>
      </trkpt>
      <trkpt lat="45.68733" lon="4.58202">
        <ele>728</ele>
        <time>2012-05-05T08:11:52Z</time>
      </trkpt>
      <trkpt lat="45.68732" lon="4.58205">
        <ele>729</ele>
        <time>2012-05-05T08:11:53Z</time>
      </trkpt>
      <trkpt lat="45.68731" lon="4.58207">
        <ele>728</ele>
        <time>2012-05-05T08:11:54Z</time>
      </trkpt>
      <trkpt lat="45.6873" lon="4.5821">
        <ele>729</ele>
        <time>2012-05-05T08:11:55Z</time>
      </trkpt>
      <trkpt lat="45.68729" lon="4.58211">
        <ele>729</ele>
        <time>2012-05-05T08:11:56Z</time>
      </trkpt>
      <trkpt lat="45.68728" lon="4.58214">
        <ele>729</ele>
        <time>2012-05-05T08:11:57Z</time>
      </trkpt>
      <trkpt lat="45.68727" lon="4.58217">
        <ele>729</ele>
        <time>2012-05-05T08:11:58Z</time>
      </trkpt>
      <trkpt lat="45.68726" lon="4.5822">
        <ele>729</ele>
        <time>2012-05-05T08:11:59Z</time>
      </trkpt>
      <trkpt lat="45.68724" lon="4.58223">
        <ele>730</ele>
        <time>2012-05-05T08:12:00Z</time>
      </trkpt>
      <trkpt lat="45.68723" lon="4.58225">
        <ele>730</ele>
        <time>2012-05-05T08:12:01Z</time>
      </trkpt>
      <trkpt lat="45.68721" lon="4.58227">
        <ele>730</ele>
        <time>2012-05-05T08:12:02Z</time>
      </trkpt>
      <trkpt lat="45.68719" lon="4.5823">
        <ele>730</ele>
        <time>2012-05-05T08:12:03Z</time>
      </trkpt>
      <trkpt lat="45.68718" lon="4.58233">
        <ele>730</ele>
        <time>2012-05-05T08:12:04Z</time>
      </trkpt>
      <trkpt lat="45.68717" lon="4.58236">
        <ele>731</ele>
        <time>2012-05-05T08:12:05Z</time>
      </trkpt>
      <trkpt lat="45.68715" lon="4.58238">
        <ele>731</ele>
        <time>2012-05-05T08:12:06Z</time>
      </trkpt>
      <trkpt lat="45.68715" lon="4.58241">
        <ele>731</ele>
        <time>2012-05-05T08:12:07Z</time>
      </trkpt>
      <trkpt lat="45.68713" lon="4.58244">
        <ele>732</ele>
        <time>2012-05-05T08:12:08Z</time>
      </trkpt>
      <trkpt lat="45.68712" lon="4.58246">
        <ele>732</ele>
        <time>2012-05-05T08:12:09Z</time>
      </trkpt>
      <trkpt lat="45.68711" lon="4.58249">
        <ele>732</ele>
        <time>2012-05-05T08:12:10Z</time>
      </trkpt>
      <trkpt lat="45.68709" lon="4.58251">
        <ele>733</ele>
        <time>2012-05-05T08:12:11Z</time>
      </trkpt>
      <trkpt lat="45.68702" lon="4.58264">
        <ele>734</ele>
        <time>2012-05-05T08:12:17Z</time>
      </trkpt>
      <trkpt lat="45.68697" lon="4.58274">
        <ele>734</ele>
        <time>2012-05-05T08:12:22Z</time>
      </trkpt>
      <trkpt lat="45.68694" lon="4.58276">
        <ele>734</ele>
        <time>2012-05-05T08:12:23Z</time>
      </trkpt>
      <trkpt lat="45.68692" lon="4.58278">
        <ele>734</ele>
        <time>2012-05-05T08:12:24Z</time>
      </trkpt>
      <trkpt lat="45.68691" lon="4.58281">
        <ele>734</ele>
        <time>2012-05-05T08:12:25Z</time>
      </trkpt>
      <trkpt lat="45.68688" lon="4.58284">
        <ele>734</ele>
        <time>2012-05-05T08:12:26Z</time>
      </trkpt>
      <trkpt lat="45.68686" lon="4.58287">
        <ele>734</ele>
        <time>2012-05-05T08:12:27Z</time>
      </trkpt>
      <trkpt lat="45.68685" lon="4.58289">
        <ele>734</ele>
        <time>2012-05-05T08:12:28Z</time>
      </trkpt>
      <trkpt lat="45.68684" lon="4.58292">
        <ele>734</ele>
        <time>2012-05-05T08:12:29Z</time>
      </trkpt>
      <trkpt lat="45.68682" lon="4.58295">
        <ele>734</ele>
        <time>2012-05-05T08:12:30Z</time>
      </trkpt>
      <trkpt lat="45.6868" lon="4.58299">
        <ele>734</ele>
        <time>2012-05-05T08:12:31Z</time>
      </trkpt>
      <trkpt lat="45.68678" lon="4.58301">
        <ele>734</ele>
        <time>2012-05-05T08:12:32Z</time>
      </trkpt>
      <trkpt lat="45.68676" lon="4.58305">
        <ele>734</ele>
        <time>2012-05-05T08:12:33Z</time>
      </trkpt>
      <trkpt lat="45.68675" lon="4.58308">
        <ele>734</ele>
        <time>2012-05-05T08:12:34Z</time>
      </trkpt>
      <trkpt lat="45.68673" lon="4.58311">
        <ele>734</ele>
        <time>2012-05-05T08:12:35Z</time>
      </trkpt>
      <trkpt lat="45.68672" lon="4.58315">
        <ele>735</ele>
        <time>2012-05-05T08:12:36Z</time>
      </trkpt>
      <trkpt lat="45.68671" lon="4.58318">
        <ele>735</ele>
        <time>2012-05-05T08:12:37Z</time>
      </trkpt>
      <trkpt lat="45.68666" lon="4.58332">
        <ele>735</ele>
        <time>2012-05-05T08:12:42Z</time>
      </trkpt>
      <trkpt lat="45.68665" lon="4.58335">
        <ele>734</ele>
        <time>2012-05-05T08:12:44Z</time>
      </trkpt>
      <trkpt lat="45.68663" lon="4.58338">
        <ele>734</ele>
        <time>2012-05-05T08:12:45Z</time>
      </trkpt>
      <trkpt lat="45.68662" lon="4.5834">
        <ele>734</ele>
        <time>2012-05-05T08:12:46Z</time>
      </trkpt>
      <trkpt lat="45.6866" lon="4.58344">
        <ele>734</ele>
        <time>2012-05-05T08:12:47Z</time>
      </trkpt>
      <trkpt lat="45.68658" lon="4.58347">
        <ele>734</ele>
        <time>2012-05-05T08:12:48Z</time>
      </trkpt>
      <trkpt lat="45.68655" lon="4.5835">
        <ele>733</ele>
        <time>2012-05-05T08:12:49Z</time>
      </trkpt>
      <trkpt lat="45.68653" lon="4.58352">
        <ele>733</ele>
        <time>2012-05-05T08:12:50Z</time>
      </trkpt>
      <trkpt lat="45.6865" lon="4.58353">
        <ele>732</ele>
        <time>2012-05-05T08:12:51Z</time>
      </trkpt>
      <trkpt lat="45.68646" lon="4.58356">
        <ele>732</ele>
        <time>2012-05-05T08:12:52Z</time>
      </trkpt>
      <trkpt lat="45.68642" lon="4.58359">
        <ele>732</ele>
        <time>2012-05-05T08:12:53Z</time>
      </trkpt>
      <trkpt lat="45.68638" lon="4.58361">
        <ele>732</ele>
        <time>2012-05-05T08:12:54Z</time>
      </trkpt>
      <trkpt lat="45.68633" lon="4.58364">
        <ele>732</ele>
        <time>2012-05-05T08:12:55Z</time>
      </trkpt>
      <trkpt lat="45.686" lon="4.58378">
        <ele>730</ele>
        <time>2012-05-05T08:13:02Z</time>
      </trkpt>
      <trkpt lat="45.68595" lon="4.58381">
        <ele>729</ele>
        <time>2012-05-05T08:13:03Z</time>
      </trkpt>
      <trkpt lat="45.68578" lon="4.58398">
        <ele>729</ele>
        <time>2012-05-05T08:13:07Z</time>
      </trkpt>
      <trkpt lat="45.68576" lon="4.58404">
        <ele>728</ele>
        <time>2012-05-05T08:13:08Z</time>
      </trkpt>
      <trkpt lat="45.68577" lon="4.58409">
        <ele>728</ele>
        <time>2012-05-05T08:13:09Z</time>
      </trkpt>
      <trkpt lat="45.68579" lon="4.58414">
        <ele>727</ele>
        <time>2012-05-05T08:13:10Z</time>
      </trkpt>
      <trkpt lat="45.68581" lon="4.58419">
        <ele>727</ele>
        <time>2012-05-05T08:13:11Z</time>
      </trkpt>
      <trkpt lat="45.68584" lon="4.58425">
        <ele>726</ele>
        <time>2012-05-05T08:13:12Z</time>
      </trkpt>
      <trkpt lat="45.68588" lon="4.58432">
        <ele>725</ele>
        <time>2012-05-05T08:13:13Z</time>
      </trkpt>
      <trkpt lat="45.68592" lon="4.58439">
        <ele>725</ele>
        <time>2012-05-05T08:13:14Z</time>
      </trkpt>
      <trkpt lat="45.68596" lon="4.58446">
        <ele>724</ele>
        <time>2012-05-05T08:13:15Z</time>
      </trkpt>
      <trkpt lat="45.68601" lon="4.58452">
        <ele>724</ele>
        <time>2012-05-05T08:13:16Z</time>
      </trkpt>
      <trkpt lat="45.68605" lon="4.58459">
        <ele>724</ele>
        <time>2012-05-05T08:13:17Z</time>
      </trkpt>
      <trkpt lat="45.68609" lon="4.58464">
        <ele>724</ele>
        <time>2012-05-05T08:13:18Z</time>
      </trkpt>
      <trkpt lat="45.68618" lon="4.58482">
        <ele>724</ele>
        <time>2012-05-05T08:13:22Z</time>
      </trkpt>
      <trkpt lat="45.68627" lon="4.58491">
        <ele>721</ele>
        <time>2012-05-05T08:13:26Z</time>
      </trkpt>
      <trkpt lat="45.68634" lon="4.58497">
        <ele>720</ele>
        <time>2012-05-05T08:13:28Z</time>
      </trkpt>
      <trkpt lat="45.68641" lon="4.58506">
        <ele>717</ele>
        <time>2012-05-05T08:13:30Z</time>
      </trkpt>
      <trkpt lat="45.68648" lon="4.58516">
        <ele>715</ele>
        <time>2012-05-05T08:13:32Z</time>
      </trkpt>
      <trkpt lat="45.68659" lon="4.58542">
        <ele>711</ele>
        <time>2012-05-05T08:13:35Z</time>
      </trkpt>
      <trkpt lat="45.68671" lon="4.58572">
        <ele>708</ele>
        <time>2012-05-05T08:13:39Z</time>
      </trkpt>
      <trkpt lat="45.68679" lon="4.58597">
        <ele>705</ele>
        <time>2012-05-05T08:13:42Z</time>
      </trkpt>
      <trkpt lat="45.6868" lon="4.58604">
        <ele>705</ele>
        <time>2012-05-05T08:13:43Z</time>
      </trkpt>
      <trkpt lat="45.6868" lon="4.58611">
        <ele>705</ele>
        <time>2012-05-05T08:13:44Z</time>
      </trkpt>
      <trkpt lat="45.6868" lon="4.58616">
        <ele>704</ele>
        <time>2012-05-05T08:13:45Z</time>
      </trkpt>
      <trkpt lat="45.68679" lon="4.5862">
        <ele>704</ele>
        <time>2012-05-05T08:13:46Z</time>
      </trkpt>
      <trkpt lat="45.68678" lon="4.58625">
        <ele>703</ele>
        <time>2012-05-05T08:13:47Z</time>
      </trkpt>
      <trkpt lat="45.68677" lon="4.58635">
        <ele>702</ele>
        <time>2012-05-05T08:13:52Z</time>
      </trkpt>
      <trkpt lat="45.68677" lon="4.58641">
        <ele>701</ele>
        <time>2012-05-05T08:13:56Z</time>
      </trkpt>
      <trkpt lat="45.68676" lon="4.58644">
        <ele>701</ele>
        <time>2012-05-05T08:13:57Z</time>
      </trkpt>
      <trkpt lat="45.68673" lon="4.58651">
        <ele>701</ele>
        <time>2012-05-05T08:13:59Z</time>
      </trkpt>
      <trkpt lat="45.68669" lon="4.58673">
        <ele>699</ele>
        <time>2012-05-05T08:14:03Z</time>
      </trkpt>
      <trkpt lat="45.68673" lon="4.58695">
        <ele>699</ele>
        <time>2012-05-05T08:14:08Z</time>
      </trkpt>
      <trkpt lat="45.6868" lon="4.58716">
        <ele>699</ele>
        <time>2012-05-05T08:14:14Z</time>
      </trkpt>
      <trkpt lat="45.68687" lon="4.58736">
        <ele>699</ele>
        <time>2012-05-05T08:14:20Z</time>
      </trkpt>
      <trkpt lat="45.68689" lon="4.58741">
        <ele>698</ele>
        <time>2012-05-05T08:14:22Z</time>
      </trkpt>
      <trkpt lat="45.6869" lon="4.58746">
        <ele>697</ele>
        <time>2012-05-05T08:14:23Z</time>
      </trkpt>
      <trkpt lat="45.68691" lon="4.58752">
        <ele>697</ele>
        <time>2012-05-05T08:14:24Z</time>
      </trkpt>
      <trkpt lat="45.68693" lon="4.58759">
        <ele>697</ele>
        <time>2012-05-05T08:14:25Z</time>
      </trkpt>
      <trkpt lat="45.68695" lon="4.58766">
        <ele>697</ele>
        <time>2012-05-05T08:14:26Z</time>
      </trkpt>
      <trkpt lat="45.68699" lon="4.5878">
        <ele>695</ele>
        <time>2012-05-05T08:14:28Z</time>
      </trkpt>
      <trkpt lat="45.68709" lon="4.58809">
        <ele>694</ele>
        <time>2012-05-05T08:14:31Z</time>
      </trkpt>
      <trkpt lat="45.68713" lon="4.58818">
        <ele>693</ele>
        <time>2012-05-05T08:14:32Z</time>
      </trkpt>
      <trkpt lat="45.68717" lon="4.58827">
        <ele>692</ele>
        <time>2012-05-05T08:14:33Z</time>
      </trkpt>
      <trkpt lat="45.68721" lon="4.58834">
        <ele>691</ele>
        <time>2012-05-05T08:14:34Z</time>
      </trkpt>
      <trkpt lat="45.68725" lon="4.58841">
        <ele>691</ele>
        <time>2012-05-05T08:14:35Z</time>
      </trkpt>
      <trkpt lat="45.6873" lon="4.58848">
        <ele>690</ele>
        <time>2012-05-05T08:14:36Z</time>
      </trkpt>
      <trkpt lat="45.68734" lon="4.58855">
        <ele>690</ele>
        <time>2012-05-05T08:14:37Z</time>
      </trkpt>
      <trkpt lat="45.68739" lon="4.58864">
        <ele>690</ele>
        <time>2012-05-05T08:14:38Z</time>
      </trkpt>
      <trkpt lat="45.68749" lon="4.58893">
        <ele>691</ele>
        <time>2012-05-05T08:14:42Z</time>
      </trkpt>
      <trkpt lat="45.68755" lon="4.58905">
        <ele>692</ele>
        <time>2012-05-05T08:14:46Z</time>
      </trkpt>
      <trkpt lat="45.68755" lon="4.58909">
        <ele>692</ele>
        <time>2012-05-05T08:14:47Z</time>
      </trkpt>
      <trkpt lat="45.68754" lon="4.58913">
        <ele>692</ele>
        <time>2012-05-05T08:14:48Z</time>
      </trkpt>
      <trkpt lat="45.68758" lon="4.58927">
        <ele>693</ele>
        <time>2012-05-05T08:14:54Z</time>
      </trkpt>
      <trkpt lat="45.68759" lon="4.58932">
        <ele>693</ele>
        <time>2012-05-05T08:14:57Z</time>
      </trkpt>
      <trkpt lat="45.68758" lon="4.58934">
        <ele>693</ele>
        <time>2012-05-05T08:14:58Z</time>
      </trkpt>
      <trkpt lat="45.68761" lon="4.58945">
        <ele>694</ele>
        <time>2012-05-05T08:15:05Z</time>
      </trkpt>
      <trkpt lat="45.6876" lon="4.58951">
        <ele>696</ele>
        <time>2012-05-05T08:15:11Z</time>
      </trkpt>
      <trkpt lat="45.6876" lon="4.58951">
        <ele>696</ele>
        <time>2012-05-05T08:15:12Z</time>
      </trkpt>
      <trkpt lat="45.68759" lon="4.58958">
        <ele>697</ele>
        <time>2012-05-05T08:15:16Z</time>
      </trkpt>
      <trkpt lat="45.68758" lon="4.58959">
        <ele>698</ele>
        <time>2012-05-05T08:15:17Z</time>
      </trkpt>
      <trkpt lat="45.68758" lon="4.58962">
        <ele>698</ele>
        <time>2012-05-05T08:15:18Z</time>
      </trkpt>
      <trkpt lat="45.68753" lon="4.58973">
        <ele>699</ele>
        <time>2012-05-05T08:15:25Z</time>
      </trkpt>
      <trkpt lat="45.68747" lon="4.58979">
        <ele>700</ele>
        <time>2012-05-05T08:15:30Z</time>
      </trkpt>
      <trkpt lat="45.68744" lon="4.58981">
        <ele>701</ele>
        <time>2012-05-05T08:15:32Z</time>
      </trkpt>
      <trkpt lat="45.68736" lon="4.58986">
        <ele>702</ele>
        <time>2012-05-05T08:15:39Z</time>
      </trkpt>
      <trkpt lat="45.68734" lon="4.5899">
        <ele>704</ele>
        <time>2012-05-05T08:15:47Z</time>
      </trkpt>
      <trkpt lat="45.68732" lon="4.58992">
        <ele>703</ele>
        <time>2012-05-05T08:16:00Z</time>
      </trkpt>
      <trkpt lat="45.68733" lon="4.58992">
        <ele>703</ele>
        <time>2012-05-05T08:16:07Z</time>
      </trkpt>
      <trkpt lat="45.68734" lon="4.58992">
        <ele>702</ele>
        <time>2012-05-05T08:16:10Z</time>
      </trkpt>
      <trkpt lat="45.68736" lon="4.58992">
        <ele>702</ele>
        <time>2012-05-05T08:16:11Z</time>
      </trkpt>
      <trkpt lat="45.68738" lon="4.58991">
        <ele>702</ele>
        <time>2012-05-05T08:16:12Z</time>
      </trkpt>
      <trkpt lat="45.68741" lon="4.58989">
        <ele>701</ele>
        <time>2012-05-05T08:16:13Z</time>
      </trkpt>
      <trkpt lat="45.68743" lon="4.58987">
        <ele>700</ele>
        <time>2012-05-05T08:16:14Z</time>
      </trkpt>
      <trkpt lat="45.68744" lon="4.58985">
        <ele>700</ele>
        <time>2012-05-05T08:16:15Z</time>
      </trkpt>
      <trkpt lat="45.68751" lon="4.58977">
        <ele>698</ele>
        <time>2012-05-05T08:16:19Z</time>
      </trkpt>
      <trkpt lat="45.68752" lon="4.58974">
        <ele>698</ele>
        <time>2012-05-05T08:16:20Z</time>
      </trkpt>
      <trkpt lat="45.68754" lon="4.58971">
        <ele>697</ele>
        <time>2012-05-05T08:16:21Z</time>
      </trkpt>
      <trkpt lat="45.68754" lon="4.58968">
        <ele>696</ele>
        <time>2012-05-05T08:16:22Z</time>
      </trkpt>
      <trkpt lat="45.68755" lon="4.58964">
        <ele>696</ele>
        <time>2012-05-05T08:16:23Z</time>
      </trkpt>
      <trkpt lat="45.68756" lon="4.58961">
        <ele>695</ele>
        <time>2012-05-05T08:16:24Z</time>
      </trkpt>
      <trkpt lat="45.68756" lon="4.58941">
        <ele>693</ele>
        <time>2012-05-05T08:16:30Z</time>
      </trkpt>
      <trkpt lat="45.68756" lon="4.58937">
        <ele>692</ele>
        <time>2012-05-05T08:16:31Z</time>
      </trkpt>
      <trkpt lat="45.68759" lon="4.58919">
        <ele>690</ele>
        <time>2012-05-05T08:16:37Z</time>
      </trkpt>
      <trkpt lat="45.68761" lon="4.5891">
        <ele>689</ele>
        <time>2012-05-05T08:16:39Z</time>
      </trkpt>
      <trkpt lat="45.6876" lon="4.58904">
        <ele>688</ele>
        <time>2012-05-05T08:16:40Z</time>
      </trkpt>
      <trkpt lat="45.68761" lon="4.58897">
        <ele>687</ele>
        <time>2012-05-05T08:16:41Z</time>
      </trkpt>
      <trkpt lat="45.68762" lon="4.58891">
        <ele>686</ele>
        <time>2012-05-05T08:16:42Z</time>
      </trkpt>
      <trkpt lat="45.68763" lon="4.58886">
        <ele>685</ele>
        <time>2012-05-05T08:16:43Z</time>
      </trkpt>
      <trkpt lat="45.68763" lon="4.5888">
        <ele>684</ele>
        <time>2012-05-05T08:16:44Z</time>
      </trkpt>
      <trkpt lat="45.68762" lon="4.58875">
        <ele>682</ele>
        <time>2012-05-05T08:16:45Z</time>
      </trkpt>
      <trkpt lat="45.6876" lon="4.58871">
        <ele>682</ele>
        <time>2012-05-05T08:16:46Z</time>
      </trkpt>
      <trkpt lat="45.68756" lon="4.58862">
        <ele>679</ele>
        <time>2012-05-05T08:16:48Z</time>
      </trkpt>
      <trkpt lat="45.68756" lon="4.58858">
        <ele>679</ele>
        <time>2012-05-05T08:16:49Z</time>
      </trkpt>
      <trkpt lat="45.68758" lon="4.58855">
        <ele>678</ele>
        <time>2012-05-05T08:16:50Z</time>
      </trkpt>
      <trkpt lat="45.6876" lon="4.58852">
        <ele>677</ele>
        <time>2012-05-05T08:16:51Z</time>
      </trkpt>
      <trkpt lat="45.68762" lon="4.58852">
        <ele>677</ele>
        <time>2012-05-05T08:16:52Z</time>
      </trkpt>
      <trkpt lat="45.68764" lon="4.58853">
        <ele>676</ele>
        <time>2012-05-05T08:16:53Z</time>
      </trkpt>
      <trkpt lat="45.68766" lon="4.58856">
        <ele>675</ele>
        <time>2012-05-05T08:16:54Z</time>
      </trkpt>
      <trkpt lat="45.68773" lon="4.58865">
        <ele>672</ele>
        <time>2012-05-05T08:16:58Z</time>
      </trkpt>
      <trkpt lat="45.68775" lon="4.58865">
        <ele>671</ele>
        <time>2012-05-05T08:17:00Z</time>
      </trkpt>
      <trkpt lat="45.68773" lon="4.5886">
        <ele>671</ele>
        <time>2012-05-05T08:17:07Z</time>
      </trkpt>
      <trkpt lat="45.68776" lon="4.58862">
        <ele>669</ele>
        <time>2012-05-05T08:17:12Z</time>
      </trkpt>
      <trkpt lat="45.68777" lon="4.58864">
        <ele>669</ele>
        <time>2012-05-05T08:17:13Z</time>
      </trkpt>
      <trkpt lat="45.68778" lon="4.58866">
        <ele>669</ele>
        <time>2012-05-05T08:17:14Z</time>
      </trkpt>
      <trkpt lat="45.68779" lon="4.58867">
        <ele>669</ele>
        <time>2012-05-05T08:17:15Z</time>
      </trkpt>
      <trkpt lat="45.6878" lon="4.58869">
        <ele>668</ele>
        <time>2012-05-05T08:17:16Z</time>
      </trkpt>
      <trkpt lat="45.6878" lon="4.5887">
        <ele>668</ele>
        <time>2012-05-05T08:17:17Z</time>
      </trkpt>
      <trkpt lat="45.68785" lon="4.58871">
        <ele>668</ele>
        <time>2012-05-05T08:17:23Z</time>
      </trkpt>
      <trkpt lat="45.68797" lon="4.58871">
        <ele>668</ele>
        <time>2012-05-05T08:17:35Z</time>
      </trkpt>
      <trkpt lat="45.68797" lon="4.58873">
        <ele>668</ele>
        <time>2012-05-05T08:17:36Z</time>
      </trkpt>
      <trkpt lat="45.68796" lon="4.58878">
        <ele>667</ele>
        <time>2012-05-05T08:17:38Z</time>
      </trkpt>
      <trkpt lat="45.68797" lon="4.58881">
        <ele>667</ele>
        <time>2012-05-05T08:17:39Z</time>
      </trkpt>
      <trkpt lat="45.68799" lon="4.58885">
        <ele>667</ele>
        <time>2012-05-05T08:17:40Z</time>
      </trkpt>
      <trkpt lat="45.68804" lon="4.58892">
        <ele>665</ele>
        <time>2012-05-05T08:17:42Z</time>
      </trkpt>
      <trkpt lat="45.68808" lon="4.58896">
        <ele>665</ele>
        <time>2012-05-05T08:17:43Z</time>
      </trkpt>
      <trkpt lat="45.68812" lon="4.58901">
        <ele>664</ele>
        <time>2012-05-05T08:17:44Z</time>
      </trkpt>
      <trkpt lat="45.68814" lon="4.58907">
        <ele>664</ele>
        <time>2012-05-05T08:17:45Z</time>
      </trkpt>
      <trkpt lat="45.68815" lon="4.58912">
        <ele>663</ele>
        <time>2012-05-05T08:17:46Z</time>
      </trkpt>
      <trkpt lat="45.68816" lon="4.58918">
        <ele>663</ele>
        <time>2012-05-05T08:17:47Z</time>
      </trkpt>
      <trkpt lat="45.68817" lon="4.58922">
        <ele>663</ele>
        <time>2012-05-05T08:17:48Z</time>
      </trkpt>
      <trkpt lat="45.68819" lon="4.58933">
        <ele>662</ele>
        <time>2012-05-05T08:17:50Z</time>
      </trkpt>
      <trkpt lat="45.6882" lon="4.58939">
        <ele>661</ele>
        <time>2012-05-05T08:17:51Z</time>
      </trkpt>
      <trkpt lat="45.68821" lon="4.58946">
        <ele>661</ele>
        <time>2012-05-05T08:17:52Z</time>
      </trkpt>
      <trkpt lat="45.68824" lon="4.58971">
        <ele>657</ele>
        <time>2012-05-05T08:17:55Z</time>
      </trkpt>
      <trkpt lat="45.68824" lon="4.58998">
        <ele>653</ele>
        <time>2012-05-05T08:17:58Z</time>
      </trkpt>
      <trkpt lat="45.68823" lon="4.59028">
        <ele>649</ele>
        <time>2012-05-05T08:18:01Z</time>
      </trkpt>
      <trkpt lat="45.68824" lon="4.59058">
        <ele>645</ele>
        <time>2012-05-05T08:18:04Z</time>
      </trkpt>
      <trkpt lat="45.68823" lon="4.59067">
        <ele>645</ele>
        <time>2012-05-05T08:18:05Z</time>
      </trkpt>
      <trkpt lat="45.68823" lon="4.59087">
        <ele>642</ele>
        <time>2012-05-05T08:18:07Z</time>
      </trkpt>
      <trkpt lat="45.68823" lon="4.59098">
        <ele>641</ele>
        <time>2012-05-05T08:18:08Z</time>
      </trkpt>
      <trkpt lat="45.68824" lon="4.59106">
        <ele>639</ele>
        <time>2012-05-05T08:18:09Z</time>
      </trkpt>
      <trkpt lat="45.68826" lon="4.59111">
        <ele>638</ele>
        <time>2012-05-05T08:18:10Z</time>
      </trkpt>
      <trkpt lat="45.68828" lon="4.59115">
        <ele>637</ele>
        <time>2012-05-05T08:18:11Z</time>
      </trkpt>
      <trkpt lat="45.68829" lon="4.59118">
        <ele>637</ele>
        <time>2012-05-05T08:18:12Z</time>
      </trkpt>
      <trkpt lat="45.68829" lon="4.5912">
        <ele>637</ele>
        <time>2012-05-05T08:18:13Z</time>
      </trkpt>
      <trkpt lat="45.68827" lon="4.59123">
        <ele>637</ele>
        <time>2012-05-05T08:18:14Z</time>
      </trkpt>
      <trkpt lat="45.68826" lon="4.59125">
        <ele>637</ele>
        <time>2012-05-05T08:18:15Z</time>
      </trkpt>
      <trkpt lat="45.68824" lon="4.59128">
        <ele>637</ele>
        <time>2012-05-05T08:18:16Z</time>
      </trkpt>
      <trkpt lat="45.68815" lon="4.59141">
        <ele>636</ele>
        <time>2012-05-05T08:18:20Z</time>
      </trkpt>
      <trkpt lat="45.68807" lon="4.59148">
        <ele>634</ele>
        <time>2012-05-05T08:18:22Z</time>
      </trkpt>
      <trkpt lat="45.68804" lon="4.59151">
        <ele>634</ele>
        <time>2012-05-05T08:18:23Z</time>
      </trkpt>
      <trkpt lat="45.68801" lon="4.59154">
        <ele>633</ele>
        <time>2012-05-05T08:18:24Z</time>
      </trkpt>
      <trkpt lat="45.68798" lon="4.59157">
        <ele>632</ele>
        <time>2012-05-05T08:18:25Z</time>
      </trkpt>
      <trkpt lat="45.68795" lon="4.5916">
        <ele>631</ele>
        <time>2012-05-05T08:18:26Z</time>
      </trkpt>
      <trkpt lat="45.68786" lon="4.5917">
        <ele>627</ele>
        <time>2012-05-05T08:18:29Z</time>
      </trkpt>
      <trkpt lat="45.68776" lon="4.59176">
        <ele>624</ele>
        <time>2012-05-05T08:18:32Z</time>
      </trkpt>
      <trkpt lat="45.68773" lon="4.59181">
        <ele>623</ele>
        <time>2012-05-05T08:18:33Z</time>
      </trkpt>
      <trkpt lat="45.68773" lon="4.59188">
        <ele>621</ele>
        <time>2012-05-05T08:18:34Z</time>
      </trkpt>
      <trkpt lat="45.68772" lon="4.59201">
        <ele>620</ele>
        <time>2012-05-05T08:18:36Z</time>
      </trkpt>
      <trkpt lat="45.68779" lon="4.5922">
        <ele>618</ele>
        <time>2012-05-05T08:18:40Z</time>
      </trkpt>
      <trkpt lat="45.68794" lon="4.59245">
        <ele>614</ele>
        <time>2012-05-05T08:18:45Z</time>
      </trkpt>
      <trkpt lat="45.68811" lon="4.59258">
        <ele>612</ele>
        <time>2012-05-05T08:18:48Z</time>
      </trkpt>
      <trkpt lat="45.68817" lon="4.59259">
        <ele>611</ele>
        <time>2012-05-05T08:18:49Z</time>
      </trkpt>
      <trkpt lat="45.68823" lon="4.59261">
        <ele>610</ele>
        <time>2012-05-05T08:18:50Z</time>
      </trkpt>
      <trkpt lat="45.68842" lon="4.59267">
        <ele>606</ele>
        <time>2012-05-05T08:18:54Z</time>
      </trkpt>
      <trkpt lat="45.68846" lon="4.59268">
        <ele>606</ele>
        <time>2012-05-05T08:18:55Z</time>
      </trkpt>
      <trkpt lat="45.68852" lon="4.59271">
        <ele>605</ele>
        <time>2012-05-05T08:18:57Z</time>
      </trkpt>
      <trkpt lat="45.68855" lon="4.59272">
        <ele>604</ele>
        <time>2012-05-05T08:18:58Z</time>
      </trkpt>
      <trkpt lat="45.68877" lon="4.59279">
        <ele>603</ele>
        <time>2012-05-05T08:19:05Z</time>
      </trkpt>
      <trkpt lat="45.68895" lon="4.59295">
        <ele>604</ele>
        <time>2012-05-05T08:19:10Z</time>
      </trkpt>
      <trkpt lat="45.68906" lon="4.59304">
        <ele>604</ele>
        <time>2012-05-05T08:19:14Z</time>
      </trkpt>
      <trkpt lat="45.68908" lon="4.59307">
        <ele>604</ele>
        <time>2012-05-05T08:19:15Z</time>
      </trkpt>
      <trkpt lat="45.68909" lon="4.5931">
        <ele>604</ele>
        <time>2012-05-05T08:19:16Z</time>
      </trkpt>
      <trkpt lat="45.6892" lon="4.59322">
        <ele>604</ele>
        <time>2012-05-05T08:19:20Z</time>
      </trkpt>
      <trkpt lat="45.68922" lon="4.59325">
        <ele>605</ele>
        <time>2012-05-05T08:19:21Z</time>
      </trkpt>
      <trkpt lat="45.68925" lon="4.59328">
        <ele>605</ele>
        <time>2012-05-05T08:19:22Z</time>
      </trkpt>
      <trkpt lat="45.68927" lon="4.59329">
        <ele>605</ele>
        <time>2012-05-05T08:19:23Z</time>
      </trkpt>
      <trkpt lat="45.68929" lon="4.59331">
        <ele>605</ele>
        <time>2012-05-05T08:19:24Z</time>
      </trkpt>
      <trkpt lat="45.6893" lon="4.59334">
        <ele>605</ele>
        <time>2012-05-05T08:19:25Z</time>
      </trkpt>
      <trkpt lat="45.68935" lon="4.59342">
        <ele>606</ele>
        <time>2012-05-05T08:19:30Z</time>
      </trkpt>
      <trkpt lat="45.68937" lon="4.59363">
        <ele>606</ele>
        <time>2012-05-05T08:19:36Z</time>
      </trkpt>
      <trkpt lat="45.68941" lon="4.59383">
        <ele>606</ele>
        <time>2012-05-05T08:19:42Z</time>
      </trkpt>
      <trkpt lat="45.68942" lon="4.59386">
        <ele>606</ele>
        <time>2012-05-05T08:19:43Z</time>
      </trkpt>
      <trkpt lat="45.68942" lon="4.59389">
        <ele>606</ele>
        <time>2012-05-05T08:19:44Z</time>
      </trkpt>
      <trkpt lat="45.68942" lon="4.59418">
        <ele>604</ele>
        <time>2012-05-05T08:19:51Z</time>
      </trkpt>
      <trkpt lat="45.68942" lon="4.59424">
        <ele>604</ele>
        <time>2012-05-05T08:19:52Z</time>
      </trkpt>
      <trkpt lat="45.68942" lon="4.59431">
        <ele>603</ele>
        <time>2012-05-05T08:19:53Z</time>
      </trkpt>
      <trkpt lat="45.68942" lon="4.59438">
        <ele>602</ele>
        <time>2012-05-05T08:19:54Z</time>
      </trkpt>
      <trkpt lat="45.68941" lon="4.59471">
        <ele>599</ele>
        <time>2012-05-05T08:19:58Z</time>
      </trkpt>
      <trkpt lat="45.68938" lon="4.59508">
        <ele>594</ele>
        <time>2012-05-05T08:20:02Z</time>
      </trkpt>
      <trkpt lat="45.68936" lon="4.59518">
        <ele>593</ele>
        <time>2012-05-05T08:20:03Z</time>
      </trkpt>
      <trkpt lat="45.68933" lon="4.59528">
        <ele>593</ele>
        <time>2012-05-05T08:20:04Z</time>
      </trkpt>
      <trkpt lat="45.6893" lon="4.59538">
        <ele>592</ele>
        <time>2012-05-05T08:20:05Z</time>
      </trkpt>
      <trkpt lat="45.68926" lon="4.59547">
        <ele>591</ele>
        <time>2012-05-05T08:20:06Z</time>
      </trkpt>
      <trkpt lat="45.68922" lon="4.59556">
        <ele>590</ele>
        <time>2012-05-05T08:20:07Z</time>
      </trkpt>
      <trkpt lat="45.6892" lon="4.59564">
        <ele>590</ele>
        <time>2012-05-05T08:20:08Z</time>
      </trkpt>
      <trkpt lat="45.68918" lon="4.59572">
        <ele>590</ele>
        <time>2012-05-05T08:20:09Z</time>
      </trkpt>
      <trkpt lat="45.6891" lon="4.59611">
        <ele>589</ele>
        <time>2012-05-05T08:20:14Z</time>
      </trkpt>
      <trkpt lat="45.68906" lon="4.59626">
        <ele>588</ele>
        <time>2012-05-05T08:20:16Z</time>
      </trkpt>
      <trkpt lat="45.68904" lon="4.59633">
        <ele>589</ele>
        <time>2012-05-05T08:20:17Z</time>
      </trkpt>
      <trkpt lat="45.68902" lon="4.5964">
        <ele>589</ele>
        <time>2012-05-05T08:20:18Z</time>
      </trkpt>
      <trkpt lat="45.68901" lon="4.59648">
        <ele>588</ele>
        <time>2012-05-05T08:20:19Z</time>
      </trkpt>
      <trkpt lat="45.68901" lon="4.59657">
        <ele>588</ele>
        <time>2012-05-05T08:20:20Z</time>
      </trkpt>
      <trkpt lat="45.68901" lon="4.59666">
        <ele>587</ele>
        <time>2012-05-05T08:20:21Z</time>
      </trkpt>
      <trkpt lat="45.689" lon="4.59676">
        <ele>587</ele>
        <time>2012-05-05T08:20:22Z</time>
      </trkpt>
      <trkpt lat="45.68898" lon="4.59706">
        <ele>586</ele>
        <time>2012-05-05T08:20:25Z</time>
      </trkpt>
      <trkpt lat="45.68898" lon="4.59728">
        <ele>584</ele>
        <time>2012-05-05T08:20:27Z</time>
      </trkpt>
      <trkpt lat="45.68897" lon="4.59739">
        <ele>584</ele>
        <time>2012-05-05T08:20:28Z</time>
      </trkpt>
      <trkpt lat="45.68895" lon="4.59776">
        <ele>581</ele>
        <time>2012-05-05T08:20:31Z</time>
      </trkpt>
      <trkpt lat="45.68895" lon="4.59788">
        <ele>580</ele>
        <time>2012-05-05T08:20:32Z</time>
      </trkpt>
      <trkpt lat="45.68892" lon="4.59798">
        <ele>579</ele>
        <time>2012-05-05T08:20:33Z</time>
      </trkpt>
      <trkpt lat="45.68885" lon="4.59815">
        <ele>578</ele>
        <time>2012-05-05T08:20:35Z</time>
      </trkpt>
      <trkpt lat="45.68881" lon="4.59822">
        <ele>577</ele>
        <time>2012-05-05T08:20:36Z</time>
      </trkpt>
      <trkpt lat="45.68875" lon="4.59828">
        <ele>577</ele>
        <time>2012-05-05T08:20:37Z</time>
      </trkpt>
      <trkpt lat="45.68855" lon="4.59845">
        <ele>575</ele>
        <time>2012-05-05T08:20:40Z</time>
      </trkpt>
      <trkpt lat="45.68848" lon="4.59848">
        <ele>574</ele>
        <time>2012-05-05T08:20:41Z</time>
      </trkpt>
      <trkpt lat="45.68843" lon="4.59848">
        <ele>574</ele>
        <time>2012-05-05T08:20:42Z</time>
      </trkpt>
      <trkpt lat="45.68837" lon="4.59847">
        <ele>573</ele>
        <time>2012-05-05T08:20:43Z</time>
      </trkpt>
      <trkpt lat="45.68832" lon="4.59845">
        <ele>573</ele>
        <time>2012-05-05T08:20:44Z</time>
      </trkpt>
      <trkpt lat="45.68826" lon="4.59845">
        <ele>572</ele>
        <time>2012-05-05T08:20:45Z</time>
      </trkpt>
      <trkpt lat="45.68821" lon="4.59845">
        <ele>571</ele>
        <time>2012-05-05T08:20:46Z</time>
      </trkpt>
      <trkpt lat="45.68816" lon="4.59844">
        <ele>570</ele>
        <time>2012-05-05T08:20:47Z</time>
      </trkpt>
      <trkpt lat="45.68811" lon="4.59841">
        <ele>569</ele>
        <time>2012-05-05T08:20:48Z</time>
      </trkpt>
      <trkpt lat="45.68807" lon="4.5984">
        <ele>568</ele>
        <time>2012-05-05T08:20:49Z</time>
      </trkpt>
      <trkpt lat="45.68806" lon="4.59842">
        <ele>567</ele>
        <time>2012-05-05T08:20:50Z</time>
      </trkpt>
      <trkpt lat="45.68807" lon="4.59845">
        <ele>567</ele>
        <time>2012-05-05T08:20:51Z</time>
      </trkpt>
      <trkpt lat="45.68807" lon="4.59847">
        <ele>566</ele>
        <time>2012-05-05T08:20:52Z</time>
      </trkpt>
      <trkpt lat="45.68807" lon="4.5985">
        <ele>566</ele>
        <time>2012-05-05T08:20:57Z</time>
      </trkpt>
      <trkpt lat="45.68807" lon="4.59851">
        <ele>566</ele>
        <time>2012-05-05T08:21:07Z</time>
      </trkpt>
      <trkpt lat="45.68807" lon="4.59852">
        <ele>566</ele>
        <time>2012-05-05T08:21:17Z</time>
      </trkpt>
      <trkpt lat="45.68807" lon="4.59852">
        <ele>566</ele>
        <time>2012-05-05T08:21:25Z</time>
      </trkpt>
      <trkpt lat="45.68807" lon="4.59851">
        <ele>566</ele>
        <time>2012-05-05T08:21:39Z</time>
      </trkpt>
      <trkpt lat="45.68807" lon="4.59848">
        <ele>566</ele>
        <time>2012-05-05T08:21:42Z</time>
      </trkpt>
      <trkpt lat="45.68801" lon="4.59832">
        <ele>566</ele>
        <time>2012-05-05T08:21:47Z</time>
      </trkpt>
      <trkpt lat="45.68796" lon="4.59823">
        <ele>566</ele>
        <time>2012-05-05T08:21:49Z</time>
      </trkpt>
      <trkpt lat="45.68793" lon="4.5982">
        <ele>566</ele>
        <time>2012-05-05T08:21:50Z</time>
      </trkpt>
      <trkpt lat="45.6879" lon="4.59816">
        <ele>565</ele>
        <time>2012-05-05T08:21:51Z</time>
      </trkpt>
      <trkpt lat="45.68787" lon="4.59812">
        <ele>566</ele>
        <time>2012-05-05T08:21:52Z</time>
      </trkpt>
      <trkpt lat="45.68784" lon="4.59808">
        <ele>565</ele>
        <time>2012-05-05T08:21:53Z</time>
      </trkpt>
      <trkpt lat="45.68781" lon="4.59803">
        <ele>565</ele>
        <time>2012-05-05T08:21:54Z</time>
      </trkpt>
      <trkpt lat="45.6878" lon="4.59799">
        <ele>566</ele>
        <time>2012-05-05T08:21:55Z</time>
      </trkpt>
      <trkpt lat="45.68777" lon="4.59794">
        <ele>566</ele>
        <time>2012-05-05T08:21:56Z</time>
      </trkpt>
      <trkpt lat="45.68759" lon="4.59779">
        <ele>565</ele>
        <time>2012-05-05T08:22:02Z</time>
      </trkpt>
      <trkpt lat="45.6875" lon="4.5978">
        <ele>566</ele>
        <time>2012-05-05T08:22:04Z</time>
      </trkpt>
      <trkpt lat="45.68732" lon="4.59787">
        <ele>566</ele>
        <time>2012-05-05T08:22:09Z</time>
      </trkpt>
      <trkpt lat="45.68727" lon="4.59792">
        <ele>567</ele>
        <time>2012-05-05T08:22:11Z</time>
      </trkpt>
      <trkpt lat="45.68725" lon="4.59795">
        <ele>566</ele>
        <time>2012-05-05T08:22:12Z</time>
      </trkpt>
      <trkpt lat="45.68723" lon="4.59799">
        <ele>566</ele>
        <time>2012-05-05T08:22:13Z</time>
      </trkpt>
      <trkpt lat="45.6872" lon="4.59804">
        <ele>565</ele>
        <time>2012-05-05T08:22:14Z</time>
      </trkpt>
      <trkpt lat="45.68718" lon="4.59811">
        <ele>564</ele>
        <time>2012-05-05T08:22:15Z</time>
      </trkpt>
      <trkpt lat="45.68715" lon="4.59818">
        <ele>563</ele>
        <time>2012-05-05T08:22:16Z</time>
      </trkpt>
      <trkpt lat="45.68707" lon="4.59849">
        <ele>560</ele>
        <time>2012-05-05T08:22:19Z</time>
      </trkpt>
      <trkpt lat="45.68704" lon="4.59861">
        <ele>560</ele>
        <time>2012-05-05T08:22:20Z</time>
      </trkpt>
      <trkpt lat="45.68692" lon="4.59898">
        <ele>555</ele>
        <time>2012-05-05T08:22:23Z</time>
      </trkpt>
      <trkpt lat="45.68684" lon="4.59926">
        <ele>553</ele>
        <time>2012-05-05T08:22:25Z</time>
      </trkpt>
      <trkpt lat="45.6868" lon="4.59938">
        <ele>553</ele>
        <time>2012-05-05T08:22:26Z</time>
      </trkpt>
      <trkpt lat="45.68657" lon="4.6">
        <ele>550</ele>
        <time>2012-05-05T08:22:31Z</time>
      </trkpt>
      <trkpt lat="45.68653" lon="4.60011">
        <ele>550</ele>
        <time>2012-05-05T08:22:32Z</time>
      </trkpt>
      <trkpt lat="45.68632" lon="4.60066">
        <ele>546</ele>
        <time>2012-05-05T08:22:37Z</time>
      </trkpt>
      <trkpt lat="45.68614" lon="4.60126">
        <ele>544</ele>
        <time>2012-05-05T08:22:42Z</time>
      </trkpt>
      <trkpt lat="45.68602" lon="4.60155">
        <ele>544</ele>
        <time>2012-05-05T08:22:45Z</time>
      </trkpt>
      <trkpt lat="45.68575" lon="4.60206">
        <ele>542</ele>
        <time>2012-05-05T08:22:51Z</time>
      </trkpt>
      <trkpt lat="45.68571" lon="4.60212">
        <ele>543</ele>
        <time>2012-05-05T08:22:52Z</time>
      </trkpt>
      <trkpt lat="45.68567" lon="4.60218">
        <ele>543</ele>
        <time>2012-05-05T08:22:53Z</time>
      </trkpt>
      <trkpt lat="45.6856" lon="4.6023">
        <ele>543</ele>
        <time>2012-05-05T08:22:55Z</time>
      </trkpt>
      <trkpt lat="45.68557" lon="4.60237">
        <ele>543</ele>
        <time>2012-05-05T08:22:56Z</time>
      </trkpt>
      <trkpt lat="45.68555" lon="4.60243">
        <ele>543</ele>
        <time>2012-05-05T08:22:57Z</time>
      </trkpt>
      <trkpt lat="45.68552" lon="4.6025">
        <ele>542</ele>
        <time>2012-05-05T08:22:58Z</time>
      </trkpt>
      <trkpt lat="45.68549" lon="4.60257">
        <ele>541</ele>
        <time>2012-05-05T08:22:59Z</time>
      </trkpt>
      <trkpt lat="45.68546" lon="4.60264">
        <ele>542</ele>
        <time>2012-05-05T08:23:00Z</time>
      </trkpt>
      <trkpt lat="45.68543" lon="4.6027">
        <ele>541</ele>
        <time>2012-05-05T08:23:01Z</time>
      </trkpt>
      <trkpt lat="45.68539" lon="4.60276">
        <ele>541</ele>
        <time>2012-05-05T08:23:02Z</time>
      </trkpt>
      <trkpt lat="45.68535" lon="4.60283">
        <ele>541</ele>
        <time>2012-05-05T08:23:03Z</time>
      </trkpt>
      <trkpt lat="45.68529" lon="4.60287">
        <ele>541</ele>
        <time>2012-05-05T08:23:04Z</time>
      </trkpt>
      <trkpt lat="45.68523" lon="4.6029">
        <ele>540</ele>
        <time>2012-05-05T08:23:05Z</time>
      </trkpt>
      <trkpt lat="45.68517" lon="4.60292">
        <ele>540</ele>
        <time>2012-05-05T08:23:06Z</time>
      </trkpt>
      <trkpt lat="45.68488" lon="4.60297">
        <ele>537</ele>
        <time>2012-05-05T08:23:10Z</time>
      </trkpt>
      <trkpt lat="45.68468" lon="4.60302">
        <ele>534</ele>
        <time>2012-05-05T08:23:13Z</time>
      </trkpt>
      <trkpt lat="45.6846" lon="4.60307">
        <ele>533</ele>
        <time>2012-05-05T08:23:16Z</time>
      </trkpt>
      <trkpt lat="45.68453" lon="4.60309">
        <ele>532</ele>
        <time>2012-05-05T08:23:18Z</time>
      </trkpt>
      <trkpt lat="45.68446" lon="4.60311">
        <ele>531</ele>
        <time>2012-05-05T08:23:20Z</time>
      </trkpt>
      <trkpt lat="45.68445" lon="4.60314">
        <ele>531</ele>
        <time>2012-05-05T08:23:21Z</time>
      </trkpt>
      <trkpt lat="45.68442" lon="4.60324">
        <ele>531</ele>
        <time>2012-05-05T08:23:25Z</time>
      </trkpt>
      <trkpt lat="45.68435" lon="4.60348">
        <ele>533</ele>
        <time>2012-05-05T08:23:31Z</time>
      </trkpt>
      <trkpt lat="45.68434" lon="4.60352">
        <ele>533</ele>
        <time>2012-05-05T08:23:32Z</time>
      </trkpt>
      <trkpt lat="45.68434" lon="4.60354">
        <ele>533</ele>
        <time>2012-05-05T08:23:33Z</time>
      </trkpt>
      <trkpt lat="45.68433" lon="4.60358">
        <ele>533</ele>
        <time>2012-05-05T08:23:34Z</time>
      </trkpt>
      <trkpt lat="45.68433" lon="4.60361">
        <ele>533</ele>
        <time>2012-05-05T08:23:35Z</time>
      </trkpt>
      <trkpt lat="45.68432" lon="4.60365">
        <ele>533</ele>
        <time>2012-05-05T08:23:36Z</time>
      </trkpt>
      <trkpt lat="45.68432" lon="4.60369">
        <ele>533</ele>
        <time>2012-05-05T08:23:37Z</time>
      </trkpt>
      <trkpt lat="45.68431" lon="4.60372">
        <ele>534</ele>
        <time>2012-05-05T08:23:38Z</time>
      </trkpt>
      <trkpt lat="45.6843" lon="4.60388">
        <ele>534</ele>
        <time>2012-05-05T08:23:43Z</time>
      </trkpt>
      <trkpt lat="45.68433" lon="4.60418">
        <ele>534</ele>
        <time>2012-05-05T08:23:49Z</time>
      </trkpt>
      <trkpt lat="45.68437" lon="4.60446">
        <ele>534</ele>
        <time>2012-05-05T08:23:54Z</time>
      </trkpt>
      <trkpt lat="45.68444" lon="4.60489">
        <ele>532</ele>
        <time>2012-05-05T08:24:00Z</time>
      </trkpt>
      <trkpt lat="45.68444" lon="4.60497">
        <ele>532</ele>
        <time>2012-05-05T08:24:01Z</time>
      </trkpt>
      <trkpt lat="45.68447" lon="4.60512">
        <ele>531</ele>
        <time>2012-05-05T08:24:03Z</time>
      </trkpt>
      <trkpt lat="45.68447" lon="4.6052">
        <ele>530</ele>
        <time>2012-05-05T08:24:04Z</time>
      </trkpt>
      <trkpt lat="45.68445" lon="4.60564">
        <ele>528</ele>
        <time>2012-05-05T08:24:09Z</time>
      </trkpt>
      <trkpt lat="45.68439" lon="4.60616">
        <ele>528</ele>
        <time>2012-05-05T08:24:16Z</time>
      </trkpt>
      <trkpt lat="45.68439" lon="4.60624">
        <ele>528</ele>
        <time>2012-05-05T08:24:17Z</time>
      </trkpt>
      <trkpt lat="45.68439" lon="4.60631">
        <ele>528</ele>
        <time>2012-05-05T08:24:18Z</time>
      </trkpt>
      <trkpt lat="45.68439" lon="4.60639">
        <ele>528</ele>
        <time>2012-05-05T08:24:19Z</time>
      </trkpt>
      <trkpt lat="45.6844" lon="4.60648">
        <ele>527</ele>
        <time>2012-05-05T08:24:20Z</time>
      </trkpt>
      <trkpt lat="45.68442" lon="4.60658">
        <ele>526</ele>
        <time>2012-05-05T08:24:21Z</time>
      </trkpt>
      <trkpt lat="45.68445" lon="4.60669">
        <ele>525</ele>
        <time>2012-05-05T08:24:22Z</time>
      </trkpt>
      <trkpt lat="45.68448" lon="4.60679">
        <ele>525</ele>
        <time>2012-05-05T08:24:23Z</time>
      </trkpt>
      <trkpt lat="45.68453" lon="4.60688">
        <ele>525</ele>
        <time>2012-05-05T08:24:24Z</time>
      </trkpt>
      <trkpt lat="45.68459" lon="4.60697">
        <ele>524</ele>
        <time>2012-05-05T08:24:25Z</time>
      </trkpt>
      <trkpt lat="45.68466" lon="4.60706">
        <ele>522</ele>
        <time>2012-05-05T08:24:26Z</time>
      </trkpt>
      <trkpt lat="45.68471" lon="4.60715">
        <ele>521</ele>
        <time>2012-05-05T08:24:27Z</time>
      </trkpt>
      <trkpt lat="45.68475" lon="4.60725">
        <ele>520</ele>
        <time>2012-05-05T08:24:28Z</time>
      </trkpt>
      <trkpt lat="45.68478" lon="4.60736">
        <ele>520</ele>
        <time>2012-05-05T08:24:29Z</time>
      </trkpt>
      <trkpt lat="45.6848" lon="4.60747">
        <ele>519</ele>
        <time>2012-05-05T08:24:30Z</time>
      </trkpt>
      <trkpt lat="45.68481" lon="4.60757">
        <ele>519</ele>
        <time>2012-05-05T08:24:31Z</time>
      </trkpt>
      <trkpt lat="45.68482" lon="4.60766">
        <ele>518</ele>
        <time>2012-05-05T08:24:32Z</time>
      </trkpt>
      <trkpt lat="45.68483" lon="4.60774">
        <ele>518</ele>
        <time>2012-05-05T08:24:33Z</time>
      </trkpt>
      <trkpt lat="45.68483" lon="4.60784">
        <ele>517</ele>
        <time>2012-05-05T08:24:34Z</time>
      </trkpt>
      <trkpt lat="45.68483" lon="4.60793">
        <ele>516</ele>
        <time>2012-05-05T08:24:35Z</time>
      </trkpt>
      <trkpt lat="45.68481" lon="4.60802">
        <ele>515</ele>
        <time>2012-05-05T08:24:36Z</time>
      </trkpt>
      <trkpt lat="45.68478" lon="4.60809">
        <ele>513</ele>
        <time>2012-05-05T08:24:37Z</time>
      </trkpt>
      <trkpt lat="45.68474" lon="4.60817">
        <ele>513</ele>
        <time>2012-05-05T08:24:38Z</time>
      </trkpt>
      <trkpt lat="45.6846" lon="4.60845">
        <ele>509</ele>
        <time>2012-05-05T08:24:42Z</time>
      </trkpt>
      <trkpt lat="45.68456" lon="4.60851">
        <ele>507</ele>
        <time>2012-05-05T08:24:43Z</time>
      </trkpt>
      <trkpt lat="45.68451" lon="4.60855">
        <ele>506</ele>
        <time>2012-05-05T08:24:44Z</time>
      </trkpt>
      <trkpt lat="45.68433" lon="4.60869">
        <ele>503</ele>
        <time>2012-05-05T08:24:47Z</time>
      </trkpt>
      <trkpt lat="45.68428" lon="4.60874">
        <ele>502</ele>
        <time>2012-05-05T08:24:48Z</time>
      </trkpt>
      <trkpt lat="45.68424" lon="4.60879">
        <ele>502</ele>
        <time>2012-05-05T08:24:49Z</time>
      </trkpt>
      <trkpt lat="45.68419" lon="4.60884">
        <ele>502</ele>
        <time>2012-05-05T08:24:50Z</time>
      </trkpt>
      <trkpt lat="45.68415" lon="4.60888">
        <ele>501</ele>
        <time>2012-05-05T08:24:51Z</time>
      </trkpt>
      <trkpt lat="45.68411" lon="4.60891">
        <ele>501</ele>
        <time>2012-05-05T08:24:52Z</time>
      </trkpt>
      <trkpt lat="45.68409" lon="4.60896">
        <ele>501</ele>
        <time>2012-05-05T08:24:53Z</time>
      </trkpt>
      <trkpt lat="45.68406" lon="4.609">
        <ele>501</ele>
        <time>2012-05-05T08:24:54Z</time>
      </trkpt>
      <trkpt lat="45.68405" lon="4.60905">
        <ele>501</ele>
        <time>2012-05-05T08:24:55Z</time>
      </trkpt>
      <trkpt lat="45.68403" lon="4.60909">
        <ele>501</ele>
        <time>2012-05-05T08:24:56Z</time>
      </trkpt>
      <trkpt lat="45.68403" lon="4.60912">
        <ele>501</ele>
        <time>2012-05-05T08:24:57Z</time>
      </trkpt>
      <trkpt lat="45.68402" lon="4.60916">
        <ele>501</ele>
        <time>2012-05-05T08:24:58Z</time>
      </trkpt>
      <trkpt lat="45.68401" lon="4.60919">
        <ele>501</ele>
        <time>2012-05-05T08:24:59Z</time>
      </trkpt>
      <trkpt lat="45.68399" lon="4.60931">
        <ele>502</ele>
        <time>2012-05-05T08:25:03Z</time>
      </trkpt>
      <trkpt lat="45.68398" lon="4.60935">
        <ele>502</ele>
        <time>2012-05-05T08:25:04Z</time>
      </trkpt>
      <trkpt lat="45.68397" lon="4.60943">
        <ele>502</ele>
        <time>2012-05-05T08:25:07Z</time>
      </trkpt>
      <trkpt lat="45.68395" lon="4.60946">
        <ele>502</ele>
        <time>2012-05-05T08:25:08Z</time>
      </trkpt>
      <trkpt lat="45.68394" lon="4.6095">
        <ele>502</ele>
        <time>2012-05-05T08:25:09Z</time>
      </trkpt>
      <trkpt lat="45.68393" lon="4.60967">
        <ele>503</ele>
        <time>2012-05-05T08:25:15Z</time>
      </trkpt>
      <trkpt lat="45.68392" lon="4.60974">
        <ele>503</ele>
        <time>2012-05-05T08:25:17Z</time>
      </trkpt>
      <trkpt lat="45.68392" lon="4.60976">
        <ele>503</ele>
        <time>2012-05-05T08:25:18Z</time>
      </trkpt>
      <trkpt lat="45.68392" lon="4.60979">
        <ele>503</ele>
        <time>2012-05-05T08:25:19Z</time>
      </trkpt>
      <trkpt lat="45.68391" lon="4.60983">
        <ele>503</ele>
        <time>2012-05-05T08:25:20Z</time>
      </trkpt>
      <trkpt lat="45.68392" lon="4.60986">
        <ele>503</ele>
        <time>2012-05-05T08:25:21Z</time>
      </trkpt>
      <trkpt lat="45.68392" lon="4.61002">
        <ele>504</ele>
        <time>2012-05-05T08:25:26Z</time>
      </trkpt>
      <trkpt lat="45.68393" lon="4.61005">
        <ele>504</ele>
        <time>2012-05-05T08:25:27Z</time>
      </trkpt>
      <trkpt lat="45.68392" lon="4.6101">
        <ele>504</ele>
        <time>2012-05-05T08:25:33Z</time>
      </trkpt>
      <trkpt lat="45.68392" lon="4.61015">
        <ele>504</ele>
        <time>2012-05-05T08:25:52Z</time>
      </trkpt>
      <trkpt lat="45.68395" lon="4.6102">
        <ele>504</ele>
        <time>2012-05-05T08:26:11Z</time>
      </trkpt>
      <trkpt lat="45.68395" lon="4.61022">
        <ele>504</ele>
        <time>2012-05-05T08:26:12Z</time>
      </trkpt>
      <trkpt lat="45.68394" lon="4.61023">
        <ele>504</ele>
        <time>2012-05-05T08:26:13Z</time>
      </trkpt>
      <trkpt lat="45.68394" lon="4.61026">
        <ele>504</ele>
        <time>2012-05-05T08:26:14Z</time>
      </trkpt>
      <trkpt lat="45.68395" lon="4.61029">
        <ele>504</ele>
        <time>2012-05-05T08:26:15Z</time>
      </trkpt>
      <trkpt lat="45.68395" lon="4.61031">
        <ele>505</ele>
        <time>2012-05-05T08:26:16Z</time>
      </trkpt>
      <trkpt lat="45.68395" lon="4.61034">
        <ele>505</ele>
        <time>2012-05-05T08:26:17Z</time>
      </trkpt>
      <trkpt lat="45.68394" lon="4.61037">
        <ele>505</ele>
        <time>2012-05-05T08:26:18Z</time>
      </trkpt>
      <trkpt lat="45.68394" lon="4.61041">
        <ele>505</ele>
        <time>2012-05-05T08:26:19Z</time>
      </trkpt>
      <trkpt lat="45.68393" lon="4.61045">
        <ele>505</ele>
        <time>2012-05-05T08:26:20Z</time>
      </trkpt>
      <trkpt lat="45.68393" lon="4.61049">
        <ele>505</ele>
        <time>2012-05-05T08:26:21Z</time>
      </trkpt>
      <trkpt lat="45.68393" lon="4.61052">
        <ele>505</ele>
        <time>2012-05-05T08:26:22Z</time>
      </trkpt>
      <trkpt lat="45.68393" lon="4.61055">
        <ele>505</ele>
        <time>2012-05-05T08:26:23Z</time>
      </trkpt>
      <trkpt lat="45.68393" lon="4.61077">
        <ele>505</ele>
        <time>2012-05-05T08:26:28Z</time>
      </trkpt>
      <trkpt lat="45.68392" lon="4.61084">
        <ele>504</ele>
        <time>2012-05-05T08:26:29Z</time>
      </trkpt>
      <trkpt lat="45.68391" lon="4.6109">
        <ele>503</ele>
        <time>2012-05-05T08:26:30Z</time>
      </trkpt>
      <trkpt lat="45.6839" lon="4.61096">
        <ele>503</ele>
        <time>2012-05-05T08:26:31Z</time>
      </trkpt>
      <trkpt lat="45.68389" lon="4.61103">
        <ele>502</ele>
        <time>2012-05-05T08:26:32Z</time>
      </trkpt>
      <trkpt lat="45.68388" lon="4.6111">
        <ele>502</ele>
        <time>2012-05-05T08:26:33Z</time>
      </trkpt>
      <trkpt lat="45.68386" lon="4.61117">
        <ele>500</ele>
        <time>2012-05-05T08:26:34Z</time>
      </trkpt>
      <trkpt lat="45.68383" lon="4.61125">
        <ele>500</ele>
        <time>2012-05-05T08:26:35Z</time>
      </trkpt>
      <trkpt lat="45.6838" lon="4.61133">
        <ele>499</ele>
        <time>2012-05-05T08:26:36Z</time>
      </trkpt>
      <trkpt lat="45.68376" lon="4.61141">
        <ele>498</ele>
        <time>2012-05-05T08:26:37Z</time>
      </trkpt>
      <trkpt lat="45.68359" lon="4.61171">
        <ele>497</ele>
        <time>2012-05-05T08:26:40Z</time>
      </trkpt>
      <trkpt lat="45.68354" lon="4.61182">
        <ele>497</ele>
        <time>2012-05-05T08:26:41Z</time>
      </trkpt>
      <trkpt lat="45.6835" lon="4.61194">
        <ele>496</ele>
        <time>2012-05-05T08:26:42Z</time>
      </trkpt>
      <trkpt lat="45.68347" lon="4.61206">
        <ele>495</ele>
        <time>2012-05-05T08:26:43Z</time>
      </trkpt>
      <trkpt lat="45.68345" lon="4.6122">
        <ele>494</ele>
        <time>2012-05-05T08:26:44Z</time>
      </trkpt>
      <trkpt lat="45.68344" lon="4.61233">
        <ele>493</ele>
        <time>2012-05-05T08:26:45Z</time>
      </trkpt>
      <trkpt lat="45.68341" lon="4.61248">
        <ele>492</ele>
        <time>2012-05-05T08:26:46Z</time>
      </trkpt>
      <trkpt lat="45.68337" lon="4.61262">
        <ele>491</ele>
        <time>2012-05-05T08:26:47Z</time>
      </trkpt>
      <trkpt lat="45.68331" lon="4.61276">
        <ele>490</ele>
        <time>2012-05-05T08:26:48Z</time>
      </trkpt>
      <trkpt lat="45.68322" lon="4.61301">
        <ele>489</ele>
        <time>2012-05-05T08:26:50Z</time>
      </trkpt>
      <trkpt lat="45.6831" lon="4.61321">
        <ele>488</ele>
        <time>2012-05-05T08:26:52Z</time>
      </trkpt>
      <trkpt lat="45.6827" lon="4.61373">
        <ele>487</ele>
        <time>2012-05-05T08:26:59Z</time>
      </trkpt>
      <trkpt lat="45.68238" lon="4.61415">
        <ele>486</ele>
        <time>2012-05-05T08:27:06Z</time>
      </trkpt>
      <trkpt lat="45.6822" lon="4.61433">
        <ele>486</ele>
        <time>2012-05-05T08:27:10Z</time>
      </trkpt>
      <trkpt lat="45.68216" lon="4.61437">
        <ele>485</ele>
        <time>2012-05-05T08:27:11Z</time>
      </trkpt>
      <trkpt lat="45.68207" lon="4.61446">
        <ele>484</ele>
        <time>2012-05-05T08:27:13Z</time>
      </trkpt>
      <trkpt lat="45.68203" lon="4.61449">
        <ele>484</ele>
        <time>2012-05-05T08:27:14Z</time>
      </trkpt>
      <trkpt lat="45.68191" lon="4.61458">
        <ele>486</ele>
        <time>2012-05-05T08:27:19Z</time>
      </trkpt>
      <trkpt lat="45.68172" lon="4.61465">
        <ele>487</ele>
        <time>2012-05-05T08:27:27Z</time>
      </trkpt>
      <trkpt lat="45.68162" lon="4.61453">
        <ele>488</ele>
        <time>2012-05-05T08:27:34Z</time>
      </trkpt>
      <trkpt lat="45.68148" lon="4.61434">
        <ele>487</ele>
        <time>2012-05-05T08:27:42Z</time>
      </trkpt>
      <trkpt lat="45.6813" lon="4.61409">
        <ele>487</ele>
        <time>2012-05-05T08:27:49Z</time>
      </trkpt>
      <trkpt lat="45.68122" lon="4.61398">
        <ele>486</ele>
        <time>2012-05-05T08:27:51Z</time>
      </trkpt>
      <trkpt lat="45.68106" lon="4.61375">
        <ele>483</ele>
        <time>2012-05-05T08:27:54Z</time>
      </trkpt>
      <trkpt lat="45.68081" lon="4.61338">
        <ele>479</ele>
        <time>2012-05-05T08:27:58Z</time>
      </trkpt>
      <trkpt lat="45.6807" lon="4.61318">
        <ele>475</ele>
        <time>2012-05-05T08:28:00Z</time>
      </trkpt>
      <trkpt lat="45.68064" lon="4.61311">
        <ele>475</ele>
        <time>2012-05-05T08:28:01Z</time>
      </trkpt>
      <trkpt lat="45.68055" lon="4.61305">
        <ele>474</ele>
        <time>2012-05-05T08:28:02Z</time>
      </trkpt>
      <trkpt lat="45.68047" lon="4.613">
        <ele>474</ele>
        <time>2012-05-05T08:28:03Z</time>
      </trkpt>
      <trkpt lat="45.68017" lon="4.61282">
        <ele>473</ele>
        <time>2012-05-05T08:28:07Z</time>
      </trkpt>
      <trkpt lat="45.68011" lon="4.61278">
        <ele>473</ele>
        <time>2012-05-05T08:28:08Z</time>
      </trkpt>
      <trkpt lat="45.68" lon="4.61271">
        <ele>473</ele>
        <time>2012-05-05T08:28:10Z</time>
      </trkpt>
      <trkpt lat="45.67983" lon="4.61261">
        <ele>474</ele>
        <time>2012-05-05T08:28:15Z</time>
      </trkpt>
      <trkpt lat="45.67967" lon="4.61252">
        <ele>476</ele>
        <time>2012-05-05T08:28:22Z</time>
      </trkpt>
      <trkpt lat="45.6795" lon="4.61244">
        <ele>480</ele>
        <time>2012-05-05T08:28:29Z</time>
      </trkpt>
      <trkpt lat="45.67947" lon="4.61243">
        <ele>480</ele>
        <time>2012-05-05T08:28:30Z</time>
      </trkpt>
      <trkpt lat="45.67931" lon="4.61243">
        <ele>481</ele>
        <time>2012-05-05T08:28:36Z</time>
      </trkpt>
      <trkpt lat="45.67916" lon="4.61244">
        <ele>483</ele>
        <time>2012-05-05T08:28:42Z</time>
      </trkpt>
      <trkpt lat="45.67896" lon="4.61244">
        <ele>483</ele>
        <time>2012-05-05T08:28:50Z</time>
      </trkpt>
      <trkpt lat="45.67878" lon="4.61243">
        <ele>483</ele>
        <time>2012-05-05T08:28:57Z</time>
      </trkpt>
      <trkpt lat="45.67865" lon="4.61235">
        <ele>483</ele>
        <time>2012-05-05T08:29:04Z</time>
      </trkpt>
      <trkpt lat="45.67846" lon="4.61232">
        <ele>482</ele>
        <time>2012-05-05T08:29:10Z</time>
      </trkpt>
      <trkpt lat="45.67842" lon="4.61235">
        <ele>482</ele>
        <time>2012-05-05T08:29:11Z</time>
      </trkpt>
      <trkpt lat="45.67837" lon="4.6124">
        <ele>481</ele>
        <time>2012-05-05T08:29:12Z</time>
      </trkpt>
      <trkpt lat="45.67832" lon="4.61247">
        <ele>480</ele>
        <time>2012-05-05T08:29:13Z</time>
      </trkpt>
      <trkpt lat="45.67826" lon="4.61253">
        <ele>479</ele>
        <time>2012-05-05T08:29:14Z</time>
      </trkpt>
      <trkpt lat="45.67821" lon="4.61258">
        <ele>478</ele>
        <time>2012-05-05T08:29:15Z</time>
      </trkpt>
      <trkpt lat="45.67815" lon="4.61262">
        <ele>476</ele>
        <time>2012-05-05T08:29:16Z</time>
      </trkpt>
      <trkpt lat="45.6781" lon="4.61266">
        <ele>475</ele>
        <time>2012-05-05T08:29:17Z</time>
      </trkpt>
      <trkpt lat="45.67789" lon="4.61289">
        <ele>472</ele>
        <time>2012-05-05T08:29:21Z</time>
      </trkpt>
      <trkpt lat="45.67778" lon="4.61299">
        <ele>470</ele>
        <time>2012-05-05T08:29:23Z</time>
      </trkpt>
      <trkpt lat="45.67773" lon="4.61306">
        <ele>469</ele>
        <time>2012-05-05T08:29:24Z</time>
      </trkpt>
      <trkpt lat="45.67767" lon="4.61312">
        <ele>469</ele>
        <time>2012-05-05T08:29:25Z</time>
      </trkpt>
      <trkpt lat="45.67761" lon="4.61317">
        <ele>467</ele>
        <time>2012-05-05T08:29:26Z</time>
      </trkpt>
      <trkpt lat="45.67755" lon="4.61323">
        <ele>466</ele>
        <time>2012-05-05T08:29:27Z</time>
      </trkpt>
      <trkpt lat="45.67737" lon="4.61342">
        <ele>463</ele>
        <time>2012-05-05T08:29:30Z</time>
      </trkpt>
      <trkpt lat="45.67721" lon="4.61361">
        <ele>461</ele>
        <time>2012-05-05T08:29:33Z</time>
      </trkpt>
      <trkpt lat="45.67717" lon="4.61367">
        <ele>460</ele>
        <time>2012-05-05T08:29:34Z</time>
      </trkpt>
      <trkpt lat="45.67712" lon="4.61373">
        <ele>459</ele>
        <time>2012-05-05T08:29:35Z</time>
      </trkpt>
      <trkpt lat="45.67706" lon="4.61378">
        <ele>458</ele>
        <time>2012-05-05T08:29:36Z</time>
      </trkpt>
      <trkpt lat="45.67699" lon="4.6138">
        <ele>457</ele>
        <time>2012-05-05T08:29:37Z</time>
      </trkpt>
      <trkpt lat="45.67691" lon="4.61382">
        <ele>457</ele>
        <time>2012-05-05T08:29:38Z</time>
      </trkpt>
      <trkpt lat="45.67684" lon="4.61383">
        <ele>457</ele>
        <time>2012-05-05T08:29:39Z</time>
      </trkpt>
      <trkpt lat="45.67677" lon="4.61382">
        <ele>456</ele>
        <time>2012-05-05T08:29:40Z</time>
      </trkpt>
      <trkpt lat="45.67669" lon="4.61379">
        <ele>456</ele>
        <time>2012-05-05T08:29:41Z</time>
      </trkpt>
      <trkpt lat="45.67643" lon="4.6136">
        <ele>453</ele>
        <time>2012-05-05T08:29:46Z</time>
      </trkpt>
      <trkpt lat="45.67639" lon="4.61357">
        <ele>454</ele>
        <time>2012-05-05T08:29:47Z</time>
      </trkpt>
      <trkpt lat="45.67636" lon="4.61353">
        <ele>453</ele>
        <time>2012-05-05T08:29:48Z</time>
      </trkpt>
      <trkpt lat="45.67633" lon="4.61349">
        <ele>451</ele>
        <time>2012-05-05T08:29:49Z</time>
      </trkpt>
      <trkpt lat="45.6763" lon="4.61344">
        <ele>451</ele>
        <time>2012-05-05T08:29:50Z</time>
      </trkpt>
      <trkpt lat="45.67626" lon="4.61342">
        <ele>451</ele>
        <time>2012-05-05T08:29:51Z</time>
      </trkpt>
      <trkpt lat="45.67623" lon="4.61346">
        <ele>450</ele>
        <time>2012-05-05T08:29:52Z</time>
      </trkpt>
      <trkpt lat="45.67621" lon="4.61354">
        <ele>449</ele>
        <time>2012-05-05T08:29:53Z</time>
      </trkpt>
      <trkpt lat="45.6762" lon="4.61362">
        <ele>448</ele>
        <time>2012-05-05T08:29:54Z</time>
      </trkpt>
      <trkpt lat="45.67619" lon="4.6137">
        <ele>448</ele>
        <time>2012-05-05T08:29:55Z</time>
      </trkpt>
      <trkpt lat="45.67617" lon="4.61379">
        <ele>447</ele>
        <time>2012-05-05T08:29:56Z</time>
      </trkpt>
      <trkpt lat="45.67616" lon="4.61388">
        <ele>446</ele>
        <time>2012-05-05T08:29:57Z</time>
      </trkpt>
      <trkpt lat="45.67614" lon="4.61395">
        <ele>446</ele>
        <time>2012-05-05T08:29:58Z</time>
      </trkpt>
      <trkpt lat="45.6761" lon="4.61396">
        <ele>446</ele>
        <time>2012-05-05T08:29:59Z</time>
      </trkpt>
      <trkpt lat="45.67604" lon="4.61384">
        <ele>444</ele>
        <time>2012-05-05T08:30:01Z</time>
      </trkpt>
      <trkpt lat="45.67601" lon="4.61378">
        <ele>442</ele>
        <time>2012-05-05T08:30:02Z</time>
      </trkpt>
      <trkpt lat="45.67588" lon="4.61379">
        <ele>439</ele>
        <time>2012-05-05T08:30:05Z</time>
      </trkpt>
      <trkpt lat="45.67583" lon="4.61383">
        <ele>438</ele>
        <time>2012-05-05T08:30:06Z</time>
      </trkpt>
      <trkpt lat="45.67578" lon="4.61385">
        <ele>437</ele>
        <time>2012-05-05T08:30:07Z</time>
      </trkpt>
      <trkpt lat="45.67572" lon="4.61386">
        <ele>437</ele>
        <time>2012-05-05T08:30:08Z</time>
      </trkpt>
      <trkpt lat="45.67555" lon="4.61385">
        <ele>433</ele>
        <time>2012-05-05T08:30:11Z</time>
      </trkpt>
      <trkpt lat="45.67549" lon="4.61387">
        <ele>431</ele>
        <time>2012-05-05T08:30:12Z</time>
      </trkpt>
      <trkpt lat="45.67545" lon="4.61393">
        <ele>430</ele>
        <time>2012-05-05T08:30:13Z</time>
      </trkpt>
      <trkpt lat="45.67542" lon="4.61401">
        <ele>430</ele>
        <time>2012-05-05T08:30:14Z</time>
      </trkpt>
      <trkpt lat="45.6754" lon="4.61409">
        <ele>428</ele>
        <time>2012-05-05T08:30:15Z</time>
      </trkpt>
      <trkpt lat="45.67533" lon="4.61425">
        <ele>426</ele>
        <time>2012-05-05T08:30:17Z</time>
      </trkpt>
      <trkpt lat="45.67526" lon="4.61422">
        <ele>425</ele>
        <time>2012-05-05T08:30:19Z</time>
      </trkpt>
      <trkpt lat="45.67526" lon="4.61416">
        <ele>425</ele>
        <time>2012-05-05T08:30:20Z</time>
      </trkpt>
      <trkpt lat="45.67526" lon="4.61409">
        <ele>425</ele>
        <time>2012-05-05T08:30:21Z</time>
      </trkpt>
      <trkpt lat="45.67528" lon="4.61403">
        <ele>425</ele>
        <time>2012-05-05T08:30:22Z</time>
      </trkpt>
      <trkpt lat="45.67529" lon="4.61396">
        <ele>425</ele>
        <time>2012-05-05T08:30:23Z</time>
      </trkpt>
      <trkpt lat="45.6753" lon="4.6139">
        <ele>425</ele>
        <time>2012-05-05T08:30:24Z</time>
      </trkpt>
      <trkpt lat="45.67531" lon="4.61384">
        <ele>425</ele>
        <time>2012-05-05T08:30:25Z</time>
      </trkpt>
      <trkpt lat="45.67532" lon="4.61378">
        <ele>424</ele>
        <time>2012-05-05T08:30:26Z</time>
      </trkpt>
      <trkpt lat="45.67535" lon="4.61335">
        <ele>420</ele>
        <time>2012-05-05T08:30:31Z</time>
      </trkpt>
      <trkpt lat="45.67536" lon="4.61322">
        <ele>418</ele>
        <time>2012-05-05T08:30:32Z</time>
      </trkpt>
      <trkpt lat="45.67538" lon="4.61309">
        <ele>417</ele>
        <time>2012-05-05T08:30:33Z</time>
      </trkpt>
      <trkpt lat="45.67541" lon="4.61296">
        <ele>417</ele>
        <time>2012-05-05T08:30:34Z</time>
      </trkpt>
      <trkpt lat="45.67555" lon="4.61222">
        <ele>414</ele>
        <time>2012-05-05T08:30:40Z</time>
      </trkpt>
      <trkpt lat="45.67556" lon="4.61209">
        <ele>414</ele>
        <time>2012-05-05T08:30:41Z</time>
      </trkpt>
      <trkpt lat="45.67557" lon="4.61185">
        <ele>414</ele>
        <time>2012-05-05T08:30:43Z</time>
      </trkpt>
      <trkpt lat="45.67556" lon="4.61174">
        <ele>414</ele>
        <time>2012-05-05T08:30:44Z</time>
      </trkpt>
      <trkpt lat="45.67554" lon="4.61164">
        <ele>414</ele>
        <time>2012-05-05T08:30:45Z</time>
      </trkpt>
      <trkpt lat="45.67552" lon="4.61154">
        <ele>413</ele>
        <time>2012-05-05T08:30:46Z</time>
      </trkpt>
      <trkpt lat="45.6755" lon="4.61146">
        <ele>413</ele>
        <time>2012-05-05T08:30:47Z</time>
      </trkpt>
      <trkpt lat="45.67547" lon="4.61139">
        <ele>414</ele>
        <time>2012-05-05T08:30:48Z</time>
      </trkpt>
      <trkpt lat="45.67544" lon="4.61134">
        <ele>414</ele>
        <time>2012-05-05T08:30:49Z</time>
      </trkpt>
      <trkpt lat="45.67533" lon="4.61115">
        <ele>415</ele>
        <time>2012-05-05T08:30:54Z</time>
      </trkpt>
      <trkpt lat="45.67515" lon="4.61092">
        <ele>416</ele>
        <time>2012-05-05T08:31:02Z</time>
      </trkpt>
      <trkpt lat="45.67492" lon="4.61078">
        <ele>418</ele>
        <time>2012-05-05T08:31:10Z</time>
      </trkpt>
      <trkpt lat="45.6746" lon="4.61066">
        <ele>418</ele>
        <time>2012-05-05T08:31:20Z</time>
      </trkpt>
      <trkpt lat="45.67455" lon="4.61067">
        <ele>419</ele>
        <time>2012-05-05T08:31:23Z</time>
      </trkpt>
      <trkpt lat="45.67453" lon="4.61068">
        <ele>419</ele>
        <time>2012-05-05T08:31:24Z</time>
      </trkpt>
      <trkpt lat="45.67452" lon="4.61069">
        <ele>419</ele>
        <time>2012-05-05T08:31:25Z</time>
      </trkpt>
      <trkpt lat="45.67451" lon="4.6107">
        <ele>419</ele>
        <time>2012-05-05T08:31:26Z</time>
      </trkpt>
      <trkpt lat="45.67449" lon="4.61072">
        <ele>419</ele>
        <time>2012-05-05T08:31:27Z</time>
      </trkpt>
      <trkpt lat="45.67448" lon="4.61074">
        <ele>419</ele>
        <time>2012-05-05T08:31:28Z</time>
      </trkpt>
      <trkpt lat="45.67447" lon="4.61076">
        <ele>418</ele>
        <time>2012-05-05T08:31:29Z</time>
      </trkpt>
      <trkpt lat="45.67446" lon="4.61077">
        <ele>418</ele>
        <time>2012-05-05T08:31:30Z</time>
      </trkpt>
      <trkpt lat="45.67445" lon="4.61079">
        <ele>418</ele>
        <time>2012-05-05T08:31:31Z</time>
      </trkpt>
      <trkpt lat="45.67443" lon="4.61081">
        <ele>418</ele>
        <time>2012-05-05T08:31:32Z</time>
      </trkpt>
      <trkpt lat="45.67441" lon="4.61083">
        <ele>418</ele>
        <time>2012-05-05T08:31:33Z</time>
      </trkpt>
      <trkpt lat="45.67439" lon="4.61086">
        <ele>418</ele>
        <time>2012-05-05T08:31:34Z</time>
      </trkpt>
      <trkpt lat="45.67436" lon="4.61091">
        <ele>417</ele>
        <time>2012-05-05T08:31:35Z</time>
      </trkpt>
      <trkpt lat="45.67434" lon="4.61095">
        <ele>418</ele>
        <time>2012-05-05T08:31:36Z</time>
      </trkpt>
      <trkpt lat="45.67431" lon="4.61099">
        <ele>418</ele>
        <time>2012-05-05T08:31:37Z</time>
      </trkpt>
      <trkpt lat="45.67429" lon="4.61105">
        <ele>417</ele>
        <time>2012-05-05T08:31:38Z</time>
      </trkpt>
      <trkpt lat="45.67426" lon="4.61111">
        <ele>416</ele>
        <time>2012-05-05T08:31:39Z</time>
      </trkpt>
      <trkpt lat="45.67421" lon="4.61117">
        <ele>416</ele>
        <time>2012-05-05T08:31:40Z</time>
      </trkpt>
      <trkpt lat="45.67418" lon="4.61122">
        <ele>416</ele>
        <time>2012-05-05T08:31:41Z</time>
      </trkpt>
      <trkpt lat="45.67415" lon="4.61126">
        <ele>416</ele>
        <time>2012-05-05T08:31:42Z</time>
      </trkpt>
      <trkpt lat="45.67412" lon="4.61131">
        <ele>416</ele>
        <time>2012-05-05T08:31:43Z</time>
      </trkpt>
      <trkpt lat="45.67409" lon="4.61135">
        <ele>416</ele>
        <time>2012-05-05T08:31:44Z</time>
      </trkpt>
      <trkpt lat="45.67407" lon="4.6114">
        <ele>417</ele>
        <time>2012-05-05T08:31:45Z</time>
      </trkpt>
      <trkpt lat="45.67404" lon="4.61146">
        <ele>417</ele>
        <time>2012-05-05T08:31:46Z</time>
      </trkpt>
      <trkpt lat="45.67403" lon="4.61151">
        <ele>417</ele>
        <time>2012-05-05T08:31:47Z</time>
      </trkpt>
      <trkpt lat="45.67403" lon="4.61155">
        <ele>418</ele>
        <time>2012-05-05T08:31:48Z</time>
      </trkpt>
      <trkpt lat="45.67403" lon="4.6116">
        <ele>418</ele>
        <time>2012-05-05T08:31:49Z</time>
      </trkpt>
      <trkpt lat="45.67403" lon="4.61164">
        <ele>418</ele>
        <time>2012-05-05T08:31:50Z</time>
      </trkpt>
      <trkpt lat="45.67403" lon="4.61168">
        <ele>418</ele>
        <time>2012-05-05T08:31:51Z</time>
      </trkpt>
      <trkpt lat="45.67403" lon="4.61173">
        <ele>418</ele>
        <time>2012-05-05T08:31:52Z</time>
      </trkpt>
      <trkpt lat="45.67404" lon="4.61179">
        <ele>418</ele>
        <time>2012-05-05T08:31:53Z</time>
      </trkpt>
      <trkpt lat="45.67404" lon="4.61184">
        <ele>418</ele>
        <time>2012-05-05T08:31:54Z</time>
      </trkpt>
      <trkpt lat="45.67405" lon="4.61189">
        <ele>419</ele>
        <time>2012-05-05T08:31:55Z</time>
      </trkpt>
      <trkpt lat="45.67406" lon="4.61194">
        <ele>418</ele>
        <time>2012-05-05T08:31:56Z</time>
      </trkpt>
      <trkpt lat="45.67406" lon="4.61199">
        <ele>419</ele>
        <time>2012-05-05T08:31:57Z</time>
      </trkpt>
      <trkpt lat="45.67406" lon="4.61223">
        <ele>420</ele>
        <time>2012-05-05T08:32:04Z</time>
      </trkpt>
      <trkpt lat="45.67406" lon="4.61231">
        <ele>420</ele>
        <time>2012-05-05T08:32:09Z</time>
      </trkpt>
      <trkpt lat="45.67405" lon="4.61233">
        <ele>420</ele>
        <time>2012-05-05T08:32:10Z</time>
      </trkpt>
      <trkpt lat="45.67401" lon="4.61252">
        <ele>420</ele>
        <time>2012-05-05T08:32:15Z</time>
      </trkpt>
      <trkpt lat="45.6739" lon="4.6128">
        <ele>421</ele>
        <time>2012-05-05T08:32:22Z</time>
      </trkpt>
      <trkpt lat="45.67375" lon="4.61298">
        <ele>421</ele>
        <time>2012-05-05T08:32:28Z</time>
      </trkpt>
      <trkpt lat="45.67371" lon="4.61302">
        <ele>421</ele>
        <time>2012-05-05T08:32:30Z</time>
      </trkpt>
      <trkpt lat="45.67368" lon="4.61304">
        <ele>421</ele>
        <time>2012-05-05T08:32:31Z</time>
      </trkpt>
      <trkpt lat="45.67351" lon="4.61323">
        <ele>423</ele>
        <time>2012-05-05T08:32:38Z</time>
      </trkpt>
      <trkpt lat="45.67342" lon="4.61344">
        <ele>424</ele>
        <time>2012-05-05T08:32:45Z</time>
      </trkpt>
      <trkpt lat="45.67338" lon="4.6136">
        <ele>424</ele>
        <time>2012-05-05T08:32:50Z</time>
      </trkpt>
      <trkpt lat="45.67339" lon="4.61365">
        <ele>425</ele>
        <time>2012-05-05T08:32:52Z</time>
      </trkpt>
      <trkpt lat="45.67339" lon="4.61367">
        <ele>425</ele>
        <time>2012-05-05T08:32:53Z</time>
      </trkpt>
      <trkpt lat="45.6734" lon="4.61369">
        <ele>425</ele>
        <time>2012-05-05T08:32:54Z</time>
      </trkpt>
      <trkpt lat="45.6734" lon="4.61377">
        <ele>425</ele>
        <time>2012-05-05T08:32:56Z</time>
      </trkpt>
      <trkpt lat="45.67339" lon="4.61382">
        <ele>425</ele>
        <time>2012-05-05T08:32:57Z</time>
      </trkpt>
      <trkpt lat="45.67339" lon="4.61413">
        <ele>426</ele>
        <time>2012-05-05T08:33:03Z</time>
      </trkpt>
      <trkpt lat="45.67341" lon="4.61466">
        <ele>427</ele>
        <time>2012-05-05T08:33:10Z</time>
      </trkpt>
      <trkpt lat="45.67343" lon="4.61499">
        <ele>428</ele>
        <time>2012-05-05T08:33:17Z</time>
      </trkpt>
      <trkpt lat="45.67347" lon="4.61531">
        <ele>428</ele>
        <time>2012-05-05T08:33:24Z</time>
      </trkpt>
      <trkpt lat="45.67351" lon="4.61561">
        <ele>428</ele>
        <time>2012-05-05T08:33:30Z</time>
      </trkpt>
      <trkpt lat="45.67353" lon="4.61586">
        <ele>429</ele>
        <time>2012-05-05T08:33:36Z</time>
      </trkpt>
      <trkpt lat="45.67354" lon="4.61594">
        <ele>429</ele>
        <time>2012-05-05T08:33:38Z</time>
      </trkpt>
      <trkpt lat="45.67355" lon="4.61598">
        <ele>429</ele>
        <time>2012-05-05T08:33:39Z</time>
      </trkpt>
      <trkpt lat="45.67355" lon="4.61631">
        <ele>430</ele>
        <time>2012-05-05T08:33:46Z</time>
      </trkpt>
      <trkpt lat="45.67349" lon="4.61655">
        <ele>431</ele>
        <time>2012-05-05T08:33:51Z</time>
      </trkpt>
      <trkpt lat="45.67333" lon="4.6168">
        <ele>432</ele>
        <time>2012-05-05T08:33:58Z</time>
      </trkpt>
      <trkpt lat="45.67315" lon="4.61694">
        <ele>433</ele>
        <time>2012-05-05T08:34:04Z</time>
      </trkpt>
      <trkpt lat="45.67297" lon="4.61701">
        <ele>433</ele>
        <time>2012-05-05T08:34:09Z</time>
      </trkpt>
      <trkpt lat="45.67289" lon="4.61702">
        <ele>433</ele>
        <time>2012-05-05T08:34:11Z</time>
      </trkpt>
      <trkpt lat="45.67285" lon="4.61701">
        <ele>433</ele>
        <time>2012-05-05T08:34:12Z</time>
      </trkpt>
      <trkpt lat="45.6726" lon="4.61694">
        <ele>434</ele>
        <time>2012-05-05T08:34:19Z</time>
      </trkpt>
      <trkpt lat="45.67237" lon="4.61687">
        <ele>435</ele>
        <time>2012-05-05T08:34:26Z</time>
      </trkpt>
      <trkpt lat="45.67214" lon="4.61682">
        <ele>435</ele>
        <time>2012-05-05T08:34:33Z</time>
      </trkpt>
      <trkpt lat="45.67195" lon="4.61687">
        <ele>436</ele>
        <time>2012-05-05T08:34:39Z</time>
      </trkpt>
      <trkpt lat="45.6718" lon="4.61694">
        <ele>437</ele>
        <time>2012-05-05T08:34:44Z</time>
      </trkpt>
      <trkpt lat="45.67165" lon="4.61705">
        <ele>438</ele>
        <time>2012-05-05T08:34:50Z</time>
      </trkpt>
      <trkpt lat="45.67147" lon="4.61713">
        <ele>438</ele>
        <time>2012-05-05T08:34:57Z</time>
      </trkpt>
      <trkpt lat="45.67133" lon="4.61722">
        <ele>439</ele>
        <time>2012-05-05T08:35:03Z</time>
      </trkpt>
      <trkpt lat="45.67118" lon="4.61731">
        <ele>440</ele>
        <time>2012-05-05T08:35:10Z</time>
      </trkpt>
      <trkpt lat="45.6711" lon="4.61736">
        <ele>440</ele>
        <time>2012-05-05T08:35:15Z</time>
      </trkpt>
      <trkpt lat="45.67108" lon="4.61737">
        <ele>441</ele>
        <time>2012-05-05T08:35:16Z</time>
      </trkpt>
      <trkpt lat="45.67106" lon="4.61739">
        <ele>441</ele>
        <time>2012-05-05T08:35:17Z</time>
      </trkpt>
      <trkpt lat="45.67104" lon="4.61741">
        <ele>441</ele>
        <time>2012-05-05T08:35:18Z</time>
      </trkpt>
      <trkpt lat="45.67103" lon="4.61743">
        <ele>441</ele>
        <time>2012-05-05T08:35:19Z</time>
      </trkpt>
      <trkpt lat="45.67101" lon="4.61745">
        <ele>441</ele>
        <time>2012-05-05T08:35:20Z</time>
      </trkpt>
      <trkpt lat="45.67099" lon="4.61748">
        <ele>441</ele>
        <time>2012-05-05T08:35:21Z</time>
      </trkpt>
      <trkpt lat="45.67098" lon="4.61751">
        <ele>441</ele>
        <time>2012-05-05T08:35:22Z</time>
      </trkpt>
      <trkpt lat="45.67096" lon="4.61753">
        <ele>441</ele>
        <time>2012-05-05T08:35:23Z</time>
      </trkpt>
      <trkpt lat="45.67095" lon="4.61755">
        <ele>441</ele>
        <time>2012-05-05T08:35:24Z</time>
      </trkpt>
      <trkpt lat="45.6709" lon="4.61766">
        <ele>441</ele>
        <time>2012-05-05T08:35:27Z</time>
      </trkpt>
      <trkpt lat="45.67088" lon="4.61769">
        <ele>441</ele>
        <time>2012-05-05T08:35:28Z</time>
      </trkpt>
      <trkpt lat="45.67087" lon="4.61774">
        <ele>441</ele>
        <time>2012-05-05T08:35:29Z</time>
      </trkpt>
      <trkpt lat="45.67085" lon="4.61778">
        <ele>441</ele>
        <time>2012-05-05T08:35:30Z</time>
      </trkpt>
      <trkpt lat="45.67084" lon="4.61782">
        <ele>441</ele>
        <time>2012-05-05T08:35:31Z</time>
      </trkpt>
      <trkpt lat="45.67078" lon="4.61806">
        <ele>442</ele>
        <time>2012-05-05T08:35:36Z</time>
      </trkpt>
      <trkpt lat="45.67074" lon="4.61839">
        <ele>442</ele>
        <time>2012-05-05T08:35:43Z</time>
      </trkpt>
      <trkpt lat="45.67079" lon="4.61867">
        <ele>443</ele>
        <time>2012-05-05T08:35:49Z</time>
      </trkpt>
      <trkpt lat="45.6709" lon="4.61887">
        <ele>444</ele>
        <time>2012-05-05T08:35:54Z</time>
      </trkpt>
      <trkpt lat="45.6711" lon="4.61921">
        <ele>445</ele>
        <time>2012-05-05T08:36:03Z</time>
      </trkpt>
      <trkpt lat="45.6712" lon="4.61951">
        <ele>446</ele>
        <time>2012-05-05T08:36:10Z</time>
      </trkpt>
      <trkpt lat="45.67124" lon="4.61984">
        <ele>447</ele>
        <time>2012-05-05T08:36:17Z</time>
      </trkpt>
      <trkpt lat="45.67119" lon="4.62017">
        <ele>448</ele>
        <time>2012-05-05T08:36:24Z</time>
      </trkpt>
      <trkpt lat="45.67105" lon="4.62049">
        <ele>448</ele>
        <time>2012-05-05T08:36:32Z</time>
      </trkpt>
      <trkpt lat="45.67087" lon="4.6207">
        <ele>449</ele>
        <time>2012-05-05T08:36:39Z</time>
      </trkpt>
      <trkpt lat="45.67067" lon="4.6209">
        <ele>450</ele>
        <time>2012-05-05T08:36:46Z</time>
      </trkpt>
      <trkpt lat="45.67049" lon="4.62109">
        <ele>451</ele>
        <time>2012-05-05T08:36:53Z</time>
      </trkpt>
      <trkpt lat="45.67045" lon="4.62116">
        <ele>451</ele>
        <time>2012-05-05T08:36:55Z</time>
      </trkpt>
      <trkpt lat="45.67032" lon="4.62133">
        <ele>451</ele>
        <time>2012-05-05T08:37:01Z</time>
      </trkpt>
      <trkpt lat="45.67017" lon="4.62158">
        <ele>452</ele>
        <time>2012-05-05T08:37:08Z</time>
      </trkpt>
      <trkpt lat="45.67007" lon="4.62181">
        <ele>453</ele>
        <time>2012-05-05T08:37:14Z</time>
      </trkpt>
      <trkpt lat="45.67003" lon="4.62203">
        <ele>454</ele>
        <time>2012-05-05T08:37:19Z</time>
      </trkpt>
      <trkpt lat="45.66997" lon="4.62228">
        <ele>454</ele>
        <time>2012-05-05T08:37:25Z</time>
      </trkpt>
      <trkpt lat="45.66996" lon="4.62233">
        <ele>454</ele>
        <time>2012-05-05T08:37:26Z</time>
      </trkpt>
      <trkpt lat="45.66996" lon="4.62237">
        <ele>454</ele>
        <time>2012-05-05T08:37:27Z</time>
      </trkpt>
      <trkpt lat="45.66997" lon="4.62239">
        <ele>455</ele>
        <time>2012-05-05T08:37:28Z</time>
      </trkpt>
      <trkpt lat="45.66997" lon="4.62243">
        <ele>455</ele>
        <time>2012-05-05T08:37:29Z</time>
      </trkpt>
      <trkpt lat="45.66996" lon="4.62247">
        <ele>455</ele>
        <time>2012-05-05T08:37:30Z</time>
      </trkpt>
      <trkpt lat="45.66994" lon="4.62252">
        <ele>455</ele>
        <time>2012-05-05T08:37:31Z</time>
      </trkpt>
      <trkpt lat="45.66984" lon="4.62272">
        <ele>456</ele>
        <time>2012-05-05T08:37:37Z</time>
      </trkpt>
      <trkpt lat="45.66983" lon="4.62275">
        <ele>456</ele>
        <time>2012-05-05T08:37:38Z</time>
      </trkpt>
      <trkpt lat="45.66983" lon="4.62277">
        <ele>457</ele>
        <time>2012-05-05T08:37:39Z</time>
      </trkpt>
      <trkpt lat="45.66982" lon="4.6228">
        <ele>457</ele>
        <time>2012-05-05T08:37:40Z</time>
      </trkpt>
      <trkpt lat="45.66981" lon="4.62282">
        <ele>457</ele>
        <time>2012-05-05T08:37:41Z</time>
      </trkpt>
      <trkpt lat="45.6698" lon="4.62284">
        <ele>457</ele>
        <time>2012-05-05T08:37:42Z</time>
      </trkpt>
      <trkpt lat="45.66978" lon="4.62286">
        <ele>457</ele>
        <time>2012-05-05T08:37:43Z</time>
      </trkpt>
      <trkpt lat="45.66969" lon="4.62296">
        <ele>458</ele>
        <time>2012-05-05T08:37:48Z</time>
      </trkpt>
      <trkpt lat="45.66965" lon="4.62299">
        <ele>458</ele>
        <time>2012-05-05T08:37:50Z</time>
      </trkpt>
      <trkpt lat="45.66963" lon="4.623">
        <ele>458</ele>
        <time>2012-05-05T08:37:51Z</time>
      </trkpt>
      <trkpt lat="45.66961" lon="4.62302">
        <ele>458</ele>
        <time>2012-05-05T08:37:52Z</time>
      </trkpt>
      <trkpt lat="45.66948" lon="4.62311">
        <ele>458</ele>
        <time>2012-05-05T08:37:57Z</time>
      </trkpt>
      <trkpt lat="45.66945" lon="4.62312">
        <ele>458</ele>
        <time>2012-05-05T08:37:58Z</time>
      </trkpt>
      <trkpt lat="45.66935" lon="4.62322">
        <ele>459</ele>
        <time>2012-05-05T08:38:02Z</time>
      </trkpt>
      <trkpt lat="45.66925" lon="4.62332">
        <ele>459</ele>
        <time>2012-05-05T08:38:06Z</time>
      </trkpt>
      <trkpt lat="45.66919" lon="4.62342">
        <ele>459</ele>
        <time>2012-05-05T08:38:11Z</time>
      </trkpt>
      <trkpt lat="45.6691" lon="4.62361">
        <ele>459</ele>
        <time>2012-05-05T08:38:16Z</time>
      </trkpt>
      <trkpt lat="45.66903" lon="4.62386">
        <ele>459</ele>
        <time>2012-05-05T08:38:21Z</time>
      </trkpt>
      <trkpt lat="45.66902" lon="4.62391">
        <ele>459</ele>
        <time>2012-05-05T08:38:22Z</time>
      </trkpt>
      <trkpt lat="45.66901" lon="4.62427">
        <ele>460</ele>
        <time>2012-05-05T08:38:28Z</time>
      </trkpt>
      <trkpt lat="45.66905" lon="4.62453">
        <ele>459</ele>
        <time>2012-05-05T08:38:33Z</time>
      </trkpt>
      <trkpt lat="45.66916" lon="4.62485">
        <ele>460</ele>
        <time>2012-05-05T08:38:39Z</time>
      </trkpt>
      <trkpt lat="45.66918" lon="4.62489">
        <ele>460</ele>
        <time>2012-05-05T08:38:40Z</time>
      </trkpt>
      <trkpt lat="45.66926" lon="4.62499">
        <ele>460</ele>
        <time>2012-05-05T08:38:43Z</time>
      </trkpt>
      <trkpt lat="45.6693" lon="4.62522">
        <ele>460</ele>
        <time>2012-05-05T08:38:48Z</time>
      </trkpt>
      <trkpt lat="45.66939" lon="4.62553">
        <ele>461</ele>
        <time>2012-05-05T08:38:54Z</time>
      </trkpt>
      <trkpt lat="45.66945" lon="4.62577">
        <ele>462</ele>
        <time>2012-05-05T08:38:59Z</time>
      </trkpt>
      <trkpt lat="45.66948" lon="4.62608">
        <ele>463</ele>
        <time>2012-05-05T08:39:05Z</time>
      </trkpt>
      <trkpt lat="45.66949" lon="4.62635">
        <ele>463</ele>
        <time>2012-05-05T08:39:11Z</time>
      </trkpt>
      <trkpt lat="45.66947" lon="4.62658">
        <ele>464</ele>
        <time>2012-05-05T08:39:16Z</time>
      </trkpt>
      <trkpt lat="45.66945" lon="4.62672">
        <ele>464</ele>
        <time>2012-05-05T08:39:19Z</time>
      </trkpt>
      <trkpt lat="45.66945" lon="4.62677">
        <ele>464</ele>
        <time>2012-05-05T08:39:20Z</time>
      </trkpt>
      <trkpt lat="45.66945" lon="4.62681">
        <ele>464</ele>
        <time>2012-05-05T08:39:21Z</time>
      </trkpt>
      <trkpt lat="45.66939" lon="4.62713">
        <ele>465</ele>
        <time>2012-05-05T08:39:28Z</time>
      </trkpt>
      <trkpt lat="45.66932" lon="4.62731">
        <ele>466</ele>
        <time>2012-05-05T08:39:33Z</time>
      </trkpt>
      <trkpt lat="45.66931" lon="4.62735">
        <ele>466</ele>
        <time>2012-05-05T08:39:34Z</time>
      </trkpt>
      <trkpt lat="45.66929" lon="4.62738">
        <ele>467</ele>
        <time>2012-05-05T08:39:35Z</time>
      </trkpt>
      <trkpt lat="45.66928" lon="4.62741">
        <ele>467</ele>
        <time>2012-05-05T08:39:36Z</time>
      </trkpt>
      <trkpt lat="45.66926" lon="4.62744">
        <ele>467</ele>
        <time>2012-05-05T08:39:37Z</time>
      </trkpt>
      <trkpt lat="45.66924" lon="4.62747">
        <ele>467</ele>
        <time>2012-05-05T08:39:38Z</time>
      </trkpt>
      <trkpt lat="45.66912" lon="4.62765">
        <ele>468</ele>
        <time>2012-05-05T08:39:44Z</time>
      </trkpt>
      <trkpt lat="45.66893" lon="4.62793">
        <ele>468</ele>
        <time>2012-05-05T08:39:52Z</time>
      </trkpt>
      <trkpt lat="45.66885" lon="4.62809">
        <ele>469</ele>
        <time>2012-05-05T08:39:56Z</time>
      </trkpt>
      <trkpt lat="45.66877" lon="4.62841">
        <ele>470</ele>
        <time>2012-05-05T08:40:03Z</time>
      </trkpt>
      <trkpt lat="45.66877" lon="4.62863">
        <ele>471</ele>
        <time>2012-05-05T08:40:08Z</time>
      </trkpt>
      <trkpt lat="45.66878" lon="4.62867">
        <ele>471</ele>
        <time>2012-05-05T08:40:09Z</time>
      </trkpt>
      <trkpt lat="45.66879" lon="4.62871">
        <ele>471</ele>
        <time>2012-05-05T08:40:10Z</time>
      </trkpt>
      <trkpt lat="45.66879" lon="4.62875">
        <ele>471</ele>
        <time>2012-05-05T08:40:11Z</time>
      </trkpt>
      <trkpt lat="45.6688" lon="4.62879">
        <ele>471</ele>
        <time>2012-05-05T08:40:12Z</time>
      </trkpt>
      <trkpt lat="45.66882" lon="4.629">
        <ele>472</ele>
        <time>2012-05-05T08:40:18Z</time>
      </trkpt>
      <trkpt lat="45.66884" lon="4.6292">
        <ele>472</ele>
        <time>2012-05-05T08:40:23Z</time>
      </trkpt>
      <trkpt lat="45.66885" lon="4.62954">
        <ele>473</ele>
        <time>2012-05-05T08:40:30Z</time>
      </trkpt>
      <trkpt lat="45.66883" lon="4.62974">
        <ele>474</ele>
        <time>2012-05-05T08:40:35Z</time>
      </trkpt>
      <trkpt lat="45.6688" lon="4.63001">
        <ele>475</ele>
        <time>2012-05-05T08:40:42Z</time>
      </trkpt>
      <trkpt lat="45.6688" lon="4.63007">
        <ele>475</ele>
        <time>2012-05-05T08:40:45Z</time>
      </trkpt>
      <trkpt lat="45.66882" lon="4.63008">
        <ele>475</ele>
        <time>2012-05-05T08:40:46Z</time>
      </trkpt>
      <trkpt lat="45.66883" lon="4.6301">
        <ele>475</ele>
        <time>2012-05-05T08:40:47Z</time>
      </trkpt>
      <trkpt lat="45.66887" lon="4.63023">
        <ele>474</ele>
        <time>2012-05-05T08:40:50Z</time>
      </trkpt>
      <trkpt lat="45.66888" lon="4.63029">
        <ele>474</ele>
        <time>2012-05-05T08:40:51Z</time>
      </trkpt>
      <trkpt lat="45.6689" lon="4.63035">
        <ele>473</ele>
        <time>2012-05-05T08:40:52Z</time>
      </trkpt>
      <trkpt lat="45.66892" lon="4.63041">
        <ele>473</ele>
        <time>2012-05-05T08:40:53Z</time>
      </trkpt>
      <trkpt lat="45.66894" lon="4.63047">
        <ele>473</ele>
        <time>2012-05-05T08:40:54Z</time>
      </trkpt>
      <trkpt lat="45.66894" lon="4.63052">
        <ele>472</ele>
        <time>2012-05-05T08:40:55Z</time>
      </trkpt>
      <trkpt lat="45.66892" lon="4.63055">
        <ele>472</ele>
        <time>2012-05-05T08:40:56Z</time>
      </trkpt>
      <trkpt lat="45.6689" lon="4.63057">
        <ele>472</ele>
        <time>2012-05-05T08:40:57Z</time>
      </trkpt>
      <trkpt lat="45.66888" lon="4.63058">
        <ele>472</ele>
        <time>2012-05-05T08:40:58Z</time>
      </trkpt>
      <trkpt lat="45.66886" lon="4.63059">
        <ele>472</ele>
        <time>2012-05-05T08:40:59Z</time>
      </trkpt>
      <trkpt lat="45.66867" lon="4.63065">
        <ele>472</ele>
        <time>2012-05-05T08:41:05Z</time>
      </trkpt>
      <trkpt lat="45.6684" lon="4.6307">
        <ele>474</ele>
        <time>2012-05-05T08:41:13Z</time>
      </trkpt>
      <trkpt lat="45.66816" lon="4.63069">
        <ele>474</ele>
        <time>2012-05-05T08:41:20Z</time>
      </trkpt>
      <trkpt lat="45.66784" lon="4.63065">
        <ele>475</ele>
        <time>2012-05-05T08:41:29Z</time>
      </trkpt>
      <trkpt lat="45.6676" lon="4.63071">
        <ele>474</ele>
        <time>2012-05-05T08:41:36Z</time>
      </trkpt>
      <trkpt lat="45.66755" lon="4.63074">
        <ele>474</ele>
        <time>2012-05-05T08:41:37Z</time>
      </trkpt>
      <trkpt lat="45.6675" lon="4.63078">
        <ele>474</ele>
        <time>2012-05-05T08:41:38Z</time>
      </trkpt>
      <trkpt lat="45.66744" lon="4.63082">
        <ele>473</ele>
        <time>2012-05-05T08:41:39Z</time>
      </trkpt>
      <trkpt lat="45.66728" lon="4.63096">
        <ele>472</ele>
        <time>2012-05-05T08:41:42Z</time>
      </trkpt>
      <trkpt lat="45.66723" lon="4.63102">
        <ele>472</ele>
        <time>2012-05-05T08:41:43Z</time>
      </trkpt>
      <trkpt lat="45.66717" lon="4.63106">
        <ele>472</ele>
        <time>2012-05-05T08:41:44Z</time>
      </trkpt>
      <trkpt lat="45.6671" lon="4.63108">
        <ele>471</ele>
        <time>2012-05-05T08:41:45Z</time>
      </trkpt>
      <trkpt lat="45.66704" lon="4.63106">
        <ele>470</ele>
        <time>2012-05-05T08:41:46Z</time>
      </trkpt>
      <trkpt lat="45.667" lon="4.63103">
        <ele>469</ele>
        <time>2012-05-05T08:41:47Z</time>
      </trkpt>
      <trkpt lat="45.66696" lon="4.63102">
        <ele>469</ele>
        <time>2012-05-05T08:41:48Z</time>
      </trkpt>
      <trkpt lat="45.66693" lon="4.63102">
        <ele>468</ele>
        <time>2012-05-05T08:41:49Z</time>
      </trkpt>
      <trkpt lat="45.6669" lon="4.63101">
        <ele>467</ele>
        <time>2012-05-05T08:41:50Z</time>
      </trkpt>
      <trkpt lat="45.66682" lon="4.63101">
        <ele>466</ele>
        <time>2012-05-05T08:41:52Z</time>
      </trkpt>
      <trkpt lat="45.66672" lon="4.631">
        <ele>465</ele>
        <time>2012-05-05T08:41:54Z</time>
      </trkpt>
      <trkpt lat="45.66666" lon="4.63101">
        <ele>463</ele>
        <time>2012-05-05T08:41:55Z</time>
      </trkpt>
      <trkpt lat="45.6666" lon="4.63103">
        <ele>463</ele>
        <time>2012-05-05T08:41:56Z</time>
      </trkpt>
      <trkpt lat="45.66647" lon="4.6311">
        <ele>462</ele>
        <time>2012-05-05T08:41:58Z</time>
      </trkpt>
      <trkpt lat="45.66634" lon="4.63119">
        <ele>461</ele>
        <time>2012-05-05T08:42:00Z</time>
      </trkpt>
      <trkpt lat="45.66622" lon="4.63127">
        <ele>459</ele>
        <time>2012-05-05T08:42:02Z</time>
      </trkpt>
      <trkpt lat="45.66615" lon="4.6313">
        <ele>460</ele>
        <time>2012-05-05T08:42:03Z</time>
      </trkpt>
      <trkpt lat="45.66609" lon="4.63132">
        <ele>460</ele>
        <time>2012-05-05T08:42:04Z</time>
      </trkpt>
      <trkpt lat="45.66603" lon="4.63134">
        <ele>459</ele>
        <time>2012-05-05T08:42:05Z</time>
      </trkpt>
      <trkpt lat="45.66596" lon="4.63137">
        <ele>458</ele>
        <time>2012-05-05T08:42:06Z</time>
      </trkpt>
      <trkpt lat="45.66589" lon="4.63139">
        <ele>457</ele>
        <time>2012-05-05T08:42:07Z</time>
      </trkpt>
      <trkpt lat="45.6656" lon="4.63152">
        <ele>453</ele>
        <time>2012-05-05T08:42:11Z</time>
      </trkpt>
      <trkpt lat="45.66552" lon="4.63156">
        <ele>453</ele>
        <time>2012-05-05T08:42:12Z</time>
      </trkpt>
      <trkpt lat="45.66529" lon="4.63164">
        <ele>451</ele>
        <time>2012-05-05T08:42:15Z</time>
      </trkpt>
      <trkpt lat="45.6652" lon="4.63163">
        <ele>451</ele>
        <time>2012-05-05T08:42:16Z</time>
      </trkpt>
      <trkpt lat="45.66512" lon="4.63162">
        <ele>451</ele>
        <time>2012-05-05T08:42:17Z</time>
      </trkpt>
      <trkpt lat="45.66496" lon="4.63159">
        <ele>450</ele>
        <time>2012-05-05T08:42:19Z</time>
      </trkpt>
      <trkpt lat="45.66489" lon="4.63158">
        <ele>449</ele>
        <time>2012-05-05T08:42:20Z</time>
      </trkpt>
      <trkpt lat="45.66481" lon="4.63156">
        <ele>448</ele>
        <time>2012-05-05T08:42:21Z</time>
      </trkpt>
      <trkpt lat="45.66473" lon="4.63156">
        <ele>448</ele>
        <time>2012-05-05T08:42:22Z</time>
      </trkpt>
      <trkpt lat="45.66465" lon="4.63156">
        <ele>447</ele>
        <time>2012-05-05T08:42:23Z</time>
      </trkpt>
      <trkpt lat="45.66446" lon="4.63155">
        <ele>445</ele>
        <time>2012-05-05T08:42:26Z</time>
      </trkpt>
      <trkpt lat="45.6644" lon="4.63157">
        <ele>444</ele>
        <time>2012-05-05T08:42:27Z</time>
      </trkpt>
      <trkpt lat="45.66434" lon="4.63163">
        <ele>443</ele>
        <time>2012-05-05T08:42:28Z</time>
      </trkpt>
      <trkpt lat="45.6643" lon="4.6317">
        <ele>443</ele>
        <time>2012-05-05T08:42:29Z</time>
      </trkpt>
      <trkpt lat="45.66426" lon="4.63176">
        <ele>441</ele>
        <time>2012-05-05T08:42:30Z</time>
      </trkpt>
      <trkpt lat="45.66423" lon="4.6318">
        <ele>441</ele>
        <time>2012-05-05T08:42:31Z</time>
      </trkpt>
      <trkpt lat="45.66418" lon="4.63181">
        <ele>440</ele>
        <time>2012-05-05T08:42:32Z</time>
      </trkpt>
      <trkpt lat="45.66413" lon="4.63178">
        <ele>440</ele>
        <time>2012-05-05T08:42:33Z</time>
      </trkpt>
      <trkpt lat="45.66409" lon="4.63172">
        <ele>439</ele>
        <time>2012-05-05T08:42:34Z</time>
      </trkpt>
      <trkpt lat="45.66405" lon="4.63166">
        <ele>438</ele>
        <time>2012-05-05T08:42:35Z</time>
      </trkpt>
      <trkpt lat="45.66401" lon="4.63162">
        <ele>438</ele>
        <time>2012-05-05T08:42:36Z</time>
      </trkpt>
      <trkpt lat="45.66395" lon="4.63163">
        <ele>437</ele>
        <time>2012-05-05T08:42:37Z</time>
      </trkpt>
      <trkpt lat="45.6639" lon="4.63167">
        <ele>437</ele>
        <time>2012-05-05T08:42:38Z</time>
      </trkpt>
      <trkpt lat="45.66384" lon="4.63174">
        <ele>435</ele>
        <time>2012-05-05T08:42:39Z</time>
      </trkpt>
      <trkpt lat="45.66363" lon="4.63196">
        <ele>432</ele>
        <time>2012-05-05T08:42:42Z</time>
      </trkpt>
      <trkpt lat="45.6636" lon="4.63206">
        <ele>432</ele>
        <time>2012-05-05T08:42:43Z</time>
      </trkpt>
      <trkpt lat="45.66358" lon="4.63216">
        <ele>432</ele>
        <time>2012-05-05T08:42:44Z</time>
      </trkpt>
      <trkpt lat="45.66357" lon="4.63241">
        <ele>434</ele>
        <time>2012-05-05T08:42:47Z</time>
      </trkpt>
      <trkpt lat="45.66356" lon="4.63246">
        <ele>434</ele>
        <time>2012-05-05T08:42:48Z</time>
      </trkpt>
      <trkpt lat="45.66353" lon="4.63276">
        <ele>436</ele>
        <time>2012-05-05T08:42:55Z</time>
      </trkpt>
      <trkpt lat="45.66347" lon="4.63314">
        <ele>438</ele>
        <time>2012-05-05T08:43:03Z</time>
      </trkpt>
      <trkpt lat="45.66342" lon="4.63354">
        <ele>439</ele>
        <time>2012-05-05T08:43:12Z</time>
      </trkpt>
      <trkpt lat="45.66338" lon="4.63386">
        <ele>439</ele>
        <time>2012-05-05T08:43:19Z</time>
      </trkpt>
      <trkpt lat="45.66333" lon="4.63429">
        <ele>440</ele>
        <time>2012-05-05T08:43:27Z</time>
      </trkpt>
      <trkpt lat="45.6634" lon="4.63465">
        <ele>440</ele>
        <time>2012-05-05T08:43:34Z</time>
      </trkpt>
      <trkpt lat="45.66348" lon="4.63512">
        <ele>442</ele>
        <time>2012-05-05T08:43:44Z</time>
      </trkpt>
      <trkpt lat="45.66356" lon="4.63546">
        <ele>443</ele>
        <time>2012-05-05T08:43:52Z</time>
      </trkpt>
      <trkpt lat="45.66362" lon="4.6357">
        <ele>445</ele>
        <time>2012-05-05T08:43:59Z</time>
      </trkpt>
      <trkpt lat="45.66367" lon="4.63607">
        <ele>448</ele>
        <time>2012-05-05T08:44:10Z</time>
      </trkpt>
      <trkpt lat="45.66362" lon="4.63632">
        <ele>449</ele>
        <time>2012-05-05T08:44:18Z</time>
      </trkpt>
      <trkpt lat="45.66362" lon="4.63634">
        <ele>449</ele>
        <time>2012-05-05T08:44:19Z</time>
      </trkpt>
      <trkpt lat="45.66363" lon="4.63637">
        <ele>449</ele>
        <time>2012-05-05T08:44:25Z</time>
      </trkpt>
      <trkpt lat="45.66363" lon="4.63637">
        <ele>449</ele>
        <time>2012-05-05T08:44:42Z</time>
      </trkpt>
      <trkpt lat="45.66361" lon="4.63643">
        <ele>449</ele>
        <time>2012-05-05T08:44:48Z</time>
      </trkpt>
      <trkpt lat="45.66361" lon="4.63645">
        <ele>449</ele>
        <time>2012-05-05T08:44:49Z</time>
      </trkpt>
      <trkpt lat="45.66363" lon="4.63648">
        <ele>449</ele>
        <time>2012-05-05T08:44:50Z</time>
      </trkpt>
      <trkpt lat="45.66366" lon="4.6365">
        <ele>449</ele>
        <time>2012-05-05T08:44:51Z</time>
      </trkpt>
      <trkpt lat="45.66369" lon="4.63653">
        <ele>448</ele>
        <time>2012-05-05T08:44:52Z</time>
      </trkpt>
      <trkpt lat="45.66373" lon="4.63657">
        <ele>448</ele>
        <time>2012-05-05T08:44:53Z</time>
      </trkpt>
      <trkpt lat="45.66392" lon="4.63674">
        <ele>446</ele>
        <time>2012-05-05T08:44:57Z</time>
      </trkpt>
      <trkpt lat="45.66399" lon="4.63682">
        <ele>446</ele>
        <time>2012-05-05T08:44:59Z</time>
      </trkpt>
      <trkpt lat="45.66403" lon="4.63684">
        <ele>446</ele>
        <time>2012-05-05T08:45:00Z</time>
      </trkpt>
      <trkpt lat="45.66407" lon="4.63685">
        <ele>445</ele>
        <time>2012-05-05T08:45:01Z</time>
      </trkpt>
      <trkpt lat="45.66412" lon="4.63686">
        <ele>445</ele>
        <time>2012-05-05T08:45:02Z</time>
      </trkpt>
      <trkpt lat="45.66418" lon="4.63687">
        <ele>445</ele>
        <time>2012-05-05T08:45:03Z</time>
      </trkpt>
      <trkpt lat="45.66424" lon="4.63688">
        <ele>444</ele>
        <time>2012-05-05T08:45:04Z</time>
      </trkpt>
      <trkpt lat="45.6643" lon="4.6369">
        <ele>444</ele>
        <time>2012-05-05T08:45:05Z</time>
      </trkpt>
      <trkpt lat="45.6645" lon="4.637">
        <ele>442</ele>
        <time>2012-05-05T08:45:08Z</time>
      </trkpt>
      <trkpt lat="45.66476" lon="4.63722">
        <ele>440</ele>
        <time>2012-05-05T08:45:12Z</time>
      </trkpt>
      <trkpt lat="45.66488" lon="4.63736">
        <ele>439</ele>
        <time>2012-05-05T08:45:14Z</time>
      </trkpt>
      <trkpt lat="45.66493" lon="4.63745">
        <ele>438</ele>
        <time>2012-05-05T08:45:15Z</time>
      </trkpt>
      <trkpt lat="45.66498" lon="4.63754">
        <ele>438</ele>
        <time>2012-05-05T08:45:16Z</time>
      </trkpt>
      <trkpt lat="45.66502" lon="4.63764">
        <ele>438</ele>
        <time>2012-05-05T08:45:17Z</time>
      </trkpt>
      <trkpt lat="45.66506" lon="4.63775">
        <ele>437</ele>
        <time>2012-05-05T08:45:18Z</time>
      </trkpt>
      <trkpt lat="45.66509" lon="4.63786">
        <ele>437</ele>
        <time>2012-05-05T08:45:19Z</time>
      </trkpt>
      <trkpt lat="45.66521" lon="4.63833">
        <ele>434</ele>
        <time>2012-05-05T08:45:23Z</time>
      </trkpt>
      <trkpt lat="45.66532" lon="4.63881">
        <ele>432</ele>
        <time>2012-05-05T08:45:27Z</time>
      </trkpt>
      <trkpt lat="45.66535" lon="4.6389">
        <ele>432</ele>
        <time>2012-05-05T08:45:28Z</time>
      </trkpt>
      <trkpt lat="45.6654" lon="4.63896">
        <ele>431</ele>
        <time>2012-05-05T08:45:29Z</time>
      </trkpt>
      <trkpt lat="45.66546" lon="4.63901">
        <ele>431</ele>
        <time>2012-05-05T08:45:30Z</time>
      </trkpt>
      <trkpt lat="45.66601" lon="4.6393">
        <ele>428</ele>
        <time>2012-05-05T08:45:38Z</time>
      </trkpt>
      <trkpt lat="45.66647" lon="4.63953">
        <ele>426</ele>
        <time>2012-05-05T08:45:45Z</time>
      </trkpt>
      <trkpt lat="45.6671" lon="4.63987">
        <ele>424</ele>
        <time>2012-05-05T08:45:55Z</time>
      </trkpt>
      <trkpt lat="45.66754" lon="4.64014">
        <ele>421</ele>
        <time>2012-05-05T08:46:02Z</time>
      </trkpt>
      <trkpt lat="45.66782" lon="4.64037">
        <ele>421</ele>
        <time>2012-05-05T08:46:07Z</time>
      </trkpt>
      <trkpt lat="45.66787" lon="4.64042">
        <ele>421</ele>
        <time>2012-05-05T08:46:08Z</time>
      </trkpt>
      <trkpt lat="45.66791" lon="4.64048">
        <ele>420</ele>
        <time>2012-05-05T08:46:09Z</time>
      </trkpt>
      <trkpt lat="45.66825" lon="4.64095">
        <ele>417</ele>
        <time>2012-05-05T08:46:16Z</time>
      </trkpt>
      <trkpt lat="45.6683" lon="4.64102">
        <ele>417</ele>
        <time>2012-05-05T08:46:17Z</time>
      </trkpt>
      <trkpt lat="45.66836" lon="4.64109">
        <ele>417</ele>
        <time>2012-05-05T08:46:18Z</time>
      </trkpt>
      <trkpt lat="45.66841" lon="4.64117">
        <ele>416</ele>
        <time>2012-05-05T08:46:19Z</time>
      </trkpt>
      <trkpt lat="45.66845" lon="4.64124">
        <ele>416</ele>
        <time>2012-05-05T08:46:20Z</time>
      </trkpt>
      <trkpt lat="45.66846" lon="4.64129">
        <ele>415</ele>
        <time>2012-05-05T08:46:21Z</time>
      </trkpt>
      <trkpt lat="45.66846" lon="4.64132">
        <ele>415</ele>
        <time>2012-05-05T08:46:22Z</time>
      </trkpt>
      <trkpt lat="45.66846" lon="4.64134">
        <ele>415</ele>
        <time>2012-05-05T08:46:23Z</time>
      </trkpt>
      <trkpt lat="45.66846" lon="4.64136">
        <ele>415</ele>
        <time>2012-05-05T08:46:24Z</time>
      </trkpt>
      <trkpt lat="45.66847" lon="4.64137">
        <ele>414</ele>
        <time>2012-05-05T08:46:25Z</time>
      </trkpt>
      <trkpt lat="45.66848" lon="4.64136">
        <ele>415</ele>
        <time>2012-05-05T08:46:26Z</time>
      </trkpt>
      <trkpt lat="45.66847" lon="4.6413">
        <ele>415</ele>
        <time>2012-05-05T08:46:29Z</time>
      </trkpt>
      <trkpt lat="45.66846" lon="4.64122">
        <ele>414</ele>
        <time>2012-05-05T08:46:34Z</time>
      </trkpt>
      <trkpt lat="45.66848" lon="4.6412">
        <ele>414</ele>
        <time>2012-05-05T08:46:35Z</time>
      </trkpt>
      <trkpt lat="45.66858" lon="4.64111">
        <ele>414</ele>
        <time>2012-05-05T08:46:38Z</time>
      </trkpt>
      <trkpt lat="45.66863" lon="4.64109">
        <ele>413</ele>
        <time>2012-05-05T08:46:39Z</time>
      </trkpt>
      <trkpt lat="45.6687" lon="4.64108">
        <ele>412</ele>
        <time>2012-05-05T08:46:40Z</time>
      </trkpt>
      <trkpt lat="45.66876" lon="4.64108">
        <ele>411</ele>
        <time>2012-05-05T08:46:41Z</time>
      </trkpt>
      <trkpt lat="45.66882" lon="4.64109">
        <ele>411</ele>
        <time>2012-05-05T08:46:42Z</time>
      </trkpt>
      <trkpt lat="45.66889" lon="4.64111">
        <ele>409</ele>
        <time>2012-05-05T08:46:43Z</time>
      </trkpt>
      <trkpt lat="45.66896" lon="4.64112">
        <ele>408</ele>
        <time>2012-05-05T08:46:44Z</time>
      </trkpt>
      <trkpt lat="45.66904" lon="4.64112">
        <ele>407</ele>
        <time>2012-05-05T08:46:45Z</time>
      </trkpt>
      <trkpt lat="45.66921" lon="4.64113">
        <ele>404</ele>
        <time>2012-05-05T08:46:47Z</time>
      </trkpt>
      <trkpt lat="45.66931" lon="4.64116">
        <ele>402</ele>
        <time>2012-05-05T08:46:48Z</time>
      </trkpt>
      <trkpt lat="45.6695" lon="4.64123">
        <ele>400</ele>
        <time>2012-05-05T08:46:50Z</time>
      </trkpt>
      <trkpt lat="45.66959" lon="4.64125">
        <ele>397</ele>
        <time>2012-05-05T08:46:51Z</time>
      </trkpt>
      <trkpt lat="45.66969" lon="4.64125">
        <ele>395</ele>
        <time>2012-05-05T08:46:52Z</time>
      </trkpt>
      <trkpt lat="45.66978" lon="4.64124">
        <ele>393</ele>
        <time>2012-05-05T08:46:53Z</time>
      </trkpt>
      <trkpt lat="45.66986" lon="4.64123">
        <ele>391</ele>
        <time>2012-05-05T08:46:54Z</time>
      </trkpt>
      <trkpt lat="45.66994" lon="4.6412">
        <ele>389</ele>
        <time>2012-05-05T08:46:55Z</time>
      </trkpt>
      <trkpt lat="45.67001" lon="4.64118">
        <ele>388</ele>
        <time>2012-05-05T08:46:56Z</time>
      </trkpt>
      <trkpt lat="45.67009" lon="4.64118">
        <ele>386</ele>
        <time>2012-05-05T08:46:57Z</time>
      </trkpt>
      <trkpt lat="45.67016" lon="4.6412">
        <ele>385</ele>
        <time>2012-05-05T08:46:58Z</time>
      </trkpt>
      <trkpt lat="45.67021" lon="4.64123">
        <ele>383</ele>
        <time>2012-05-05T08:46:59Z</time>
      </trkpt>
      <trkpt lat="45.67026" lon="4.64126">
        <ele>382</ele>
        <time>2012-05-05T08:47:00Z</time>
      </trkpt>
      <trkpt lat="45.67031" lon="4.64128">
        <ele>380</ele>
        <time>2012-05-05T08:47:01Z</time>
      </trkpt>
      <trkpt lat="45.67036" lon="4.6413">
        <ele>380</ele>
        <time>2012-05-05T08:47:02Z</time>
      </trkpt>
      <trkpt lat="45.67051" lon="4.64135">
        <ele>377</ele>
        <time>2012-05-05T08:47:05Z</time>
      </trkpt>
      <trkpt lat="45.67054" lon="4.64135">
        <ele>377</ele>
        <time>2012-05-05T08:47:06Z</time>
      </trkpt>
      <trkpt lat="45.67056" lon="4.64133">
        <ele>377</ele>
        <time>2012-05-05T08:47:07Z</time>
      </trkpt>
      <trkpt lat="45.67057" lon="4.64128">
        <ele>376</ele>
        <time>2012-05-05T08:47:08Z</time>
      </trkpt>
      <trkpt lat="45.67056" lon="4.64122">
        <ele>375</ele>
        <time>2012-05-05T08:47:09Z</time>
      </trkpt>
      <trkpt lat="45.67054" lon="4.64116">
        <ele>374</ele>
        <time>2012-05-05T08:47:10Z</time>
      </trkpt>
      <trkpt lat="45.67052" lon="4.64108">
        <ele>373</ele>
        <time>2012-05-05T08:47:11Z</time>
      </trkpt>
      <trkpt lat="45.67053" lon="4.64102">
        <ele>372</ele>
        <time>2012-05-05T08:47:12Z</time>
      </trkpt>
      <trkpt lat="45.67056" lon="4.64098">
        <ele>371</ele>
        <time>2012-05-05T08:47:13Z</time>
      </trkpt>
      <trkpt lat="45.67059" lon="4.64097">
        <ele>370</ele>
        <time>2012-05-05T08:47:14Z</time>
      </trkpt>
      <trkpt lat="45.67061" lon="4.64098">
        <ele>370</ele>
        <time>2012-05-05T08:47:15Z</time>
      </trkpt>
      <trkpt lat="45.67062" lon="4.64099">
        <ele>369</ele>
        <time>2012-05-05T08:47:19Z</time>
      </trkpt>
      <trkpt lat="45.67062" lon="4.64099">
        <ele>370</ele>
        <time>2012-05-05T08:47:24Z</time>
      </trkpt>
      <trkpt lat="45.67063" lon="4.64097">
        <ele>370</ele>
        <time>2012-05-05T08:47:30Z</time>
      </trkpt>
      <trkpt lat="45.67065" lon="4.64097">
        <ele>370</ele>
        <time>2012-05-05T08:47:31Z</time>
      </trkpt>
      <trkpt lat="45.67072" lon="4.64098">
        <ele>369</ele>
        <time>2012-05-05T08:47:36Z</time>
      </trkpt>
      <trkpt lat="45.67086" lon="4.64099">
        <ele>369</ele>
        <time>2012-05-05T08:47:41Z</time>
      </trkpt>
      <trkpt lat="45.67104" lon="4.64099">
        <ele>370</ele>
        <time>2012-05-05T08:47:47Z</time>
      </trkpt>
      <trkpt lat="45.67124" lon="4.64103">
        <ele>370</ele>
        <time>2012-05-05T08:47:53Z</time>
      </trkpt>
      <trkpt lat="45.67146" lon="4.64106">
        <ele>371</ele>
        <time>2012-05-05T08:47:59Z</time>
      </trkpt>
      <trkpt lat="45.67174" lon="4.64121">
        <ele>372</ele>
        <time>2012-05-05T08:48:08Z</time>
      </trkpt>
      <trkpt lat="45.67189" lon="4.64119">
        <ele>373</ele>
        <time>2012-05-05T08:48:13Z</time>
      </trkpt>
      <trkpt lat="45.67202" lon="4.64125">
        <ele>372</ele>
        <time>2012-05-05T08:48:17Z</time>
      </trkpt>
      <trkpt lat="45.67211" lon="4.64131">
        <ele>371</ele>
        <time>2012-05-05T08:48:19Z</time>
      </trkpt>
      <trkpt lat="45.67219" lon="4.64138">
        <ele>371</ele>
        <time>2012-05-05T08:48:21Z</time>
      </trkpt>
      <trkpt lat="45.67223" lon="4.64144">
        <ele>372</ele>
        <time>2012-05-05T08:48:22Z</time>
      </trkpt>
      <trkpt lat="45.67248" lon="4.64186">
        <ele>368</ele>
        <time>2012-05-05T08:48:28Z</time>
      </trkpt>
      <trkpt lat="45.67287" lon="4.64225">
        <ele>366</ele>
        <time>2012-05-05T08:48:34Z</time>
      </trkpt>
      <trkpt lat="45.67294" lon="4.64229">
        <ele>365</ele>
        <time>2012-05-05T08:48:35Z</time>
      </trkpt>
      <trkpt lat="45.67343" lon="4.6425">
        <ele>365</ele>
        <time>2012-05-05T08:48:42Z</time>
      </trkpt>
      <trkpt lat="45.6738" lon="4.64256">
        <ele>364</ele>
        <time>2012-05-05T08:48:48Z</time>
      </trkpt>
      <trkpt lat="45.67386" lon="4.64255">
        <ele>365</ele>
        <time>2012-05-05T08:48:49Z</time>
      </trkpt>
      <trkpt lat="45.67401" lon="4.64252">
        <ele>364</ele>
        <time>2012-05-05T08:48:52Z</time>
      </trkpt>
      <trkpt lat="45.67418" lon="4.64252">
        <ele>364</ele>
        <time>2012-05-05T08:48:55Z</time>
      </trkpt>
      <trkpt lat="45.67423" lon="4.64253">
        <ele>364</ele>
        <time>2012-05-05T08:48:56Z</time>
      </trkpt>
      <trkpt lat="45.67428" lon="4.64255">
        <ele>364</ele>
        <time>2012-05-05T08:48:57Z</time>
      </trkpt>
      <trkpt lat="45.67433" lon="4.64257">
        <ele>364</ele>
        <time>2012-05-05T08:48:58Z</time>
      </trkpt>
      <trkpt lat="45.67437" lon="4.64259">
        <ele>364</ele>
        <time>2012-05-05T08:48:59Z</time>
      </trkpt>
      <trkpt lat="45.67461" lon="4.64267">
        <ele>363</ele>
        <time>2012-05-05T08:49:04Z</time>
      </trkpt>
      <trkpt lat="45.67465" lon="4.6427">
        <ele>363</ele>
        <time>2012-05-05T08:49:05Z</time>
      </trkpt>
      <trkpt lat="45.67468" lon="4.64271">
        <ele>363</ele>
        <time>2012-05-05T08:49:06Z</time>
      </trkpt>
      <trkpt lat="45.6747" lon="4.64269">
        <ele>363</ele>
        <time>2012-05-05T08:49:07Z</time>
      </trkpt>
      <trkpt lat="45.67472" lon="4.64266">
        <ele>363</ele>
        <time>2012-05-05T08:49:08Z</time>
      </trkpt>
      <trkpt lat="45.67474" lon="4.64262">
        <ele>363</ele>
        <time>2012-05-05T08:49:09Z</time>
      </trkpt>
      <trkpt lat="45.67479" lon="4.64251">
        <ele>364</ele>
        <time>2012-05-05T08:49:12Z</time>
      </trkpt>
      <trkpt lat="45.67482" lon="4.64251">
        <ele>364</ele>
        <time>2012-05-05T08:49:13Z</time>
      </trkpt>
      <trkpt lat="45.67484" lon="4.64253">
        <ele>364</ele>
        <time>2012-05-05T08:49:14Z</time>
      </trkpt>
      <trkpt lat="45.67487" lon="4.64255">
        <ele>364</ele>
        <time>2012-05-05T08:49:15Z</time>
      </trkpt>
      <trkpt lat="45.6749" lon="4.64257">
        <ele>365</ele>
        <time>2012-05-05T08:49:16Z</time>
      </trkpt>
      <trkpt lat="45.67493" lon="4.64259">
        <ele>365</ele>
        <time>2012-05-05T08:49:17Z</time>
      </trkpt>
      <trkpt lat="45.67501" lon="4.64264">
        <ele>365</ele>
        <time>2012-05-05T08:49:19Z</time>
      </trkpt>
      <trkpt lat="45.67505" lon="4.64266">
        <ele>364</ele>
        <time>2012-05-05T08:49:20Z</time>
      </trkpt>
      <trkpt lat="45.67538" lon="4.6427">
        <ele>364</ele>
        <time>2012-05-05T08:49:26Z</time>
      </trkpt>
      <trkpt lat="45.67544" lon="4.6427">
        <ele>364</ele>
        <time>2012-05-05T08:49:27Z</time>
      </trkpt>
      <trkpt lat="45.67582" lon="4.64269">
        <ele>363</ele>
        <time>2012-05-05T08:49:34Z</time>
      </trkpt>
      <trkpt lat="45.67594" lon="4.6427">
        <ele>363</ele>
        <time>2012-05-05T08:49:36Z</time>
      </trkpt>
      <trkpt lat="45.676" lon="4.64271">
        <ele>363</ele>
        <time>2012-05-05T08:49:37Z</time>
      </trkpt>
      <trkpt lat="45.67611" lon="4.64273">
        <ele>363</ele>
        <time>2012-05-05T08:49:39Z</time>
      </trkpt>
      <trkpt lat="45.67617" lon="4.64276">
        <ele>362</ele>
        <time>2012-05-05T08:49:40Z</time>
      </trkpt>
      <trkpt lat="45.67622" lon="4.64279">
        <ele>363</ele>
        <time>2012-05-05T08:49:41Z</time>
      </trkpt>
      <trkpt lat="45.67626" lon="4.64282">
        <ele>363</ele>
        <time>2012-05-05T08:49:42Z</time>
      </trkpt>
      <trkpt lat="45.6763" lon="4.64287">
        <ele>363</ele>
        <time>2012-05-05T08:49:43Z</time>
      </trkpt>
      <trkpt lat="45.67633" lon="4.64293">
        <ele>363</ele>
        <time>2012-05-05T08:49:44Z</time>
      </trkpt>
      <trkpt lat="45.67663" lon="4.6434">
        <ele>361</ele>
        <time>2012-05-05T08:49:51Z</time>
      </trkpt>
      <trkpt lat="45.6767" lon="4.64356">
        <ele>360</ele>
        <time>2012-05-05T08:49:53Z</time>
      </trkpt>
      <trkpt lat="45.67672" lon="4.64366">
        <ele>361</ele>
        <time>2012-05-05T08:49:54Z</time>
      </trkpt>
      <trkpt lat="45.67691" lon="4.64436">
        <ele>358</ele>
        <time>2012-05-05T08:50:02Z</time>
      </trkpt>
      <trkpt lat="45.67692" lon="4.64442">
        <ele>358</ele>
        <time>2012-05-05T08:50:04Z</time>
      </trkpt>
      <trkpt lat="45.67694" lon="4.64443">
        <ele>358</ele>
        <time>2012-05-05T08:50:05Z</time>
      </trkpt>
      <trkpt lat="45.67695" lon="4.64443">
        <ele>357</ele>
        <time>2012-05-05T08:50:06Z</time>
      </trkpt>
      <trkpt lat="45.67698" lon="4.64444">
        <ele>357</ele>
        <time>2012-05-05T08:50:07Z</time>
      </trkpt>
      <trkpt lat="45.67701" lon="4.64447">
        <ele>357</ele>
        <time>2012-05-05T08:50:08Z</time>
      </trkpt>
      <trkpt lat="45.67703" lon="4.64451">
        <ele>357</ele>
        <time>2012-05-05T08:50:09Z</time>
      </trkpt>
      <trkpt lat="45.67705" lon="4.64457">
        <ele>357</ele>
        <time>2012-05-05T08:50:10Z</time>
      </trkpt>
      <trkpt lat="45.67707" lon="4.64463">
        <ele>357</ele>
        <time>2012-05-05T08:50:11Z</time>
      </trkpt>
      <trkpt lat="45.67709" lon="4.6447">
        <ele>357</ele>
        <time>2012-05-05T08:50:12Z</time>
      </trkpt>
      <trkpt lat="45.67712" lon="4.64484">
        <ele>356</ele>
        <time>2012-05-05T08:50:14Z</time>
      </trkpt>
      <trkpt lat="45.67724" lon="4.64522">
        <ele>353</ele>
        <time>2012-05-05T08:50:18Z</time>
      </trkpt>
      <trkpt lat="45.67728" lon="4.64532">
        <ele>352</ele>
        <time>2012-05-05T08:50:19Z</time>
      </trkpt>
      <trkpt lat="45.67732" lon="4.64542">
        <ele>352</ele>
        <time>2012-05-05T08:50:20Z</time>
      </trkpt>
      <trkpt lat="45.67749" lon="4.64603">
        <ele>348</ele>
        <time>2012-05-05T08:50:25Z</time>
      </trkpt>
      <trkpt lat="45.6776" lon="4.64645">
        <ele>344</ele>
        <time>2012-05-05T08:50:28Z</time>
      </trkpt>
      <trkpt lat="45.67774" lon="4.64704">
        <ele>340</ele>
        <time>2012-05-05T08:50:32Z</time>
      </trkpt>
      <trkpt lat="45.67778" lon="4.64718">
        <ele>340</ele>
        <time>2012-05-05T08:50:33Z</time>
      </trkpt>
      <trkpt lat="45.67781" lon="4.64732">
        <ele>339</ele>
        <time>2012-05-05T08:50:34Z</time>
      </trkpt>
      <trkpt lat="45.67788" lon="4.6477">
        <ele>338</ele>
        <time>2012-05-05T08:50:37Z</time>
      </trkpt>
      <trkpt lat="45.6779" lon="4.6479">
        <ele>336</ele>
        <time>2012-05-05T08:50:39Z</time>
      </trkpt>
      <trkpt lat="45.67794" lon="4.648">
        <ele>335</ele>
        <time>2012-05-05T08:50:40Z</time>
      </trkpt>
      <trkpt lat="45.67805" lon="4.64827">
        <ele>330</ele>
        <time>2012-05-05T08:50:43Z</time>
      </trkpt>
      <trkpt lat="45.67808" lon="4.64834">
        <ele>330</ele>
        <time>2012-05-05T08:50:44Z</time>
      </trkpt>
      <trkpt lat="45.67809" lon="4.6484">
        <ele>328</ele>
        <time>2012-05-05T08:50:45Z</time>
      </trkpt>
      <trkpt lat="45.67809" lon="4.64843">
        <ele>328</ele>
        <time>2012-05-05T08:50:46Z</time>
      </trkpt>
      <trkpt lat="45.67809" lon="4.64846">
        <ele>327</ele>
        <time>2012-05-05T08:50:47Z</time>
      </trkpt>
      <trkpt lat="45.67809" lon="4.64847">
        <ele>327</ele>
        <time>2012-05-05T08:50:48Z</time>
      </trkpt>
      <trkpt lat="45.67809" lon="4.64848">
        <ele>326</ele>
        <time>2012-05-05T08:50:51Z</time>
      </trkpt>
      <trkpt lat="45.6781" lon="4.64851">
        <ele>327</ele>
        <time>2012-05-05T08:50:52Z</time>
      </trkpt>
      <trkpt lat="45.67812" lon="4.64855">
        <ele>326</ele>
        <time>2012-05-05T08:50:53Z</time>
      </trkpt>
      <trkpt lat="45.67816" lon="4.64858">
        <ele>326</ele>
        <time>2012-05-05T08:50:54Z</time>
      </trkpt>
      <trkpt lat="45.6782" lon="4.64861">
        <ele>326</ele>
        <time>2012-05-05T08:50:55Z</time>
      </trkpt>
      <trkpt lat="45.67833" lon="4.64872">
        <ele>326</ele>
        <time>2012-05-05T08:50:58Z</time>
      </trkpt>
      <trkpt lat="45.67841" lon="4.6488">
        <ele>326</ele>
        <time>2012-05-05T08:51:00Z</time>
      </trkpt>
      <trkpt lat="45.67854" lon="4.64889">
        <ele>326</ele>
        <time>2012-05-05T08:51:03Z</time>
      </trkpt>
      <trkpt lat="45.67862" lon="4.64898">
        <ele>325</ele>
        <time>2012-05-05T08:51:05Z</time>
      </trkpt>
      <trkpt lat="45.67865" lon="4.64903">
        <ele>325</ele>
        <time>2012-05-05T08:51:06Z</time>
      </trkpt>
      <trkpt lat="45.67867" lon="4.64908">
        <ele>325</ele>
        <time>2012-05-05T08:51:07Z</time>
      </trkpt>
      <trkpt lat="45.67867" lon="4.64913">
        <ele>325</ele>
        <time>2012-05-05T08:51:08Z</time>
      </trkpt>
      <trkpt lat="45.67865" lon="4.64916">
        <ele>325</ele>
        <time>2012-05-05T08:51:09Z</time>
      </trkpt>
      <trkpt lat="45.67864" lon="4.64918">
        <ele>325</ele>
        <time>2012-05-05T08:51:10Z</time>
      </trkpt>
      <trkpt lat="45.67863" lon="4.6492">
        <ele>325</ele>
        <time>2012-05-05T08:51:11Z</time>
      </trkpt>
      <trkpt lat="45.67862" lon="4.64921">
        <ele>325</ele>
        <time>2012-05-05T08:51:16Z</time>
      </trkpt>
      <trkpt lat="45.67862" lon="4.64922">
        <ele>319</ele>
        <time>2012-05-05T08:51:33Z</time>
      </trkpt>
    </trkseg>
  </trk>
</gpx>